# Wetter Temperatur Luftdruck Luftfeuchtigkeit Sichtweite Windgeschwindigkeit Windrichtung Zeit
1 Clouds 26 1017 74 16093 3.6 90 19:58 17.10.2019
2 Clouds 26 1017 74 16093 3.6 90 19:39 17.10.2019
3 Clouds 26 1017 69 16093 3.6 80 19:19 17.10.2019
4 Clouds 26 1017 69 16093 3.6 80 19:19 17.10.2019
5 Clouds 25 1016 74 16093 3.1 50 18:43 17.10.2019
6 Clouds 25 1016 74 16093 3.1 50 18:21 17.10.2019
7 Clouds 25 1016 69 16093 3.1 30 17:58 17.10.2019
8 Clouds 25 1016 69 16093 3.1 30 17:40 17.10.2019
9 Clouds 25 1016 69 16093 3.1 30 17:22 17.10.2019
10 Clouds 26 1016 74 16093 2.6 60 16:56 17.10.2019
11 Clouds 25 1016 74 16093 2.6 60 16:37 17.10.2019
12 Clouds 25 1016 74 16093 2.6 60 16:37 17.10.2019
13 Clouds 25 1016 74 16093 2.6 60 16:18 17.10.2019
14 Clouds 25 1015 74 16093 7.2 80 15:55 17.10.2019
15 Clouds 25 1015 74 16093 7.2 80 15:37 17.10.2019
16 Clouds 26 1016 69 16093 3.1 60 15:18 17.10.2019
17 Clouds 26 1016 65 16093 4.1 70 14:42 17.10.2019
18 Clouds 25 1016 65 16093 4.1 70 14:23 17.10.2019
19 Clouds 25 1016 65 16093 4.1 70 14:23 17.10.2019
20 Clouds 26 1017 65 16093 4.1 70 13:55 17.10.2019
21 Clouds 26 1017 65 16093 4.1 70 13:36 17.10.2019
22 Clouds 26 1017 65 16093 4.1 70 13:18 17.10.2019
23 Clouds 25 1017 69 16093 5.1 90 12:41 17.10.2019
24 Clouds 25 1017 69 16093 3.1 60 12:20 17.10.2019
25 Clouds 26 1018 88 16093 2.1 80 11:57 17.10.2019
26 Drizzle 26 1018 88 12874 4.6 70 11:39 17.10.2019
27 Drizzle 26 1018 88 12874 4.6 70 11:19 17.10.2019
28 Clouds 26 1017 65 16093 5.7 60 10:42 17.10.2019
29 Clouds 26 1017 65 16093 5.7 60 10:42 17.10.2019
30 Clouds 26 1017 65 16093 5.7 60 10:21 17.10.2019
31 Clouds 26 1017 65 16093 5.7 60 10:21 17.10.2019
32 Clouds 26 1018 83 16093 4.1 80 09:59 17.10.2019
33 Clouds 26 1018 83 16093 4.1 80 09:41 17.10.2019
34 Clouds 26 1018 83 16093 4.1 80 09:41 17.10.2019
35 Clouds 26 1017 65 16093 5.1 60 09:21 17.10.2019
36 Clouds 26 1017 83 16093 4.173 82 08:58 17.10.2019
37 Clouds 26 1017 83 16093 4.173 82 08:58 17.10.2019
38 Clouds 26 1017 83 16093 4.173 82 08:39 17.10.2019
39 Rain 26 1017 78 16093 4.173 82 08:19 17.10.2019
40 Clouds 26 1016 61 16093 5.1 50 07:50 17.10.2019
41 Clouds 26 1016 61 16093 5.1 50 07:21 17.10.2019
42 Clouds 26 1016 61 16093 5.1 50 07:21 17.10.2019
43 Clouds 26 1015 61 16093 6.7 50 06:59 17.10.2019
44 Clouds 26 1015 61 16093 6.7 50 06:39 17.10.2019
45 Clouds 27 1015 61 16093 6.7 50 06:20 17.10.2019
46 Clouds 27 1015 58 16093 3.1 0 05:46 17.10.2019
47 Clouds 27 1014 54 16093 8.2 40 05:28 17.10.2019
48 Clouds 28 1014 54 16093 6.2 60 04:50 17.10.2019
49 Rain 28 1014 61 16093 6.7 70 03:50 17.10.2019
50 Rain 27 1015 78 8047 4.1 50 02:35 17.10.2019
51 Rain 27 1017 94 6437 3.6 50 00:44 17.10.2019
52 Rain 27 1016 66 16093 5.7 40 00:22 17.10.2019
53 Clouds 27 1016 78 16093 4.6 60 23:59 16.10.2019
54 Clouds 27 1016 78 16093 4.6 60 23:41 16.10.2019
55 Rain 27 1017 74 16093 4.1 40 23:19 16.10.2019
56 Rain 27 1017 83 6437 5.1 60 22:55 16.10.2019
57 Rain 27 1017 83 6437 5.1 60 22:55 16.10.2019
58 Rain 27 1017 83 6437 5.1 60 22:36 16.10.2019
59 Rain 27 1017 83 6437 5.1 60 22:36 16.10.2019
60 Rain 27 1016 83 4828 6.7 60 22:18 16.10.2019
61 Rain 28 1017 65 16093 3.6 30 21:55 16.10.2019
62 Rain 28 1017 65 16093 3.6 30 21:54 16.10.2019
63 Rain 28 1017 65 16093 3.6 30 21:54 16.10.2019
64 Rain 28 1017 65 16093 3.6 30 21:54 16.10.2019
65 Rain 28 1017 65 16093 3.6 30 21:36 16.10.2019
66 Clouds 27 1017 83 16093 2.1 20 21:18 16.10.2019
67 Clouds 27 1016 69 16093 4.1 50 20:54 16.10.2019
68 Clouds 27 1016 69 16093 4.1 50 20:36 16.10.2019
69 Clouds 27 1016 69 16093 4.1 50 20:36 16.10.2019
70 Clouds 26 1016 69 16093 4.1 50 20:18 16.10.2019
71 Rain 26 1015 74 8047 1.5 80 19:40 16.10.2019
72 Clouds 25 1015 74 16093 3.6 50 19:21 16.10.2019
73 Clouds 25 1015 74 16093 3.6 50 19:21 16.10.2019
74 Clouds 24 1015 78 16093 2.1 350 18:57 16.10.2019
75 Clouds 24 1015 78 16093 2.1 350 18:57 16.10.2019
76 Clouds 24 1015 78 16093 2.1 350 18:56 16.10.2019
77 Clouds 24 1015 78 16093 2.1 350 18:37 16.10.2019
78 Clouds 24 1015 78 16093 2.1 350 18:18 16.10.2019
79 Clouds 24 1015 78 16093 2.1 350 18:18 16.10.2019
80 Clouds 23 1015 73 16093 1.206 61 17:55 16.10.2019
81 Clouds 23 1015 73 16093 1.206 61 17:36 16.10.2019
82 Clouds 25 1015 73 16093 1.206 61 17:18 16.10.2019
83 Clouds 25 1015 65 16093 1.206 61 16:43 16.10.2019
84 Clouds 25 1015 65 16093 1.206 61 16:22 16.10.2019
85 Clouds 25 1015 74 16093 3.1 70 15:59 16.10.2019
86 Clouds 25 1015 74 16093 3.1 70 15:39 16.10.2019
87 Clouds 25 1016 61 16093 1.5 20 15:19 16.10.2019
88 Clouds 25 1016 61 16093 1.5 20 14:58 16.10.2019
89 Clouds 25 1016 61 16093 1.5 20 14:39 16.10.2019
90 Clouds 25 1016 61 16093 1.5 20 14:39 16.10.2019
91 Clouds 25 1016 61 16093 1.5 20 14:20 16.10.2019
92 Clouds 25 1016 61 16093 1.5 20 13:57 16.10.2019
93 Clouds 26 1016 61 16093 1.5 10 13:38 16.10.2019
94 Clouds 26 1016 61 16093 1.5 10 13:38 16.10.2019
95 Clouds 25 1016 61 16093 1.5 10 13:20 16.10.2019
96 Clouds 25 1017 65 16093 2.1 40 12:42 16.10.2019
97 Clouds 25 1017 65 16093 2.1 40 12:20 16.10.2019
98 Clouds 26 1017 61 16093 3.1 30 11:45 16.10.2019
99 Clouds 26 1017 61 16093 3.1 30 11:45 16.10.2019
100 Clouds 26 1017 61 16093 3.1 30 11:19 16.10.2019
101 Clouds 26 1017 61 16093 3.1 30 10:55 16.10.2019
102 Clouds 26 1017 61 16093 3.1 30 10:36 16.10.2019
103 Clouds 26 1017 61 16093 3.1 30 10:18 16.10.2019
104 Clouds 26 1017 61 16093 3.1 30 09:40 16.10.2019
105 Clouds 26 1017 61 16093 3.1 30 09:21 16.10.2019
106 Clouds 26 1017 61 16093 4.1 50 08:46 16.10.2019
107 Clouds 26 1017 61 16093 4.1 50 08:26 16.10.2019
108 Clouds 26 1017 61 16093 4.1 50 07:58 16.10.2019
109 Clouds 26 1016 61 16093 4.1 30 07:40 16.10.2019
110 Clouds 26 1016 61 16093 4.1 30 07:21 16.10.2019
111 Clouds 26 1016 58 16093 4.1 30 06:40 16.10.2019
112 Clouds 27 1016 58 16093 4.1 30 06:19 16.10.2019
113 Clouds 29 1015 45 16093 5.1 60 03:46 16.10.2019
114 Clouds 30 1015 48 16093 4.6 50 02:50 16.10.2019
115 Clouds 30 1016 48 16093 6.2 50 01:20 16.10.2019
116 Clouds 30 1016 48 16093 6.2 50 00:57 16.10.2019
117 Clouds 29 1017 45 16093 6.2 30 00:37 16.10.2019
118 Clouds 30 1017 45 16093 5.7 30 23:42 15.10.2019
119 Clouds 29 1017 45 16093 5.7 30 23:23 15.10.2019
120 Clouds 29 1017 45 16093 5.7 30 22:58 15.10.2019
121 Clouds 29 1018 51 16093 5.7 30 22:40 15.10.2019
122 Clouds 29 1018 51 16093 5.7 30 22:21 15.10.2019
123 Clouds 29 1018 51 16093 5.7 30 21:57 15.10.2019
124 Clouds 28 1017 54 16093 5.1 40 21:38 15.10.2019
125 Clouds 28 1017 54 16093 5.1 40 21:20 15.10.2019
126 Clouds 28 1017 54 16093 5.1 40 20:58 15.10.2019
127 Clouds 27 1017 58 16093 4.1 20 20:40 15.10.2019
128 Clouds 27 1017 58 16093 4.1 20 20:21 15.10.2019
129 Clouds 26 1017 58 16093 4.1 20 19:59 15.10.2019
130 Clouds 25 1017 69 16093 3.1 20 19:40 15.10.2019
131 Clouds 25 1017 69 16093 3.1 20 19:40 15.10.2019
132 Clouds 25 1017 69 16093 3.1 20 19:20 15.10.2019
133 Clouds 25 1017 65 16093 2.6 20 18:48 15.10.2019
134 Clouds 25 1017 65 16093 2.6 20 18:30 15.10.2019
135 Clouds 25 1017 65 16093 2.6 20 17:59 15.10.2019
136 Clouds 25 1016 65 16093 2.6 330 17:41 15.10.2019
137 Clouds 25 1016 65 16093 2.6 330 17:41 15.10.2019
138 Clouds 25 1016 65 16093 2.6 330 17:20 15.10.2019
139 Clouds 26 1016 65 16093 2.6 330 16:57 15.10.2019
140 Clouds 25 1016 65 16093 1.5 0 16:38 15.10.2019
141 Clouds 25 1016 65 16093 1.5 0 16:20 15.10.2019
142 Clouds 25 1016 65 16093 5.7 40 15:43 15.10.2019
143 Clouds 25 1016 65 16093 5.7 40 15:43 15.10.2019
144 Clouds 25 1016 65 16093 5.7 40 15:21 15.10.2019
145 Clouds 25 1016 65 16093 5.7 40 14:58 15.10.2019
146 Clouds 25 1016 65 16093 5.7 50 14:38 15.10.2019
147 Clouds 25 1016 65 16093 5.7 50 14:20 15.10.2019
148 Clouds 25 1016 65 16093 5.7 50 13:56 15.10.2019
149 Clouds 25 1017 61 16093 4.1 50 13:37 15.10.2019
150 Clouds 25 1017 61 16093 4.1 50 13:19 15.10.2019
151 Clouds 26 1017 65 16093 4.1 40 12:42 15.10.2019
152 Clouds 26 1017 65 16093 4.1 40 12:21 15.10.2019
153 Rain 26 1017 65 16093 2.1 0 11:57 15.10.2019
154 Rain 26 1017 65 16093 2.1 0 11:37 15.10.2019
155 Rain 26 1017 65 16093 2.1 0 11:19 15.10.2019
156 Rain 26 1017 65 16093 2.1 0 11:19 15.10.2019
157 Clouds 26 1017 61 16093 2.678 69 10:44 15.10.2019
158 Clouds 26 1017 61 16093 2.678 69 10:44 15.10.2019
159 Clouds 26 1017 61 16093 2.68 69.291 10:21 15.10.2019
160 Clouds 27 1017 61 16093 2.68 69.291 09:58 15.10.2019
161 Clouds 27 1017 65 16093 2.6 0 09:38 15.10.2019
162 Clouds 27 1017 65 16093 2.6 0 09:19 15.10.2019
163 -273 0 0 0 0 0 08:43 15.10.2019
164 Clear 27 1016 61 16093 3.6 50 08:22 15.10.2019
165 Clear 27 1016 61 16093 3.6 50 07:58 15.10.2019
166 Clear 27 1015 58 16093 6.2 70 07:39 15.10.2019
167 Clear 27 1015 58 16093 6.2 70 07:20 15.10.2019
168 Clouds 28 1015 69 16093 4.1 90 06:45 15.10.2019
169 Clouds 27 1015 69 16093 4.1 90 06:26 15.10.2019
170 Clouds 28 1015 55 16093 6.7 50 05:41 15.10.2019
171 Clouds 29 1015 55 16093 6.7 50 05:23 15.10.2019
172 Clouds 30 1014 69 16093 5.7 70 04:32 15.10.2019
173 Clouds 30 1014 52 16093 7.2 60 03:37 15.10.2019
174 Clouds 30 1014 48 16093 7.7 50 02:29 15.10.2019
175 Clouds 30 1015 46 16093 6.7 60 01:48 15.10.2019
176 Clouds 30 1015 46 16093 6.7 60 01:19 15.10.2019
177 Clouds 30 1015 66 16093 4.1 70 00:49 15.10.2019
178 Clouds 29 1015 66 16093 4.1 70 00:21 15.10.2019
179 Clouds 29 1016 51 16093 6.2 70 23:43 14.10.2019
180 Clouds 30 1016 51 16093 6.2 70 23:20 14.10.2019
181 Clouds 30 1016 51 16093 6.2 70 22:55 14.10.2019
182 Clouds 29 1016 62 16093 7.7 70 22:37 14.10.2019
183 Clouds 29 1016 62 16093 7.7 70 22:37 14.10.2019
184 Clouds 29 1016 62 16093 7.7 70 22:18 14.10.2019
185 Clouds 28 1016 58 16093 5.7 60 21:41 14.10.2019
186 Clouds 28 1016 58 16093 5.7 60 21:22 14.10.2019
187 Clouds 28 1016 58 16093 5.7 60 20:59 14.10.2019
188 Clouds 28 1016 61 16093 3.1 30 20:40 14.10.2019
189 Clouds 28 1016 61 16093 3.1 30 20:21 14.10.2019
190 Clouds 27 1016 61 16093 3.1 30 19:59 14.10.2019
191 Clouds 26 1015 78 16093 2.94 83 19:40 14.10.2019
192 Clouds 25 1015 78 16093 2.94 83.535 19:22 14.10.2019
193 Clouds 25 1015 78 16093 2.94 83.535 18:58 14.10.2019
194 Clouds 25 1015 78 16093 2.1 320 18:38 14.10.2019
195 Clouds 25 1015 78 16093 2.1 320 18:18 14.10.2019
196 Clouds 25 1015 78 16093 2.1 320 18:18 14.10.2019
197 Clouds 25 1015 78 16093 1.87 80.744 17:44 14.10.2019
198 Clouds 25 1015 78 16093 1.87 80.744 17:25 14.10.2019
199 Clouds 26 1015 73 16093 1.5 350 16:58 14.10.2019
200 Clouds 25 1015 73 16093 1.5 350 16:40 14.10.2019
201 Clouds 25 1015 73 16093 1.5 350 16:40 14.10.2019
202 Clouds 25 1015 73 16093 1.5 350 16:20 14.10.2019
203 Clouds 26 1014 69 16093 1.5 50 15:41 14.10.2019
204 Clouds 25 1014 69 16093 1.5 50 15:22 14.10.2019
205 Clouds 26 1014 65 16093 2.6 50 14:45 14.10.2019
206 Clouds 26 1014 65 16093 2.6 50 14:26 14.10.2019
207 Clouds 26 1015 65 16093 3.1 60 13:59 14.10.2019
208 Clouds 26 1015 65 16093 3.1 60 13:41 14.10.2019
209 Clouds 26 1015 65 16093 3.1 60 13:21 14.10.2019
210 Clouds 26 1015 65 16093 3.1 60 12:42 14.10.2019
211 Clouds 26 1015 65 16093 3.1 60 12:21 14.10.2019
212 Clouds 26 1015 65 16093 3.1 60 12:21 14.10.2019
213 Clouds 27 1014 69 16093 3.6 90 11:57 14.10.2019
214 Clouds 26 1014 69 16093 3.6 90 11:39 14.10.2019
215 Clouds 26 1015 61 16093 4.6 60 11:20 14.10.2019
216 Clouds 27 1015 61 16093 5.7 60 10:44 14.10.2019
217 Clouds 27 1015 61 16093 5.7 60 10:23 14.10.2019
218 Clouds 27 1015 65 16093 5.1 60 09:59 14.10.2019
219 -273 0 0 0 0 0 09:40 14.10.2019
220 Clouds 27 1015 65 16093 5.1 60 09:20 14.10.2019
221 Clouds 27 1014 69 16093 6.2 60 08:48 14.10.2019
222 Clouds 27 1014 69 16093 6.2 60 08:23 14.10.2019
223 Clouds 27 1014 58 16093 4.1 60 07:44 14.10.2019
224 Clouds 27 1014 58 16093 4.1 60 07:22 14.10.2019
225 Clouds 27 1014 54 16093 6.2 60 06:55 14.10.2019
226 Clouds 27 1014 54 16093 6.2 60 06:27 14.10.2019
227 Clouds 28 1013 58 16093 6.7 50 05:52 14.10.2019
228 Clouds 28 1013 58 16093 5.7 60 04:51 14.10.2019
229 Clouds 29 1013 48 16093 7.7 70 03:48 14.10.2019
230 Clouds 29 1013 48 16093 7.7 70 03:22 14.10.2019
231 Clouds 29 1014 69 16093 3.1 60 01:46 14.10.2019
232 Clouds 29 1014 69 16093 5.1 110 01:18 14.10.2019
233 Clouds 29 1014 55 16093 5.7 60 00:23 14.10.2019
234 Clouds 29 1016 83 16093 3.6 90 23:46 13.10.2019
235 Drizzle 29 1015 55 16093 5.1 90 23:21 13.10.2019
236 Clouds 29 1015 66 16093 6.7 40 23:00 13.10.2019
237 Clouds 29 1015 66 16093 6.7 40 22:41 13.10.2019
238 Rain 29 1015 66 16093 6.7 40 22:22 13.10.2019
239 Rain 28 1015 62 16093 5.7 50 21:58 13.10.2019
240 Rain 28 1015 62 16093 5.7 50 21:58 13.10.2019
241 Rain 28 1015 62 16093 5.7 50 21:38 13.10.2019
242 Clouds 28 1015 62 16093 5.7 50 21:19 13.10.2019
243 Clouds 28 1015 74 16093 4.1 70 20:58 13.10.2019
244 Clouds 27 1015 74 16093 4.1 70 20:39 13.10.2019
245 Clouds 26 1015 69 16093 4.1 40 20:21 13.10.2019
246 -273 0 0 0 0 0 19:59 13.10.2019
247 Clouds 25 1015 100 16093 1.5 160 19:39 13.10.2019
248 Clouds 25 1015 100 16093 1.5 160 19:39 13.10.2019
249 Clouds 25 1015 74 16093 3.1 60 19:21 13.10.2019
250 Rain 25 1014 74 16093 2.1 60 18:57 13.10.2019
251 Rain 25 1015 100 16093 3.19 88.42 18:55 13.10.2019
252 Rain 24 1014 74 16093 2.1 60 18:36 13.10.2019
253 Rain 24 1014 74 16093 2.1 60 18:18 13.10.2019
254 Clouds 25 1013 74 16093 3.1 90 17:43 13.10.2019
255 Clouds 25 1013 74 16093 3.1 90 17:25 13.10.2019
256 Clouds 25 1013 69 16093 5.7 80 16:58 13.10.2019
257 Drizzle 25 1014 74 16093 3.1 70 16:40 13.10.2019
258 Drizzle 25 1014 74 16093 3.1 70 16:18 13.10.2019
259 Clouds 25 1014 94 16093 2.84 86.872 15:55 13.10.2019
260 Clouds 25 1014 94 16093 2.84 86.872 15:55 13.10.2019
261 Clouds 25 1014 94 16093 2.84 86.872 15:36 13.10.2019
262 Clouds 25 1014 74 16093 2.6 50 15:18 13.10.2019
263 Rain 26 1014 74 14484 3.6 90 14:40 13.10.2019
264 Rain 26 1014 74 14484 3.6 90 14:22 13.10.2019
265 Rain 26 1015 83 16093 4.2 90.464 13:59 13.10.2019
266 Clouds 26 1015 83 16093 4.2 90.464 13:39 13.10.2019
267 Clouds 26 1015 83 16093 4.2 90.464 13:39 13.10.2019
268 Drizzle 26 1015 83 16093 3.48 94.32 13:21 13.10.2019
269 Clouds 26 1015 69 16093 2.6 50 12:56 13.10.2019
270 Clouds 26 1015 69 16093 2.6 50 12:38 13.10.2019
271 Clouds 26 1015 69 16093 2.6 50 12:19 13.10.2019
272 Clouds 26 1014 74 16093 4.6 110 11:58 13.10.2019
273 Clouds 26 1014 74 16093 5.7 90 11:38 13.10.2019
274 Clouds 26 1014 74 16093 5.7 90 11:19 13.10.2019
275 Clouds 26 1014 69 16093 6.7 80 10:42 13.10.2019
276 Clouds 27 1015 61 16093 6.2 60 10:23 13.10.2019
277 Clouds 27 1015 69 16093 5.7 80 09:56 13.10.2019
278 Clouds 27 1015 69 16093 5.7 80 09:37 13.10.2019
279 Drizzle 27 1015 65 16093 6.7 60 09:19 13.10.2019
280 Drizzle 27 1015 65 16093 6.7 60 09:19 13.10.2019
281 Clouds 27 1015 78 16093 3.1 100 08:43 13.10.2019
282 Clouds 27 1015 78 16093 3.1 100 08:21 13.10.2019
283 Clouds 27 1014 61 16093 5.7 40 07:46 13.10.2019
284 Clouds 27 1014 61 16093 5.7 40 07:23 13.10.2019
285 Clouds 27 1014 61 16093 6.2 70 06:42 13.10.2019
286 Clouds 28 1013 58 16093 6.7 60 05:49 13.10.2019
287 Clouds 28 1013 65 16093 5.7 70 04:52 13.10.2019
288 Clouds 29 1013 65 16093 5.7 70 04:32 13.10.2019
289 Clouds 29 1014 66 16093 4.6 70 02:42 13.10.2019
290 Clouds 29 1014 66 16093 4.6 70 02:42 13.10.2019
291 Clouds 30 1014 66 16093 6.2 60 01:59 13.10.2019
292 Clouds 29 1015 48 16093 5.1 80 01:30 13.10.2019
293 Clouds 29 1015 66 16093 6.7 60 00:49 13.10.2019
294 Clouds 29 1016 55 16093 5.1 50 00:22 13.10.2019
295 Clouds 29 1016 55 16093 5.1 80 23:57 12.10.2019
296 Clouds 29 1016 55 16093 5.1 80 23:39 12.10.2019
297 Clouds 29 1016 55 16093 5.1 80 23:19 12.10.2019
298 Clouds 29 1016 58 16093 5.7 60 22:57 12.10.2019
299 Clouds 29 1016 58 16093 5.7 60 22:38 12.10.2019
300 Clouds 29 1016 58 16093 5.7 60 22:20 12.10.2019
301 Rain 28 1017 78 16093 2.1 110 21:55 12.10.2019
302 Rain 28 1016 58 16093 4.1 80 21:37 12.10.2019
303 Rain 28 1016 58 16093 4.1 80 21:18 12.10.2019
304 Rain 27 1016 61 16093 4.1 70 20:40 12.10.2019
305 Rain 27 1016 61 16093 4.1 70 20:22 12.10.2019
306 Clouds 26 1016 65 16093 3.6 60 19:38 12.10.2019
307 Clouds 26 1016 65 16093 3.6 60 19:20 12.10.2019
308 Clear 25 1016 61 16093 4.6 60 18:57 12.10.2019
309 Clear 25 1016 61 16093 4.6 60 18:38 12.10.2019
310 Clear 25 1016 61 16093 4.6 60 18:20 12.10.2019
311 Clouds 25 1015 65 16093 3.1 50 17:43 12.10.2019
312 Clouds 25 1015 65 16093 3.1 50 17:19 12.10.2019
313 Clouds 25 1015 65 16093 4.6 70 16:54 12.10.2019
314 -273 0 0 0 0 0 16:54 12.10.2019
315 Clouds 25 1015 65 16093 4.6 70 16:36 12.10.2019
316 Clouds 26 1015 65 16093 4.6 70 16:18 12.10.2019
317 Clouds 26 1015 69 16093 4.1 70 15:40 12.10.2019
318 Clouds 26 1015 69 16093 4.1 70 15:22 12.10.2019
319 Clouds 26 1015 74 16093 2.6 0 14:41 12.10.2019
320 Clouds 26 1016 65 16093 5.1 80 14:22 12.10.2019
321 Clouds 26 1016 65 16093 4.1 80 13:53 12.10.2019
322 Clouds 26 1016 65 16093 4.1 80 13:33 12.10.2019
323 Clouds 26 1016 69 16093 4.1 70 12:59 12.10.2019
324 Clouds 26 1016 69 16093 4.1 70 12:39 12.10.2019
325 Clouds 26 1016 69 16093 4.1 70 12:20 12.10.2019
326 Clouds 26 1017 69 16093 3.6 70 11:58 12.10.2019
327 Clouds 27 1017 69 16093 3.6 70 11:38 12.10.2019
328 Clouds 27 1017 69 16093 3.6 70 11:38 12.10.2019
329 Clouds 27 1017 69 16093 3.6 70 11:18 12.10.2019
330 Clouds 26 1017 69 16093 5.7 60 10:40 12.10.2019
331 Clouds 27 1017 69 16093 5.7 60 10:22 12.10.2019
332 Clouds 26 1017 69 16093 5.7 90 09:57 12.10.2019
333 Clouds 26 1017 69 16093 5.7 90 09:57 12.10.2019
334 Clouds 27 1017 69 16093 3.1 80 09:39 12.10.2019
335 Clouds 27 1017 69 16093 3.1 80 09:20 12.10.2019
336 Clouds 27 1017 74 16093 5.1 90 08:55 12.10.2019
337 Clouds 27 1017 65 16093 6.7 60 08:36 12.10.2019
338 Clouds 27 1017 65 16093 6.7 60 08:18 12.10.2019
339 Clouds 27 1017 65 16093 6.7 60 08:18 12.10.2019
340 Clouds 27 1016 74 16093 6.2 80 07:32 12.10.2019
341 Rain 28 1015 74 16093 5.7 80 06:38 12.10.2019
342 Clouds 28 1015 78 16093 6.7 80 05:44 12.10.2019
343 Clouds 28 1014 74 16093 5.1 80 04:43 12.10.2019
344 Rain 30 1014 74 16093 2.6 0 03:56 12.10.2019
345 Clouds 29 1014 58 16093 1.5 0 02:50 12.10.2019
346 Clouds 29 1015 58 16093 1.5 0 01:35 12.10.2019
347 Clouds 29 1016 74 16093 2.1 10 00:56 12.10.2019
348 Clouds 30 1016 74 16093 2.6 20 00:38 12.10.2019
349 Clouds 28 1017 62 16093 3.1 110 23:55 11.10.2019
350 Clouds 28 1017 62 16093 3.1 110 23:37 11.10.2019
351 Clouds 28 1017 62 16093 3.1 110 23:18 11.10.2019
352 Clouds 27 1017 78 16093 3.1 90 22:38 11.10.2019
353 Clouds 26 1017 78 16093 3.1 90 22:19 11.10.2019
354 Rain 26 1017 100 16093 2.1 140 21:44 11.10.2019
355 Rain 25 1016 88 16093 2.1 50 21:22 11.10.2019
356 Rain 25 1017 100 16093 2.6 110 20:57 11.10.2019
357 Rain 25 1017 100 16093 2.6 110 20:57 11.10.2019
358 Rain 25 1016 100 16093 2.1 120 20:39 11.10.2019
359 Rain 24 1016 100 16093 2.1 120 20:20 11.10.2019
360 Rain 24 1015 88 16093 2.6 180 19:55 11.10.2019
361 Rain 24 1016 88 16093 2.6 50 19:37 11.10.2019
362 Rain 24 1016 88 16093 2.6 50 19:18 11.10.2019
363 Rain 24 1016 88 16093 2.6 50 19:18 11.10.2019
364 Rain 24 1016 88 16093 2.6 50 19:18 11.10.2019
365 Rain 24 1016 88 16093 2.6 50 19:18 11.10.2019
366 Rain 24 1016 88 16093 2.6 50 19:18 11.10.2019
367 Rain 24 1016 88 8047 2.6 20 18:56 11.10.2019
368 Rain 24 1016 88 4023 2.1 10 18:37 11.10.2019
369 Rain 24 1016 88 4023 2.1 10 18:18 11.10.2019
370 Rain 24 1014 88 1207 6.7 330 17:55 11.10.2019
371 Rain 24 1016 100 2213 2.1 170 17:36 11.10.2019
372 Rain 24 1015 94 3219 6.7 240 17:18 11.10.2019
373 Rain 25 1014 83 16093 3.6 280 16:40 11.10.2019
374 Rain 25 1014 83 16093 3.6 280 16:19 11.10.2019
375 Rain 25 1014 88 16093 2.6 300 15:58 11.10.2019
376 Rain 25 1014 88 16093 2.6 300 15:38 11.10.2019
377 Rain 25 1014 83 16093 2.1 350 15:18 11.10.2019
378 Rain 25 1013 83 16093 1.24 113.168 14:44 11.10.2019
379 Rain 26 1014 83 16093 2.1 10 14:25 11.10.2019
380 Rain 26 1015 100 16093 1.24 113.168 13:47 11.10.2019
381 Rain 26 1015 83 16093 1.44 103.581 13:27 11.10.2019
382 Rain 26 1016 94 16093 2.1 140 12:59 11.10.2019
383 Rain 26 1016 94 16093 2.1 140 12:41 11.10.2019
384 Rain 27 1014 83 14484 3.6 110 12:22 11.10.2019
385 Clouds 27 1016 100 16093 1.24 68.629 11:59 11.10.2019
386 Clouds 27 1016 100 16093 1.24 68.629 11:39 11.10.2019
387 Rain 27 1015 78 16093 3.1 130 11:21 11.10.2019
388 Clouds 27 1016 88 16093 1.5 130 10:56 11.10.2019
389 Clouds 28 1016 88 16093 1.5 130 10:38 11.10.2019
390 Clouds 28 1016 74 16093 2.6 110 10:19 11.10.2019
391 Clouds 28 1016 88 16093 2.1 170 09:43 11.10.2019
392 Clouds 28 1015 70 16093 2.6 130 09:22 11.10.2019
393 Clouds 28 1016 88 16093 2.6 150 08:59 11.10.2019
394 Clouds 28 1015 70 16093 3.1 130 08:39 11.10.2019
395 Clouds 28 1015 70 16093 3.1 130 08:39 11.10.2019
396 Clouds 28 1015 70 16093 3.1 130 08:20 11.10.2019
397 Clouds 28 1015 83 16093 2.1 170 07:57 11.10.2019
398 Clouds 28 1015 83 16093 2.1 170 07:38 11.10.2019
399 Clouds 28 1014 66 16093 3.6 140 07:19 11.10.2019
400 Clouds 29 1013 66 16093 2.1 160 06:43 11.10.2019
401 Clouds 29 1013 66 16093 2.1 160 06:19 11.10.2019
402 Clouds 29 1012 66 16093 4.1 150 05:32 11.10.2019
403 Clouds 31 1012 66 16093 5.1 150 04:58 11.10.2019
404 Clouds 30 1011 66 16093 4.6 180 03:45 11.10.2019
405 Clouds 31 1012 62 16093 4.1 130 01:57 11.10.2019
406 Clouds 31 1013 59 16093 6.7 120 00:42 11.10.2019
407 Clouds 31 1013 59 16093 6.7 120 00:20 11.10.2019
408 Rain 31 1014 79 14484 2.1 170 23:41 10.10.2019
409 Rain 30 1013 59 16093 7.7 110 23:20 10.10.2019
410 Rain 29 1013 62 16093 2.6 70 22:57 10.10.2019
411 Rain 29 1013 62 16093 2.6 70 22:36 10.10.2019
412 Rain 29 1013 62 16093 2.6 70 22:18 10.10.2019
413 Clouds 28 1013 66 16093 3.1 80 21:42 10.10.2019
414 Clouds 28 1013 66 16093 3.1 80 21:42 10.10.2019
415 Clouds 28 1013 66 16093 3.1 80 21:22 10.10.2019
416 Clouds 27 1012 83 16093 2.26 106.123 20:59 10.10.2019
417 Clouds 27 1012 83 16093 2.26 106.123 20:40 10.10.2019
418 Clouds 27 1012 83 16093 2.26 106.123 20:20 10.10.2019
419 Clouds 27 1013 78 16093 1.5 60 19:57 10.10.2019
420 Clouds 27 1013 78 16093 1.5 60 19:39 10.10.2019
421 Clouds 26 1012 74 16093 2.1 10 19:19 10.10.2019
422 Clouds 25 1012 83 16093 1.5 350 18:42 10.10.2019
423 Clouds 25 1012 83 16093 1.5 350 18:21 10.10.2019
424 Clouds 25 1011 78 16093 1.5 340 17:59 10.10.2019
425 Clouds 25 1011 78 16093 1.5 340 17:40 10.10.2019
426 Clouds 25 1011 78 16093 1.5 340 17:19 10.10.2019
427 Clouds 25 1010 83 16093 3.6 230 16:57 10.10.2019
428 Clouds 25 1010 83 16093 3.6 230 16:37 10.10.2019
429 Rain 25 1010 83 16093 2.6 130 16:19 10.10.2019
430 Rain 25 1012 78 16093 1.82 74.336 15:40 10.10.2019
431 Rain 25 1012 78 16093 1.93 78.527 15:22 10.10.2019
432 Clouds 25 1012 74 16093 1.93 78.527 14:58 10.10.2019
433 Clouds 25 1012 74 16093 1.93 78.527 14:37 10.10.2019
434 Clouds 25 1012 74 16093 1.93 78.527 14:19 10.10.2019
435 Clouds 26 1012 83 16093 1.5 280 13:57 10.10.2019
436 Clouds 25 1012 83 16093 1.93 78.527 13:39 10.10.2019
437 Clouds 25 1012 83 16093 1.88 84.991 13:18 10.10.2019
438 Clouds 26 1012 83 16093 2.6 40 12:42 10.10.2019
439 Clouds 25 1013 74 16093 3.6 80 12:21 10.10.2019
440 Clouds 25 1013 69 16093 2.6 300 11:58 10.10.2019
441 Clouds 25 1013 69 16093 2.6 300 11:40 10.10.2019
442 Clouds 25 1013 69 16093 2.6 300 11:19 10.10.2019
443 Clouds 26 1012 78 16093 3.1 70 10:47 10.10.2019
444 Haze 26 1013 69 16093 3.1 20 10:28 10.10.2019
445 Clouds 26 1013 74 16093 3.1 80 09:59 10.10.2019
446 Clouds 26 1013 74 16093 3.1 80 09:41 10.10.2019
447 Clouds 26 1013 74 16093 3.1 80 09:23 10.10.2019
448 Clouds 27 1012 65 16093 5.7 80 08:59 10.10.2019
449 Clouds 26 1012 65 16093 5.7 80 08:39 10.10.2019
450 Clouds 27 1012 65 16093 5.7 80 08:20 10.10.2019
451 Clouds 27 1012 65 16093 4.1 80 07:47 10.10.2019
452 Clouds 27 1012 65 16093 4.1 80 07:25 10.10.2019
453 Clouds 27 1011 69 16093 3.1 90 06:55 10.10.2019
454 Clouds 27 1011 58 16093 5.1 70 06:36 10.10.2019
455 Clouds 28 1011 55 16093 7.2 80 05:39 10.10.2019
456 Clouds 28 1011 55 16093 7.2 80 05:18 10.10.2019
457 Rain 29 1011 55 16093 4.1 170 04:34 10.10.2019
458 Clouds 29 1011 48 16093 3.6 170 02:19 10.10.2019
459 Clouds 30 1012 55 16093 5.1 160 01:36 10.10.2019
460 Clouds 30 1012 55 16093 5.1 160 01:36 10.10.2019
461 Clouds 29 1012 55 16093 5.1 160 01:18 10.10.2019
462 Clouds 29 1013 55 16093 5.1 150 00:25 10.10.2019
463 Clouds 29 1014 69 16093 2.6 100 23:41 09.10.2019
464 Clouds 29 1013 58 16093 6.7 150 23:23 09.10.2019
465 Clouds 29 1013 69 16093 5.1 110 22:59 09.10.2019
466 Clouds 29 1013 69 16093 5.1 110 22:40 09.10.2019
467 Clouds 28 1013 69 16093 5.1 110 22:22 09.10.2019
468 Clouds 28 1013 74 16093 1.5 190 21:41 09.10.2019
469 Clouds 27 1013 74 16093 1.5 190 21:21 09.10.2019
470 Clouds 27 1013 65 16093 1.5 10 20:56 09.10.2019
471 Clouds 27 1013 65 16093 1.5 10 20:38 09.10.2019
472 Clouds 27 1013 65 16093 1.5 10 20:19 09.10.2019
473 Clouds 25 1012 83 16093 1.5 360 19:58 09.10.2019
474 Clouds 25 1012 83 16093 1.5 360 19:40 09.10.2019
475 Clouds 24 1012 83 16093 1.5 360 19:22 09.10.2019
476 Clouds 24 1012 78 16093 1.5 320 18:38 09.10.2019
477 Clouds 23 1012 78 16093 1.5 320 18:20 09.10.2019
478 Clouds 24 1011 78 16093 1.74 86.245 17:57 09.10.2019
479 Clouds 24 1012 83 16093 2.1 0 17:37 09.10.2019
480 Clouds 24 1012 83 16093 2.1 0 17:19 09.10.2019
481 Clouds 24 1012 83 16093 2.1 350 16:56 09.10.2019
482 Clouds 24 1012 83 16093 2.1 350 16:37 09.10.2019
483 Clouds 24 1012 83 16093 2.1 350 16:18 09.10.2019
484 Clouds 24 1012 83 16093 2.1 350 16:18 09.10.2019
485 Clouds 24 1012 83 16093 2.1 320 15:55 09.10.2019
486 Clouds 24 1012 83 16093 2.1 320 15:36 09.10.2019
487 Clouds 24 1012 83 16093 2.1 320 15:18 09.10.2019
488 Clouds 25 1012 73 16093 1.55 96.299 14:44 09.10.2019
489 Clouds 25 1012 73 16093 1.55 96.299 14:19 09.10.2019
490 Clouds 25 1013 73 16093 1.55 96.299 13:58 09.10.2019
491 Clouds 25 1013 73 16093 1.55 96.299 13:36 09.10.2019
492 Clouds 25 1013 73 16093 1.47 93.005 13:18 09.10.2019
493 Clouds 25 1013 69 16093 1.5 60 12:42 09.10.2019
494 Clouds 25 1013 69 16093 1.5 60 12:22 09.10.2019
495 Clouds 25 1013 69 16093 1.25 89.543 11:58 09.10.2019
496 Clouds 25 1013 69 16093 1.25 89.543 11:39 09.10.2019
497 Clouds 25 1013 69 16093 1.25 89.543 11:20 09.10.2019
498 Clouds 25 1014 69 16093 3.1 50 10:55 09.10.2019
499 Clouds 26 1014 69 16093 3.1 50 10:37 09.10.2019
500 Clouds 26 1014 69 16093 3.1 50 10:18 09.10.2019
501 Clouds 26 1013 65 16093 2.6 60 09:42 09.10.2019
502 Clouds 26 1013 65 16093 2.6 60 09:19 09.10.2019
503 Clouds 26 1013 65 16093 3.6 60 08:55 09.10.2019
504 Clouds 26 1013 65 16093 3.6 60 08:37 09.10.2019
505 Clouds 26 1013 65 16093 3.6 60 08:18 09.10.2019
506 Clouds 26 1012 61 16093 3.6 70 07:42 09.10.2019
507 Clouds 27 1012 61 16093 3.6 70 07:22 09.10.2019
508 Clouds 27 1012 61 16093 4.1 70 06:52 09.10.2019
509 Clouds 27 1012 61 16093 4.1 70 06:52 09.10.2019
510 Clouds 27 1012 61 16093 4.1 70 06:52 09.10.2019
511 Clouds 27 1012 61 16093 4.1 70 06:19 09.10.2019
512 Clouds 28 1011 61 16093 4.1 50 05:44 09.10.2019
513 Clouds 28 1011 54 16093 3.6 210 04:26 09.10.2019
514 Rain 27 1012 74 16093 2.1 170 02:53 09.10.2019
515 Rain 27 1013 74 16093 2.6 120 01:43 09.10.2019
516 Rain 27 1013 51 16093 3.6 160 01:20 09.10.2019
517 Drizzle 27 1014 78 16093 1.5 280 00:57 09.10.2019
518 Clouds 28 1013 54 16093 4.1 150 00:38 09.10.2019
519 Clouds 28 1013 54 16093 4.1 150 00:20 09.10.2019
520 Clouds 28 1014 54 16093 3.6 160 23:39 08.10.2019
521 Clouds 29 1014 54 16093 3.6 160 23:19 08.10.2019
522 Clouds 28 1014 54 16093 3.6 130 22:57 08.10.2019
523 Clouds 28 1014 54 16093 3.6 130 22:38 08.10.2019
524 Clouds 28 1014 54 16093 3.6 130 22:19 08.10.2019
525 Clouds 26 1014 61 16093 2.1 0 21:57 08.10.2019
526 Clouds 26 1014 61 16093 2.1 0 21:39 08.10.2019
527 Clouds 26 1014 61 16093 2.1 0 21:19 08.10.2019
528 Clouds 26 1014 61 16093 2.1 0 21:19 08.10.2019
529 Clouds 25 1013 65 16093 2.1 30 20:56 08.10.2019
530 Clouds 25 1013 65 16093 2.1 30 20:37 08.10.2019
531 Clouds 25 1013 65 16093 2.1 30 20:19 08.10.2019
532 Clouds 25 1013 83 16093 1.32 98.832 19:56 08.10.2019
533 Clouds 25 1013 73 16093 1.32 98.832 19:37 08.10.2019
534 Clouds 24 1013 73 16093 1.32 98.832 19:18 08.10.2019
535 Clouds 24 1012 73 16093 2.1 110 18:46 08.10.2019
536 Clouds 24 1012 73 16093 2.1 110 18:25 08.10.2019
537 Rain 24 1012 69 16093 2.1 20 17:58 08.10.2019
538 Rain 24 1012 69 16093 2.1 20 17:39 08.10.2019
539 Rain 24 1012 69 16093 2.1 20 17:20 08.10.2019
540 Rain 24 1011 88 8047 3.6 360 16:56 08.10.2019
541 Rain 24 1011 88 8047 3.6 360 16:56 08.10.2019
542 Rain 24 1012 65 16093 1.41 93.286 16:37 08.10.2019
543 Rain 24 1012 65 16093 1.41 93.286 16:19 08.10.2019
544 Rain 24 1012 69 16093 2.1 360 15:40 08.10.2019
545 Rain 24 1012 69 16093 2.1 360 15:20 08.10.2019
546 Rain 24 1012 78 16093 2.1 30 14:57 08.10.2019
547 Rain 24 1012 78 16093 2.1 30 14:38 08.10.2019
548 Rain 24 1012 78 16093 2.1 30 14:19 08.10.2019
549 Rain 24 1012 94 9656 3.6 290 13:55 08.10.2019
550 Rain 24 1012 94 9656 3.6 290 13:37 08.10.2019
551 Rain 24 1012 94 9656 1.5 310 13:37 08.10.2019
552 Rain 24 1012 94 9656 1.5 310 13:18 08.10.2019
553 Rain 24 1012 88 12874 2.6 340 12:41 08.10.2019
554 Rain 25 1012 88 2414 1.5 300 12:20 08.10.2019
555 Rain 24 1013 88 12874 2.1 360 11:58 08.10.2019
556 Rain 24 1013 88 12874 2.1 360 11:39 08.10.2019
557 Clouds 25 1013 69 16093 3.1 70 11:21 08.10.2019
558 -273 0 0 0 0 0 10:54 08.10.2019
559 Clouds 24 1014 78 16093 2.6 30 10:54 08.10.2019
560 Clouds 24 1014 78 16093 2.6 30 10:36 08.10.2019
561 Clouds 25 1014 78 16093 2.6 30 10:18 08.10.2019
562 -273 0 0 0 0 0 09:40 08.10.2019
563 Clouds 25 1013 74 16093 3.1 50 09:22 08.10.2019
564 Rain 25 1013 74 16093 3.1 80 08:45 08.10.2019
565 Rain 25 1013 74 16093 3.1 80 08:25 08.10.2019
566 Rain 25 1012 83 14484 1.5 230 07:57 08.10.2019
567 Rain 25 1012 69 12874 3.6 10 07:38 08.10.2019
568 Rain 25 1012 69 12874 3.6 10 07:19 08.10.2019
569 Rain 25 1012 69 16093 4.6 80 06:45 08.10.2019
570 Rain 26 1012 69 16093 4.6 80 06:21 08.10.2019
571 Rain 26 1011 78 16093 3.6 300 05:43 08.10.2019
572 Rain 27 1012 69 16093 5.1 90 05:19 08.10.2019
573 Rain 27 1012 61 16093 4.1 160 03:31 08.10.2019
574 Rain 27 1012 88 16093 2.6 310 02:42 08.10.2019
575 Drizzle 28 1012 58 16093 4.1 170 01:58 08.10.2019
576 Drizzle 28 1012 58 16093 4.1 170 01:40 08.10.2019
577 Clouds 28 1013 69 16093 3.1 360 00:55 08.10.2019
578 Clouds 28 1013 58 16093 4.1 140 00:23 08.10.2019
579 Clouds 28 1014 54 16093 4.1 210 23:46 07.10.2019
580 Clouds 28 1014 54 16093 4.1 210 23:21 07.10.2019
581 Clouds 28 1014 54 16093 4.1 210 23:21 07.10.2019
582 Clouds 28 1014 54 16093 2.1 0 22:59 07.10.2019
583 Clouds 28 1014 54 16093 2.1 0 22:41 07.10.2019
584 Clouds 28 1014 54 16093 2.1 0 22:23 07.10.2019
585 Clouds 27 1014 65 16093 1.45 71.89 21:59 07.10.2019
586 Clouds 26 1014 65 16093 1.45 71.89 21:40 07.10.2019
587 Clouds 26 1014 65 16093 1.18 75.293 21:21 07.10.2019
588 Clouds 25 1014 69 16093 2.6 70 20:59 07.10.2019
589 Clouds 25 1014 69 16093 2.6 70 20:40 07.10.2019
590 Clouds 25 1014 69 16093 2.6 70 20:40 07.10.2019
591 Clouds 25 1014 69 16093 2.6 70 20:21 07.10.2019
592 Rain 23 1013 88 16093 2.1 120 19:59 07.10.2019
593 Rain 23 1013 88 14484 3.6 90 19:41 07.10.2019
594 Rain 23 1013 88 14484 3.6 90 19:20 07.10.2019
595 Mist 23 1012 88 9656 2.6 100 18:59 07.10.2019
596 Clouds 23 1012 78 16093 2.1 20 18:40 07.10.2019
597 Clouds 23 1012 78 16093 2.1 20 18:19 07.10.2019
598 Clear 23 1012 78 16093 1.5 350 17:54 07.10.2019
599 Clear 23 1012 78 16093 1.5 350 17:54 07.10.2019
600 Clear 23 1012 78 16093 1.5 350 17:36 07.10.2019
601 Clear 24 1012 78 16093 1.5 350 17:18 07.10.2019
602 Clouds 23 1011 73 16093 0.14 36.541 16:43 07.10.2019
603 Clouds 23 1011 73 16093 0.14 36.541 16:25 07.10.2019
604 Clear 23 1011 69 16093 0.14 36.541 15:46 07.10.2019
605 Clear 23 1011 69 16093 0.14 36.541 15:26 07.10.2019
606 Clouds 24 1012 69 16093 1.5 350 14:58 07.10.2019
607 Clouds 24 1012 69 16093 1.5 350 14:58 07.10.2019
608 Clouds 24 1012 69 16093 1.5 350 14:40 07.10.2019
609 Clouds 24 1012 69 16093 1.5 350 14:22 07.10.2019
610 Clouds 24 1013 65 16093 1.5 30 13:43 07.10.2019
611 Clouds 24 1013 65 16093 1.5 30 13:21 07.10.2019
612 Rain 24 1013 69 16093 2.6 10 12:57 07.10.2019
613 Rain 24 1013 69 16093 2.6 10 12:39 07.10.2019
614 Rain 24 1013 69 16093 2.6 10 12:19 07.10.2019
615 Rain 24 1013 69 16093 5.7 70 11:58 07.10.2019
616 Rain 24 1013 69 16093 5.7 70 11:38 07.10.2019
617 Rain 24 1013 69 16093 5.7 70 11:20 07.10.2019
618 Rain 25 1013 65 16093 3.6 70 10:42 07.10.2019
619 Rain 25 1013 65 16093 3.6 70 10:21 07.10.2019
620 Clouds 25 1014 88 16093 2.1 330 09:43 07.10.2019
621 Clouds 25 1013 78 16093 1.14 28.164 09:25 07.10.2019
622 Rain 25 1012 78 4828 2.6 360 08:58 07.10.2019
623 Rain 25 1012 78 4828 2.6 360 08:39 07.10.2019
624 Clouds 25 1013 61 16093 2.1 110 08:20 07.10.2019
625 Clouds 26 1013 88 16093 1.5 350 07:43 07.10.2019
626 Clouds 26 1012 61 16093 2.1 170 07:25 07.10.2019
627 Clouds 26 1011 74 16093 4.6 360 06:54 07.10.2019
628 Clouds 26 1011 69 16093 2.1 350 06:34 07.10.2019
629 Clouds 27 1011 61 16093 3.6 180 05:49 07.10.2019
630 Clouds 27 1011 61 16093 3.6 180 05:23 07.10.2019
631 Clouds 28 1010 58 16093 3.6 200 04:28 07.10.2019
632 Rain 28 1011 54 16093 4.6 200 03:45 07.10.2019
633 Rain 28 1011 54 16093 4.6 200 03:45 07.10.2019
634 Rain 28 1011 54 16093 4.6 200 03:21 07.10.2019
635 Rain 28 1011 54 16093 4.6 200 03:21 07.10.2019
636 Clouds 29 1011 51 16093 4.6 220 02:22 07.10.2019
637 Clouds 29 1011 51 16093 4.6 220 02:22 07.10.2019
638 Clouds 29 1012 54 16093 4.6 200 01:52 07.10.2019
639 Clouds 29 1012 54 16093 4.6 200 01:21 07.10.2019
640 Clouds 29 1013 51 16093 4.1 190 00:41 07.10.2019
641 Clouds 28 1013 51 16093 4.1 190 00:20 07.10.2019
642 Clouds 29 1013 51 16093 4.1 170 23:42 06.10.2019
643 Clouds 29 1013 51 16093 4.1 170 23:42 06.10.2019
644 Clouds 29 1013 51 16093 4.1 170 23:42 06.10.2019
645 Clouds 29 1013 51 16093 4.1 170 23:22 06.10.2019
646 Clouds 28 1013 54 16093 1.56 24.596 22:59 06.10.2019
647 Clouds 28 1013 54 16093 1.56 24.596 22:41 06.10.2019
648 Clouds 28 1013 54 16093 1.56 24.596 22:22 06.10.2019
649 Clouds 28 1013 58 16093 1.56 24.596 21:58 06.10.2019
650 Clouds 28 1013 58 16093 1.56 24.596 21:38 06.10.2019
651 Clouds 28 1013 58 16093 1.56 24.596 21:38 06.10.2019
652 Clouds 28 1013 58 16093 0.9 74.272 21:19 06.10.2019
653 Clouds 26 1013 69 16093 1.5 0 20:58 06.10.2019
654 Clouds 26 1013 69 16093 1.5 0 20:40 06.10.2019
655 Clouds 26 1013 69 16093 1.5 0 20:20 06.10.2019
656 Clouds 26 1013 69 16093 1.5 0 20:20 06.10.2019
657 Clouds 23 1013 73 16093 2.1 350 19:57 06.10.2019
658 Clouds 23 1013 73 16093 2.1 350 19:37 06.10.2019
659 Clouds 23 1013 73 16093 2.1 350 19:19 06.10.2019
660 Clear 22 1013 83 16093 1.5 360 18:56 06.10.2019
661 Clear 21 1013 83 16093 1.5 360 18:38 06.10.2019
662 Clear 22 1013 83 16093 1.5 360 18:19 06.10.2019
663 Clear 22 1012 83 16093 2.1 10 17:57 06.10.2019
664 Clear 22 1012 83 16093 2.1 10 17:38 06.10.2019
665 Clear 22 1012 83 16093 2.1 10 17:18 06.10.2019
666 Clouds 23 1012 73 16093 2.6 330 16:42 06.10.2019
667 Clouds 23 1012 73 16093 2.6 330 16:23 06.10.2019
668 Clouds 23 1013 73 16093 2.6 330 15:45 06.10.2019
669 Clouds 23 1013 73 16093 2.6 330 15:23 06.10.2019
670 Clouds 23 1013 78 16093 2.1 330 14:58 06.10.2019
671 Clouds 23 1013 78 16093 2.1 330 14:40 06.10.2019
672 Clouds 23 1013 78 16093 2.1 330 14:22 06.10.2019
673 Clouds 23 1014 78 16093 3.1 330 13:55 06.10.2019
674 Clouds 23 1014 78 16093 3.1 330 13:37 06.10.2019
675 Clouds 24 1014 78 16093 3.1 330 13:18 06.10.2019
676 Clouds 24 1014 73 16093 3.6 330 12:55 06.10.2019
677 Clouds 24 1014 73 16093 3.6 330 12:55 06.10.2019
678 Clouds 24 1014 73 16093 3.6 330 12:37 06.10.2019
679 Clouds 24 1014 73 16093 3.6 330 12:19 06.10.2019
680 Clouds 25 1013 74 16093 3.1 40 11:42 06.10.2019
681 Clouds 25 1014 78 16093 3.1 340 11:24 06.10.2019
682 -273 0 0 0 0 0 11:24 06.10.2019
683 Clouds 25 1014 74 16093 2.6 320 10:56 06.10.2019
684 Clouds 25 1014 74 16093 2.6 320 10:56 06.10.2019
685 Clouds 25 1014 74 16093 2.6 320 10:38 06.10.2019
686 Clouds 25 1014 74 16093 2.6 320 10:19 06.10.2019
687 Clouds 25 1014 74 16093 1.5 40 09:41 06.10.2019
688 Clouds 25 1014 74 16093 1.5 40 09:20 06.10.2019
689 Clouds 25 1014 74 16093 1.5 40 09:20 06.10.2019
690 Rain 26 1014 74 9656 4.1 30 08:49 06.10.2019
691 Rain 25 1014 74 9656 4.1 30 08:24 06.10.2019
692 Rain 25 1013 65 16093 2.6 10 07:58 06.10.2019
693 Rain 26 1013 65 16093 2.6 10 07:39 06.10.2019
694 Rain 26 1012 78 8047 4.1 20 06:53 06.10.2019
695 Clouds 27 1012 61 16093 5.1 10 05:41 06.10.2019
696 Clouds 27 1012 61 16093 5.1 10 05:41 06.10.2019
697 Clouds 28 1012 51 16093 5.1 30 04:35 06.10.2019
698 Rain 28 1013 69 16093 5.1 50 02:53 06.10.2019
699 Rain 28 1013 65 16093 2.6 180 02:30 06.10.2019
700 Rain 28 1014 94 16093 3.1 340 01:48 06.10.2019
701 Rain 28 1014 52 16093 6.2 50 01:30 06.10.2019
702 Rain 29 1015 48 16093 2.6 0 00:59 06.10.2019
703 Rain 28 1015 94 6437 3.1 310 00:59 06.10.2019
704 Rain 29 1015 48 16093 2.6 0 00:33 06.10.2019
705 Rain 29 1015 55 16093 3.6 30 23:58 05.10.2019
706 Rain 29 1015 55 16093 3.6 30 23:40 05.10.2019
707 Rain 29 1015 55 16093 3.6 30 23:40 05.10.2019
708 Rain 29 1015 55 16093 3.6 30 23:19 05.10.2019
709 Rain 29 1016 58 16093 3.1 0 22:54 05.10.2019
710 Rain 28 1016 58 16093 3.1 0 22:36 05.10.2019
711 Rain 28 1016 58 16093 3.1 0 22:18 05.10.2019
712 Rain 28 1015 65 16093 1.5 330 21:41 05.10.2019
713 Rain 28 1015 65 16093 1.5 330 21:22 05.10.2019
714 Rain 27 1015 78 6437 4.6 60 20:57 05.10.2019
715 Rain 27 1015 78 6437 4.6 60 20:57 05.10.2019
716 Rain 27 1015 78 6437 4.6 60 20:39 05.10.2019
717 Rain 26 1015 74 16093 1.5 0 20:19 05.10.2019
718 Clouds 24 1015 88 16093 2.6 290 19:41 05.10.2019
719 Clouds 23 1015 88 16093 2.6 290 19:22 05.10.2019
720 Clouds 24 1015 88 16093 2.16 49.246 18:57 05.10.2019
721 Clouds 24 1015 88 16093 2.16 49.246 18:39 05.10.2019
722 Clouds 23 1015 88 16093 1.26 53.203 18:21 05.10.2019
723 Clouds 23 1014 74 16093 3.6 70 17:56 05.10.2019
724 Clear 24 1014 83 16093 2.1 330 17:37 05.10.2019
725 Clear 24 1014 83 16093 2.1 330 17:19 05.10.2019
726 Clear 24 1014 83 16093 2.1 330 16:42 05.10.2019
727 Clear 24 1014 83 16093 2.1 330 16:22 05.10.2019
728 Clouds 24 1014 73 16093 2.1 360 15:57 05.10.2019
729 Clouds 24 1014 73 16093 2.1 360 15:39 05.10.2019
730 Clouds 24 1014 73 16093 2.1 360 15:21 05.10.2019
731 Clouds 24 1014 73 16093 2.1 360 15:21 05.10.2019
732 Clouds 24 1015 74 16093 1.99 43.961 14:57 05.10.2019
733 Clouds 24 1015 74 16093 1.99 43.961 14:38 05.10.2019
734 Clouds 24 1015 74 16093 1.99 43.961 14:20 05.10.2019
735 Clouds 24 1015 74 16093 1.99 43.961 14:20 05.10.2019
736 Clouds 25 1015 69 16093 2.6 340 13:41 05.10.2019
737 Clouds 25 1015 69 16093 2.6 340 13:22 05.10.2019
738 Clouds 25 1015 69 16093 4.1 30 12:46 05.10.2019
739 Clouds 25 1015 69 16093 4.1 30 12:21 05.10.2019
740 Clouds 26 1016 69 16093 4.1 40 11:58 05.10.2019
741 Clouds 26 1016 69 16093 4.1 40 11:37 05.10.2019
742 Clouds 26 1016 69 16093 4.1 40 11:18 05.10.2019
743 Rain 26 1016 61 16093 3.6 50 10:44 05.10.2019
744 Rain 26 1016 61 16093 3.6 50 10:25 05.10.2019
745 Clouds 27 1015 65 16093 6.7 40 09:58 05.10.2019
746 Clouds 27 1015 65 16093 6.7 40 09:38 05.10.2019
747 Clouds 27 1015 65 16093 6.7 40 09:20 05.10.2019
748 Clouds 27 1015 65 16093 5.1 40 08:39 05.10.2019
749 Clouds 26 1015 65 16093 5.1 40 08:19 05.10.2019
750 Clouds 26 1015 65 16093 4.6 40 07:57 05.10.2019
751 Clouds 27 1015 65 16093 4.6 40 07:34 05.10.2019
752 Clouds 27 1014 58 16093 7.2 60 06:58 05.10.2019
753 Clouds 27 1014 58 16093 7.2 60 06:27 05.10.2019
754 Clouds 28 1014 54 16093 6.7 50 05:40 05.10.2019
755 Clouds 29 1014 48 16093 5.7 70 03:57 05.10.2019
756 Clouds 29 1014 48 16093 5.7 70 03:28 05.10.2019
757 Clouds 29 1015 46 16093 6.2 50 01:41 05.10.2019
758 Clouds 29 1015 46 16093 6.2 50 01:18 05.10.2019
759 Clouds 29 1016 48 16093 8.2 60 00:41 05.10.2019
760 Clouds 29 1016 48 16093 8.2 60 00:23 05.10.2019
761 Clouds 29 1017 69 16093 4.6 80 23:44 04.10.2019
762 Clouds 29 1016 58 16093 6.2 50 23:25 04.10.2019
763 Clouds 29 1016 58 16093 6.2 50 23:25 04.10.2019
764 Rain 28 1017 62 16093 7.2 70 22:59 04.10.2019
765 Rain 28 1017 62 16093 7.2 70 22:39 04.10.2019
766 Rain 29 1017 62 16093 7.2 70 22:19 04.10.2019
767 Rain 29 1016 69 16093 7.2 70 21:55 04.10.2019
768 Rain 28 1016 69 16093 7.2 70 21:36 04.10.2019
769 Rain 28 1016 69 16093 7.2 70 21:18 04.10.2019
770 Clouds 28 1016 61 16093 6.2 90 20:42 04.10.2019
771 Clouds 28 1016 61 16093 6.2 90 20:23 04.10.2019
772 Clouds 27 1016 65 16093 5.7 60 19:58 04.10.2019
773 Clouds 27 1016 65 16093 5.7 60 19:39 04.10.2019
774 Clouds 27 1016 65 16093 5.7 60 19:21 04.10.2019
775 Rain 26 1015 69 16093 5.7 80 18:56 04.10.2019
776 Rain 26 1015 69 16093 5.7 80 18:37 04.10.2019
777 Rain 26 1015 69 16093 5.7 80 18:18 04.10.2019
778 Rain 26 1016 94 16093 4.6 60 17:41 04.10.2019
779 Clouds 26 1015 74 16093 4.1 60 17:22 04.10.2019
780 Rain 26 1016 94 16093 1.5 80 16:58 04.10.2019
781 Clouds 26 1015 74 16093 3.6 60 16:40 04.10.2019
782 Rain 26 1016 94 16093 1.5 80 16:40 04.10.2019
783 Clouds 26 1015 74 16093 3.6 60 16:19 04.10.2019
784 Clouds 26 1014 74 16093 6.2 80 15:57 04.10.2019
785 Clouds 26 1015 74 16093 3.6 30 15:38 04.10.2019
786 Rain 26 1016 94 12874 2.6 80 15:19 04.10.2019
787 Clouds 26 1015 74 16093 4.6 50 14:55 04.10.2019
788 Clouds 26 1015 74 16093 4.6 50 14:37 04.10.2019
789 Clouds 25 1015 74 16093 4.6 50 14:19 04.10.2019
790 Rain 25 1016 94 16093 6.34 85.097 13:44 04.10.2019
791 Clouds 26 1015 94 16093 5.1 80 13:22 04.10.2019
792 -273 0 0 0 0 0 12:54 04.10.2019
793 Rain 26 1015 94 16093 6.2 90 12:36 04.10.2019
794 Rain 26 1015 94 16093 6.2 90 12:18 04.10.2019
795 Rain 26 1016 94 4828 5.45 82.389 11:42 04.10.2019
796 Rain 25 1016 94 4828 5.45 82.389 11:41 04.10.2019
797 Rain 25 1016 94 4828 5.45 82.389 11:41 04.10.2019
798 Rain 25 1016 69 16093 4.6 50 11:21 04.10.2019
799 Rain 25 1016 69 16093 4.6 50 11:21 04.10.2019
800 Rain 25 1015 88 3219 6.7 80 10:41 04.10.2019
801 Rain 25 1015 88 3219 6.7 80 10:41 04.10.2019
802 Rain 26 1016 78 16093 8.2 60 10:21 04.10.2019
803 Rain 26 1016 78 16093 8.2 60 10:21 04.10.2019
804 Rain 26 1016 83 9656 5.7 80 09:50 04.10.2019
805 Haze 26 1016 69 16093 4.6 40 09:31 04.10.2019
806 Rain 26 1016 78 16093 1.5 350 08:57 04.10.2019
807 Rain 27 1016 78 16093 1.5 350 08:38 04.10.2019
808 Rain 27 1015 69 16093 4.1 60 08:38 04.10.2019
809 Rain 27 1015 69 16093 4.1 60 08:20 04.10.2019
810 Rain 26 1015 69 16093 6.7 70 07:46 04.10.2019
811 Rain 26 1015 69 16093 6.7 70 07:23 04.10.2019
812 Rain 27 1015 78 16093 4.1 40 06:47 04.10.2019
813 Rain 27 1015 78 16093 4.1 40 06:47 04.10.2019
814 Rain 27 1015 65 16093 10.3 70 06:27 04.10.2019
815 Clouds 27 1014 58 16093 5.1 30 05:52 04.10.2019
816 Clouds 28 1014 58 16093 5.1 30 05:19 04.10.2019
817 Clouds 29 1015 69 16093 2.1 100 03:50 04.10.2019
818 Clouds 29 1014 52 16093 7.7 60 02:54 04.10.2019
819 Clouds 29 1015 69 16093 3.6 80 01:56 04.10.2019
820 Clouds 29 1015 69 16093 3.6 80 01:56 04.10.2019
821 Clouds 29 1015 58 16093 9.3 60 01:30 04.10.2019
822 Clouds 29 1015 55 16093 7.2 50 00:58 04.10.2019
823 Rain 28 1016 62 16093 8.2 50 23:58 03.10.2019
824 Clouds 28 1016 62 16093 8.2 50 23:37 03.10.2019
825 Rain 28 1016 62 16093 8.2 50 23:18 03.10.2019
826 Rain 28 1016 62 16093 8.2 50 23:18 03.10.2019
827 Rain 27 1016 65 16093 7.2 50 22:56 03.10.2019
828 Rain 28 1016 65 16093 7.2 50 22:37 03.10.2019
829 Rain 27 1016 65 16093 7.2 50 22:19 03.10.2019
830 Rain 27 1016 78 16093 9.3 80 21:55 03.10.2019
831 Rain 26 1016 78 16093 9.3 80 21:36 03.10.2019
832 Rain 26 1016 78 16093 9.3 80 21:36 03.10.2019
833 Rain 26 1016 78 16093 9.3 80 21:18 03.10.2019
834 Rain 25 1016 94 4426 7.02 75.035 20:55 03.10.2019
835 Rain 25 1016 94 4426 6.38 75.448 20:55 03.10.2019
836 Rain 25 1016 94 4426 6.38 75.448 20:37 03.10.2019
837 Rain 25 1015 78 16093 5.1 70 20:19 03.10.2019
838 Rain 24 1014 78 16093 4.1 50 19:41 03.10.2019
839 Rain 24 1014 78 16093 4.1 50 19:22 03.10.2019
840 Rain 24 1015 100 16093 1.5 240 18:58 03.10.2019
841 Rain 24 1015 100 11265 2.1 310 18:38 03.10.2019
842 Rain 24 1015 100 16093 1.5 240 18:38 03.10.2019
843 Rain 24 1015 100 11265 2.1 310 18:19 03.10.2019
844 Rain 25 1014 78 16093 5.7 40 17:55 03.10.2019
845 Rain 25 1014 78 16093 5.7 40 17:55 03.10.2019
846 Rain 25 1014 78 16093 5.7 40 17:55 03.10.2019
847 Rain 24 1014 78 16093 5.7 40 17:37 03.10.2019
848 Rain 25 1014 78 16093 5.7 40 17:19 03.10.2019
849 Rain 24 1015 94 16093 2.6 330 16:41 03.10.2019
850 Rain 24 1014 83 16093 6.7 60 16:23 03.10.2019
851 Rain 25 1015 88 16093 6.2 60 15:55 03.10.2019
852 Rain 25 1015 88 16093 6.2 60 15:37 03.10.2019
853 Rain 25 1014 78 16093 5.7 50 15:18 03.10.2019
854 Rain 25 1014 78 16093 5.7 50 15:18 03.10.2019
855 Rain 25 1014 74 12874 5.7 80 14:39 03.10.2019
856 Rain 25 1014 74 12874 5.7 80 14:20 03.10.2019
857 Rain 25 1015 88 16093 1.5 350 13:55 03.10.2019
858 Rain 25 1015 78 16093 6.7 70 13:36 03.10.2019
859 Rain 25 1015 78 16093 6.7 70 13:18 03.10.2019
860 Rain 26 1014 69 16093 5.7 70 12:40 03.10.2019
861 Rain 26 1014 69 16093 5.7 70 12:20 03.10.2019
862 Drizzle 26 1016 94 16093 6.7 72.9 11:59 03.10.2019
863 Drizzle 26 1016 94 16093 6.7 72.9 11:59 03.10.2019
864 Drizzle 26 1015 74 16093 7.7 80 11:40 03.10.2019
865 Clouds 26 1015 74 16093 7.7 80 11:21 03.10.2019
866 Rain 26 1015 78 16093 5.1 60 10:58 03.10.2019
867 Rain 26 1015 78 16093 5.1 60 10:39 03.10.2019
868 Rain 26 1015 78 16093 5.1 60 10:18 03.10.2019
869 Rain 26 1015 74 16093 6.7 60 09:56 03.10.2019
870 Rain 26 1015 74 16093 6.7 60 09:38 03.10.2019
871 Rain 26 1015 74 16093 6.7 60 09:19 03.10.2019
872 Rain 26 1015 78 16093 6.7 60 08:43 03.10.2019
873 Rain 26 1014 78 14484 6.7 90 08:25 03.10.2019
874 Rain 26 1015 88 16093 2.6 40 07:45 03.10.2019
875 Rain 26 1015 88 16093 2.6 40 07:20 03.10.2019
876 Rain 26 1015 83 16093 3.6 80 06:56 03.10.2019
877 Rain 27 1013 65 16093 6.7 60 06:27 03.10.2019
878 Rain 28 1014 78 16093 3.1 80 05:49 03.10.2019
879 Rain 28 1013 58 16093 6.7 70 05:29 03.10.2019
880 Clouds 29 1014 88 14484 4.6 80 04:45 03.10.2019
881 Drizzle 29 1014 74 16093 4.1 50 03:55 03.10.2019
882 Rain 29 1013 55 16093 9.8 70 03:19 03.10.2019
883 Rain 29 1013 55 16093 10.8 50 02:27 03.10.2019
884 Clouds 29 1013 66 16093 6.2 70 01:40 03.10.2019
885 Clouds 29 1015 69 16093 5.7 90 00:53 03.10.2019
886 Clouds 29 1015 74 16093 6.2 80 00:32 03.10.2019
887 Clouds 29 1015 74 16093 6.2 80 00:32 03.10.2019
888 Drizzle 28 1015 74 16093 2.1 40 23:57 02.10.2019
889 Clouds 28 1015 58 16093 8.7 60 23:37 02.10.2019
890 Clouds 29 1015 58 16093 8.7 60 23:18 02.10.2019
891 Clouds 29 1015 54 16093 10.3 60 22:42 02.10.2019
892 Clouds 28 1015 54 16093 10.3 60 22:20 02.10.2019
893 Clouds 28 1015 65 16093 6.7 70 21:55 02.10.2019
894 Clouds 28 1015 65 16093 6.7 70 21:37 02.10.2019
895 Clouds 28 1015 65 16093 6.7 70 21:18 02.10.2019
896 Rain 26 1015 78 16093 9.3 70 20:55 02.10.2019
897 Rain 26 1015 78 16093 9.3 70 20:55 02.10.2019
898 Rain 26 1015 78 16093 9.3 70 20:37 02.10.2019
899 Rain 26 1015 78 16093 9.3 70 20:19 02.10.2019
900 Rain 26 1014 74 16093 5.1 70 19:45 02.10.2019
901 Rain 26 1014 74 16093 5.1 70 19:23 02.10.2019
902 Rain 25 1014 78 9656 7.2 60 18:59 02.10.2019
903 Rain 25 1014 83 16093 4.6 70 18:40 02.10.2019
904 Rain 25 1014 83 16093 4.6 70 18:40 02.10.2019
905 Rain 25 1014 83 16093 4.6 70 18:21 02.10.2019
906 Clouds 26 1014 78 16093 4.1 50 17:58 02.10.2019
907 Clouds 25 1014 78 16093 4.1 50 17:38 02.10.2019
908 Clouds 25 1014 78 16093 4.1 50 17:20 02.10.2019
909 Rain 25 1013 83 16093 5.1 60 16:56 02.10.2019
910 Rain 25 1013 83 16093 5.1 60 16:36 02.10.2019
911 Rain 25 1014 83 16093 3.1 50 16:18 02.10.2019
912 Rain 25 1014 83 16093 3.1 50 15:41 02.10.2019
913 Rain 25 1014 83 16093 3.1 50 15:23 02.10.2019
914 Mist 25 1014 100 8047 1.5 200 14:58 02.10.2019
915 Clouds 25 1014 83 16093 3.1 80 14:40 02.10.2019
916 Clouds 25 1014 83 16093 3.1 80 14:21 02.10.2019
917 Rain 25 1015 94 16093 1.5 310 13:48 02.10.2019
918 Rain 25 1015 100 16093 4.46 74.758 13:29 02.10.2019
919 Rain 25 1015 94 16093 3.6 70 12:59 02.10.2019
920 Rain 25 1015 94 16093 3.6 70 12:38 02.10.2019
921 Rain 25 1015 94 16093 3.6 70 12:20 02.10.2019
922 Rain 26 1015 74 16093 5.1 40 11:44 02.10.2019
923 Rain 26 1015 74 16093 5.1 40 11:23 02.10.2019
924 Rain 26 1014 74 16093 6.2 70 10:42 02.10.2019
925 Rain 26 1014 74 16093 6.2 70 10:20 02.10.2019
926 Clouds 26 1014 78 16093 4.6 40 09:59 02.10.2019
927 Clouds 26 1014 78 16093 4.6 40 09:38 02.10.2019
928 Clouds 26 1014 78 16093 4.6 40 09:19 02.10.2019
929 Clouds 27 1014 69 16093 5.7 40 08:44 02.10.2019
930 Clouds 26 1014 69 16093 5.7 40 08:24 02.10.2019
931 Rain 26 1014 83 16093 3.1 100 07:58 02.10.2019
932 Rain 26 1014 83 16093 3.1 100 07:38 02.10.2019
933 Rain 26 1014 83 16093 3.1 100 07:20 02.10.2019
934 Rain 26 1014 83 16093 3.1 100 07:20 02.10.2019
935 Clouds 27 1013 61 16093 5.1 40 06:31 02.10.2019
936 Clouds 28 1013 51 16093 7.2 60 05:54 02.10.2019
937 Clouds 28 1013 51 16093 7.2 60 05:54 02.10.2019
938 Clouds 29 1013 51 16093 7.2 60 05:23 02.10.2019
939 Clouds 29 1012 52 16093 5.7 40 04:47 02.10.2019
940 Clouds 30 1012 48 16093 6.7 70 03:52 02.10.2019
941 Clouds 30 1013 48 16093 9.3 60 02:40 02.10.2019
942 Clouds 30 1013 48 16093 9.3 60 02:22 02.10.2019
943 Clouds 30 1014 52 16093 6.7 60 01:21 02.10.2019
944 Clouds 29 1014 52 16093 6.2 80 00:43 02.10.2019
945 Rain 29 1014 52 16093 6.2 80 00:23 02.10.2019
946 Clouds 29 1015 55 16093 6.7 60 23:42 01.10.2019
947 -273 0 0 0 0 0 23:24 01.10.2019
948 Rain 28 1015 58 16093 6.2 50 22:58 01.10.2019
949 Rain 28 1015 58 16093 6.2 50 22:39 01.10.2019
950 Rain 28 1015 58 16093 6.2 50 22:19 01.10.2019
951 Clouds 28 1015 65 16093 5.7 80 21:55 01.10.2019
952 Clouds 28 1015 65 16093 5.7 80 21:36 01.10.2019
953 Drizzle 27 1015 65 16093 5.7 80 21:18 01.10.2019
954 Rain 27 1016 88 16093 5.87 78.732 20:54 01.10.2019
955 Rain 27 1015 69 16093 5.1 80 20:36 01.10.2019
956 Rain 27 1015 69 16093 5.1 80 20:18 01.10.2019
957 Rain 26 1014 74 16093 4.1 40 19:43 01.10.2019
958 -273 0 0 0 0 0 19:24 01.10.2019
959 Rain 25 1014 74 16093 4.6 70 18:58 01.10.2019
960 Rain 26 1014 74 16093 4.6 70 18:39 01.10.2019
961 Rain 25 1014 74 16093 4.6 70 18:21 01.10.2019
962 Rain 24 1015 94 16093 5.15 73.61 17:55 01.10.2019
963 Rain 24 1014 100 16093 5.15 73.61 17:36 01.10.2019
964 Rain 25 1014 100 16093 5.15 73.61 17:18 01.10.2019
965 Rain 26 1014 74 16093 3.1 60 16:42 01.10.2019
966 Rain 26 1014 74 16093 3.1 60 16:22 01.10.2019
967 Clouds 26 1014 74 16093 3.6 50 15:59 01.10.2019
968 Clouds 26 1014 74 16093 3.6 50 15:40 01.10.2019
969 Clouds 26 1014 74 16093 3.6 50 15:21 01.10.2019
970 Rain 26 1014 74 16093 5.1 70 14:41 01.10.2019
971 Rain 26 1014 74 16093 5.1 70 14:20 01.10.2019
972 Rain 26 1014 74 16093 5.7 80 13:57 01.10.2019
973 Rain 26 1014 74 16093 5.7 80 13:57 01.10.2019
974 Rain 26 1014 74 16093 5.7 80 13:38 01.10.2019
975 Rain 26 1014 74 16093 5.7 80 13:18 01.10.2019
976 Rain 26 1015 78 16093 2.6 40 12:56 01.10.2019
977 Rain 26 1014 74 16093 7.2 70 12:37 01.10.2019
978 Rain 26 1014 69 16093 4.1 80 12:18 01.10.2019
979 Rain 26 1014 69 16093 4.1 80 11:56 01.10.2019
980 Rain 26 1014 69 16093 4.1 80 11:56 01.10.2019
981 Rain 26 1014 69 16093 4.1 80 11:36 01.10.2019
982 Rain 26 1014 69 16093 4.1 80 11:36 01.10.2019
983 Rain 26 1014 69 16093 4.1 80 11:18 01.10.2019
984 Clouds 27 1015 65 16093 3.6 80 10:46 01.10.2019
985 Clouds 27 1015 65 16093 3.6 80 10:27 01.10.2019
986 Clouds 27 1015 65 16093 5.7 70 09:45 01.10.2019
987 Clouds 27 1015 65 16093 5.7 70 09:26 01.10.2019
988 Clouds 26 1014 69 16093 4.1 60 08:44 01.10.2019
989 Clouds 26 1014 69 16093 4.1 60 08:25 01.10.2019
990 Clouds 26 1015 83 16093 2.1 40 07:53 01.10.2019
991 Clouds 26 1013 65 16093 5.7 60 07:26 01.10.2019
992 Rain 26 1014 88 16093 2.1 110 06:52 01.10.2019
993 Rain 26 1014 88 16093 2.1 110 06:52 01.10.2019
994 Rain 27 1014 83 16093 3.1 100 06:25 01.10.2019
995 Rain 27 1013 62 16093 6.2 60 05:59 01.10.2019
996 Rain 27 1013 62 16093 6.2 60 05:40 01.10.2019
997 Clouds 29 1012 69 16093 4.6 70 04:42 01.10.2019
998 Rain 29 1012 55 16093 9.3 70 03:37 01.10.2019
999 Clouds 29 1013 52 16093 6.7 70 02:20 01.10.2019
1000 Rain 29 1013 55 16093 6.7 50 01:55 01.10.2019
1001 Rain 29 1015 78 14484 4.1 70 00:44 01.10.2019
1002 Rain 29 1015 78 14484 4.1 70 00:44 01.10.2019
1003 Rain 29 1015 78 14484 4.1 70 00:44 01.10.2019
1004 Rain 28 1015 78 14484 4.1 70 00:24 01.10.2019
1005 Rain 28 1015 78 14484 4.1 70 00:24 01.10.2019
1006 Rain 28 1015 78 14484 4.1 70 00:24 01.10.2019
1007 Rain 29 1015 58 16093 4.6 20 23:42 30.09.2019
1008 Rain 29 1015 58 16093 4.6 20 23:42 30.09.2019
1009 Rain 29 1015 58 16093 4.6 20 23:22 30.09.2019
1010 Rain 28 1015 62 16093 4.1 40 22:55 30.09.2019
1011 Rain 28 1015 62 16093 4.1 40 22:37 30.09.2019
1012 Rain 28 1015 62 16093 4.1 40 22:19 30.09.2019
1013 Rain 28 1015 65 16093 1.5 90 21:55 30.09.2019
1014 Rain 28 1015 65 16093 1.5 90 21:36 30.09.2019
1015 Rain 28 1015 65 16093 1.5 90 21:18 30.09.2019
1016 Clouds 27 1015 65 16093 2.6 40 20:54 30.09.2019
1017 Clouds 28 1015 65 16093 2.6 40 20:36 30.09.2019
1018 Clouds 28 1015 65 16093 2.6 40 20:18 30.09.2019
1019 Clouds 26 1014 78 16093 3.1 360 19:41 30.09.2019
1020 Clouds 26 1014 78 16093 3.1 360 19:20 30.09.2019
1021 Clouds 26 1014 78 16093 2.1 310 18:58 30.09.2019
1022 Clouds 26 1014 78 16093 2.1 310 18:40 30.09.2019
1023 Clouds 26 1014 78 16093 2.1 310 18:20 30.09.2019
1024 Clouds 26 1014 73 16093 2.5 49.828 17:56 30.09.2019
1025 Clouds 26 1014 73 16093 2.5 49.828 17:37 30.09.2019
1026 Clouds 26 1014 73 16093 2.5 49.828 17:18 30.09.2019
1027 Rain 25 1014 74 16093 5.1 50 16:42 30.09.2019
1028 Rain 25 1014 74 16093 5.1 50 16:20 30.09.2019
1029 Clouds 25 1014 78 16093 1.5 60 15:59 30.09.2019
1030 Clouds 25 1014 78 16093 1.5 60 15:59 30.09.2019
1031 Clouds 25 1014 78 16093 1.5 60 15:38 30.09.2019
1032 Clouds 25 1014 78 16093 1.5 60 15:19 30.09.2019
1033 Rain 26 1014 74 14484 4.6 90 14:58 30.09.2019
1034 Rain 26 1014 74 14484 4.6 90 14:38 30.09.2019
1035 Rain 26 1014 74 14484 4.6 90 14:19 30.09.2019
1036 Rain 25 1015 74 16093 2.1 30 13:58 30.09.2019
1037 Rain 25 1015 74 16093 2.1 30 13:40 30.09.2019
1038 Rain 25 1015 74 16093 2.1 30 13:20 30.09.2019
1039 Rain 25 1015 74 16093 2.1 40 12:44 30.09.2019
1040 Rain 25 1015 74 16093 2.1 40 12:23 30.09.2019
1041 Rain 26 1016 74 16093 3.6 30 11:59 30.09.2019
1042 Rain 25 1016 74 16093 3.6 30 11:40 30.09.2019
1043 Rain 25 1016 74 16093 3.6 30 11:19 30.09.2019
1044 -273 0 0 0 0 0 10:55 30.09.2019
1045 Rain 25 1016 88 16093 1.5 20 10:37 30.09.2019
1046 Rain 25 1016 88 16093 1.5 20 10:18 30.09.2019
1047 Rain 25 1016 74 16093 3.1 50 09:40 30.09.2019
1048 Rain 25 1016 74 16093 3.1 50 09:21 30.09.2019
1049 Rain 26 1016 78 16093 2.6 20 08:51 30.09.2019
1050 Rain 26 1015 65 16093 4.1 40 08:33 30.09.2019
1051 Clouds 27 1015 58 16093 4.1 40 07:47 30.09.2019
1052 Clouds 27 1015 58 16093 4.1 40 07:28 30.09.2019
1053 Clouds 28 1014 54 16093 6.7 30 06:59 30.09.2019
1054 Clouds 28 1014 54 16093 6.7 30 06:41 30.09.2019
1055 Clouds 29 1014 51 16093 6.2 20 05:51 30.09.2019
1056 Clouds 29 1014 51 16093 6.2 20 05:51 30.09.2019
1057 Clouds 29 1014 51 16093 6.2 20 05:33 30.09.2019
1058 Rain 30 1015 55 16093 6.2 70 02:49 30.09.2019
1059 Rain 30 1016 61 16093 5.1 40 01:41 30.09.2019
1060 Rain 29 1016 48 16093 7.2 50 00:45 30.09.2019
1061 Rain 30 1016 48 16093 7.2 50 00:25 30.09.2019
1062 Rain 30 1017 55 16093 6.7 10 23:57 29.09.2019
1063 Rain 30 1017 55 16093 6.7 10 23:39 29.09.2019
1064 Rain 29 1017 55 16093 6.7 10 23:19 29.09.2019
1065 Rain 29 1017 58 16093 5.7 60 22:43 29.09.2019
1066 Rain 29 1017 58 16093 5.7 60 22:25 29.09.2019
1067 Rain 28 1017 65 16093 4.6 50 21:58 29.09.2019
1068 Rain 28 1017 65 16093 4.6 50 21:38 29.09.2019
1069 Rain 27 1017 65 16093 4.6 50 21:19 29.09.2019
1070 Rain 27 1017 65 16093 2.1 0 20:57 29.09.2019
1071 Rain 27 1017 65 16093 2.1 0 20:57 29.09.2019
1072 Rain 27 1017 65 16093 2.1 0 20:39 29.09.2019
1073 Rain 27 1017 65 16093 2.1 0 20:19 29.09.2019
1074 Rain 27 1017 65 16093 2.1 0 20:19 29.09.2019
1075 Clouds 26 1016 69 16093 3.8 64.318 19:39 29.09.2019
1076 Clouds 26 1017 94 16093 1.5 360 19:19 29.09.2019
1077 Clouds 25 1017 94 16093 2.1 320 18:57 29.09.2019
1078 Clouds 25 1017 94 16093 2.1 320 18:57 29.09.2019
1079 Clouds 25 1016 74 16093 3.8 64.318 18:39 29.09.2019
1080 Clouds 25 1016 74 16093 2.13 62.906 18:20 29.09.2019
1081 Clouds 25 1016 88 16093 2.1 330 17:59 29.09.2019
1082 Clouds 25 1016 69 16093 1.5 30 17:41 29.09.2019
1083 Clouds 25 1016 69 16093 1.5 30 17:20 29.09.2019
1084 Clouds 25 1016 69 16093 2.6 50 16:59 29.09.2019
1085 Clouds 25 1016 69 16093 2.6 50 16:59 29.09.2019
1086 Clouds 25 1016 69 16093 2.6 50 16:41 29.09.2019
1087 Clouds 26 1016 69 16093 2.6 50 16:20 29.09.2019
1088 Clouds 26 1016 69 16093 2.6 50 16:20 29.09.2019
1089 Clouds 26 1016 88 16093 1.5 320 15:57 29.09.2019
1090 Clouds 26 1016 69 16093 3.6 50 15:37 29.09.2019
1091 Clouds 26 1016 69 16093 3.6 50 15:18 29.09.2019
1092 Rain 26 1016 69 16093 2.6 60 14:56 29.09.2019
1093 Rain 26 1016 69 16093 2.6 60 14:37 29.09.2019
1094 Rain 26 1016 69 16093 2.6 60 14:18 29.09.2019
1095 Clouds 26 1017 74 16093 3.6 70 13:42 29.09.2019
1096 Clouds 26 1017 74 16093 3.6 70 13:19 29.09.2019
1097 Clouds 26 1017 69 16093 2.6 90 12:58 29.09.2019
1098 Clouds 26 1017 69 16093 2.6 90 12:40 29.09.2019
1099 Clouds 26 1017 69 16093 2.6 90 12:22 29.09.2019
1100 Clouds 26 1017 65 16093 4.1 50 11:59 29.09.2019
1101 Clouds 26 1017 65 16093 4.1 50 11:40 29.09.2019
1102 Clouds 27 1017 65 16093 4.1 50 11:19 29.09.2019
1103 Clouds 27 1018 78 16093 2.84 75.275 10:57 29.09.2019
1104 Clouds 27 1018 78 16093 2.84 75.275 10:57 29.09.2019
1105 Clouds 27 1017 65 16093 6.7 60 10:37 29.09.2019
1106 Clouds 27 1017 65 16093 6.7 60 10:19 29.09.2019
1107 Clouds 27 1017 65 16093 5.1 60 09:47 29.09.2019
1108 Clouds 27 1017 65 16093 5.1 60 09:21 29.09.2019
1109 Clouds 27 1016 65 16093 5.7 60 08:59 29.09.2019
1110 Clouds 27 1016 65 16093 5.7 60 08:41 29.09.2019
1111 Clouds 27 1016 65 16093 5.7 60 08:20 29.09.2019
1112 Clouds 27 1015 69 16093 3.6 80 07:43 29.09.2019
1113 Clouds 27 1015 69 16093 3.6 80 07:24 29.09.2019
1114 Clouds 27 1015 69 16093 3.6 80 07:24 29.09.2019
1115 Clouds 28 1015 62 16093 4.6 40 06:43 29.09.2019
1116 Clouds 29 1014 62 16093 4.6 40 05:23 29.09.2019
1117 Clear 29 1014 58 16093 5.7 50 04:38 29.09.2019
1118 Clear 30 1014 58 16093 5.7 50 04:18 29.09.2019
1119 Clouds 30 1014 70 16093 4.1 60 02:47 29.09.2019
1120 Clouds 30 1014 70 16093 4.1 60 02:18 29.09.2019
1121 Clouds 30 1015 62 16093 6.7 70 01:31 29.09.2019
1122 Rain 30 1015 58 16093 5.7 60 00:48 29.09.2019
1123 Clouds 30 1015 58 16093 5.7 60 00:20 29.09.2019
1124 Clouds 30 1016 55 16093 4.6 50 23:42 28.09.2019
1125 Clouds 30 1016 55 16093 4.6 50 23:22 28.09.2019
1126 Clouds 30 1017 74 16093 3.6 70 22:57 28.09.2019
1127 Clouds 30 1015 70 16093 4.1 70 22:38 28.09.2019
1128 Clouds 30 1015 70 16093 4.1 70 22:20 28.09.2019
1129 Clouds 29 1015 74 16093 4.1 60 21:56 28.09.2019
1130 Clouds 29 1016 78 16093 4.6 80 21:37 28.09.2019
1131 Clouds 28 1016 78 16093 4.6 80 21:19 28.09.2019
1132 Rain 27 1016 88 14484 2.1 0 20:55 28.09.2019
1133 Rain 26 1016 88 14484 2.1 0 20:37 28.09.2019
1134 Rain 26 1015 88 16093 4.1 80 20:18 28.09.2019
1135 Rain 26 1015 88 16093 4.1 80 19:54 28.09.2019
1136 Rain 26 1016 100 16093 1.81 110.638 19:36 28.09.2019
1137 Rain 25 1016 100 16093 1.81 110.638 19:18 28.09.2019
1138 Rain 25 1014 94 16093 3.1 90 18:41 28.09.2019
1139 Rain 25 1014 94 16093 3.1 90 18:22 28.09.2019
1140 Rain 25 1014 94 3219 1.5 20 17:59 28.09.2019
1141 Rain 25 1014 88 11265 1.51 100.278 17:40 28.09.2019
1142 Rain 25 1014 88 11265 1.51 100.278 17:21 28.09.2019
1143 Rain 26 1015 88 16093 2.6 50 16:49 28.09.2019
1144 Rain 26 1013 89 6437 4.1 80 16:29 28.09.2019
1145 Rain 26 1013 89 1207 4.6 80 15:59 28.09.2019
1146 Rain 26 1013 89 2012 4.1 90 15:39 28.09.2019
1147 Rain 26 1013 88 2012 4.1 90 15:21 28.09.2019
1148 Rain 26 1014 78 16093 4.6 80 14:54 28.09.2019
1149 Rain 26 1014 78 16093 5.1 80 14:36 28.09.2019
1150 Rain 26 1014 78 16093 5.1 80 14:18 28.09.2019
1151 Rain 26 1015 78 16093 3.6 70 13:43 28.09.2019
1152 Clouds 26 1014 78 16093 5.1 90 13:20 28.09.2019
1153 Clouds 26 1014 78 16093 5.1 90 12:55 28.09.2019
1154 Clouds 27 1014 78 16093 4.1 100 12:36 28.09.2019
1155 Clouds 27 1014 78 16093 4.6 100 12:18 28.09.2019
1156 Clouds 27 1014 78 16093 4.1 100 12:18 28.09.2019
1157 Clouds 27 1015 69 16093 3.6 80 11:40 28.09.2019
1158 Clouds 27 1015 69 16093 3.6 80 11:19 28.09.2019
1159 Rain 27 1016 94 16093 2.35 87.389 10:44 28.09.2019
1160 Clouds 27 1015 74 16093 5.1 80 10:21 28.09.2019
1161 Rain 27 1014 78 16093 4.6 80 09:58 28.09.2019
1162 Clouds 27 1014 74 16093 4.1 60 09:40 28.09.2019
1163 Clouds 27 1014 74 16093 4.1 60 09:18 28.09.2019
1164 Clouds 27 1015 94 16093 2.3 78.817 08:47 28.09.2019
1165 Clouds 27 1014 74 16093 3.1 40 08:29 28.09.2019
1166 Clouds 27 1014 83 16093 1.5 100 07:47 28.09.2019
1167 Clouds 28 1013 74 16093 5.1 90 07:25 28.09.2019
1168 Rain 28 1013 70 16093 6.7 70 06:59 28.09.2019
1169 Rain 28 1013 70 16093 6.7 70 06:33 28.09.2019
1170 Rain 28 1013 70 16093 6.7 70 06:33 28.09.2019
1171 Rain 29 1012 78 16093 4.1 70 05:59 28.09.2019
1172 Rain 29 1012 78 11265 4.6 70 05:24 28.09.2019
1173 Clouds 30 1012 55 16093 7.7 80 04:44 28.09.2019
1174 Clouds 30 1012 55 16093 7.7 80 04:21 28.09.2019
1175 Clouds 30 1012 70 16093 4.6 70 03:25 28.09.2019
1176 Clouds 30 1013 52 16093 3.6 60 02:57 28.09.2019
1177 Clouds 30 1013 52 16093 3.6 60 02:35 28.09.2019
1178 Clouds 31 1013 49 16093 5.7 60 01:51 28.09.2019
1179 Clouds 31 1013 49 16093 5.7 60 01:51 28.09.2019
1180 Clouds 31 1013 49 16093 5.7 60 01:27 28.09.2019
1181 Clouds 30 1013 70 16093 4.6 50 00:58 28.09.2019
1182 Clouds 30 1013 70 16093 4.1 40 00:39 28.09.2019
1183 Clouds 30 1013 70 16093 4.1 40 00:18 28.09.2019
1184 Clouds 30 1015 66 16093 2.1 120 23:38 27.09.2019
1185 Clouds 30 1015 66 16093 2.1 120 23:38 27.09.2019
1186 Clouds 30 1015 66 16093 2.1 120 23:19 27.09.2019
1187 Clouds 29 1015 74 16093 3.6 80 22:47 27.09.2019
1188 Clouds 29 1015 58 16093 4.6 60 22:20 27.09.2019
1189 Clouds 29 1014 70 16093 4.1 50 21:57 27.09.2019
1190 Clouds 29 1015 78 16093 1.5 160 21:37 27.09.2019
1191 Clouds 29 1015 78 16093 1.5 160 21:19 27.09.2019
1192 Clouds 28 1013 78 16093 1.5 280 20:56 27.09.2019
1193 Clouds 28 1013 78 16093 1.5 280 20:38 27.09.2019
1194 Clouds 27 1013 78 16093 1.5 280 20:19 27.09.2019
1195 Clouds 26 1013 78 16093 1.5 310 19:56 27.09.2019
1196 Clouds 26 1013 78 16093 1.5 310 19:37 27.09.2019
1197 Clouds 25 1013 83 16093 1.5 300 19:18 27.09.2019
1198 Clouds 24 1013 83 16093 1.5 300 18:40 27.09.2019
1199 Clouds 24 1013 83 16093 1.5 300 18:22 27.09.2019
1200 Clouds 25 1013 78 16093 1.5 350 17:55 27.09.2019
1201 Clouds 25 1013 78 16093 1.5 350 17:37 27.09.2019
1202 Clouds 25 1013 78 16093 1.5 350 17:18 27.09.2019
1203 Clouds 25 1012 78 16093 1.5 20 16:56 27.09.2019
1204 Clouds 25 1012 78 16093 1.5 20 16:37 27.09.2019
1205 Clouds 25 1012 78 16093 1.5 20 16:37 27.09.2019
1206 Clouds 25 1012 78 16093 1.5 20 16:18 27.09.2019
1207 Clouds 25 1012 83 16093 1.16 69.548 15:44 27.09.2019
1208 Clouds 25 1012 83 16093 0.54 110.308 15:20 27.09.2019
1209 Clouds 25 1013 78 16093 2.1 340 14:57 27.09.2019
1210 Clouds 25 1013 78 16093 2.1 340 14:38 27.09.2019
1211 Clouds 25 1013 78 16093 2.1 340 14:20 27.09.2019
1212 Clouds 25 1012 78 16093 0.54 110.308 13:57 27.09.2019
1213 Clouds 25 1013 74 16093 2.6 50 13:38 27.09.2019
1214 Clouds 26 1014 74 16093 0.59 115.69 13:19 27.09.2019
1215 Clouds 25 1014 74 16093 0.59 115.69 12:44 27.09.2019
1216 Clouds 26 1014 74 16093 0.81 80.526 12:22 27.09.2019
1217 Clouds 26 1014 94 16093 0.81 80.526 11:55 27.09.2019
1218 Clouds 26 1014 78 16093 1.5 360 11:37 27.09.2019
1219 Clouds 26 1014 78 16093 1.5 360 11:19 27.09.2019
1220 Clouds 26 1014 78 16093 3.1 310 10:41 27.09.2019
1221 Clouds 26 1014 78 16093 3.1 310 10:21 27.09.2019
1222 Clouds 26 1014 88 16093 0.81 80.526 09:44 27.09.2019
1223 Clouds 26 1014 94 16093 0.48 54.242 09:23 27.09.2019
1224 Clouds 26 1014 94 16093 0.48 54.242 09:23 27.09.2019
1225 Clouds 27 1014 94 16093 0.48 54.242 08:58 27.09.2019
1226 Rain 27 1013 69 16093 2.6 80 08:39 27.09.2019
1227 Rain 26 1013 69 16093 2.6 80 08:20 27.09.2019
1228 Clouds 27 1012 74 16093 0.72 129.541 07:46 27.09.2019
1229 Clouds 27 1012 74 16093 0.72 129.541 07:24 27.09.2019
1230 Clouds 27 1012 88 16093 0.72 129.541 06:43 27.09.2019
1231 Clouds 27 1012 88 16093 0.72 129.541 06:25 27.09.2019
1232 Clouds 28 1011 70 16093 2.6 0 05:51 27.09.2019
1233 Clouds 28 1011 70 16093 2.6 0 05:33 27.09.2019
1234 Rain 27 1012 100 16093 2.1 260 03:56 27.09.2019
1235 Rain 28 1011 70 16093 3.1 180 03:34 27.09.2019
1236 Rain 28 1011 78 9656 2.6 210 01:52 27.09.2019
1237 Rain 28 1011 78 8047 4.1 210 01:28 27.09.2019
1238 Clouds 29 1013 70 16093 4.6 150 00:30 27.09.2019
1239 Clouds 29 1013 66 16093 4.1 160 23:56 26.09.2019
1240 Clouds 29 1013 66 16093 4.1 160 23:38 26.09.2019
1241 Clouds 29 1013 66 16093 4.1 160 23:18 26.09.2019
1242 Clouds 29 1014 66 16093 2.1 80 22:56 26.09.2019
1243 Clouds 29 1014 66 16093 2.1 80 22:56 26.09.2019
1244 Clouds 29 1014 66 16093 2.1 80 22:38 26.09.2019
1245 Clouds 29 1014 66 16093 2.1 80 22:18 26.09.2019
1246 Clouds 28 1014 74 16093 1.5 170 21:55 26.09.2019
1247 Clouds 29 1014 74 16093 1.5 170 21:36 26.09.2019
1248 Clouds 28 1014 74 16093 1.5 170 21:18 26.09.2019
1249 Clouds 28 1014 74 16093 1.5 170 21:18 26.09.2019
1250 Rain 27 1013 83 16093 1.5 40 20:56 26.09.2019
1251 Rain 27 1013 83 16093 1.5 40 20:56 26.09.2019
1252 Rain 26 1013 83 16093 1.5 40 20:38 26.09.2019
1253 Rain 26 1013 83 16093 1.5 40 20:38 26.09.2019
1254 Rain 26 1013 83 16093 1.5 40 20:20 26.09.2019
1255 Rain 25 1013 83 16093 2.09 181.893 19:40 26.09.2019
1256 Clouds 25 1013 78 16093 2.09 181.893 19:19 26.09.2019
1257 Clouds 25 1013 78 16093 2.09 181.893 18:58 26.09.2019
1258 Clouds 24 1013 78 16093 2.09 181.893 18:39 26.09.2019
1259 Clouds 24 1013 78 16093 2.09 181.893 18:39 26.09.2019
1260 Clouds 24 1013 78 16093 1.55 183.364 18:21 26.09.2019
1261 Clouds 25 1013 100 16093 1.55 183.364 17:54 26.09.2019
1262 Clouds 25 1013 78 16093 1.5 10 17:36 26.09.2019
1263 Clouds 25 1013 78 16093 1.5 10 17:18 26.09.2019
1264 Clouds 25 1012 83 16093 1.55 183.364 16:39 26.09.2019
1265 Clouds 25 1012 83 16093 1.55 183.364 16:20 26.09.2019
1266 Clouds 25 1012 74 16093 2.1 340 15:58 26.09.2019
1267 Clouds 25 1012 74 16093 2.1 340 15:38 26.09.2019
1268 Clouds 25 1012 74 16093 2.1 340 15:19 26.09.2019
1269 Clouds 25 1013 78 16093 2.1 320 14:57 26.09.2019
1270 Clouds 25 1013 78 16093 2.1 320 14:37 26.09.2019
1271 Clouds 25 1013 78 16093 2.1 320 14:19 26.09.2019
1272 Clouds 24 1013 83 16093 0.66 192.632 13:41 26.09.2019
1273 Clouds 25 1014 83 16093 0.78 151.824 13:20 26.09.2019
1274 Clouds 25 1014 83 16093 0.78 151.824 12:56 26.09.2019
1275 Clouds 25 1014 83 16093 0.78 151.824 12:38 26.09.2019
1276 Clouds 25 1014 83 16093 0.85 147.098 12:19 26.09.2019
1277 Clouds 25 1014 74 16093 2.6 40 11:42 26.09.2019
1278 Clouds 25 1014 74 16093 2.6 40 11:21 26.09.2019
1279 Clouds 25 1014 78 16093 3.1 90 10:55 26.09.2019
1280 Clouds 25 1014 78 16093 3.1 90 10:37 26.09.2019
1281 Clouds 26 1014 78 16093 3.1 90 10:19 26.09.2019
1282 Clouds 26 1014 78 16093 3.1 90 10:19 26.09.2019
1283 Clouds 26 1014 78 16093 2.6 310 09:43 26.09.2019
1284 Clouds 26 1014 78 16093 2.6 310 09:43 26.09.2019
1285 Clouds 26 1014 78 16093 2.6 310 09:25 26.09.2019
1286 Clouds 26 1013 78 16093 0.74 195.296 08:54 26.09.2019
1287 Clouds 26 1013 78 16093 0.64 159.118 08:33 26.09.2019
1288 Rain 26 1013 74 16093 0.64 159.118 07:59 26.09.2019
1289 Rain 26 1013 74 16093 0.64 159.118 07:41 26.09.2019
1290 Rain 26 1013 74 16093 0.64 159.118 07:41 26.09.2019
1291 Rain 27 1013 74 16093 0.64 159.118 07:20 26.09.2019
1292 Rain 27 1013 94 16093 0.64 159.118 06:43 26.09.2019
1293 Rain 27 1013 94 16093 1.19 183.747 06:24 26.09.2019
1294 Rain 27 1013 94 16093 2.6 290 05:40 26.09.2019
1295 Rain 27 1013 94 16093 2.6 290 05:21 26.09.2019
1296 Rain 28 1012 66 16093 1.05 192.099 02:41 26.09.2019
1297 Rain 26 1014 100 16093 1.5 70 01:49 26.09.2019
1298 Rain 26 1014 100 16093 1.5 70 01:27 26.09.2019
1299 -273 0 0 0 0 0 00:54 26.09.2019
1300 Rain 26 1014 88 6437 4.1 90 00:36 26.09.2019
1301 Rain 25 1015 88 3219 3.6 110 23:45 25.09.2019
1302 Rain 25 1015 88 3219 3.6 110 23:27 25.09.2019
1303 Rain 25 1015 88 3219 1.99 198.807 22:56 25.09.2019
1304 Rain 26 1015 74 16093 3.1 110 22:38 25.09.2019
1305 Rain 26 1015 74 16093 3.1 110 22:38 25.09.2019
1306 Rain 26 1015 74 16093 3.1 110 22:20 25.09.2019
1307 Rain 26 1015 74 16093 3.1 110 22:20 25.09.2019
1308 Rain 26 1014 78 16093 4.1 110 21:56 25.09.2019
1309 Rain 26 1014 78 16093 4.1 110 21:37 25.09.2019
1310 Rain 26 1014 78 16093 4.1 110 21:18 25.09.2019
1311 Rain 25 1014 83 16093 2.6 30 20:56 25.09.2019
1312 Rain 25 1014 83 16093 2.6 30 20:37 25.09.2019
1313 Rain 24 1014 83 16093 2.6 30 20:19 25.09.2019
1314 Rain 24 1014 83 16093 2.6 30 20:19 25.09.2019
1315 Rain 24 1014 88 16093 1.6 171.308 19:41 25.09.2019
1316 Rain 24 1014 88 16093 1.6 171.308 19:21 25.09.2019
1317 Rain 24 1014 88 16093 1.6 171.308 18:57 25.09.2019
1318 Rain 24 1013 94 16093 3.1 40 18:38 25.09.2019
1319 Rain 24 1013 94 16093 3.1 40 18:20 25.09.2019
1320 Rain 24 1013 88 11265 3.6 210 17:55 25.09.2019
1321 Rain 24 1013 94 11265 2.6 10 17:36 25.09.2019
1322 Rain 24 1013 94 11265 2.6 10 17:18 25.09.2019
1323 Rain 24 1013 88 16093 3.6 350 16:42 25.09.2019
1324 Rain 24 1013 88 16093 3.6 350 16:23 25.09.2019
1325 Rain 24 1013 94 16093 0.69 116.864 15:56 25.09.2019
1326 Rain 24 1013 94 16093 0.69 116.864 15:56 25.09.2019
1327 Rain 24 1013 94 8047 1.5 270 15:38 25.09.2019
1328 Rain 24 1013 94 8047 1.5 270 15:19 25.09.2019
1329 Rain 25 1013 88 16093 1.26 92.131 14:42 25.09.2019
1330 Rain 25 1013 88 16093 1.26 92.131 14:22 25.09.2019
1331 Rain 25 1012 74 16093 2.6 110 13:58 25.09.2019
1332 Rain 25 1013 74 16093 1.5 320 13:40 25.09.2019
1333 Rain 26 1013 74 16093 1.5 320 13:20 25.09.2019
1334 Clouds 26 1014 83 16093 3.6 190 12:56 25.09.2019
1335 Clouds 26 1014 74 16093 1.5 20 12:37 25.09.2019
1336 Clouds 26 1014 69 16093 1.5 10 12:18 25.09.2019
1337 Clouds 26 1014 69 16093 1.5 10 11:40 25.09.2019
1338 Clouds 26 1014 69 16093 1.5 10 11:20 25.09.2019
1339 Clouds 27 1014 65 16093 2.1 60 10:47 25.09.2019
1340 Clouds 27 1014 65 16093 2.1 60 10:27 25.09.2019
1341 Clouds 27 1014 65 16093 2.1 60 10:27 25.09.2019
1342 Clouds 27 1014 65 16093 2.6 90 09:59 25.09.2019
1343 Clouds 27 1014 65 16093 2.6 90 09:59 25.09.2019
1344 Clouds 27 1014 65 16093 2.6 90 09:59 25.09.2019
1345 Clouds 27 1014 65 16093 2.6 90 09:41 25.09.2019
1346 Clouds 27 1014 65 16093 2.6 90 09:23 25.09.2019
1347 Clouds 27 1014 65 16093 4.1 90 08:57 25.09.2019
1348 Clouds 27 1014 65 16093 4.1 90 08:39 25.09.2019
1349 Clouds 27 1014 65 16093 4.1 90 08:19 25.09.2019
1350 Clouds 27 1013 65 16093 3.1 70 07:40 25.09.2019
1351 Clouds 27 1013 62 16093 5.7 60 07:22 25.09.2019
1352 Clouds 27 1013 62 16093 5.7 60 06:55 25.09.2019
1353 Clouds 27 1013 62 16093 5.7 60 06:33 25.09.2019
1354 Clouds 28 1012 58 16093 4.6 60 05:43 25.09.2019
1355 Clouds 29 1012 52 16093 4.6 80 04:58 25.09.2019
1356 Clouds 30 1013 55 16093 7.7 60 02:32 25.09.2019
1357 Clouds 31 1013 52 16093 6.2 90 01:29 25.09.2019
1358 Clouds 30 1014 52 16093 6.2 70 00:38 25.09.2019
1359 Clouds 30 1015 52 16093 3.6 100 00:19 25.09.2019
1360 Clouds 30 1015 52 16093 3.6 100 23:41 24.09.2019
1361 Clouds 30 1015 52 16093 3.6 100 23:22 24.09.2019
1362 Clouds 30 1015 58 16093 4.6 90 22:56 24.09.2019
1363 Clouds 29 1015 58 16093 4.6 90 22:38 24.09.2019
1364 Clouds 29 1015 58 16093 4.6 90 22:18 24.09.2019
1365 Clouds 29 1015 62 16093 5.1 90 21:54 24.09.2019
1366 Clouds 29 1015 62 16093 5.1 90 21:36 24.09.2019
1367 Clouds 28 1015 62 16093 5.1 90 21:18 24.09.2019
1368 Clouds 28 1015 62 16093 5.1 90 21:18 24.09.2019
1369 Clouds 28 1015 65 16093 4.1 60 20:55 24.09.2019
1370 Clouds 28 1015 65 16093 4.1 60 20:37 24.09.2019
1371 Clouds 27 1015 65 16093 4.1 60 20:18 24.09.2019
1372 Clouds 27 1014 65 16093 3.6 90 19:41 24.09.2019
1373 Clouds 26 1015 69 16093 6.2 80 19:19 24.09.2019
1374 Clouds 26 1015 69 16093 6.2 80 18:56 24.09.2019
1375 Clouds 26 1015 69 16093 6.2 80 18:56 24.09.2019
1376 Clouds 26 1015 69 16093 6.2 80 18:56 24.09.2019
1377 Clouds 26 1014 69 16093 5.1 60 18:38 24.09.2019
1378 Clouds 26 1014 74 16093 2.1 80 18:20 24.09.2019
1379 Clouds 26 1014 74 16093 2.1 80 17:55 24.09.2019
1380 Clouds 26 1014 74 16093 3.1 80 17:37 24.09.2019
1381 Clouds 26 1014 74 16093 3.1 80 17:19 24.09.2019
1382 Clouds 26 1014 74 16093 5.1 70 16:42 24.09.2019
1383 Clouds 26 1014 74 16093 5.1 70 16:20 24.09.2019
1384 Clouds 26 1014 69 16093 5.1 60 15:57 24.09.2019
1385 Clouds 26 1014 69 16093 5.1 60 15:38 24.09.2019
1386 Clouds 26 1014 69 16093 5.1 60 15:19 24.09.2019
1387 Clouds 26 1015 74 16093 4.6 70 14:37 24.09.2019
1388 Clouds 26 1015 74 16093 4.6 70 14:18 24.09.2019
1389 Clouds 26 1016 78 16093 3.6 60 13:41 24.09.2019
1390 Clouds 25 1016 78 16093 3.6 60 13:21 24.09.2019
1391 Clouds 26 1016 74 16093 2.6 50 12:42 24.09.2019
1392 Clouds 26 1016 74 16093 2.6 50 12:21 24.09.2019
1393 Clouds 26 1015 69 16093 4.6 70 11:57 24.09.2019
1394 Clouds 26 1016 74 16093 2.6 90 11:39 24.09.2019
1395 Clouds 26 1016 74 16093 2.6 90 11:21 24.09.2019
1396 Rain 26 1016 74 16093 4.1 50 10:40 24.09.2019
1397 Rain 26 1016 74 16093 4.1 50 10:21 24.09.2019
1398 Clouds 26 1016 69 16093 4.1 90 09:57 24.09.2019
1399 Clouds 26 1016 74 16093 3.6 70 09:39 24.09.2019
1400 Clouds 26 1016 74 16093 3.6 70 09:19 24.09.2019
1401 Clouds 26 1017 83 16093 1.5 140 08:55 24.09.2019
1402 Clouds 26 1017 83 16093 1.5 140 08:55 24.09.2019
1403 Clouds 26 1017 83 16093 1.5 140 08:55 24.09.2019
1404 Clouds 26 1017 83 16093 1.5 140 08:55 24.09.2019
1405 -273 0 0 0 0 0 08:55 24.09.2019
1406 Clouds 26 1017 83 16093 1.5 140 08:36 24.09.2019
1407 Clouds 26 1017 83 16093 1.5 140 08:18 24.09.2019
1408 Clouds 26 1017 83 16093 1.5 140 08:18 24.09.2019
1409 Rain 26 1015 69 16093 2.6 70 07:41 24.09.2019
1410 Rain 26 1016 88 16093 4.43 88.164 07:22 24.09.2019
1411 Rain 26 1015 83 16093 2.6 270 06:46 24.09.2019
1412 Rain 26 1015 83 16093 2.6 270 06:46 24.09.2019
1413 Rain 26 1015 83 16093 2.6 270 06:26 24.09.2019
1414 Rain 27 1014 69 16093 5.1 60 05:25 24.09.2019
1415 Rain 27 1014 83 14484 3.6 50 03:47 24.09.2019
1416 Rain 27 1014 83 14484 3.6 50 03:26 24.09.2019
1417 Rain 27 1015 94 8047 2.1 170 02:45 24.09.2019
1418 Rain 27 1015 83 16093 7.7 110 01:42 24.09.2019
1419 Rain 26 1017 94 11265 2.6 180 00:42 24.09.2019
1420 Rain 26 1017 94 11265 2.6 180 00:23 24.09.2019
1421 Rain 27 1016 88 8047 3.1 70 23:43 23.09.2019
1422 Rain 27 1016 88 8047 3.1 70 23:23 23.09.2019
1423 Rain 27 1016 88 8047 3.1 70 23:23 23.09.2019
1424 Rain 28 1017 83 6437 6.2 70 22:56 23.09.2019
1425 Rain 27 1016 70 16093 5.1 110 22:37 23.09.2019
1426 Rain 27 1016 70 16093 5.1 110 22:37 23.09.2019
1427 Rain 27 1016 70 16093 5.1 110 22:18 23.09.2019
1428 Rain 28 1017 88 6437 4.64 91.703 21:54 23.09.2019
1429 Rain 27 1017 88 6437 4.64 91.703 21:36 23.09.2019
1430 Rain 27 1017 88 6437 4.19 94.732 21:18 23.09.2019
1431 Rain 27 1016 78 16093 1.5 20 20:40 23.09.2019
1432 Rain 26 1017 94 1006 1.5 140 20:19 23.09.2019
1433 Rain 26 1017 94 1006 1.5 140 20:19 23.09.2019
1434 Rain 26 1017 100 6437 1.5 180 19:55 23.09.2019
1435 Rain 26 1017 100 6437 1.5 180 19:55 23.09.2019
1436 Rain 26 1017 100 6437 4.39 96.053 19:36 23.09.2019
1437 Rain 26 1016 74 16093 2.1 40 19:18 23.09.2019
1438 Rain 26 1016 100 16093 2.1 270 18:42 23.09.2019
1439 Rain 26 1016 100 16093 2.1 270 18:42 23.09.2019
1440 Drizzle 26 1016 100 16093 1.5 280 18:19 23.09.2019
1441 Drizzle 26 1016 100 16093 1.5 280 17:58 23.09.2019
1442 Clouds 26 1016 94 16093 2.46 91.814 17:39 23.09.2019
1443 Clouds 26 1016 94 16093 2.46 91.814 17:20 23.09.2019
1444 Rain 26 1016 94 16093 2.46 91.814 16:57 23.09.2019
1445 Rain 26 1015 74 16093 2.1 140 16:36 23.09.2019
1446 Rain 26 1015 74 16093 2.1 140 16:18 23.09.2019
1447 Rain 26 1016 100 16093 2.46 91.814 15:56 23.09.2019
1448 Rain 26 1016 94 16093 1.5 280 15:38 23.09.2019
1449 Rain 26 1016 94 16093 1.5 280 15:38 23.09.2019
1450 Clouds 26 1016 94 16093 1.5 280 15:18 23.09.2019
1451 Clouds 26 1016 94 16093 1.5 280 15:18 23.09.2019
1452 Clouds 26 1016 94 16093 1.5 280 15:18 23.09.2019
1453 Clouds 26 1015 78 16093 4.1 90 14:40 23.09.2019
1454 Clouds 26 1015 78 16093 4.1 90 14:20 23.09.2019
1455 Clouds 26 1015 78 16093 4.1 90 14:20 23.09.2019
1456 Drizzle 26 1017 94 16093 1.87 99.533 13:58 23.09.2019
1457 Clouds 26 1016 74 16093 1.87 99.533 13:38 23.09.2019
1458 Clouds 26 1016 74 16093 1.58 96.376 13:18 23.09.2019
1459 Clouds 26 1016 74 16093 1.58 96.376 13:18 23.09.2019
1460 Clouds 26 1016 74 16093 1.58 96.376 13:18 23.09.2019
1461 Clouds 26 1016 78 16093 2.1 100 12:46 23.09.2019
1462 Clouds 26 1016 78 16093 2.1 100 12:23 23.09.2019
1463 Clouds 26 1016 78 16093 4.1 120 11:58 23.09.2019
1464 Clouds 26 1016 78 16093 4.1 120 11:40 23.09.2019
1465 Clouds 26 1016 78 16093 4.1 120 11:22 23.09.2019
1466 Clouds 26 1016 78 16093 3.6 120 10:49 23.09.2019
1467 Clouds 26 1016 78 16093 3.6 120 10:22 23.09.2019
1468 Clouds 27 1016 78 16093 4.1 110 09:59 23.09.2019
1469 Clouds 27 1017 78 16093 2.1 98.238 09:38 23.09.2019
1470 Clouds 27 1017 78 16093 2.77 100.641 09:19 23.09.2019
1471 Clouds 27 1017 78 16093 2.77 100.641 08:45 23.09.2019
1472 Clouds 27 1016 69 16093 2.6 90 08:26 23.09.2019
1473 Clouds 28 1016 69 16093 1.5 200 07:56 23.09.2019
1474 Clouds 28 1016 69 16093 1.5 200 07:28 23.09.2019
1475 Clouds 28 1015 66 16093 3.1 220 06:31 23.09.2019
1476 Clouds 29 1015 66 16093 5.1 80 05:48 23.09.2019
1477 Clouds 29 1015 66 16093 5.1 80 05:20 23.09.2019
1478 Clouds 29 1015 66 16093 3.6 100 04:54 23.09.2019
1479 Clouds 30 1015 66 16093 4.6 220 02:37 23.09.2019
1480 Clouds 31 1016 58 16093 1.5 0 00:43 23.09.2019
1481 Clouds 31 1016 58 16093 1.5 0 00:22 23.09.2019
1482 Clouds 30 1016 62 16093 3.1 0 23:50 22.09.2019
1483 Clouds 30 1016 62 16093 3.1 0 23:32 22.09.2019
1484 Clouds 29 1016 74 16093 2.1 330 22:57 22.09.2019
1485 Clouds 29 1016 74 16093 2.1 330 22:38 22.09.2019
1486 Clouds 28 1016 74 16093 2.1 330 22:20 22.09.2019
1487 Clouds 28 1017 69 16093 1.5 0 21:43 22.09.2019
1488 Clouds 28 1017 69 16093 1.5 0 21:43 22.09.2019
1489 Clouds 27 1017 69 16093 1.5 0 21:22 22.09.2019
1490 Clouds 27 1017 78 16093 1.6 60.059 20:55 22.09.2019
1491 Clouds 27 1017 78 16093 1.29 61.549 20:36 22.09.2019
1492 Clear 26 1016 83 16093 1.29 61.549 20:18 22.09.2019
1493 Clear 25 1016 83 16093 1.29 61.549 19:41 22.09.2019
1494 Clouds 24 1016 83 16093 1.5 350 19:22 22.09.2019
1495 Clouds 24 1016 83 16093 1.5 350 18:59 22.09.2019
1496 Clouds 25 1016 83 16093 1.29 61.549 18:38 22.09.2019
1497 Clouds 25 1015 83 16093 1.38 80.265 18:19 22.09.2019
1498 Clouds 25 1015 83 16093 1.38 80.265 17:56 22.09.2019
1499 Clouds 25 1015 83 16093 1.38 80.265 17:37 22.09.2019
1500 Clouds 25 1015 83 16093 1.38 80.265 17:18 22.09.2019
1501 Clouds 25 1015 69 16093 2.1 340 16:42 22.09.2019
1502 Clouds 25 1015 69 16093 2.1 340 16:23 22.09.2019
1503 Clouds 24 1014 78 16093 1.38 80.265 15:47 22.09.2019
1504 Clouds 24 1014 78 16093 2.6 280 15:28 22.09.2019
1505 Clouds 25 1016 69 16093 1.5 350 14:58 22.09.2019
1506 Clouds 25 1016 69 16093 1.5 350 14:40 22.09.2019
1507 Clouds 25 1016 69 16093 1.5 350 14:21 22.09.2019
1508 Clouds 24 1015 74 16093 1.44 92.502 13:55 22.09.2019
1509 Clouds 24 1016 94 16093 1.5 360 13:36 22.09.2019
1510 Clouds 24 1016 94 16093 1.5 360 13:36 22.09.2019
1511 Clouds 24 1016 100 16093 1.5 40 13:18 22.09.2019
1512 Clouds 24 1016 100 16093 1.5 40 12:42 22.09.2019
1513 Clouds 25 1016 100 16093 1.5 40 12:22 22.09.2019
1514 Clouds 25 1016 100 16093 3.6 60 11:56 22.09.2019
1515 Clouds 25 1016 100 16093 3.6 60 11:38 22.09.2019
1516 Clouds 25 1016 100 16093 3.6 60 11:19 22.09.2019
1517 Clouds 25 1016 94 16093 3.6 60 10:43 22.09.2019
1518 Clouds 25 1016 94 16093 3.6 60 10:20 22.09.2019
1519 Clear 25 1016 94 16093 5.1 70 09:56 22.09.2019
1520 Clear 25 1016 94 16093 5.1 70 09:37 22.09.2019
1521 Clear 25 1016 94 16093 5.1 70 09:19 22.09.2019
1522 Clouds 25 1015 94 16093 3.6 70 08:42 22.09.2019
1523 Clouds 25 1015 94 16093 3.6 70 08:22 22.09.2019
1524 Rain 25 1015 83 16093 5.1 80 07:49 22.09.2019
1525 Rain 25 1015 83 16093 5.1 80 07:31 22.09.2019
1526 Clouds 25 1015 69 16093 3.6 80 06:59 22.09.2019
1527 Clouds 26 1015 69 16093 3.1 80 06:37 22.09.2019
1528 Clouds 27 1014 65 16093 5.1 80 05:18 22.09.2019
1529 Rain 28 1014 65 16093 5.7 40 02:45 22.09.2019
1530 Rain 29 1014 62 16093 5.7 70 02:24 22.09.2019
1531 Rain 28 1014 65 16093 6.2 50 01:43 22.09.2019
1532 Rain 28 1015 65 16093 5.1 50 00:53 22.09.2019
1533 Rain 28 1015 65 16093 6.2 30 00:32 22.09.2019
1534 Rain 28 1015 78 16093 7.2 40 23:54 21.09.2019
1535 Rain 28 1015 78 16093 7.2 40 23:36 21.09.2019
1536 Rain 28 1015 83 16093 5.7 60 22:46 21.09.2019
1537 Rain 27 1015 83 16093 5.7 60 22:25 21.09.2019
1538 Rain 26 1016 83 16093 2.1 30 21:59 21.09.2019
1539 Rain 26 1015 94 16093 4.6 60 21:41 21.09.2019
1540 Rain 25 1015 94 16093 4.6 60 21:19 21.09.2019
1541 Rain 25 1016 94 12874 4.88 65.269 20:55 21.09.2019
1542 Rain 25 1015 100 16093 2.6 80 20:36 21.09.2019
1543 Rain 24 1015 100 16093 2.6 80 20:18 21.09.2019
1544 Rain 24 1015 100 16093 5.1 70 19:42 21.09.2019
1545 Rain 24 1015 100 16093 5.1 70 19:19 21.09.2019
1546 Rain 25 1014 94 16093 3.1 70 18:40 21.09.2019
1547 Rain 24 1014 94 16093 3.1 70 18:21 21.09.2019
1548 Rain 24 1015 94 16093 2.1 280 17:42 21.09.2019
1549 Rain 24 1015 94 16093 2.1 280 17:23 21.09.2019
1550 Rain 24 1014 88 16093 4.56 57.627 16:57 21.09.2019
1551 Rain 24 1014 88 16093 4.56 57.627 16:37 21.09.2019
1552 Rain 24 1014 88 16093 4.56 57.627 16:19 21.09.2019
1553 Rain 24 1014 78 16093 3.6 40 15:42 21.09.2019
1554 Rain 24 1014 78 16093 3.6 40 15:21 21.09.2019
1555 Rain 24 1014 100 16093 3.1 50 14:48 21.09.2019
1556 Rain 24 1014 100 16093 3.1 50 14:29 21.09.2019
1557 Rain 24 1014 74 16093 3.1 70 13:46 21.09.2019
1558 Rain 24 1014 74 16093 3.1 70 13:26 21.09.2019
1559 Clouds 24 1014 74 16093 5.7 70 12:59 21.09.2019
1560 Clouds 24 1015 94 16093 2.1 50 12:41 21.09.2019
1561 Clouds 24 1015 94 16093 2.1 50 12:21 21.09.2019
1562 Clouds 24 1015 94 16093 3.1 40 11:58 21.09.2019
1563 Clouds 25 1015 94 16093 3.1 40 11:39 21.09.2019
1564 Clouds 24 1015 94 16093 3.1 40 11:19 21.09.2019
1565 Rain 24 1015 100 16093 6.2 70 10:40 21.09.2019
1566 Rain 24 1015 100 16093 6.2 70 10:21 21.09.2019
1567 Rain 24 1016 94 16093 4.71 65.366 09:57 21.09.2019
1568 Rain 24 1016 94 16093 4.71 65.366 09:37 21.09.2019
1569 Clouds 25 1016 94 16093 4.31 62.318 09:19 21.09.2019
1570 Rain 25 1015 83 16093 2.1 310 08:48 21.09.2019
1571 Rain 25 1015 83 16093 4.79 69.548 08:20 21.09.2019
1572 Rain 26 1014 78 16093 5.1 40 07:40 21.09.2019
1573 Clouds 26 1013 69 16093 6.7 60 07:20 21.09.2019
1574 Clouds 27 1013 69 16093 6.7 60 06:36 21.09.2019
1575 Clouds 28 1014 74 16093 3.6 70 05:51 21.09.2019
1576 Rain 28 1013 74 16093 5.7 50 04:40 21.09.2019
1577 Rain 28 1014 69 16093 6.2 90 03:35 21.09.2019
1578 Clouds 29 1013 70 16093 6.2 60 02:25 21.09.2019
1579 Rain 28 1013 61 16093 4.6 60 01:49 21.09.2019
1580 Rain 28 1013 61 16093 4.6 60 01:25 21.09.2019
1581 Clouds 29 1014 65 16093 5.7 40 00:25 21.09.2019
1582 Clouds 28 1014 65 16093 6.2 70 23:56 20.09.2019
1583 Clouds 28 1014 65 16093 6.2 70 23:30 20.09.2019
1584 Clouds 27 1014 74 16093 5.1 60 22:56 20.09.2019
1585 Clouds 27 1014 74 16093 5.1 60 22:56 20.09.2019
1586 Clouds 27 1014 74 16093 5.1 60 22:37 20.09.2019
1587 Clouds 27 1014 74 16093 5.1 60 22:19 20.09.2019
1588 Clouds 26 1014 83 16093 4.1 60 21:54 20.09.2019
1589 Clouds 26 1014 83 16093 4.1 60 21:36 20.09.2019
1590 Clouds 26 1014 83 16093 4.1 60 21:18 20.09.2019
1591 Drizzle 26 1014 69 16093 4.1 70 20:41 20.09.2019
1592 Drizzle 26 1014 69 16093 4.1 70 20:20 20.09.2019
1593 Rain 25 1013 74 16093 4.1 60 19:56 20.09.2019
1594 Rain 25 1013 74 16093 4.1 60 19:56 20.09.2019
1595 Rain 25 1013 74 16093 4.1 60 19:37 20.09.2019
1596 Clouds 25 1014 78 16093 3.6 70 19:18 20.09.2019
1597 Clouds 25 1013 83 16093 5.7 70 18:39 20.09.2019
1598 Clouds 25 1013 83 16093 2.1 60 18:20 20.09.2019
1599 Clouds 25 1013 83 16093 2.1 60 17:56 20.09.2019
1600 Clouds 25 1013 83 16093 2.1 60 17:56 20.09.2019
1601 Clouds 25 1013 83 16093 2.1 60 17:38 20.09.2019
1602 Clouds 25 1013 78 16093 2.6 30 17:18 20.09.2019
1603 Clouds 25 1013 78 16093 2.6 30 16:38 20.09.2019
1604 Clouds 25 1013 78 16093 2.6 30 16:19 20.09.2019
1605 Clouds 24 1013 83 16093 6.2 50 15:42 20.09.2019
1606 Clouds 25 1013 83 16093 6.2 50 15:23 20.09.2019
1607 Clouds 25 1013 83 16093 6.2 50 14:55 20.09.2019
1608 Drizzle 25 1014 78 16093 3.6 50 14:36 20.09.2019
1609 Drizzle 25 1014 78 16093 3.6 50 14:36 20.09.2019
1610 Drizzle 25 1014 78 16093 3.6 50 14:18 20.09.2019
1611 Drizzle 25 1014 78 16093 3.6 50 14:18 20.09.2019
1612 Rain 25 1014 78 0 4.92 50 13:41 20.09.2019
1613 Clouds 26 1015 78 16093 3.1 70 13:22 20.09.2019
1614 Clouds 25 1015 78 16093 3.1 70 12:42 20.09.2019
1615 Clouds 26 1015 78 16093 3.1 70 12:23 20.09.2019
1616 Clouds 26 1015 78 16093 5.1 60 11:52 20.09.2019
1617 Clouds 26 1015 78 16093 5.1 60 11:27 20.09.2019
1618 Clouds 25 1015 83 16093 5.1 50 10:59 20.09.2019
1619 Clouds 25 1015 83 16093 5.1 50 10:41 20.09.2019
1620 Clouds 26 1015 83 16093 5.1 50 10:22 20.09.2019
1621 Rain 26 1015 83 16093 3.1 0 09:38 20.09.2019
1622 Rain 26 1015 83 16093 3.1 0 09:19 20.09.2019
1623 Rain 26 1015 83 16093 4.6 80 08:48 20.09.2019
1624 Rain 26 1015 83 16093 4.6 80 08:28 20.09.2019
1625 Rain 26 1015 88 16093 1.5 40 07:59 20.09.2019
1626 Rain 26 1015 78 16093 3.1 70 07:40 20.09.2019
1627 Rain 26 1015 78 16093 3.1 70 07:40 20.09.2019
1628 Rain 26 1015 78 16093 3.1 70 07:20 20.09.2019
1629 Rain 26 1014 74 16093 5.7 80 06:40 20.09.2019
1630 Rain 27 1013 65 16093 6.2 20 06:18 20.09.2019
1631 Clouds 28 1013 69 16093 6.2 20 04:31 20.09.2019
1632 Clouds 28 1013 69 16093 6.2 20 04:31 20.09.2019
1633 Rain 29 1012 58 16093 7.7 70 03:27 20.09.2019
1634 Clouds 29 1013 66 16093 5.7 70 01:58 20.09.2019
1635 Clouds 30 1013 62 16093 5.7 60 01:37 20.09.2019
1636 Clouds 30 1014 54 16093 6.2 70 00:33 20.09.2019
1637 Clouds 29 1014 58 16093 7.2 80 23:48 19.09.2019
1638 Clouds 29 1014 58 16093 7.2 80 23:28 19.09.2019
1639 Clouds 30 1014 62 16093 3.6 90 22:59 19.09.2019
1640 Rain 30 1015 58 16093 3.1 0 22:39 19.09.2019
1641 Rain 30 1015 58 16093 3.1 0 22:21 19.09.2019
1642 Rain 28 1015 66 16093 4.1 80 21:57 19.09.2019
1643 Rain 28 1016 69 16093 3.1 130 21:38 19.09.2019
1644 Rain 27 1016 69 16093 3.1 130 21:19 19.09.2019
1645 Rain 27 1015 83 16093 6.2 50 20:43 19.09.2019
1646 Rain 26 1015 83 16093 6.2 50 20:23 19.09.2019
1647 Rain 26 1014 83 16093 3.1 50 19:57 19.09.2019
1648 Rain 26 1014 83 16093 3.1 50 19:39 19.09.2019
1649 Rain 25 1014 83 16093 3.1 50 19:21 19.09.2019
1650 Clouds 25 1014 83 16093 3.1 80 18:56 19.09.2019
1651 Clouds 25 1014 83 16093 3.1 80 18:38 19.09.2019
1652 Clouds 25 1014 83 16093 3.1 80 18:18 19.09.2019
1653 Clouds 25 1014 83 16093 3.1 80 18:18 19.09.2019
1654 Clouds 25 1013 83 16093 2.1 30 17:42 19.09.2019
1655 Clouds 25 1013 83 16093 2.1 30 17:23 19.09.2019
1656 Clouds 25 1013 74 16093 2.1 50 16:58 19.09.2019
1657 Rain 24 1013 83 16093 3.1 80 16:39 19.09.2019
1658 Rain 25 1013 83 16093 3.1 80 16:18 19.09.2019
1659 Rain 25 1012 78 16093 5.7 150 15:39 19.09.2019
1660 Rain 25 1012 78 16093 5.7 150 15:19 19.09.2019
1661 Clouds 25 1013 83 16093 4.1 60 14:42 19.09.2019
1662 Clouds 25 1013 83 16093 4.1 60 14:24 19.09.2019
1663 Clouds 25 1014 83 16093 3.1 60 13:59 19.09.2019
1664 Clouds 25 1014 83 16093 3.1 60 13:40 19.09.2019
1665 Clouds 26 1015 83 16093 1.5 110 13:19 19.09.2019
1666 Clouds 26 1015 83 16093 1.5 110 12:40 19.09.2019
1667 Clouds 25 1015 83 16093 3.1 80 12:20 19.09.2019
1668 Clouds 26 1015 83 16093 3.1 80 11:57 19.09.2019
1669 Clouds 26 1015 83 16093 3.1 80 11:39 19.09.2019
1670 Clouds 26 1015 83 16093 4.1 90 11:19 19.09.2019
1671 Clouds 26 1015 83 16093 4.1 90 10:41 19.09.2019
1672 Clouds 26 1015 83 16093 4.1 90 10:22 19.09.2019
1673 Rain 26 1015 83 16093 4.1 110 09:58 19.09.2019
1674 Rain 26 1015 83 16093 4.1 110 09:40 19.09.2019
1675 Rain 26 1015 83 16093 4.1 110 09:20 19.09.2019
1676 Rain 26 1016 83 16093 2.1 70 08:52 19.09.2019
1677 Rain 26 1015 83 16093 4.6 90 08:27 19.09.2019
1678 Rain 27 1014 78 16093 6.2 70 07:55 19.09.2019
1679 Rain 26 1014 78 16093 6.2 70 07:37 19.09.2019
1680 Clouds 27 1013 69 16093 4.1 70 07:18 19.09.2019
1681 Clouds 27 1013 69 16093 4.1 70 06:42 19.09.2019
1682 Clouds 28 1013 69 16093 4.1 70 06:24 19.09.2019
1683 Clouds 28 1013 65 16093 7.7 70 05:50 19.09.2019
1684 Rain 29 1013 61 16093 7.2 60 04:24 19.09.2019
1685 Clouds 30 1012 58 16093 4.1 80 03:21 19.09.2019
1686 Clouds 30 1013 58 16093 6.7 60 01:45 19.09.2019
1687 Clouds 30 1014 55 16093 6.2 100 01:20 19.09.2019
1688 Clouds 30 1014 55 16093 6.2 100 00:45 19.09.2019
1689 Clouds 30 1014 55 16093 6.2 100 00:20 19.09.2019
1690 Clouds 30 1014 58 16093 5.1 70 23:38 18.09.2019
1691 Clouds 30 1014 58 16093 5.7 70 23:20 18.09.2019
1692 Clouds 30 1014 58 16093 5.7 70 22:42 18.09.2019
1693 Clouds 30 1014 58 16093 5.7 70 22:42 18.09.2019
1694 Clouds 30 1014 58 16093 5.7 70 22:20 18.09.2019
1695 Clouds 29 1014 61 16093 6.2 80 21:58 18.09.2019
1696 Clouds 29 1014 61 16093 6.2 80 21:40 18.09.2019
1697 Clouds 29 1014 61 16093 6.2 80 21:18 18.09.2019
1698 Clouds 28 1014 73 16093 4.1 110 20:57 18.09.2019
1699 Clouds 27 1014 73 16093 4.1 110 20:39 18.09.2019
1700 Clouds 27 1014 73 16093 4.1 110 20:21 18.09.2019
1701 Clouds 27 1014 73 16093 4.1 110 19:57 18.09.2019
1702 Clouds 26 1014 88 16093 2.6 50 19:38 18.09.2019
1703 Clouds 26 1013 83 16093 1.5 70 19:19 18.09.2019
1704 Clouds 25 1013 83 16093 1.5 70 18:55 18.09.2019
1705 Clouds 25 1013 83 16093 1.5 70 18:36 18.09.2019
1706 Clouds 25 1013 83 16093 1.5 70 18:36 18.09.2019
1707 Clouds 25 1013 83 16093 1.5 70 18:18 18.09.2019
1708 Clouds 25 1013 83 16093 1.5 40 17:54 18.09.2019
1709 Clouds 25 1013 83 16093 1.5 40 17:36 18.09.2019
1710 Clouds 25 1012 88 16093 2.6 60 17:18 18.09.2019
1711 Clouds 25 1012 88 16093 2.6 60 16:43 18.09.2019
1712 Clouds 25 1012 88 16093 2.6 60 16:22 18.09.2019
1713 Clouds 25 1013 83 16093 3.1 60 15:59 18.09.2019
1714 Clouds 25 1013 83 16093 3.1 60 15:59 18.09.2019
1715 Clouds 25 1013 83 16093 3.1 60 15:59 18.09.2019
1716 Clouds 25 1013 83 16093 3.1 60 15:59 18.09.2019
1717 Clouds 25 1013 83 16093 3.1 60 15:40 18.09.2019
1718 Clouds 25 1013 83 16093 3.1 60 15:20 18.09.2019
1719 Clouds 25 1013 83 16093 3.1 80 14:58 18.09.2019
1720 Clouds 25 1013 83 16093 3.1 80 14:40 18.09.2019
1721 Clouds 25 1013 83 16093 3.1 80 14:40 18.09.2019
1722 Clouds 25 1013 83 16093 3.1 80 14:22 18.09.2019
1723 Clouds 25 1013 73 16093 4.6 90 13:58 18.09.2019
1724 Clouds 25 1013 73 16093 4.6 90 13:38 18.09.2019
1725 Clouds 26 1014 78 16093 5.1 80 13:18 18.09.2019
1726 Clouds 26 1014 78 16093 5.1 80 12:44 18.09.2019
1727 Clouds 26 1014 78 16093 5.1 80 12:26 18.09.2019
1728 Clouds 26 1014 73 16093 4.1 70 11:40 18.09.2019
1729 Clouds 26 1014 73 16093 4.1 70 11:20 18.09.2019
1730 Clouds 26 1014 78 16093 6.2 60 10:58 18.09.2019
1731 Clouds 26 1014 78 16093 6.2 60 10:39 18.09.2019
1732 Clouds 26 1014 78 16093 6.2 60 10:20 18.09.2019
1733 Clouds 26 1014 83 16093 4.1 60 09:55 18.09.2019
1734 Clouds 26 1014 83 16093 4.1 60 09:37 18.09.2019
1735 Clouds 26 1014 83 16093 4.1 60 09:18 18.09.2019
1736 Clouds 26 1013 69 16093 5.1 80 08:41 18.09.2019
1737 Clouds 26 1013 69 16093 5.1 80 08:41 18.09.2019
1738 Clouds 26 1013 69 16093 5.1 80 08:21 18.09.2019
1739 Clouds 27 1013 69 16093 6.7 50 07:45 18.09.2019
1740 Clouds 27 1013 69 16093 6.7 50 07:23 18.09.2019
1741 Rain 27 1012 69 16093 4.6 90 06:54 18.09.2019
1742 Rain 27 1012 69 16093 4.6 90 06:26 18.09.2019
1743 Clouds 29 1012 65 16093 7.7 60 05:39 18.09.2019
1744 Clouds 29 1013 58 16093 4.6 70 03:49 18.09.2019
1745 Clouds 30 1013 58 16093 5.1 70 02:41 18.09.2019
1746 Clouds 30 1013 62 16093 5.1 70 01:50 18.09.2019
1747 Clouds 30 1014 58 16093 6.2 70 00:57 18.09.2019
1748 Clouds 30 1014 58 16093 6.2 70 00:34 18.09.2019
1749 Clouds 30 1014 58 16093 5.1 80 23:48 17.09.2019
1750 Clouds 30 1014 58 16093 5.1 80 23:25 17.09.2019
1751 Clouds 30 1014 58 16093 5.1 80 23:25 17.09.2019
1752 Clouds 30 1014 58 16093 5.7 90 22:59 17.09.2019
1753 Clouds 30 1014 58 16093 5.7 90 22:41 17.09.2019
1754 Clouds 29 1014 58 16093 5.7 90 22:22 17.09.2019
1755 Clouds 29 1015 61 16093 4.6 120 21:54 17.09.2019
1756 Clouds 28 1014 65 16093 5.1 70 21:36 17.09.2019
1757 Clouds 28 1015 65 16093 3.1 120 21:18 17.09.2019
1758 Clouds 28 1015 65 16093 3.1 120 21:18 17.09.2019
1759 Clouds 28 1015 65 16093 3.1 120 20:56 17.09.2019
1760 Clouds 28 1015 65 16093 3.1 120 20:56 17.09.2019
1761 Clouds 27 1014 69 16093 4.6 70 20:38 17.09.2019
1762 Clouds 27 1014 69 16093 4.6 70 20:19 17.09.2019
1763 Clouds 27 1014 69 16093 4.6 70 20:19 17.09.2019
1764 Clouds 26 1013 83 16093 3.6 50 19:54 17.09.2019
1765 Clouds 26 1013 83 16093 3.6 50 19:54 17.09.2019
1766 Clouds 26 1013 83 16093 3.6 50 19:36 17.09.2019
1767 Clouds 26 1013 83 16093 3.6 50 19:18 17.09.2019
1768 Clouds 25 1013 83 16093 4.6 70 18:42 17.09.2019
1769 Clouds 24 1013 83 16093 4.6 70 18:22 17.09.2019
1770 Clouds 24 1012 88 16093 2.1 30 17:55 17.09.2019
1771 Clouds 25 1012 88 16093 2.1 30 17:37 17.09.2019
1772 Clouds 25 1012 88 16093 2.2 73.51 17:18 17.09.2019
1773 Clouds 24 1012 88 16093 2.2 73.51 16:41 17.09.2019
1774 Clouds 24 1012 88 16093 2.2 73.51 16:41 17.09.2019
1775 Clouds 24 1012 88 16093 2.2 73.51 16:41 17.09.2019
1776 Clouds 25 1012 88 16093 2.2 73.51 16:22 17.09.2019
1777 Clouds 25 1013 94 16093 2.1 10 15:56 17.09.2019
1778 Clouds 24 1013 94 16093 2.1 10 15:37 17.09.2019
1779 Clouds 24 1013 94 16093 2.1 10 15:19 17.09.2019
1780 Rain 25 1013 78 16093 2.6 110 14:55 17.09.2019
1781 Rain 25 1013 78 16093 2.6 110 14:37 17.09.2019
1782 Rain 25 1013 78 16093 2.6 110 14:18 17.09.2019
1783 Clouds 26 1013 83 16093 4.6 160 13:41 17.09.2019
1784 Clouds 26 1013 83 16093 4.6 160 13:23 17.09.2019
1785 Clouds 26 1014 88 16093 1.7 110.445 12:54 17.09.2019
1786 Clouds 26 1013 78 16093 1.5 90 12:36 17.09.2019
1787 Clouds 26 1014 83 16093 2.6 130 12:18 17.09.2019
1788 Clouds 27 1014 83 16093 2.6 130 11:41 17.09.2019
1789 Clouds 27 1014 83 16093 2.6 130 11:19 17.09.2019
1790 Clouds 27 1014 83 16093 2.6 130 11:19 17.09.2019
1791 Clouds 27 1014 78 16093 3.1 70 10:42 17.09.2019
1792 Clouds 27 1014 78 16093 3.1 70 10:22 17.09.2019
1793 Clouds 27 1013 74 16093 3.1 90 09:58 17.09.2019
1794 Clouds 27 1013 74 16093 3.1 90 09:40 17.09.2019
1795 Clouds 27 1013 74 16093 3.1 90 09:20 17.09.2019
1796 Clouds 27 1013 74 16093 4.6 70 08:44 17.09.2019
1797 Clouds 27 1013 74 16093 4.6 70 08:25 17.09.2019
1798 Clouds 27 1013 74 16093 4.6 70 08:25 17.09.2019
1799 -273 0 0 0 0 0 07:55 17.09.2019
1800 Rain 27 1012 74 16093 3.1 90 07:36 17.09.2019
1801 Rain 27 1012 69 16093 4.1 80 07:18 17.09.2019
1802 Rain 28 1012 74 16093 5.7 70 06:40 17.09.2019
1803 Rain 28 1011 70 16093 3.6 80 05:58 17.09.2019
1804 Rain 28 1011 70 16093 3.6 80 05:33 17.09.2019
1805 Rain 29 1012 69 16093 3.6 170 04:19 17.09.2019
1806 Clouds 29 1012 70 16093 4.6 60 02:41 17.09.2019
1807 Mist 30 1012 66 16093 5.7 60 01:53 17.09.2019
1808 Mist 30 1013 62 16093 7.7 120 00:58 17.09.2019
1809 Mist 30 1013 62 16093 7.7 120 00:58 17.09.2019
1810 Mist 30 1013 62 16093 7.7 120 23:55 16.09.2019
1811 Mist 31 1013 55 16093 6.2 120 23:36 16.09.2019
1812 Mist 30 1015 62 16093 3.1 60 23:18 16.09.2019
1813 Mist 30 1015 62 16093 3.6 70 22:41 16.09.2019
1814 Mist 30 1015 62 16093 3.6 70 22:23 16.09.2019
1815 Mist 30 1014 62 16093 4.1 80 21:58 16.09.2019
1816 Mist 30 1014 62 16093 4.1 80 21:38 16.09.2019
1817 Mist 29 1014 62 16093 4.1 80 21:20 16.09.2019
1818 Mist 29 1013 65 16093 3.6 70 20:55 16.09.2019
1819 Mist 28 1013 65 16093 3.6 70 20:37 16.09.2019
1820 Mist 28 1013 65 16093 3.6 70 20:18 16.09.2019
1821 Mist 27 1013 78 16093 4.1 60 19:42 16.09.2019
1822 Mist 27 1013 78 16093 4.1 60 19:20 16.09.2019
1823 Mist 26 1013 78 16093 4.1 60 18:57 16.09.2019
1824 Mist 26 1013 78 16093 3.1 70 18:39 16.09.2019
1825 Mist 26 1013 78 16093 3.1 70 18:20 16.09.2019
1826 Mist 26 1012 78 16093 3.6 90 17:43 16.09.2019
1827 Mist 26 1012 78 16093 3.6 90 17:24 16.09.2019
1828 Mist 26 1012 69 16093 4.1 100 16:58 16.09.2019
1829 Mist 26 1012 74 16093 3.6 90 16:39 16.09.2019
1830 Mist 26 1012 74 16093 3.6 90 16:20 16.09.2019
1831 Mist 26 1013 78 16093 4.1 50 15:56 16.09.2019
1832 Mist 26 1013 78 16093 4.1 50 15:37 16.09.2019
1833 Rain 26 1013 78 16093 4.1 50 15:19 16.09.2019
1834 Rain 26 1013 78 16093 2.6 60 14:44 16.09.2019
1835 Mist 26 1013 78 16093 2.6 60 14:24 16.09.2019
1836 Mist 26 1014 74 16093 2.6 50 13:59 16.09.2019
1837 Mist 26 1014 74 16093 2.6 50 13:39 16.09.2019
1838 Mist 26 1014 74 16093 2.6 50 13:21 16.09.2019
1839 Mist 26 1015 88 16093 2.1 260 12:45 16.09.2019
1840 Mist 26 1015 88 16093 2.1 260 12:27 16.09.2019
1841 Mist 26 1015 88 16093 1.5 70 11:56 16.09.2019
1842 Mist 26 1015 88 16093 1.5 70 11:56 16.09.2019
1843 Mist 26 1015 88 16093 1.5 70 11:56 16.09.2019
1844 Mist 25 1015 78 16093 1.97 90.959 11:37 16.09.2019
1845 Mist 25 1015 78 16093 1.97 90.959 11:19 16.09.2019
1846 Rain 26 1014 83 16093 3.6 140 10:39 16.09.2019
1847 Rain 26 1014 83 16093 3.6 140 10:20 16.09.2019
1848 Rain 26 1015 69 16093 2.6 320 09:58 16.09.2019
1849 Rain 26 1015 69 16093 2.6 320 09:39 16.09.2019
1850 Rain 26 1015 69 16093 2.6 320 09:19 16.09.2019
1851 Rain 26 1014 69 16093 2.1 350 08:46 16.09.2019
1852 Rain 26 1014 69 16093 2.1 350 08:25 16.09.2019
1853 Rain 27 1015 83 16093 3.1 60 07:56 16.09.2019
1854 Rain 27 1015 83 16093 3.1 60 07:56 16.09.2019
1855 Rain 27 1013 74 16093 4.1 100 07:37 16.09.2019
1856 Rain 27 1014 74 16093 3.6 80 07:18 16.09.2019
1857 Rain 28 1013 74 16093 5.1 90 06:44 16.09.2019
1858 Rain 28 1013 74 16093 5.1 90 06:26 16.09.2019
1859 Rain 29 1013 55 16093 5.1 60 05:46 16.09.2019
1860 Rain 29 1013 55 16093 5.1 60 05:26 16.09.2019
1861 Rain 30 1012 70 16093 5.1 70 04:33 16.09.2019
1862 Rain 30 1012 70 16093 5.1 70 04:33 16.09.2019
1863 Rain 31 1013 62 16093 5.7 70 02:32 16.09.2019
1864 Rain 31 1014 52 16093 5.7 40 00:44 16.09.2019
1865 Rain 31 1014 52 16093 5.7 40 00:25 16.09.2019
1866 Rain 31 1015 55 16093 3.6 30 23:42 15.09.2019
1867 Rain 31 1015 55 16093 3.6 30 23:21 15.09.2019
1868 Rain 31 1015 52 16093 3.1 0 22:43 15.09.2019
1869 Rain 30 1015 52 16093 3.1 0 22:23 15.09.2019
1870 Rain 30 1015 66 16093 4.1 60 21:59 15.09.2019
1871 Rain 29 1015 66 16093 2.6 20 21:40 15.09.2019
1872 Rain 29 1015 66 16093 2.6 20 21:22 15.09.2019
1873 Rain 28 1015 74 16093 1.5 0 20:59 15.09.2019
1874 Rain 28 1015 74 16093 1.5 0 20:59 15.09.2019
1875 Rain 28 1015 74 16093 1.5 0 20:41 15.09.2019
1876 Rain 27 1015 74 16093 1.5 0 20:23 15.09.2019
1877 Mist 25 1015 88 16093 1.5 350 19:45 15.09.2019
1878 Mist 24 1015 88 16093 1.5 350 19:25 15.09.2019
1879 Mist 24 1015 88 16093 1.5 350 18:55 15.09.2019
1880 Mist 24 1014 78 16093 1.5 120 18:36 15.09.2019
1881 Mist 24 1014 83 16093 1.5 340 18:18 15.09.2019
1882 Mist 25 1014 83 16093 1.5 340 17:40 15.09.2019
1883 Mist 25 1014 83 16093 1.5 340 17:20 15.09.2019
1884 Mist 25 1014 83 16093 1.5 30 16:44 15.09.2019
1885 Mist 25 1014 83 16093 1.5 30 16:26 15.09.2019
1886 Mist 25 1014 83 16093 2.1 20 15:59 15.09.2019
1887 Mist 25 1014 83 16093 2.1 20 15:41 15.09.2019
1888 Mist 25 1014 83 16093 2.1 20 15:21 15.09.2019
1889 Mist 25 1014 78 16093 2.1 10 14:58 15.09.2019
1890 Mist 25 1014 78 16093 1.5 350 14:40 15.09.2019
1891 Mist 25 1014 78 16093 1.5 350 14:20 15.09.2019
1892 Mist 26 1013 78 16093 1.4 106.848 13:47 15.09.2019
1893 Mist 26 1014 78 16093 2.1 350 13:24 15.09.2019
1894 Mist 25 1014 78 16093 2.1 120 12:56 15.09.2019
1895 Mist 26 1015 78 16093 1.34 96.496 12:38 15.09.2019
1896 Mist 26 1015 74 16093 1.5 30 12:18 15.09.2019
1897 Mist 26 1015 74 16093 1.5 30 11:42 15.09.2019
1898 Mist 26 1015 74 16093 1.5 30 11:22 15.09.2019
1899 Rain 26 1015 74 16093 3.6 80 10:58 15.09.2019
1900 Rain 26 1015 74 16093 2.1 0 10:39 15.09.2019
1901 Rain 26 1015 74 16093 2.1 0 10:20 15.09.2019
1902 Rain 27 1015 74 16093 5.7 90 09:40 15.09.2019
1903 Rain 26 1015 74 16093 5.7 90 09:20 15.09.2019
1904 Rain 26 1014 69 16093 4.1 90 08:48 15.09.2019
1905 Rain 26 1014 78 16093 3.6 90 08:29 15.09.2019
1906 Rain 26 1014 74 16093 4.1 100 07:51 15.09.2019
1907 Rain 26 1014 78 16093 5.7 40 07:33 15.09.2019
1908 Rain 27 1013 78 16093 4.1 70 06:43 15.09.2019
1909 Mist 29 1013 46 16093 3.6 70 03:54 15.09.2019
1910 Rain 29 1014 83 16093 5.7 40 02:55 15.09.2019
1911 Rain 29 1014 74 12874 1.08 50.351 01:49 15.09.2019
1912 Rain 28 1014 74 8047 0.84 110.755 01:28 15.09.2019
1913 Mist 30 1014 74 16093 4.6 50 00:50 15.09.2019
1914 Mist 30 1014 74 16093 4.6 50 00:24 15.09.2019
1915 Mist 29 1015 62 16093 5.1 150 23:59 14.09.2019
1916 Mist 29 1015 62 16093 5.1 150 23:41 14.09.2019
1917 Mist 30 1015 62 16093 5.1 150 23:22 14.09.2019
1918 Mist 29 1015 74 16093 3.1 20 22:59 14.09.2019
1919 Mist 29 1015 74 16093 3.1 20 22:59 14.09.2019
1920 Mist 29 1015 74 16093 3.1 20 22:41 14.09.2019
1921 Mist 30 1015 74 16093 3.1 20 22:22 14.09.2019
1922 Mist 29 1015 62 16093 1 74.987 21:59 14.09.2019
1923 Mist 29 1015 62 16093 1 74.987 21:39 14.09.2019
1924 Mist 29 1015 62 16093 1.44 98.979 21:20 14.09.2019
1925 Mist 28 1015 69 16093 2.6 0 20:55 14.09.2019
1926 Mist 27 1015 69 16093 2.6 0 20:37 14.09.2019
1927 Mist 26 1015 83 16093 2.1 360 20:19 14.09.2019
1928 Mist 25 1015 83 16093 2.1 360 19:44 14.09.2019
1929 Mist 25 1015 83 16093 2.1 360 19:21 14.09.2019
1930 Mist 24 1015 83 16093 2.1 360 18:55 14.09.2019
1931 Mist 23 1014 83 16093 1.33 100.262 18:37 14.09.2019
1932 Mist 23 1013 83 16093 1.1 87.751 18:18 14.09.2019
1933 Mist 24 1013 83 16093 1.1 87.751 17:42 14.09.2019
1934 Mist 24 1013 83 16093 1.1 87.751 17:22 14.09.2019
1935 Mist 24 1014 78 16093 3.1 330 16:47 14.09.2019
1936 Mist 24 1014 78 16093 3.1 330 16:26 14.09.2019
1937 Mist 24 1013 83 16093 1.1 87.751 15:57 14.09.2019
1938 Mist 24 1013 83 16093 1.1 87.751 15:38 14.09.2019
1939 Mist 24 1013 83 16093 1.14 91.705 15:19 14.09.2019
1940 Mist 25 1014 74 16093 2.1 340 14:43 14.09.2019
1941 Mist 25 1014 74 16093 1.14 91.705 14:19 14.09.2019
1942 Mist 25 1014 74 16093 1.14 91.705 13:48 14.09.2019
1943 Mist 25 1014 74 16093 1.09 96.19 13:23 14.09.2019
1944 Mist 25 1014 69 16093 2.1 30 12:48 14.09.2019
1945 Mist 25 1014 69 16093 2.1 30 12:28 14.09.2019
1946 Mist 26 1014 78 16093 1.5 100 11:56 14.09.2019
1947 Mist 26 1014 78 16093 1.5 100 11:37 14.09.2019
1948 Mist 26 1014 78 16093 1.5 100 11:19 14.09.2019
1949 Mist 26 1015 65 16093 3.6 50 10:37 14.09.2019
1950 Mist 26 1015 65 16093 3.6 50 10:19 14.09.2019
1951 Mist 26 1014 65 16093 1.5 0 09:56 14.09.2019
1952 Mist 26 1014 65 16093 1.5 0 09:38 14.09.2019
1953 Mist 26 1014 65 16093 1.5 0 09:38 14.09.2019
1954 Mist 26 1014 65 16093 1.5 0 09:18 14.09.2019
1955 Mist 26 1013 65 16093 3.6 20 08:45 14.09.2019
1956 Mist 26 1013 65 16093 3.6 20 08:23 14.09.2019
1957 Mist 26 1013 65 16093 3.6 20 08:23 14.09.2019
1958 Rain 26 1013 65 16093 5.7 70 07:46 14.09.2019
1959 Rain 26 1013 65 16093 5.7 70 07:28 14.09.2019
1960 Rain 26 1013 65 16093 5.7 70 07:28 14.09.2019
1961 Rain 27 1013 62 16093 4.6 40 06:40 14.09.2019
1962 Rain 27 1012 58 16093 6.2 40 06:21 14.09.2019
1963 Rain 28 1012 58 16093 6.2 40 05:21 14.09.2019
1964 Rain 29 1012 52 16093 6.7 60 03:43 14.09.2019
1965 Rain 30 1012 52 16093 6.7 60 02:52 14.09.2019
1966 Rain 31 1013 52 16093 7.2 60 01:47 14.09.2019
1967 Rain 30 1013 52 16093 7.2 60 01:21 14.09.2019
1968 Rain 30 1013 58 16093 6.2 10 00:56 14.09.2019
1969 Rain 30 1013 58 16093 6.2 10 00:37 14.09.2019
1970 Rain 30 1013 58 16093 6.2 10 00:18 14.09.2019
1971 Rain 30 1014 55 16093 5.1 30 23:38 13.09.2019
1972 Rain 30 1014 55 16093 5.1 30 23:19 13.09.2019
1973 Clouds 29 1015 58 16093 3.1 90 22:56 13.09.2019
1974 Clouds 29 1015 58 16093 3.1 90 22:56 13.09.2019
1975 Clouds 29 1015 58 16093 3.1 90 22:37 13.09.2019
1976 Clouds 29 1015 58 16093 3.1 90 22:37 13.09.2019
1977 Rain 28 1015 69 16093 2.6 60 22:19 13.09.2019
1978 Rain 29 1015 65 16093 2.6 10 21:40 13.09.2019
1979 Rain 29 1015 65 16093 2.6 10 21:19 13.09.2019
1980 Rain 27 1014 78 16093 1.5 10 20:58 13.09.2019
1981 Rain 27 1014 78 16093 1.5 10 20:38 13.09.2019
1982 Rain 27 1014 78 16093 1.5 10 20:20 13.09.2019
1983 Clouds 25 1013 69 16093 3.6 70 19:54 13.09.2019
1984 Clouds 25 1013 69 16093 3.6 70 19:36 13.09.2019
1985 Clouds 25 1014 78 16093 2.09 59.564 19:18 13.09.2019
1986 Clouds 25 1014 78 16093 2.1 10 18:38 13.09.2019
1987 Clouds 24 1012 74 16093 3.1 80 18:20 13.09.2019
1988 Clouds 24 1012 74 16093 3.1 80 17:55 13.09.2019
1989 Clouds 24 1012 74 16093 3.1 80 17:55 13.09.2019
1990 Rain 24 1012 74 16093 3.1 80 17:36 13.09.2019
1991 Rain 25 1013 74 16093 1.49 53.045 17:18 13.09.2019
1992 Rain 25 1013 74 16093 1.49 53.045 16:40 13.09.2019
1993 Rain 25 1013 74 16093 1.49 53.045 16:20 13.09.2019
1994 Rain 25 1013 69 16093 2.1 20 15:43 13.09.2019
1995 Clouds 25 1013 69 16093 2.1 20 15:25 13.09.2019
1996 Clouds 25 1014 83 16093 1.71 52.163 14:56 13.09.2019
1997 Clouds 26 1013 69 16093 3.6 50 14:37 13.09.2019
1998 Clouds 26 1013 69 16093 3.6 50 14:37 13.09.2019
1999 Clouds 26 1014 83 16093 1.5 330 14:19 13.09.2019
2000 Clouds 26 1013 74 16093 2.1 50 13:44 13.09.2019
2001 Clouds 26 1013 74 16093 2.1 50 13:22 13.09.2019
2002 Clouds 26 1014 78 16093 2.1 20 12:46 13.09.2019
2003 Clouds 26 1014 78 16093 2.1 20 12:26 13.09.2019
2004 Rain 26 1015 78 16093 2.98 55.25 11:57 13.09.2019
2005 Rain 27 1014 65 16093 5.1 70 11:21 13.09.2019
2006 Clouds 26 1015 78 16093 2.6 340 10:59 13.09.2019
2007 Clouds 26 1014 65 16093 3.6 20 10:37 13.09.2019
2008 Clouds 27 1015 78 16093 2.6 10 10:18 13.09.2019
2009 Clouds 27 1015 78 16093 2.6 10 09:43 13.09.2019
2010 Clouds 27 1015 78 16093 2.6 10 09:21 13.09.2019
2011 Clouds 27 1013 65 16093 4.1 40 08:57 13.09.2019
2012 Clouds 27 1013 65 16093 4.1 40 08:39 13.09.2019
2013 Clouds 27 1013 65 16093 4.1 40 08:39 13.09.2019
2014 Clouds 27 1013 65 16093 4.1 40 08:20 13.09.2019
2015 Rain 27 1013 61 16093 4.1 80 07:41 13.09.2019
2016 Rain 28 1013 62 16093 4.6 40 07:22 13.09.2019
2017 Rain 28 1013 62 16093 4.6 40 06:38 13.09.2019
2018 Clouds 30 1012 70 14484 7.2 30 05:36 13.09.2019
2019 Rain 30 1012 46 16093 5.1 70 03:53 13.09.2019
2020 Rain 30 1012 46 16093 5.1 70 03:25 13.09.2019
2021 Clouds 30 1012 49 16093 6.7 50 02:20 13.09.2019
2022 Clouds 30 1013 43 16093 5.7 40 01:36 13.09.2019
2023 Clouds 31 1014 46 16093 5.1 40 00:59 13.09.2019
2024 Clouds 31 1014 46 16093 5.1 40 00:34 13.09.2019
2025 Clouds 30 1014 49 16093 5.7 40 23:48 12.09.2019
2026 Clouds 30 1014 49 16093 5.7 40 23:24 12.09.2019
2027 Clouds 30 1014 52 16093 4.6 30 22:56 12.09.2019
2028 Clouds 30 1014 52 16093 4.6 30 22:38 12.09.2019
2029 Clouds 29 1014 52 16093 4.6 30 22:20 12.09.2019
2030 Clouds 29 1014 55 16093 5.1 30 21:55 12.09.2019
2031 Clouds 29 1014 55 16093 5.1 30 21:36 12.09.2019
2032 Clouds 29 1014 65 16093 3.1 0 21:18 12.09.2019
2033 Clouds 28 1014 65 16093 3.1 0 20:43 12.09.2019
2034 Clouds 28 1014 65 16093 3.1 0 20:21 12.09.2019
2035 Clouds 27 1014 69 16093 1.5 0 19:57 12.09.2019
2036 Clouds 26 1014 69 16093 1.5 0 19:37 12.09.2019
2037 Clouds 26 1014 69 16093 1.5 0 19:19 12.09.2019
2038 Clouds 26 1014 69 16093 1.5 0 19:19 12.09.2019
2039 Clouds 26 1014 69 16093 1.5 0 19:19 12.09.2019
2040 Clouds 26 1014 69 16093 1.5 0 19:19 12.09.2019
2041 Clouds 26 1014 69 16093 1.5 0 19:19 12.09.2019
2042 Clouds 26 1014 65 16093 2.1 20 18:39 12.09.2019
2043 Clouds 25 1013 74 16093 2.6 70 18:21 12.09.2019
2044 Clouds 25 1013 74 16093 2.6 70 17:59 12.09.2019
2045 Clouds 26 1013 74 16093 2.6 70 17:39 12.09.2019
2046 Clouds 26 1013 74 16093 2.6 70 17:20 12.09.2019
2047 Clouds 26 1013 65 16093 2.1 30 17:20 12.09.2019
2048 Clouds 26 1013 65 16093 2.1 30 16:43 12.09.2019
2049 Clouds 26 1013 65 16093 2.1 30 16:23 12.09.2019
2050 Clouds 26 1013 65 16093 1.75 67.926 15:59 12.09.2019
2051 Clouds 26 1013 65 16093 1.75 67.926 15:39 12.09.2019
2052 Clouds 26 1013 65 16093 2.02 64.516 15:21 12.09.2019
2053 Clouds 26 1013 61 16093 2.6 20 14:45 12.09.2019
2054 Clouds 26 1013 61 16093 2.6 20 14:21 12.09.2019
2055 Clouds 26 1014 65 16093 3.6 30 13:42 12.09.2019
2056 Clouds 26 1014 65 16093 3.6 30 13:42 12.09.2019
2057 Clouds 26 1014 65 16093 3.6 30 13:23 12.09.2019
2058 Clouds 27 1014 61 16093 3.1 20 12:57 12.09.2019
2059 Clouds 26 1014 61 16093 3.1 20 12:38 12.09.2019
2060 Rain 27 1015 61 16093 1.5 0 12:18 12.09.2019
2061 Rain 27 1015 61 16093 1.5 0 11:43 12.09.2019
2062 Rain 27 1015 61 16093 1.5 0 11:22 12.09.2019
2063 Rain 26 1015 61 16093 2.45 67.292 10:57 12.09.2019
2064 Rain 26 1015 61 16093 2.45 67.292 10:57 12.09.2019
2065 Rain 26 1015 61 16093 2.45 67.292 10:39 12.09.2019
2066 Clouds 27 1015 61 16093 2.45 67.292 10:20 12.09.2019
2067 Clouds 27 1015 61 16093 4.1 50 09:43 12.09.2019
2068 Clouds 27 1015 61 16093 4.1 50 09:20 12.09.2019
2069 Clouds 27 1014 61 16093 1.5 90 08:45 12.09.2019
2070 Clouds 27 1014 61 16093 1.5 90 08:25 12.09.2019
2071 Clouds 28 1014 58 16093 4.1 80 07:56 12.09.2019
2072 Clouds 28 1014 58 16093 4.1 80 07:38 12.09.2019
2073 Clouds 28 1013 54 16093 6.7 70 07:18 12.09.2019
2074 Clouds 28 1013 54 16093 6.7 70 06:46 12.09.2019
2075 Clouds 28 1013 54 16093 6.7 70 06:19 12.09.2019
2076 Clouds 30 1013 48 16093 6.7 40 05:47 12.09.2019
2077 Clouds 30 1013 48 16093 6.7 40 05:27 12.09.2019
2078 Clouds 30 1013 46 16093 6.7 40 03:59 12.09.2019
2079 Clouds 31 1014 41 16093 6.2 60 01:45 12.09.2019
2080 Clouds 31 1014 41 16093 6.2 60 01:27 12.09.2019
2081 Clouds 31 1015 40 16093 4.6 60 00:50 12.09.2019
2082 Clouds 31 1015 40 16093 4.6 60 00:31 12.09.2019
2083 Clouds 30 1015 43 16093 6.2 30 23:47 11.09.2019
2084 Clouds 30 1015 43 16093 6.2 30 23:27 11.09.2019
2085 Clouds 30 1016 48 16093 4.6 80 22:58 11.09.2019
2086 Clouds 30 1016 48 16093 4.6 80 22:38 11.09.2019
2087 Clouds 30 1016 48 16093 4.6 80 22:20 11.09.2019
2088 Clouds 29 1016 48 16093 5.7 80 21:59 11.09.2019
2089 Clouds 29 1016 48 16093 5.7 80 21:41 11.09.2019
2090 Clouds 29 1016 48 16093 5.7 80 21:22 11.09.2019
2091 Clouds 28 1015 58 16093 3.1 20 20:56 11.09.2019
2092 Clouds 28 1015 58 16093 3.1 20 20:37 11.09.2019
2093 Clouds 26 1015 65 16093 2.6 40 20:18 11.09.2019
2094 Clouds 26 1015 65 16093 2.6 40 19:55 11.09.2019
2095 Clouds 26 1015 65 16093 2.6 40 19:37 11.09.2019
2096 Clouds 25 1015 65 16093 2.6 40 19:19 11.09.2019
2097 Clouds 25 1015 65 16093 2.6 40 18:42 11.09.2019
2098 Clouds 25 1015 65 16093 2.6 40 18:23 11.09.2019
2099 Clouds 25 1015 65 16093 2.6 40 18:23 11.09.2019
2100 Clouds 25 1015 65 16093 1.99 63.228 17:58 11.09.2019
2101 Clouds 25 1015 65 16093 1.99 63.228 17:40 11.09.2019
2102 Clouds 25 1015 65 16093 1.99 63.228 17:21 11.09.2019
2103 Clouds 25 1014 69 16093 1.99 63.228 16:54 11.09.2019
2104 Clouds 25 1014 69 16093 1.99 63.228 16:36 11.09.2019
2105 Clouds 25 1015 65 16093 3.6 70 16:18 11.09.2019
2106 Clouds 25 1015 65 16093 3.6 70 15:45 11.09.2019
2107 Clouds 26 1015 65 16093 3.6 70 15:22 11.09.2019
2108 Clouds 26 1015 65 16093 1.5 30 14:57 11.09.2019
2109 Clouds 26 1015 65 16093 1.5 30 14:38 11.09.2019
2110 Clouds 26 1015 65 16093 1.5 30 14:19 11.09.2019
2111 Clouds 25 1016 83 16093 2.6 310 13:54 11.09.2019
2112 Clouds 25 1016 83 16093 2.6 310 13:54 11.09.2019
2113 Clouds 25 1016 83 16093 2.6 310 13:36 11.09.2019
2114 Clouds 25 1016 83 16093 2.6 310 13:18 11.09.2019
2115 Clouds 26 1016 61 16093 4.1 70 12:40 11.09.2019
2116 Clouds 26 1016 61 16093 4.1 70 12:20 11.09.2019
2117 Clouds 26 1017 61 16093 3.1 0 11:41 11.09.2019
2118 Clouds 26 1017 61 16093 3.1 0 11:22 11.09.2019
2119 Clouds 26 1017 61 16093 6.7 70 10:59 11.09.2019
2120 Clouds 26 1017 61 16093 6.7 70 10:40 11.09.2019
2121 Clouds 27 1017 61 16093 6.7 70 10:20 11.09.2019
2122 Clouds 27 1016 58 16093 4.1 60 09:40 11.09.2019
2123 Clouds 27 1016 58 16093 4.1 60 09:20 11.09.2019
2124 Rain 27 1016 61 16093 5.7 50 08:57 11.09.2019
2125 Rain 27 1016 61 16093 5.7 50 08:57 11.09.2019
2126 Rain 27 1016 61 16093 5.7 50 08:38 11.09.2019
2127 -273 0 0 0 0 0 08:20 11.09.2019
2128 Clouds 28 1015 58 16093 5.1 50 07:41 11.09.2019
2129 Clouds 28 1015 58 16093 5.1 50 07:22 11.09.2019
2130 Clouds 28 1015 54 16093 6.7 50 06:48 11.09.2019
2131 Clouds 28 1015 54 16093 6.7 50 06:30 11.09.2019
2132 Clouds 29 1015 62 16093 5.7 60 05:37 11.09.2019
2133 Clouds 29 1015 62 16093 5.7 60 05:37 11.09.2019
2134 Clouds 29 1015 62 16093 5.7 60 05:19 11.09.2019
2135 Clouds 29 1015 62 16093 5.7 60 05:19 11.09.2019
2136 Clouds 30 1014 48 16093 7.2 30 04:23 11.09.2019
2137 Clouds 30 1015 54 16093 7.2 80 03:32 11.09.2019
2138 Clouds 31 1015 46 16093 6.7 40 02:41 11.09.2019
2139 Clouds 31 1016 46 16093 8.2 50 01:50 11.09.2019
2140 Clouds 30 1017 48 16093 6.2 40 00:49 11.09.2019
2141 Clouds 30 1017 46 16093 7.2 40 00:20 11.09.2019
2142 Clouds 30 1017 46 16093 7.2 40 23:41 10.09.2019
2143 Clouds 30 1017 46 16093 7.2 40 23:22 10.09.2019
2144 Clouds 30 1018 48 16093 7.7 50 22:59 10.09.2019
2145 Clouds 30 1018 48 16093 7.7 50 22:41 10.09.2019
2146 Clouds 30 1018 48 16093 7.7 50 22:19 10.09.2019
2147 Clouds 29 1018 48 16093 6.7 80 21:55 10.09.2019
2148 Clouds 29 1018 48 16093 6.7 80 21:37 10.09.2019
2149 Clouds 29 1018 48 16093 6.7 80 21:18 10.09.2019
2150 Clouds 28 1018 54 16093 3.6 40 20:56 10.09.2019
2151 Clouds 28 1018 54 16093 3.6 40 20:38 10.09.2019
2152 Clouds 28 1018 54 16093 3.6 40 20:38 10.09.2019
2153 Clouds 28 1018 54 16093 3.6 40 20:19 10.09.2019
2154 Clouds 27 1017 61 16093 5.1 80 19:55 10.09.2019
2155 Clouds 27 1017 61 16093 5.1 80 19:36 10.09.2019
2156 Clouds 26 1017 61 16093 5.1 50 19:18 10.09.2019
2157 Clouds 26 1017 61 16093 5.1 50 18:45 10.09.2019
2158 Clouds 26 1017 61 16093 5.1 50 18:23 10.09.2019
2159 Clouds 26 1017 61 16093 7.2 80 17:59 10.09.2019
2160 Clouds 26 1017 61 16093 7.2 80 17:40 10.09.2019
2161 Clouds 26 1017 61 16093 7.2 80 17:20 10.09.2019
2162 Clouds 26 1016 61 16093 7.2 80 16:57 10.09.2019
2163 Clouds 26 1016 61 16093 7.2 80 16:38 10.09.2019
2164 Clouds 26 1016 61 16093 7.2 80 16:38 10.09.2019
2165 Clouds 26 1016 61 16093 7.2 80 16:19 10.09.2019
2166 Clouds 26 1017 65 16093 3.1 50 15:44 10.09.2019
2167 Clouds 26 1017 65 16093 3.1 50 15:23 10.09.2019
2168 Clouds 26 1017 65 16093 5.7 70 14:58 10.09.2019
2169 Clouds 26 1017 65 16093 5.7 70 14:39 10.09.2019
2170 Clouds 26 1017 65 16093 5.7 70 14:21 10.09.2019
2171 Clouds 27 1017 69 16093 4.6 80 13:47 10.09.2019
2172 Clouds 27 1017 69 16093 4.6 80 13:47 10.09.2019
2173 Clouds 27 1017 69 16093 4.6 80 13:23 10.09.2019
2174 Rain 27 1017 69 16093 5.7 80 12:53 10.09.2019
2175 Rain 27 1017 69 16093 5.7 80 12:53 10.09.2019
2176 Rain 27 1018 65 16093 7.7 70 12:28 10.09.2019
2177 Rain 27 1018 65 16093 7.7 70 11:59 10.09.2019
2178 Haze 27 1018 69 9656 6.2 80 11:40 10.09.2019
2179 Clouds 27 1019 65 16093 7.7 50 11:22 10.09.2019
2180 Clouds 27 1019 65 16093 7.7 50 10:54 10.09.2019
2181 Clouds 27 1020 78 16093 5.85 69.734 10:36 10.09.2019
2182 Rain 28 1020 69 14484 5.1 80 10:18 10.09.2019
2183 Clouds 27 1019 61 16093 5.1 50 09:42 10.09.2019
2184 Clouds 27 1018 58 16093 9.3 70 09:20 10.09.2019
2185 Clouds 27 1018 58 16093 9.3 70 08:47 10.09.2019
2186 Clouds 28 1018 58 16093 9.3 70 08:29 10.09.2019
2187 Clouds 28 1018 58 16093 9.3 70 07:56 10.09.2019
2188 Clouds 28 1017 58 16093 7.2 50 07:37 10.09.2019
2189 Clouds 28 1017 58 16093 7.2 50 07:19 10.09.2019
2190 Rain 29 1016 55 16093 8.2 60 06:39 10.09.2019
2191 Rain 29 1016 55 16093 8.2 60 06:39 10.09.2019
2192 Rain 29 1016 55 16093 8.2 60 06:20 10.09.2019
2193 Clouds 30 1016 46 16093 9.3 50 04:19 10.09.2019
2194 Clouds 31 1017 51 16093 6.2 70 02:38 10.09.2019
2195 Clouds 31 1017 51 16093 6.2 70 02:38 10.09.2019
2196 Clouds 31 1018 51 16093 5.7 60 02:19 10.09.2019
2197 Clouds 31 1018 51 16093 5.7 60 01:50 10.09.2019
2198 Clouds 31 1018 51 16093 5.7 60 01:50 10.09.2019
2199 Clouds 31 1018 51 16093 5.7 60 01:50 10.09.2019
2200 Clouds 31 1018 51 16093 5.7 60 01:50 10.09.2019
2201 Clouds 31 1018 51 16093 5.7 60 01:50 10.09.2019
2202 Clouds 31 1018 51 16093 5.7 60 01:22 10.09.2019
2203 Clouds 31 1019 51 16093 6.2 120 00:34 10.09.2019
2204 Clouds 31 1019 54 16093 10.8 80 23:48 09.09.2019
2205 Clouds 30 1018 46 16093 7.7 70 23:20 09.09.2019
2206 Clouds 30 1018 46 16093 7.7 70 22:59 09.09.2019
2207 Clouds 30 1019 52 16093 9.8 70 22:39 09.09.2019
2208 Clouds 30 1019 52 16093 9.8 70 22:21 09.09.2019
2209 Clouds 29 1019 55 16093 7.7 70 21:59 09.09.2019
2210 Clouds 29 1019 55 16093 7.7 70 21:40 09.09.2019
2211 Clouds 29 1018 62 16093 6.7 60 21:21 09.09.2019
2212 Clouds 28 1018 62 16093 6.7 60 20:57 09.09.2019
2213 Clouds 28 1018 62 16093 6.7 60 20:38 09.09.2019
2214 Clouds 28 1018 62 16093 6.7 60 20:19 09.09.2019
2215 Clouds 27 1018 62 16093 6.7 60 19:59 09.09.2019
2216 Clouds 27 1018 69 16093 5.1 50 19:39 09.09.2019
2217 Clouds 27 1018 69 16093 5.1 50 19:20 09.09.2019
2218 Clouds 26 1017 69 16093 6.2 70 18:58 09.09.2019
2219 Clouds 26 1017 69 16093 6.2 70 18:40 09.09.2019
2220 Clouds 26 1017 69 16093 5.1 70 18:21 09.09.2019
2221 Clouds 26 1017 69 16093 5.1 70 17:59 09.09.2019
2222 Clouds 26 1017 69 16093 5.1 70 17:59 09.09.2019
2223 Clouds 26 1017 74 16093 7.2 60 17:40 09.09.2019
2224 Clouds 26 1017 69 16093 4.6 70 17:21 09.09.2019
2225 Clouds 26 1017 69 16093 4.6 70 17:21 09.09.2019
2226 Clouds 26 1017 69 16093 4.6 70 16:57 09.09.2019
2227 Clouds 26 1017 69 16093 4.6 70 16:38 09.09.2019
2228 Clouds 26 1017 69 16093 4.6 70 16:38 09.09.2019
2229 Clouds 26 1017 69 16093 4.6 70 16:20 09.09.2019
2230 Clouds 26 1017 69 16093 4.6 70 15:56 09.09.2019
2231 Clouds 26 1017 69 16093 4.6 70 15:56 09.09.2019
2232 Clouds 26 1017 69 16093 4.6 70 15:56 09.09.2019
2233 Clouds 26 1017 69 16093 5.7 80 15:37 09.09.2019
2234 Clouds 26 1017 69 16093 5.7 80 15:37 09.09.2019
2235 Clouds 27 1017 58 16093 6.7 70 15:18 09.09.2019
2236 Clouds 26 1017 58 16093 6.7 70 14:55 09.09.2019
2237 Clouds 26 1017 58 16093 6.7 70 14:37 09.09.2019
2238 Clouds 26 1017 58 16093 6.7 70 14:37 09.09.2019
2239 Clouds 27 1017 58 16093 6.7 70 14:18 09.09.2019
2240 Clouds 27 1018 83 16093 5.1 50 13:44 09.09.2019
2241 Clouds 27 1017 65 16093 6.7 70 13:20 09.09.2019
2242 Clouds 27 1017 65 16093 6.7 70 12:57 09.09.2019
2243 Clouds 27 1017 69 16093 4.6 80 12:38 09.09.2019
2244 Clouds 27 1018 65 16093 5.7 60 12:19 09.09.2019
2245 Clouds 27 1018 65 16093 7.2 60 11:46 09.09.2019
2246 Clouds 27 1018 65 16093 7.2 60 11:22 09.09.2019
2247 Clouds 27 1018 65 16093 7.2 60 11:22 09.09.2019
2248 Clouds 27 1018 65 16093 7.2 60 10:58 09.09.2019
2249 Clouds 27 1018 69 16093 6.2 80 10:39 09.09.2019
2250 Clouds 27 1018 58 16093 5.7 80 10:20 09.09.2019
2251 Clouds 27 1018 58 16093 5.7 80 09:50 09.09.2019
2252 Clouds 27 1018 58 16093 5.7 80 09:50 09.09.2019
2253 Clouds 27 1018 58 16093 5.7 80 09:31 09.09.2019
2254 Clouds 27 1017 69 16093 6.7 90 08:57 09.09.2019
2255 Clouds 27 1017 69 16093 6.7 80 08:38 09.09.2019
2256 Clouds 27 1017 65 16093 6.7 80 08:19 09.09.2019
2257 Clouds 28 1016 69 16093 6.7 70 07:44 09.09.2019
2258 Clouds 28 1017 54 16093 6.7 70 07:22 09.09.2019
2259 Clouds 28 1017 54 16093 6.7 70 06:54 09.09.2019
2260 Rain 29 1016 55 16093 7.7 60 06:31 09.09.2019
2261 Rain 31 1016 66 16093 7.7 70 03:21 09.09.2019
2262 Rain 30 1016 66 16093 7.7 70 02:42 09.09.2019
2263 Rain 31 1016 46 16093 8.7 70 01:47 09.09.2019
2264 Rain 31 1017 52 16093 7.2 50 00:25 09.09.2019
2265 Rain 30 1017 52 16093 7.2 50 23:58 08.09.2019
2266 Rain 31 1018 66 16093 6.2 40 23:39 08.09.2019
2267 Rain 30 1018 66 16093 6.2 40 23:21 08.09.2019
2268 Rain 29 1017 66 16093 7.7 80 22:41 08.09.2019
2269 Rain 29 1017 66 16093 7.7 70 22:23 08.09.2019
2270 Rain 29 1017 66 16093 7.7 70 21:59 08.09.2019
2271 Rain 29 1018 78 16093 2.6 60 21:40 08.09.2019
2272 Rain 29 1018 78 16093 2.6 60 21:22 08.09.2019
2273 Rain 28 1017 66 16093 6.7 70 20:56 08.09.2019
2274 Rain 27 1018 78 16093 3.6 80 20:37 08.09.2019
2275 Clouds 28 1016 65 16093 7.7 60 20:19 08.09.2019
2276 Clouds 27 1016 65 16093 7.7 60 19:39 08.09.2019
2277 Clouds 27 1016 65 16093 7.7 60 19:21 08.09.2019
2278 Clouds 27 1016 65 16093 7.7 60 19:21 08.09.2019
2279 Clouds 27 1016 65 16093 7.7 60 18:59 08.09.2019
2280 Clouds 26 1016 69 16093 5.7 50 18:39 08.09.2019
2281 Drizzle 26 1016 69 16093 5.7 50 18:20 08.09.2019
2282 Drizzle 26 1016 69 16093 5.7 50 17:59 08.09.2019
2283 Clouds 26 1015 69 16093 5.1 70 17:37 08.09.2019
2284 Rain 26 1016 83 16093 1.5 50 17:19 08.09.2019
2285 Rain 26 1016 83 16093 1.5 50 17:19 08.09.2019
2286 Rain 26 1016 83 16093 1.5 50 17:19 08.09.2019
2287 Rain 26 1016 83 16093 1.5 50 17:19 08.09.2019
2288 Rain 26 1016 83 16093 1.5 50 17:19 08.09.2019
2289 Rain 26 1016 83 16093 1.5 50 16:56 08.09.2019
2290 Clouds 26 1015 74 16093 6.2 80 16:37 08.09.2019
2291 Clouds 26 1015 69 16093 5.7 70 16:19 08.09.2019
2292 Clouds 26 1015 69 16093 7.2 90 15:42 08.09.2019
2293 Clouds 26 1016 69 16093 5.1 60 15:22 08.09.2019
2294 Clouds 26 1016 69 16093 5.1 60 15:22 08.09.2019
2295 Clouds 26 1016 69 16093 5.1 60 14:59 08.09.2019
2296 Clouds 26 1016 69 16093 5.1 60 14:39 08.09.2019
2297 Clouds 26 1016 69 16093 5.1 60 14:21 08.09.2019
2298 Rain 26 1016 69 16093 7.7 80 13:57 08.09.2019
2299 Rain 26 1017 83 16093 6.2 70 13:38 08.09.2019
2300 Rain 26 1017 69 16093 3.1 70 13:20 08.09.2019
2301 Rain 27 1017 83 16093 6.2 90 12:44 08.09.2019
2302 Rain 27 1017 83 16093 6.2 90 12:24 08.09.2019
2303 Drizzle 27 1017 65 16093 8.7 70 11:59 08.09.2019
2304 Drizzle 27 1018 78 16093 5.1 100 11:41 08.09.2019
2305 Clouds 27 1017 58 16093 5.7 70 11:20 08.09.2019
2306 Clouds 27 1017 58 16093 5.7 70 10:59 08.09.2019
2307 Clouds 27 1017 58 16093 5.7 70 10:41 08.09.2019
2308 Clouds 27 1018 73 16093 2.6 110 10:22 08.09.2019
2309 Clouds 27 1018 73 16093 2.6 110 10:22 08.09.2019
2310 Clouds 27 1018 73 16093 2.6 110 09:55 08.09.2019
2311 Rain 27 1018 78 16093 1.5 100 09:37 08.09.2019
2312 Clouds 27 1017 78 16093 2.6 20 09:18 08.09.2019
2313 Drizzle 28 1016 69 16093 6.7 90 08:39 08.09.2019
2314 Drizzle 28 1016 69 16093 6.7 90 08:39 08.09.2019
2315 Rain 28 1016 58 16093 8.2 60 08:18 08.09.2019
2316 Drizzle 28 1017 69 12874 4.6 70 07:40 08.09.2019
2317 Clouds 28 1016 58 16093 8.2 50 07:21 08.09.2019
2318 Clouds 28 1016 58 16093 8.2 50 06:53 08.09.2019
2319 Clouds 28 1015 69 16093 8.2 60 06:34 08.09.2019
2320 Clouds 30 1015 48 16093 8.7 50 05:39 08.09.2019
2321 Rain 29 1015 48 16093 8.7 60 04:26 08.09.2019
2322 Rain 31 1016 58 16093 8.2 50 02:59 08.09.2019
2323 Rain 32 1016 58 16093 8.7 60 02:29 08.09.2019
2324 Rain 32 1016 46 16093 9.8 50 01:52 08.09.2019
2325 Rain 31 1016 46 16093 9.8 50 01:22 08.09.2019
2326 Rain 31 1016 58 16093 6.2 70 00:45 08.09.2019
2327 Rain 31 1016 58 16093 6.2 70 00:27 08.09.2019
2328 Rain 31 1016 46 16093 8.2 50 23:39 07.09.2019
2329 Rain 30 1016 46 16093 8.2 50 23:21 07.09.2019
2330 Rain 30 1016 46 16093 8.2 50 22:58 07.09.2019
2331 Rain 30 1017 51 16093 8.2 70 22:39 07.09.2019
2332 Rain 29 1016 51 16093 8.2 60 22:20 07.09.2019
2333 Rain 29 1016 51 16093 8.2 60 21:43 07.09.2019
2334 Rain 29 1016 51 16093 8.2 60 21:25 07.09.2019
2335 Rain 28 1016 54 16093 7.2 50 20:58 07.09.2019
2336 Rain 28 1016 54 16093 7.2 50 20:39 07.09.2019
2337 Clouds 27 1017 73 16093 3.1 80 20:20 07.09.2019
2338 Clouds 27 1017 73 16093 3.1 80 19:55 07.09.2019
2339 Rain 26 1017 73 16093 4.6 90 19:37 07.09.2019
2340 Rain 26 1016 61 16093 7.2 60 19:19 07.09.2019
2341 Rain 26 1016 61 16093 7.2 60 18:55 07.09.2019
2342 Rain 26 1016 61 16093 7.2 60 18:55 07.09.2019
2343 Haze 26 1015 69 16093 6.2 90 18:36 07.09.2019
2344 Haze 26 1015 61 16093 6.7 70 18:18 07.09.2019
2345 Haze 26 1015 61 16093 6.7 70 17:55 07.09.2019
2346 Haze 26 1015 61 16093 6.7 70 17:55 07.09.2019
2347 Clouds 26 1015 61 16093 8.2 60 17:36 07.09.2019
2348 Clouds 26 1015 65 16093 7.7 50 17:18 07.09.2019
2349 Clouds 26 1015 65 16093 7.7 50 16:42 07.09.2019
2350 Clouds 26 1015 65 16093 7.7 50 16:21 07.09.2019
2351 Rain 26 1015 69 16093 6.2 60 15:49 07.09.2019
2352 Rain 26 1015 69 16093 6.2 60 15:27 07.09.2019
2353 Rain 26 1016 69 16093 5.7 70 14:58 07.09.2019
2354 Rain 26 1016 69 16093 5.7 70 14:37 07.09.2019
2355 Rain 26 1017 88 16093 6.79 84.299 14:19 07.09.2019
2356 Rain 26 1017 88 16093 6.79 84.299 13:58 07.09.2019
2357 Rain 26 1017 88 16093 6.79 84.299 13:40 07.09.2019
2358 Rain 26 1017 88 16093 6.79 84.299 13:40 07.09.2019
2359 Rain 26 1016 69 16093 6.7 70 13:22 07.09.2019
2360 Clouds 26 1016 69 16093 7.7 50 12:44 07.09.2019
2361 Clouds 26 1016 69 16093 7.7 50 12:25 07.09.2019
2362 Rain 26 1016 69 16093 7.7 50 11:58 07.09.2019
2363 Rain 26 1018 73 16093 3.1 60 11:39 07.09.2019
2364 Rain 27 1017 74 16093 7.2 60 11:19 07.09.2019
2365 Rain 27 1017 74 16093 7.2 60 10:40 07.09.2019
2366 Rain 27 1017 74 16093 7.2 60 10:40 07.09.2019
2367 Clouds 27 1017 65 16093 8.2 70 10:21 07.09.2019
2368 Clouds 27 1017 65 16093 8.2 70 09:45 07.09.2019
2369 Clouds 27 1017 65 16093 8.2 70 09:27 07.09.2019
2370 Clouds 27 1016 58 16093 6.7 60 08:59 07.09.2019
2371 Clouds 27 1016 58 16093 6.7 60 08:41 07.09.2019
2372 Clouds 27 1016 58 16093 6.7 60 08:23 07.09.2019
2373 Clouds 27 1016 62 16093 8.7 60 07:45 07.09.2019
2374 Clouds 27 1016 62 16093 8.7 60 07:25 07.09.2019
2375 Clouds 28 1015 48 16093 8.2 70 06:47 07.09.2019
2376 Clouds 29 1015 48 16093 8.2 70 06:19 07.09.2019
2377 Clouds 30 1015 46 16093 9.8 60 04:45 07.09.2019
2378 Clouds 30 1015 49 16093 10.8 70 04:19 07.09.2019
2379 Clouds 31 1016 46 16093 9.8 60 02:44 07.09.2019
2380 Clouds 31 1016 46 16093 7.7 60 01:44 07.09.2019
2381 Clouds 32 1016 46 16093 7.7 60 00:57 07.09.2019
2382 Clouds 32 1016 49 16093 7.7 70 00:38 07.09.2019
2383 Clouds 31 1016 49 16093 7.7 70 00:19 07.09.2019
2384 Clouds 31 1016 46 16093 9.8 50 23:39 06.09.2019
2385 Clouds 31 1016 46 16093 9.8 50 23:21 06.09.2019
2386 Clouds 31 1016 46 16093 9.8 50 22:57 06.09.2019
2387 Clouds 31 1018 65 16093 6.7 100 22:37 06.09.2019
2388 Clouds 30 1017 49 16093 8.7 60 22:19 06.09.2019
2389 Clouds 30 1017 49 16093 8.7 60 21:56 06.09.2019
2390 Clouds 30 1017 55 16093 8.7 70 21:38 06.09.2019
2391 Clouds 29 1017 55 16093 8.7 70 21:19 06.09.2019
2392 -273 0 0 0 0 0 20:55 06.09.2019
2393 Clouds 29 1017 69 16093 2.1 70 20:37 06.09.2019
2394 Clouds 28 1017 62 16093 5.1 70 20:18 06.09.2019
2395 Clouds 28 1017 62 16093 5.1 70 20:18 06.09.2019
2396 Clouds 27 1016 74 16093 5.1 70 19:41 06.09.2019
2397 Clouds 27 1016 65 16093 4.6 60 19:23 06.09.2019
2398 Clouds 27 1016 65 16093 4.6 60 18:56 06.09.2019
2399 Clouds 27 1016 65 16093 5.1 70 18:38 06.09.2019
2400 Clouds 26 1016 65 16093 5.1 70 18:19 06.09.2019
2401 Clouds 26 1015 61 16093 4.6 60 17:40 06.09.2019
2402 Clouds 26 1015 61 16093 4.6 60 17:40 06.09.2019
2403 Clouds 27 1015 65 16093 4.6 60 17:20 06.09.2019
2404 Clouds 27 1015 65 16093 4.6 60 16:56 06.09.2019
2405 Clouds 27 1015 65 16093 4.6 60 16:38 06.09.2019
2406 Clouds 26 1015 65 16093 4.6 60 16:18 06.09.2019
2407 Clouds 26 1015 65 16093 4.6 60 15:41 06.09.2019
2408 Clouds 26 1015 65 16093 4.6 60 15:22 06.09.2019
2409 Clouds 26 1015 74 16093 3.1 90 14:47 06.09.2019
2410 Clouds 27 1015 65 16093 7.2 70 14:19 06.09.2019
2411 Clouds 27 1015 61 16093 5.7 60 13:44 06.09.2019
2412 Clouds 27 1015 61 16093 5.7 60 13:24 06.09.2019
2413 Clouds 27 1015 61 16093 5.7 60 12:59 06.09.2019
2414 Clouds 27 1016 65 16093 4.1 60 12:37 06.09.2019
2415 Clouds 27 1016 65 16093 4.1 60 12:18 06.09.2019
2416 Clouds 27 1016 65 16093 6.2 60 11:41 06.09.2019
2417 Clouds 27 1017 78 16093 2.1 160 11:23 06.09.2019
2418 Clouds 27 1017 78 16093 2.1 160 10:57 06.09.2019
2419 Clouds 27 1017 78 16093 2.1 160 10:39 06.09.2019
2420 Clouds 27 1016 74 16093 6.2 80 10:18 06.09.2019
2421 Clouds 27 1016 78 16093 5.1 80 09:38 06.09.2019
2422 Rain 27 1015 78 9656 3.1 80 09:20 06.09.2019
2423 Rain 27 1015 78 9656 3.1 80 08:56 06.09.2019
2424 Clouds 27 1015 65 16093 6.2 80 08:37 06.09.2019
2425 Clouds 27 1015 65 16093 6.2 80 08:18 06.09.2019
2426 Clouds 27 1015 65 16093 6.2 80 08:18 06.09.2019
2427 Clouds 27 1015 65 16093 2.6 70 07:42 06.09.2019
2428 Clouds 27 1015 65 16093 2.6 70 07:42 06.09.2019
2429 Clouds 27 1015 65 16093 2.6 70 07:23 06.09.2019
2430 Clouds 28 1013 58 16093 7.7 80 06:43 06.09.2019
2431 Clouds 29 1013 58 16093 7.7 80 05:58 06.09.2019
2432 Clouds 30 1013 52 16093 8.2 50 04:57 06.09.2019
2433 Clouds 30 1013 52 16093 8.2 50 04:33 06.09.2019
2434 Clouds 31 1013 49 16093 8.2 40 03:29 06.09.2019
2435 Rain 30 1015 46 16093 9.3 60 01:47 06.09.2019
2436 Clouds 31 1015 46 16093 8.7 50 00:23 06.09.2019
2437 Clouds 31 1015 46 16093 8.7 50 00:23 06.09.2019
2438 Clouds 31 1015 43 16093 7.7 50 23:43 05.09.2019
2439 Clouds 31 1015 43 16093 7.7 50 23:23 05.09.2019
2440 Clouds 31 1016 66 16093 6.2 70 22:46 05.09.2019
2441 Clouds 30 1016 66 16093 6.2 70 22:27 05.09.2019
2442 Clouds 30 1016 52 16093 6.2 60 21:58 05.09.2019
2443 Clouds 30 1016 55 16093 4.6 50 21:40 05.09.2019
2444 Clouds 29 1016 55 16093 4.6 50 21:20 05.09.2019
2445 Clouds 29 1016 55 16093 4.6 50 20:58 05.09.2019
2446 Clouds 28 1016 62 16093 4.6 50 20:39 05.09.2019
2447 Clouds 28 1016 62 16093 4.6 50 20:20 05.09.2019
2448 Clouds 28 1016 62 16093 4.6 50 19:57 05.09.2019
2449 Clouds 27 1015 65 16093 3.6 60 19:39 05.09.2019
2450 Clouds 27 1015 65 16093 3.6 60 19:20 05.09.2019
2451 Clouds 26 1015 61 16093 4.6 60 18:43 05.09.2019
2452 Clouds 26 1015 61 16093 4.6 60 18:43 05.09.2019
2453 Rain 27 1015 61 16093 4.6 60 18:25 05.09.2019
2454 Rain 27 1015 61 16093 4.6 60 17:59 05.09.2019
2455 Rain 27 1016 83 16093 2.6 300 17:39 05.09.2019
2456 Rain 27 1015 65 16093 3.1 70 17:21 05.09.2019
2457 Clouds 27 1015 65 16093 3.1 70 16:57 05.09.2019
2458 Clouds 26 1015 69 16093 3.6 70 16:39 05.09.2019
2459 Clouds 27 1015 65 16093 4.6 60 16:18 05.09.2019
2460 Clear 27 1015 65 16093 6.7 80 15:40 05.09.2019
2461 Clouds 27 1016 83 16093 2.1 10 15:19 05.09.2019
2462 Clouds 27 1016 83 16093 2.1 10 15:19 05.09.2019
2463 Clouds 27 1016 83 16093 2.1 10 14:57 05.09.2019
2464 Clouds 27 1016 83 16093 2.1 10 14:57 05.09.2019
2465 Clouds 27 1016 83 16093 2.1 10 14:38 05.09.2019
2466 Clouds 27 1016 83 16093 2.1 10 14:38 05.09.2019
2467 Clouds 27 1015 65 16093 3.6 60 14:18 05.09.2019
2468 Clouds 27 1016 83 16093 3.05 60.099 13:43 05.09.2019
2469 Clouds 27 1016 65 16093 6.2 60 13:20 05.09.2019
2470 Clouds 27 1016 65 16093 5.7 50 12:44 05.09.2019
2471 Clouds 27 1016 65 16093 5.7 50 12:26 05.09.2019
2472 Clouds 27 1016 65 16093 5.7 50 11:57 05.09.2019
2473 Drizzle 27 1017 74 16093 2.1 50 11:39 05.09.2019
2474 Clouds 28 1016 74 16093 4.6 70 11:18 05.09.2019
2475 Clouds 28 1016 74 16093 4.6 70 10:41 05.09.2019
2476 Clouds 28 1016 74 16093 4.6 70 10:22 05.09.2019
2477 Clouds 28 1017 74 16093 2.1 70 09:57 05.09.2019
2478 Drizzle 28 1017 74 16093 1.5 110 09:38 05.09.2019
2479 Clouds 27 1015 65 16093 6.7 60 09:18 05.09.2019
2480 Clouds 28 1015 65 16093 6.7 60 08:45 05.09.2019
2481 Clouds 27 1015 65 16093 6.7 60 08:26 05.09.2019
2482 Clouds 28 1015 62 16093 6.2 60 07:45 05.09.2019
2483 Clouds 28 1015 62 16093 6.2 60 07:27 05.09.2019
2484 Rain 29 1014 58 16093 5.7 40 06:53 05.09.2019
2485 Rain 28 1014 58 16093 5.7 40 06:29 05.09.2019
2486 Rain 29 1014 55 16093 6.7 50 05:50 05.09.2019
2487 Rain 30 1014 55 16093 6.7 50 05:30 05.09.2019
2488 Rain 30 1013 52 16093 6.7 50 04:48 05.09.2019
2489 Clouds 31 1013 52 16093 6.7 50 04:24 05.09.2019
2490 Clouds 31 1013 52 16093 8.2 70 03:34 05.09.2019
2491 Clouds 31 1014 49 16093 8.2 60 02:44 05.09.2019
2492 Clouds 31 1014 49 16093 8.2 60 02:18 05.09.2019
2493 Clouds 31 1014 46 16093 8.7 70 01:25 05.09.2019
2494 Clouds 31 1015 52 16093 7.7 60 00:42 05.09.2019
2495 Clouds 31 1015 52 16093 7.7 60 00:20 05.09.2019
2496 Clouds 31 1015 58 16093 5.7 40 23:46 04.09.2019
2497 Clouds 31 1015 58 16093 5.7 40 23:46 04.09.2019
2498 Clouds 31 1015 58 16093 5.7 40 23:23 04.09.2019
2499 Clouds 30 1015 49 16093 6.7 50 22:57 04.09.2019
2500 Clouds 30 1015 70 16093 5.1 60 22:38 04.09.2019
2501 Rain 29 1015 66 16093 5.7 70 22:18 04.09.2019
2502 Rain 29 1015 62 16093 5.7 50 21:39 04.09.2019
2503 Rain 29 1015 62 16093 5.7 50 21:20 04.09.2019
2504 Rain 28 1015 62 16093 5.7 50 20:56 04.09.2019
2505 Rain 28 1015 69 16093 5.1 70 20:37 04.09.2019
2506 Rain 28 1015 69 16093 5.1 70 20:18 04.09.2019
2507 Clouds 27 1015 69 16093 4.1 50 19:45 04.09.2019
2508 Clouds 27 1015 69 16093 4.1 50 19:25 04.09.2019
2509 Clouds 27 1015 69 16093 4.1 50 19:25 04.09.2019
2510 Clouds 26 1015 78 16093 1.5 0 18:58 04.09.2019
2511 Clouds 26 1015 69 16093 4.6 80 18:38 04.09.2019
2512 Clouds 26 1015 69 16093 4.6 80 18:19 04.09.2019
2513 Clouds 26 1014 69 16093 5.1 70 17:41 04.09.2019
2514 Clouds 26 1014 69 16093 5.1 70 17:41 04.09.2019
2515 Clouds 26 1014 69 16093 5.1 70 17:23 04.09.2019
2516 Clouds 26 1014 69 16093 4.6 70 16:57 04.09.2019
2517 Clouds 26 1014 69 16093 4.6 70 16:39 04.09.2019
2518 Clouds 26 1014 69 16093 4.6 70 16:20 04.09.2019
2519 Clouds 26 1014 69 16093 3.6 70 15:43 04.09.2019
2520 Clouds 26 1015 69 16093 4.1 50 15:22 04.09.2019
2521 Clouds 26 1015 69 16093 4.1 50 14:59 04.09.2019
2522 Clouds 26 1015 69 16093 4.1 50 14:39 04.09.2019
2523 Clouds 26 1015 69 16093 4.1 50 14:21 04.09.2019
2524 Clouds 26 1015 69 16093 4.1 50 13:59 04.09.2019
2525 Clouds 25 1016 83 16093 1.89 61.025 13:39 04.09.2019
2526 Clouds 25 1015 69 16093 4.6 70 13:21 04.09.2019
2527 Clouds 26 1016 69 16093 1.5 20 12:44 04.09.2019
2528 Clouds 26 1016 69 16093 1.5 20 12:26 04.09.2019
2529 Clouds 26 1016 69 16093 1.5 20 11:58 04.09.2019
2530 Clouds 26 1016 69 16093 1.5 40 11:39 04.09.2019
2531 Rain 26 1016 69 16093 3.6 80 11:20 04.09.2019
2532 Rain 26 1016 69 16093 3.6 80 10:56 04.09.2019
2533 Rain 26 1016 69 16093 3.6 80 10:38 04.09.2019
2534 Rain 26 1016 69 16093 4.1 80 10:19 04.09.2019
2535 Rain 26 1016 69 16093 4.1 80 09:44 04.09.2019
2536 Rain 26 1016 69 16093 4.1 80 09:21 04.09.2019
2537 Clouds 27 1015 61 16093 4.1 80 08:42 04.09.2019
2538 Clouds 27 1015 61 16093 4.1 80 08:24 04.09.2019
2539 Clouds 27 1015 61 16093 4.1 80 07:59 04.09.2019
2540 Rain 27 1015 58 16093 5.7 40 07:36 04.09.2019
2541 Rain 28 1014 51 16093 7.2 40 06:53 04.09.2019
2542 Rain 28 1014 51 16093 7.2 40 06:33 04.09.2019
2543 Clouds 30 1013 43 16093 7.2 50 04:54 04.09.2019
2544 Clouds 30 1013 43 16093 7.2 50 04:22 04.09.2019
2545 Clouds 31 1014 43 16093 4.6 90 02:46 04.09.2019
2546 Clouds 31 1014 41 16093 5.7 60 00:58 04.09.2019
2547 Clouds 30 1015 43 16093 5.1 80 00:39 04.09.2019
2548 Clouds 30 1015 43 16093 5.1 80 00:18 04.09.2019
2549 Clouds 30 1015 43 16093 5.7 80 23:48 03.09.2019
2550 Clouds 30 1015 43 16093 5.7 80 23:26 03.09.2019
2551 Clouds 30 1015 62 16093 5.1 70 22:41 03.09.2019
2552 Clouds 29 1015 62 16093 5.1 70 22:22 03.09.2019
2553 Clouds 29 1015 48 16093 5.7 60 21:57 03.09.2019
2554 Clouds 29 1015 62 16093 4.6 90 21:38 03.09.2019
2555 -273 0 0 0 0 0 21:20 03.09.2019
2556 Clear 29 1016 54 16093 4.1 80 20:55 03.09.2019
2557 Clouds 28 1015 65 16093 4.1 70 20:36 03.09.2019
2558 Clouds 28 1015 65 16093 4.1 70 20:36 03.09.2019
2559 Clouds 28 1015 65 16093 4.1 70 20:36 03.09.2019
2560 Clouds 27 1015 54 16093 4.1 50 20:18 03.09.2019
2561 Clouds 26 1015 61 16093 2.6 50 19:42 03.09.2019
2562 Clouds 25 1015 61 16093 2.6 50 19:19 03.09.2019
2563 Clouds 24 1015 69 16093 3.6 60 18:56 03.09.2019
2564 Clouds 24 1015 69 16093 3.6 60 18:38 03.09.2019
2565 Clouds 24 1015 69 16093 3.6 60 18:18 03.09.2019
2566 Clouds 24 1015 69 16093 3.6 60 18:18 03.09.2019
2567 Clouds 24 1014 65 16093 3.1 40 17:43 03.09.2019
2568 Clouds 24 1014 65 16093 3.1 40 17:21 03.09.2019
2569 Rain 25 1014 65 16093 2.6 10 16:59 03.09.2019
2570 Rain 25 1014 65 16093 2.6 10 16:41 03.09.2019
2571 Rain 25 1014 65 16093 2.6 10 16:22 03.09.2019
2572 Clouds 25 1014 61 16093 2.1 330 15:41 03.09.2019
2573 Clouds 25 1014 61 16093 2.1 330 15:22 03.09.2019
2574 Clouds 25 1014 61 16093 2.1 0 14:59 03.09.2019
2575 Clouds 25 1014 61 16093 2.1 0 14:40 03.09.2019
2576 Clouds 25 1014 61 16093 2.1 0 14:21 03.09.2019
2577 Clouds 25 1014 61 16093 2.1 0 13:58 03.09.2019
2578 Clear 25 1014 61 16093 2.1 120 13:37 03.09.2019
2579 Clear 25 1014 61 16093 2.1 120 13:19 03.09.2019
2580 Clear 25 1014 61 16093 2.1 120 13:19 03.09.2019
2581 Clear 25 1014 61 16093 2.1 120 12:56 03.09.2019
2582 Clouds 25 1015 61 16093 3.1 50 12:38 03.09.2019
2583 Clouds 25 1015 61 16093 3.1 50 12:19 03.09.2019
2584 Clouds 25 1015 61 16093 3.1 50 12:19 03.09.2019
2585 Clouds 26 1015 65 16093 3.6 90 11:41 03.09.2019
2586 Clouds 26 1015 58 16093 3.6 50 11:22 03.09.2019
2587 Clouds 26 1015 58 16093 3.6 50 10:56 03.09.2019
2588 Clouds 26 1015 58 16093 3.6 50 10:38 03.09.2019
2589 Clouds 27 1015 69 16093 5.1 60 10:19 03.09.2019
2590 Clouds 27 1015 69 16093 5.1 60 09:44 03.09.2019
2591 Clouds 27 1014 58 16093 2.6 30 09:25 03.09.2019
2592 Clouds 27 1014 58 16093 2.6 30 08:54 03.09.2019
2593 Clouds 27 1014 58 16093 2.6 30 08:36 03.09.2019
2594 Clouds 27 1014 58 16093 2.6 30 08:18 03.09.2019
2595 Clouds 28 1013 54 16093 6.2 20 07:40 03.09.2019
2596 Clouds 28 1013 54 16093 6.2 20 07:21 03.09.2019
2597 Clouds 29 1013 51 16093 4.6 60 06:44 03.09.2019
2598 Clouds 29 1013 48 16093 6.7 30 05:52 03.09.2019
2599 Clouds 30 1013 43 16093 6.7 50 03:35 03.09.2019
2600 Clouds 31 1014 43 16093 8.2 70 02:43 03.09.2019
2601 Clouds 30 1014 43 16093 8.2 70 02:23 03.09.2019
2602 Clouds 31 1014 66 16093 5.7 60 01:48 03.09.2019
2603 Clouds 31 1014 66 16093 5.7 60 01:28 03.09.2019
2604 Clouds 31 1014 66 16093 6.2 70 00:40 03.09.2019
2605 Clouds 30 1015 43 16093 6.2 40 23:59 02.09.2019
2606 Clouds 30 1015 46 16093 6.7 70 23:39 02.09.2019
2607 Clouds 30 1015 46 16093 6.7 70 23:39 02.09.2019
2608 Clouds 30 1015 46 16093 6.7 70 23:19 02.09.2019
2609 Clouds 30 1015 46 16093 6.7 70 23:19 02.09.2019
2610 Clouds 29 1015 46 16093 6.7 70 22:56 02.09.2019
2611 Clouds 29 1015 52 16093 6.7 70 22:37 02.09.2019
2612 Clouds 29 1015 52 16093 6.7 70 22:37 02.09.2019
2613 Clouds 30 1015 52 16093 6.7 70 22:19 02.09.2019
2614 Clouds 29 1015 52 16093 6.7 70 21:56 02.09.2019
2615 Clouds 29 1016 65 16093 3.6 90 21:37 02.09.2019
2616 Clouds 28 1016 58 16093 6.2 70 21:19 02.09.2019
2617 Clouds 28 1015 65 16093 3.4 73.719 20:42 02.09.2019
2618 Clouds 28 1015 65 16093 3.4 73.719 20:23 02.09.2019
2619 Clouds 27 1015 65 16093 3.4 73.719 19:59 02.09.2019
2620 Clouds 27 1015 65 16093 2.6 20 19:41 02.09.2019
2621 Clouds 27 1015 65 16093 2.6 20 19:41 02.09.2019
2622 Clouds 26 1015 65 16093 2.6 20 19:23 02.09.2019
2623 Clouds 26 1016 78 16093 3.4 73.719 18:57 02.09.2019
2624 Clouds 26 1016 78 16093 3.4 73.719 18:37 02.09.2019
2625 Clouds 26 1015 69 16093 2.1 360 18:19 02.09.2019
2626 Clouds 25 1014 65 16093 2.1 50 17:55 02.09.2019
2627 Clouds 25 1014 65 16093 2.1 50 17:37 02.09.2019
2628 Clouds 25 1014 65 16093 2.1 50 17:18 02.09.2019
2629 Clouds 25 1014 65 16093 2.1 10 16:40 02.09.2019
2630 Clouds 26 1014 65 16093 2.1 10 16:20 02.09.2019
2631 Clouds 26 1014 65 16093 2.1 30 15:52 02.09.2019
2632 Clouds 26 1014 65 16093 2.1 30 15:31 02.09.2019
2633 Clouds 26 1014 65 16093 2.1 30 14:58 02.09.2019
2634 Clouds 26 1014 65 16093 2.1 30 14:58 02.09.2019
2635 Clouds 26 1015 69 16093 2.1 70 14:40 02.09.2019
2636 Clouds 26 1015 69 16093 2.1 70 14:22 02.09.2019
2637 Clouds 26 1015 69 16093 2.1 70 13:56 02.09.2019
2638 Clouds 26 1015 69 16093 2.1 70 13:56 02.09.2019
2639 Clouds 26 1015 69 16093 4.1 80 13:38 02.09.2019
2640 Clouds 26 1015 69 16093 4.1 80 13:20 02.09.2019
2641 Clouds 26 1016 83 16093 1.5 290 12:45 02.09.2019
2642 Clouds 26 1015 65 16093 2.6 30 12:25 02.09.2019
2643 Clouds 27 1015 65 16093 2.6 30 11:59 02.09.2019
2644 Clouds 27 1016 65 16093 3.1 40 11:39 02.09.2019
2645 Clouds 27 1016 65 16093 3.1 40 11:21 02.09.2019
2646 Clouds 27 1016 65 16093 3.1 40 10:57 02.09.2019
2647 Clouds 27 1016 65 16093 4.1 60 10:38 02.09.2019
2648 Clouds 27 1017 78 16093 2.1 330 10:19 02.09.2019
2649 Clouds 27 1017 74 16093 1.5 350 09:46 02.09.2019
2650 Clouds 27 1016 74 16093 2.8 74.842 09:22 02.09.2019
2651 Clouds 27 1015 65 16093 3.1 30 08:45 02.09.2019
2652 Clouds 28 1015 65 16093 3.1 30 08:24 02.09.2019
2653 Rain 27 1015 65 16093 3.1 30 07:59 02.09.2019
2654 Rain 28 1014 62 16093 6.7 60 07:40 02.09.2019
2655 Rain 28 1014 62 16093 6.7 60 07:21 02.09.2019
2656 Rain 28 1015 69 16093 2.1 70 06:44 02.09.2019
2657 Rain 28 1015 69 16093 2.1 70 06:25 02.09.2019
2658 Rain 29 1015 74 16093 3.1 100 05:47 02.09.2019
2659 Rain 29 1014 69 16093 4.1 60 05:18 02.09.2019
2660 Rain 30 1013 49 16093 6.2 80 02:59 02.09.2019
2661 Rain 31 1014 52 16093 8.2 40 01:45 02.09.2019
2662 Rain 30 1015 58 16093 7.7 60 00:47 02.09.2019
2663 Rain 30 1015 58 16093 7.7 60 00:28 02.09.2019
2664 Rain 29 1015 83 4828 2.6 90 23:43 01.09.2019
2665 Rain 30 1015 58 16093 5.7 60 23:22 01.09.2019
2666 Rain 30 1015 58 16093 5.7 60 22:57 01.09.2019
2667 Rain 30 1016 58 16093 6.7 60 22:39 01.09.2019
2668 Rain 29 1016 58 16093 6.7 60 22:19 01.09.2019
2669 Rain 29 1016 58 16093 6.7 60 21:55 01.09.2019
2670 Rain 29 1016 66 16093 5.1 70 21:37 01.09.2019
2671 Rain 28 1016 66 16093 5.1 70 21:18 01.09.2019
2672 Rain 28 1016 66 16093 5.1 70 20:56 01.09.2019
2673 Rain 27 1016 69 16093 5.1 60 20:36 01.09.2019
2674 Rain 27 1016 69 16093 5.1 60 20:18 01.09.2019
2675 Rain 27 1016 69 16093 5.1 60 20:18 01.09.2019
2676 Clouds 26 1015 78 16093 2.6 120 19:41 01.09.2019
2677 Clouds 26 1015 74 16093 3.6 40 19:21 01.09.2019
2678 Rain 25 1015 88 16093 2.6 120 18:57 01.09.2019
2679 Rain 25 1015 88 16093 2.6 120 18:57 01.09.2019
2680 Rain 25 1015 88 16093 2.6 120 18:38 01.09.2019
2681 Rain 25 1015 78 16093 3.1 50 18:20 01.09.2019
2682 Rain 26 1016 88 11265 2.1 0 17:54 01.09.2019
2683 Rain 25 1016 88 11265 2.1 0 17:36 01.09.2019
2684 Rain 25 1015 83 16093 5.7 60 17:18 01.09.2019
2685 Rain 26 1015 83 16093 5.1 100 16:39 01.09.2019
2686 Rain 26 1015 74 16093 2.6 20 16:18 01.09.2019
2687 Rain 26 1015 74 16093 2.6 20 16:18 01.09.2019
2688 Rain 26 1015 83 16093 6.7 60 15:43 01.09.2019
2689 Rain 26 1015 83 16093 6.7 60 15:24 01.09.2019
2690 Rain 26 1015 83 16093 5.1 70 14:45 01.09.2019
2691 Clouds 27 1015 83 16093 5.1 70 14:27 01.09.2019
2692 Clouds 27 1016 74 16093 1.5 40 13:59 01.09.2019
2693 Rain 27 1016 74 16093 2.6 40 13:41 01.09.2019
2694 Rain 27 1016 74 16093 2.6 40 13:23 01.09.2019
2695 Clouds 26 1016 69 16093 3.6 40 12:45 01.09.2019
2696 Clouds 27 1016 69 16093 3.6 40 12:26 01.09.2019
2697 Clouds 27 1016 69 16093 3.6 40 11:58 01.09.2019
2698 Clouds 27 1017 83 16093 1.5 350 11:38 01.09.2019
2699 Clouds 27 1017 69 16093 3.6 50 11:19 01.09.2019
2700 Clouds 27 1017 69 16093 3.6 50 10:45 01.09.2019
2701 Clouds 27 1017 69 16093 3.6 50 10:23 01.09.2019
2702 Clouds 28 1016 78 16093 5.1 70 09:48 01.09.2019
2703 Clouds 28 1016 78 16093 5.1 70 09:26 01.09.2019
2704 Clouds 28 1016 78 16093 5.1 70 09:26 01.09.2019
2705 Clouds 28 1016 78 16093 4.1 60 08:58 01.09.2019
2706 Clouds 28 1016 78 16093 4.6 70 08:39 01.09.2019
2707 Clouds 28 1016 66 16093 3.1 40 08:20 01.09.2019
2708 Clouds 28 1015 74 16093 3.6 70 07:41 01.09.2019
2709 Clouds 28 1015 66 16093 3.6 40 07:21 01.09.2019
2710 Clouds 29 1015 74 16093 3.6 70 06:39 01.09.2019
2711 Clear 30 1015 58 16093 6.2 50 05:59 01.09.2019
2712 Clear 30 1015 58 16093 6.2 50 05:59 01.09.2019
2713 Clouds 31 1015 66 16093 1.5 0 04:43 01.09.2019
2714 Rain 30 1014 52 16093 7.2 60 03:49 01.09.2019
2715 Rain 30 1014 52 16093 7.2 60 03:30 01.09.2019
2716 Clouds 31 1015 49 16093 6.7 40 02:37 01.09.2019
2717 Rain 31 1015 49 16093 6.7 40 02:19 01.09.2019
2718 Rain 31 1016 62 16093 5.7 140 01:28 01.09.2019
2719 Clouds 31 1016 49 16093 6.7 20 00:55 01.09.2019
2720 Clouds 31 1016 49 16093 6.7 20 00:36 01.09.2019
2721 Clouds 31 1016 49 16093 6.7 20 00:18 01.09.2019
2722 Clouds 31 1016 52 16093 6.2 90 23:40 31.08.2019
2723 Clouds 30 1016 70 16093 5.1 60 23:20 31.08.2019
2724 Clouds 30 1016 70 16093 5.1 60 22:54 31.08.2019
2725 Clouds 30 1017 58 16093 7.7 60 22:36 31.08.2019
2726 Clouds 30 1017 58 16093 7.7 60 22:18 31.08.2019
2727 Clouds 29 1016 74 16093 4.1 70 21:42 31.08.2019
2728 Clouds 29 1016 74 16093 4.1 70 21:21 31.08.2019
2729 Clouds 28 1016 66 16093 2.6 50 20:51 31.08.2019
2730 Clouds 28 1016 66 16093 2.6 50 20:31 31.08.2019
2731 Clouds 28 1016 66 16093 2.6 50 19:59 31.08.2019
2732 Clouds 27 1016 74 16093 1.5 70 19:41 31.08.2019
2733 Clouds 26 1016 74 16093 1.5 70 19:22 31.08.2019
2734 Clouds 26 1017 88 16093 2.1 290 18:41 31.08.2019
2735 Clouds 26 1016 69 16093 2.1 360 18:23 31.08.2019
2736 Clouds 26 1016 69 16093 2.1 360 17:58 31.08.2019
2737 Clouds 26 1015 74 16093 2.07 64.238 17:38 31.08.2019
2738 Clouds 26 1015 74 16093 2.07 64.238 17:19 31.08.2019
2739 Clouds 25 1015 74 16093 2.07 64.238 16:59 31.08.2019
2740 Clouds 26 1015 69 16093 2.6 30 16:41 31.08.2019
2741 Clouds 26 1015 69 16093 2.6 30 16:21 31.08.2019
2742 Clouds 26 1015 69 16093 2.6 30 15:59 31.08.2019
2743 Clouds 26 1015 83 16093 5.1 60 15:38 31.08.2019
2744 Clouds 26 1016 69 16093 2.6 300 15:18 31.08.2019
2745 Clouds 26 1016 78 16093 4.1 30 14:42 31.08.2019
2746 Clouds 26 1016 78 16093 4.1 30 14:23 31.08.2019
2747 Clouds 26 1017 69 16093 3.6 80 13:42 31.08.2019
2748 Clouds 26 1017 69 16093 3.6 80 13:23 31.08.2019
2749 Clouds 26 1017 69 16093 3.6 80 13:23 31.08.2019
2750 Clouds 26 1017 69 16093 3.6 80 12:59 31.08.2019
2751 Clouds 26 1017 69 16093 3.6 80 12:59 31.08.2019
2752 Clouds 26 1017 69 16093 1.5 30 12:40 31.08.2019
2753 Clouds 27 1017 69 16093 1.5 30 12:21 31.08.2019
2754 Clouds 27 1017 69 16093 1.5 30 11:56 31.08.2019
2755 Clouds 26 1017 61 16093 2.6 40 11:38 31.08.2019
2756 Clouds 26 1017 61 16093 2.6 40 11:20 31.08.2019
2757 Clouds 27 1017 61 16093 3.1 50 10:43 31.08.2019
2758 Clouds 27 1017 61 16093 3.1 50 10:19 31.08.2019
2759 Clouds 27 1017 61 16093 3.1 50 10:19 31.08.2019
2760 Clouds 27 1017 61 16093 3.1 50 09:59 31.08.2019
2761 Clouds 27 1017 58 16093 4.1 40 09:38 31.08.2019
2762 Clouds 27 1016 61 16093 3.1 40 09:19 31.08.2019
2763 Clouds 27 1016 61 16093 3.1 40 08:44 31.08.2019
2764 Clouds 27 1016 61 16093 3.1 40 08:44 31.08.2019
2765 Clouds 27 1016 61 16093 3.1 40 08:25 31.08.2019
2766 Clouds 28 1015 54 16093 3.1 0 07:42 31.08.2019
2767 Clouds 28 1015 54 16093 3.1 0 07:23 31.08.2019
2768 Clouds 28 1016 58 16093 4.6 60 06:49 31.08.2019
2769 Clouds 29 1016 58 16093 4.6 60 06:21 31.08.2019
2770 Clouds 29 1015 48 16093 6.7 70 05:34 31.08.2019
2771 Clouds 29 1015 45 16093 6.7 80 04:36 31.08.2019
2772 Clouds 30 1015 62 16093 4.1 70 03:50 31.08.2019
2773 Clouds 30 1016 41 16093 6.2 50 02:50 31.08.2019
2774 Clouds 30 1016 41 16093 6.2 50 01:56 31.08.2019
2775 Clouds 30 1016 43 16093 7.2 50 01:35 31.08.2019
2776 Clouds 30 1016 43 16093 7.2 50 01:35 31.08.2019
2777 Clouds 30 1017 43 16093 5.7 70 00:52 31.08.2019
2778 Clouds 30 1017 43 16093 5.7 70 00:52 31.08.2019
2779 Clouds 30 1017 43 16093 5.7 70 00:52 31.08.2019
2780 Clouds 30 1017 43 16093 5.7 70 00:31 31.08.2019
2781 Clouds 30 1017 43 16093 5.7 70 23:59 30.08.2019
2782 Clouds 30 1017 51 16093 6.2 60 23:39 30.08.2019
2783 Clouds 29 1017 54 16093 5.7 40 23:18 30.08.2019
2784 Clouds 28 1017 54 16093 5.7 40 22:42 30.08.2019
2785 Clouds 28 1017 54 16093 5.7 40 22:24 30.08.2019
2786 Clouds 28 1017 54 16093 5.7 40 21:59 30.08.2019
2787 Clouds 28 1016 66 16093 4.6 70 21:38 30.08.2019
2788 Clouds 28 1017 58 16093 6.2 50 21:20 30.08.2019
2789 Clouds 28 1017 58 16093 6.2 50 21:20 30.08.2019
2790 Clouds 27 1017 58 16093 6.2 50 20:59 30.08.2019
2791 Clouds 27 1016 65 16093 3.6 60 20:40 30.08.2019
2792 Clouds 27 1016 65 16093 3.6 60 20:20 30.08.2019
2793 Clouds 27 1016 65 16093 3.6 60 19:58 30.08.2019
2794 Clouds 26 1016 69 16093 2.1 10 19:39 30.08.2019
2795 Clouds 26 1016 69 16093 2.1 10 19:19 30.08.2019
2796 Clouds 26 1016 69 16093 2.1 10 19:19 30.08.2019
2797 Clouds 25 1015 65 16093 2.1 20 18:55 30.08.2019
2798 Clouds 25 1015 65 16093 2.1 20 18:37 30.08.2019
2799 Clouds 25 1015 65 16093 2.1 20 18:18 30.08.2019
2800 Clear 25 1015 74 16093 2.6 30 17:55 30.08.2019
2801 Clear 25 1015 74 16093 2.6 30 17:55 30.08.2019
2802 Clear 25 1015 74 16093 2.6 30 17:37 30.08.2019
2803 Clear 25 1015 74 16093 2.6 30 17:18 30.08.2019
2804 Clouds 25 1015 74 16093 2.6 0 16:42 30.08.2019
2805 Clouds 25 1015 74 16093 2.6 0 16:22 30.08.2019
2806 Clouds 25 1015 69 16093 2.6 50 15:43 30.08.2019
2807 Clouds 25 1015 69 16093 2.6 50 15:23 30.08.2019
2808 Clouds 25 1016 69 16093 2.6 40 14:47 30.08.2019
2809 Clouds 25 1016 69 16093 2.6 40 14:29 30.08.2019
2810 Clouds 25 1016 69 16093 2.6 40 13:59 30.08.2019
2811 Clouds 26 1016 69 16093 1.5 360 13:40 30.08.2019
2812 Clouds 26 1016 69 16093 1.5 360 13:22 30.08.2019
2813 Clouds 26 1016 69 16093 3.1 10 12:46 30.08.2019
2814 Clouds 26 1016 69 16093 3.1 10 12:27 30.08.2019
2815 Clouds 26 1016 69 16093 3.1 10 11:59 30.08.2019
2816 Clouds 26 1016 65 16093 4.6 80 11:41 30.08.2019
2817 Clouds 26 1016 65 16093 4.6 80 11:23 30.08.2019
2818 Clouds 26 1016 65 16093 2.6 20 10:39 30.08.2019
2819 Clouds 26 1016 65 16093 2.6 20 10:20 30.08.2019
2820 Clouds 26 1016 65 16093 2.6 20 09:56 30.08.2019
2821 Clouds 26 1016 65 16093 2.6 20 09:56 30.08.2019
2822 Clouds 27 1016 65 16093 4.1 70 09:36 30.08.2019
2823 Clouds 27 1016 65 16093 4.1 70 09:36 30.08.2019
2824 Clouds 27 1015 65 16093 5.7 80 09:18 30.08.2019
2825 Clouds 27 1015 65 16093 5.7 80 08:44 30.08.2019
2826 Clouds 27 1015 65 16093 5.7 80 08:24 30.08.2019
2827 Clouds 27 1015 65 16093 5.7 80 07:56 30.08.2019
2828 Clouds 27 1014 54 16093 4.6 40 07:37 30.08.2019
2829 Clouds 27 1014 54 16093 4.6 40 07:37 30.08.2019
2830 Clouds 27 1014 54 16093 4.6 40 07:18 30.08.2019
2831 Clouds 28 1013 58 16093 6.7 40 06:40 30.08.2019
2832 Clouds 28 1013 58 16093 6.7 40 06:21 30.08.2019
2833 Clouds 29 1013 48 16093 4.6 50 05:32 30.08.2019
2834 Clouds 30 1013 46 16093 6.7 40 03:57 30.08.2019
2835 Clouds 30 1013 46 16093 6.7 40 03:57 30.08.2019
2836 Clouds 30 1013 46 16093 6.7 40 03:57 30.08.2019
2837 Clouds 30 1013 41 16093 4.1 30 03:37 30.08.2019
2838 Clouds 31 1013 41 16093 4.6 40 02:41 30.08.2019
2839 Clouds 31 1014 41 16093 4.1 60 01:51 30.08.2019
2840 Clouds 31 1014 52 16093 5.1 160 00:55 30.08.2019
2841 Clouds 31 1014 52 16093 5.1 160 00:20 30.08.2019
2842 Clouds 31 1015 55 16093 6.2 160 23:48 29.08.2019
2843 Clouds 31 1015 55 16093 6.2 160 23:48 29.08.2019
2844 Clouds 31 1015 55 16093 6.2 160 23:23 29.08.2019
2845 Clouds 31 1015 55 16093 6.2 160 23:23 29.08.2019
2846 Clouds 30 1015 55 16093 2.1 0 22:56 29.08.2019
2847 Clouds 30 1015 55 16093 2.1 0 22:37 29.08.2019
2848 Clouds 30 1015 55 16093 2.1 0 22:19 29.08.2019
2849 Clouds 29 1014 66 0 1.91 84.071 21:41 29.08.2019
2850 Clouds 29 1014 66 0 2.13 72.372 21:21 29.08.2019
2851 Clouds 28 1015 58 16093 3.1 100 20:59 29.08.2019
2852 Clouds 27 1014 69 16093 2.1 350 20:40 29.08.2019
2853 Clouds 27 1014 69 16093 2.1 350 20:19 29.08.2019
2854 Clouds 25 1015 78 16093 1.5 40 19:47 29.08.2019
2855 Clouds 25 1015 78 16093 1.5 40 19:27 29.08.2019
2856 Clouds 24 1013 78 16093 2.1 320 18:59 29.08.2019
2857 Clouds 23 1013 78 16093 2.1 320 18:41 29.08.2019
2858 Clouds 23 1013 78 16093 2.1 320 18:19 29.08.2019
2859 Clouds 23 1013 88 16093 1.59 76.981 17:56 29.08.2019
2860 Clouds 23 1013 88 16093 1.59 76.981 17:36 29.08.2019
2861 Clouds 23 1013 88 16093 1.59 76.981 17:18 29.08.2019
2862 Clouds 24 1011 76 0 1.59 76.981 16:42 29.08.2019
2863 Clouds 24 1013 73 16093 2.6 320 16:23 29.08.2019
2864 Clouds 24 1013 73 16093 2.6 320 15:54 29.08.2019
2865 Clouds 24 1013 73 16093 2.6 320 15:36 29.08.2019
2866 Clouds 25 1012 78 16093 1.73 68.057 15:18 29.08.2019
2867 Clouds 24 1013 74 16093 1.5 350 14:42 29.08.2019
2868 Clouds 25 1013 74 16093 1.5 350 14:21 29.08.2019
2869 Clouds 24 1013 74 16093 1.5 350 13:57 29.08.2019
2870 Clouds 25 1013 69 16093 1.5 350 13:39 29.08.2019
2871 Clouds 25 1013 69 16093 1.5 350 13:39 29.08.2019
2872 Clouds 25 1013 69 16093 1.5 350 13:39 29.08.2019
2873 Clouds 25 1013 69 16093 1.5 350 13:19 29.08.2019
2874 Clouds 25 1013 69 16093 1.5 350 12:56 29.08.2019
2875 Clouds 25 1014 65 16093 1.5 10 12:38 29.08.2019
2876 Clouds 25 1014 65 16093 1.5 10 12:20 29.08.2019
2877 Clouds 26 1014 65 16093 1.5 40 11:43 29.08.2019
2878 Clouds 26 1014 65 16093 1.5 40 11:21 29.08.2019
2879 Clouds 27 1014 65 16093 1.5 0 10:59 29.08.2019
2880 Clouds 27 1014 65 16093 1.5 0 10:40 29.08.2019
2881 Clouds 26 1014 65 16093 1.5 0 10:22 29.08.2019
2882 Clouds 27 1013 65 16093 4.1 30 09:41 29.08.2019
2883 Clouds 27 1013 65 16093 4.6 40 09:19 29.08.2019
2884 Clouds 27 1013 65 16093 4.6 40 08:56 29.08.2019
2885 Clouds 27 1013 65 16093 4.6 40 08:31 29.08.2019
2886 Clouds 27 1012 58 16093 4.1 40 07:59 29.08.2019
2887 Clouds 27 1012 58 16093 4.1 40 07:41 29.08.2019
2888 Rain 27 1012 58 16093 4.1 40 07:23 29.08.2019
2889 Rain 28 1011 51 16093 6.2 40 06:40 29.08.2019
2890 Clouds 29 1011 48 16093 4.6 50 05:52 29.08.2019
2891 Clouds 29 1011 48 16093 4.6 50 05:32 29.08.2019
2892 Clouds 30 1011 52 16093 4.6 30 04:49 29.08.2019
2893 Clouds 30 1011 52 16093 4.6 30 04:28 29.08.2019
2894 Clouds 30 1012 46 16093 2.27 75.903 02:18 29.08.2019
2895 Clouds 31 1013 49 16093 4.1 70 01:40 29.08.2019
2896 Clouds 31 1013 66 16093 4.1 60 00:51 29.08.2019
2897 Clouds 31 1013 52 16093 3.6 130 00:24 29.08.2019
2898 Clouds 31 1013 52 16093 3.6 130 23:59 28.08.2019
2899 Clouds 30 1014 55 16093 3.1 0 23:39 28.08.2019
2900 Clouds 31 1014 55 16093 3.1 0 23:21 28.08.2019
2901 Clouds 30 1014 55 16093 3.1 0 22:56 28.08.2019
2902 Clouds 30 1014 48 16093 4.1 80 22:38 28.08.2019
2903 Clouds 29 1014 48 16093 4.1 80 22:18 28.08.2019
2904 Clouds 29 1014 74 16093 2.6 40 21:41 28.08.2019
2905 Clouds 29 1014 74 16093 2.6 40 21:23 28.08.2019
2906 Clouds 28 1014 62 16093 2.6 0 20:57 28.08.2019
2907 Clouds 28 1014 78 16093 1.97 83.12 20:39 28.08.2019
2908 Clouds 27 1014 65 16093 2.6 340 20:20 28.08.2019
2909 Clouds 25 1014 69 16093 1.5 0 19:42 28.08.2019
2910 Clouds 25 1014 69 16093 1.5 0 19:22 28.08.2019
2911 Clouds 24 1013 88 16093 1.97 83.12 18:58 28.08.2019
2912 Clouds 24 1013 88 16093 1.97 83.12 18:37 28.08.2019
2913 Clouds 24 1013 73 16093 1.5 330 18:19 28.08.2019
2914 Clouds 24 1013 83 16093 2.1 340 17:38 28.08.2019
2915 Clouds 24 1013 83 16093 2.1 340 17:19 28.08.2019
2916 Clouds 24 1012 73 16093 2.1 360 16:45 28.08.2019
2917 Clouds 24 1012 73 16093 2.1 360 16:23 28.08.2019
2918 Clouds 24 1012 73 16093 2.1 360 15:59 28.08.2019
2919 Clouds 25 1013 69 16093 2.1 30 15:38 28.08.2019
2920 Clouds 24 1013 69 16093 2.1 10 15:19 28.08.2019
2921 Clouds 25 1013 69 16093 2.1 10 14:57 28.08.2019
2922 Clouds 25 1013 69 16093 2.1 10 14:38 28.08.2019
2923 Clouds 25 1014 69 16093 1.5 40 14:20 28.08.2019
2924 Clouds 25 1014 69 16093 1.5 40 13:58 28.08.2019
2925 Clouds 25 1014 69 16093 1.5 40 13:38 28.08.2019
2926 Clouds 25 1014 69 16093 1.5 40 13:19 28.08.2019
2927 Clouds 25 1014 65 16093 2.1 40 12:42 28.08.2019
2928 Clouds 25 1014 65 16093 2.1 40 12:23 28.08.2019
2929 -273 0 0 0 0 0 11:55 28.08.2019
2930 Clouds 25 1015 65 16093 4.1 70 11:37 28.08.2019
2931 Clouds 26 1015 74 16093 2.6 70 11:18 28.08.2019
2932 Clouds 26 1015 74 16093 2.6 70 10:41 28.08.2019
2933 Clouds 26 1015 74 16093 2.6 70 10:22 28.08.2019
2934 Clouds 27 1015 61 16093 3.6 40 09:59 28.08.2019
2935 Clouds 27 1015 61 16093 3.6 40 09:40 28.08.2019
2936 Clouds 27 1014 65 16093 5.1 50 09:19 28.08.2019
2937 Clouds 27 1014 65 16093 5.1 50 08:39 28.08.2019
2938 Clouds 27 1014 65 16093 5.1 50 08:20 28.08.2019
2939 Clouds 27 1013 61 16093 6.2 50 07:43 28.08.2019
2940 Clouds 28 1013 61 16093 6.2 50 07:24 28.08.2019
2941 Clouds 28 1013 61 16093 6.2 50 06:55 28.08.2019
2942 Clouds 28 1012 55 16093 5.1 40 06:36 28.08.2019
2943 Clouds 30 1012 52 16093 6.7 40 05:43 28.08.2019
2944 Clouds 30 1013 49 16093 6.7 60 02:50 28.08.2019
2945 Clouds 30 1014 55 16093 4.1 50 01:32 28.08.2019
2946 Clouds 30 1014 55 16093 4.1 50 00:59 28.08.2019
2947 Rain 28 1014 66 16093 6.2 80 00:40 28.08.2019
2948 Rain 28 1014 69 16093 2.6 120 23:59 27.08.2019
2949 Rain 29 1014 78 16093 3.6 90 23:39 27.08.2019
2950 Rain 29 1014 78 16093 3.6 90 23:21 27.08.2019
2951 Rain 29 1015 62 16093 5.1 100 22:43 27.08.2019
2952 Rain 28 1015 66 16093 6.7 70 22:23 27.08.2019
2953 Rain 28 1015 66 16093 6.7 70 21:58 27.08.2019
2954 Rain 28 1015 66 16093 6.7 70 21:58 27.08.2019
2955 Clouds 29 1014 74 16093 5.7 60 21:39 27.08.2019
2956 Clouds 29 1014 74 16093 5.7 60 21:21 27.08.2019
2957 Rain 28 1015 66 16093 3.1 70 20:59 27.08.2019
2958 Rain 28 1014 69 16093 3.6 30 20:40 27.08.2019
2959 Rain 27 1014 69 16093 3.6 30 20:20 27.08.2019
2960 Rain 26 1014 74 16093 2.1 10 19:56 27.08.2019
2961 Rain 26 1014 74 16093 2.1 10 19:38 27.08.2019
2962 Rain 26 1014 74 16093 2.1 10 19:20 27.08.2019
2963 Rain 25 1014 74 16093 2.98 66.806 18:42 27.08.2019
2964 Clouds 25 1014 74 16093 1.98 56.366 18:19 27.08.2019
2965 Clouds 26 1014 74 16093 1.98 56.366 17:56 27.08.2019
2966 Clouds 26 1014 74 16093 1.98 56.366 17:56 27.08.2019
2967 Clouds 26 1013 74 16093 3.1 60 17:38 27.08.2019
2968 Clouds 26 1013 78 16093 4.6 70 17:18 27.08.2019
2969 Clouds 26 1013 69 16093 3.1 40 16:46 27.08.2019
2970 Clouds 26 1013 69 16093 3.1 40 16:26 27.08.2019
2971 Clouds 26 1013 69 16093 3.1 40 15:57 27.08.2019
2972 Clouds 26 1013 69 16093 2.1 30 15:39 27.08.2019
2973 Clouds 26 1014 65 16093 2.6 60 15:20 27.08.2019
2974 Clouds 26 1014 65 16093 2.6 60 14:43 27.08.2019
2975 Clouds 26 1014 65 16093 2.6 60 14:24 27.08.2019
2976 Clouds 26 1014 65 16093 2.6 60 14:24 27.08.2019
2977 Clouds 26 1014 65 16093 2.6 60 13:56 27.08.2019
2978 Clouds 26 1014 65 16093 4.1 70 13:36 27.08.2019
2979 Clouds 27 1014 65 16093 4.1 70 13:18 27.08.2019
2980 Clouds 27 1015 65 16093 3.6 40 12:41 27.08.2019
2981 Clouds 26 1015 65 16093 3.6 40 12:20 27.08.2019
2982 Clouds 26 1015 65 16093 4.1 40 11:47 27.08.2019
2983 Clouds 26 1015 65 16093 4.1 40 11:27 27.08.2019
2984 Clouds 26 1014 74 16093 3.6 90 10:55 27.08.2019
2985 Clouds 26 1014 78 16093 3.6 80 10:37 27.08.2019
2986 Clouds 26 1015 61 16093 4.6 50 10:18 27.08.2019
2987 Clouds 27 1015 61 16093 4.6 50 09:41 27.08.2019
2988 Clouds 27 1015 61 16093 4.6 50 09:21 27.08.2019
2989 Clouds 27 1015 61 16093 4.6 50 08:59 27.08.2019
2990 Clouds 27 1015 69 16093 3.1 40 08:40 27.08.2019
2991 Clouds 28 1014 61 16093 4.6 50 08:21 27.08.2019
2992 Clouds 28 1013 62 16093 6.2 80 07:41 27.08.2019
2993 Clouds 28 1013 62 16093 6.2 80 07:20 27.08.2019
2994 Clouds 28 1013 62 16093 6.2 80 07:20 27.08.2019
2995 Clouds 28 1013 62 16093 6.2 80 06:54 27.08.2019
2996 Clouds 29 1013 58 16093 5.1 30 06:27 27.08.2019
2997 Clouds 30 1012 49 16093 6.2 70 05:47 27.08.2019
2998 Clouds 31 1013 49 16093 6.7 40 04:44 27.08.2019
2999 Clouds 31 1013 43 16093 7.2 60 03:39 27.08.2019
3000 Clear 31 1014 51 16093 6.7 100 02:23 27.08.2019
3001 Clouds 31 1014 43 16093 5.7 40 01:40 27.08.2019
3002 Clouds 31 1014 43 16093 5.7 40 01:21 27.08.2019
3003 Clouds 31 1015 46 16093 7.2 50 00:43 27.08.2019
3004 Clouds 30 1015 46 16093 7.2 50 00:23 27.08.2019
3005 Clouds 30 1015 52 16093 6.2 40 23:39 26.08.2019
3006 Clouds 29 1015 52 16093 6.2 40 23:20 26.08.2019
3007 Clouds 29 1015 52 16093 6.2 50 22:40 26.08.2019
3008 Clouds 29 1015 52 16093 6.2 50 22:20 26.08.2019
3009 Rain 28 1015 66 16093 6.2 60 21:58 26.08.2019
3010 Rain 28 1015 62 16093 3.1 40 21:38 26.08.2019
3011 Rain 28 1015 62 16093 3.1 40 21:19 26.08.2019
3012 Rain 27 1015 69 16093 5.7 70 20:56 26.08.2019
3013 Rain 27 1015 69 16093 4.6 70 20:37 26.08.2019
3014 Rain 27 1015 69 16093 4.6 70 20:37 26.08.2019
3015 Rain 26 1015 69 16093 4.6 70 20:18 26.08.2019
3016 Rain 25 1014 78 16093 4.1 60 19:42 26.08.2019
3017 Rain 25 1014 78 16093 4.1 60 19:19 26.08.2019
3018 Rain 25 1014 78 16093 4.1 60 19:19 26.08.2019
3019 Rain 25 1014 78 16093 4.1 60 19:19 26.08.2019
3020 Rain 24 1015 100 11265 1.5 260 18:58 26.08.2019
3021 Rain 25 1015 100 16093 2.1 280 18:38 26.08.2019
3022 Rain 24 1015 100 16093 2.1 280 18:19 26.08.2019
3023 Rain 25 1015 94 4828 1.5 0 17:44 26.08.2019
3024 Rain 25 1015 88 16093 2.6 350 17:20 26.08.2019
3025 Rain 25 1014 83 6437 4.6 110 16:57 26.08.2019
3026 Drizzle 26 1014 94 16093 1.5 280 16:39 26.08.2019
3027 Drizzle 26 1014 94 16093 1.5 280 16:18 26.08.2019
3028 Drizzle 26 1014 94 16093 1.5 280 16:18 26.08.2019
3029 Rain 26 1014 88 16093 2.1 330 15:54 26.08.2019
3030 Rain 26 1013 78 16093 4.6 80 15:36 26.08.2019
3031 Rain 26 1013 78 16093 4.6 80 15:18 26.08.2019
3032 Clouds 26 1014 65 16093 7.2 60 14:42 26.08.2019
3033 Clouds 26 1014 65 16093 7.2 60 14:22 26.08.2019
3034 Clouds 27 1015 73 16093 3.6 70 13:43 26.08.2019
3035 Clouds 27 1015 73 16093 3.6 70 13:23 26.08.2019
3036 Clouds 27 1015 61 16093 6.2 50 12:56 26.08.2019
3037 Clouds 27 1015 61 16093 6.2 50 12:37 26.08.2019
3038 Clouds 27 1015 61 16093 6.2 50 12:19 26.08.2019
3039 Rain 27 1016 61 16093 6.7 60 11:38 26.08.2019
3040 Rain 27 1016 61 16093 6.7 60 11:20 26.08.2019
3041 Clouds 27 1016 58 16093 5.7 50 10:57 26.08.2019
3042 Clouds 27 1016 58 16093 5.7 50 10:39 26.08.2019
3043 Clouds 27 1016 58 16093 5.7 50 10:18 26.08.2019
3044 Clouds 27 1016 61 16093 6.7 60 09:41 26.08.2019
3045 Clouds 27 1016 61 16093 6.7 60 09:23 26.08.2019
3046 Clouds 27 1015 58 16093 9.8 60 08:56 26.08.2019
3047 Clouds 27 1015 58 16093 9.8 60 08:37 26.08.2019
3048 Clouds 27 1015 58 16093 9.8 60 08:19 26.08.2019
3049 Clouds 27 1014 58 16093 5.7 40 07:42 26.08.2019
3050 Clouds 27 1014 58 16093 5.7 40 07:24 26.08.2019
3051 Clouds 28 1014 54 16093 6.7 80 06:50 26.08.2019
3052 Clouds 28 1014 54 16093 6.7 80 06:26 26.08.2019
3053 Clouds 28 1014 51 16093 8.7 70 05:58 26.08.2019
3054 Clouds 29 1014 48 16093 8.7 70 04:35 26.08.2019
3055 Clouds 29 1014 46 16093 10.3 60 03:48 26.08.2019
3056 Clouds 30 1014 43 16093 9.3 60 02:19 26.08.2019
3057 Clouds 30 1015 43 16093 9.3 50 01:22 26.08.2019
3058 Clouds 30 1015 46 16093 8.7 60 00:42 26.08.2019
3059 Clouds 30 1015 46 16093 8.7 60 00:24 26.08.2019
3060 Clouds 30 1016 54 16093 6.2 60 23:44 25.08.2019
3061 Clouds 30 1015 48 16093 9.3 60 23:20 25.08.2019
3062 Clouds 29 1016 45 16093 8.2 60 22:58 25.08.2019
3063 Clouds 29 1016 45 16093 8.2 60 22:39 25.08.2019
3064 Clouds 29 1016 45 16093 8.2 60 22:20 25.08.2019
3065 Clouds 29 1016 65 16093 4.6 90 21:58 25.08.2019
3066 Clouds 29 1016 65 16093 4.6 90 21:58 25.08.2019
3067 Clouds 29 1016 55 16093 7.2 60 21:39 25.08.2019
3068 Clouds 29 1016 55 16093 7.2 60 21:18 25.08.2019
3069 Clouds 27 1016 73 16093 6.51 77.872 20:40 25.08.2019
3070 Clouds 27 1016 73 16093 6.51 77.872 20:20 25.08.2019
3071 Clouds 27 1015 61 16093 7.2 70 19:58 25.08.2019
3072 Clouds 26 1015 61 16093 7.2 70 19:39 25.08.2019
3073 Clouds 26 1015 61 16093 7.2 70 19:20 25.08.2019
3074 Clouds 26 1015 69 16093 2.1 70 18:58 25.08.2019
3075 Clouds 26 1015 69 16093 2.1 70 18:39 25.08.2019
3076 Clouds 26 1015 69 16093 2.1 70 18:21 25.08.2019
3077 Clouds 26 1015 65 16093 7.2 50 17:43 25.08.2019
3078 Clouds 26 1015 65 16093 7.2 50 17:25 25.08.2019
3079 Clouds 26 1015 83 16093 1.5 320 16:56 25.08.2019
3080 Clouds 26 1015 65 16093 6.7 60 16:36 25.08.2019
3081 Clouds 26 1015 65 16093 6.7 60 16:18 25.08.2019
3082 Clouds 27 1014 74 16093 7.2 80 15:42 25.08.2019
3083 Clouds 27 1014 74 16093 7.2 80 15:24 25.08.2019
3084 Clouds 27 1015 65 16093 6.2 70 14:43 25.08.2019
3085 Clouds 27 1015 65 16093 6.2 70 14:24 25.08.2019
3086 Clear 27 1016 65 16093 4.6 80 13:56 25.08.2019
3087 Clear 27 1016 65 16093 4.6 80 13:37 25.08.2019
3088 Clear 27 1016 65 16093 4.6 80 13:18 25.08.2019
3089 Clouds 27 1016 61 16093 6.7 60 12:44 25.08.2019
3090 Clouds 27 1016 61 16093 6.7 60 12:25 25.08.2019
3091 Clouds 27 1017 74 16093 6.7 100 11:59 25.08.2019
3092 Clouds 28 1016 65 16093 6.2 60 11:38 25.08.2019
3093 Clouds 28 1016 65 16093 6.2 60 11:20 25.08.2019
3094 Clouds 28 1016 69 16093 6.7 70 10:57 25.08.2019
3095 Clouds 27 1016 65 16093 7.2 60 10:38 25.08.2019
3096 Clouds 28 1016 65 16093 7.2 60 10:19 25.08.2019
3097 Rain 28 1016 65 16093 6.2 60 09:43 25.08.2019
3098 Rain 27 1016 65 16093 6.2 60 09:24 25.08.2019
3099 Clouds 27 1015 62 16093 6.2 70 08:47 25.08.2019
3100 Clouds 27 1015 62 16093 6.2 70 08:29 25.08.2019
3101 Clouds 28 1014 58 16093 7.2 60 07:54 25.08.2019
3102 Clouds 28 1014 58 16093 7.2 60 07:32 25.08.2019
3103 Clouds 28 1014 58 16093 7.2 60 07:32 25.08.2019
3104 Clouds 28 1014 55 16093 6.7 40 06:39 25.08.2019
3105 Clouds 29 1013 48 16093 7.7 60 05:27 25.08.2019
3106 Rain 30 1014 46 16093 9.3 70 03:48 25.08.2019
3107 Rain 30 1014 52 16093 8.2 70 02:43 25.08.2019
3108 Rain 30 1015 65 16093 6.2 70 01:54 25.08.2019
3109 Rain 30 1015 62 16093 6.2 120 00:54 25.08.2019
3110 Rain 30 1014 66 16093 4.6 60 00:23 25.08.2019
3111 Rain 30 1015 70 16093 5.7 90 23:58 24.08.2019
3112 Rain 30 1016 62 16093 5.1 80 23:39 24.08.2019
3113 Rain 30 1016 62 16093 5.1 80 23:21 24.08.2019
3114 Rain 30 1015 52 16093 6.2 70 22:42 24.08.2019
3115 Rain 30 1015 52 16093 6.2 70 22:19 24.08.2019
3116 Rain 29 1015 58 16093 4.6 50 21:58 24.08.2019
3117 Rain 28 1015 58 16093 4.6 50 21:39 24.08.2019
3118 Rain 28 1015 58 16093 4.6 50 21:21 24.08.2019
3119 Rain 28 1016 69 16093 4.6 90 20:57 24.08.2019
3120 Rain 28 1015 58 16093 4.1 60 20:38 24.08.2019
3121 Rain 28 1015 58 16093 4.1 60 20:18 24.08.2019
3122 Clouds 26 1015 83 16093 1.5 140 19:57 24.08.2019
3123 Clouds 26 1014 69 16093 4.1 60 19:38 24.08.2019
3124 Clouds 26 1014 69 16093 4.1 60 19:19 24.08.2019
3125 Clouds 26 1014 65 16093 3.6 40 18:45 24.08.2019
3126 Clouds 25 1014 65 16093 3.6 40 18:23 24.08.2019
3127 Clouds 26 1014 83 16093 1.5 160 17:46 24.08.2019
3128 Clouds 25 1014 83 16093 1.5 160 17:27 24.08.2019
3129 Clouds 25 1013 69 16093 4.1 50 16:56 24.08.2019
3130 Clouds 25 1013 69 16093 4.1 50 16:36 24.08.2019
3131 Clouds 25 1013 69 16093 4.1 50 16:18 24.08.2019
3132 Clouds 25 1014 65 16093 2.1 50 15:43 24.08.2019
3133 Clouds 25 1014 65 16093 2.1 50 15:43 24.08.2019
3134 Clouds 25 1014 65 16093 2.1 50 15:24 24.08.2019
3135 Clouds 25 1014 69 16093 3.1 50 14:55 24.08.2019
3136 Clouds 25 1014 69 16093 3.1 50 14:37 24.08.2019
3137 Clouds 25 1014 69 16093 3.1 50 14:18 24.08.2019
3138 Clouds 26 1014 69 16093 5.7 50 13:42 24.08.2019
3139 Clouds 26 1014 69 16093 5.7 50 13:22 24.08.2019
3140 Rain 26 1015 94 16093 3.2 88.621 12:58 24.08.2019
3141 Rain 26 1015 69 16093 3.6 60 12:39 24.08.2019
3142 Rain 26 1015 69 16093 3.6 60 12:20 24.08.2019
3143 Clouds 26 1016 94 16093 2.6 90 11:45 24.08.2019
3144 Drizzle 26 1016 94 16093 2.1 100 11:24 24.08.2019
3145 Clouds 26 1016 88 16093 3.67 91.141 10:53 24.08.2019
3146 Clouds 26 1015 69 16093 3.6 70 10:24 24.08.2019
3147 Rain 26 1016 83 16093 2.6 60 09:55 24.08.2019
3148 Rain 26 1016 94 16093 1.5 110 09:36 24.08.2019
3149 Rain 26 1016 94 16093 1.5 110 09:18 24.08.2019
3150 Rain 26 1014 74 16093 5.7 80 08:41 24.08.2019
3151 Rain 26 1014 74 16093 5.7 80 08:22 24.08.2019
3152 Rain 27 1015 94 16093 1.5 140 07:50 24.08.2019
3153 Rain 27 1014 94 16093 2.6 110 07:27 24.08.2019
3154 Rain 27 1014 94 16093 2.6 110 07:27 24.08.2019
3155 Rain 28 1013 78 4023 1.5 250 06:30 24.08.2019
3156 Rain 29 1012 94 6437 5.1 80 05:42 24.08.2019
3157 Rain 30 1012 78 16093 4.6 90 04:51 24.08.2019
3158 Clouds 30 1012 83 16093 4.6 20 03:37 24.08.2019
3159 Clouds 31 1013 52 16093 5.1 70 02:27 24.08.2019
3160 Clouds 31 1014 49 16093 7.7 60 01:31 24.08.2019
3161 Rain 31 1014 88 4828 3.1 60 00:54 24.08.2019
3162 Clouds 31 1014 49 16093 8.2 60 00:26 24.08.2019
3163 Clouds 30 1015 58 16093 2.6 130 23:59 23.08.2019
3164 Clouds 30 1014 52 16093 5.7 40 23:39 23.08.2019
3165 Clouds 30 1014 52 16093 5.7 40 23:19 23.08.2019
3166 Clouds 30 1015 55 16093 5.1 50 22:42 23.08.2019
3167 Clouds 30 1015 55 16093 5.1 50 22:24 23.08.2019
3168 Clouds 29 1015 58 16093 6.2 70 21:40 23.08.2019
3169 Clouds 29 1015 58 16093 6.2 70 21:21 23.08.2019
3170 Clouds 28 1015 66 16093 3.1 0 20:57 23.08.2019
3171 Clouds 28 1014 74 16093 3.6 90 20:38 23.08.2019
3172 Clouds 28 1014 74 16093 3.6 90 20:19 23.08.2019
3173 Clouds 28 1014 74 16093 3.6 90 20:19 23.08.2019
3174 Clouds 26 1014 74 16093 4.1 70 19:43 23.08.2019
3175 Clouds 26 1014 74 16093 4.1 70 19:18 23.08.2019
3176 Clouds 26 1014 74 16093 4.1 70 19:18 23.08.2019
3177 Rain 25 1014 83 11265 4.1 90 18:46 23.08.2019
3178 Clouds 25 1014 69 16093 5.7 70 18:28 23.08.2019
3179 Clouds 26 1014 83 16093 2.1 30 17:56 23.08.2019
3180 Clouds 26 1014 69 16093 1.5 20 17:38 23.08.2019
3181 Clouds 26 1014 69 16093 1.5 20 17:20 23.08.2019
3182 Clouds 26 1013 69 16093 1.5 20 16:47 23.08.2019
3183 Clouds 26 1013 69 16093 1.5 20 16:29 23.08.2019
3184 Clouds 25 1014 88 16093 1.5 320 15:56 23.08.2019
3185 Clouds 25 1013 74 16093 4.6 60 15:37 23.08.2019
3186 Clouds 25 1013 74 16093 4.6 60 15:19 23.08.2019
3187 Rain 26 1014 69 16093 1.5 360 14:41 23.08.2019
3188 Rain 26 1014 69 16093 1.5 360 14:21 23.08.2019
3189 Clouds 26 1014 69 16093 5.1 70 13:57 23.08.2019
3190 Clouds 26 1014 69 16093 5.1 70 13:39 23.08.2019
3191 Clouds 26 1014 69 16093 5.1 70 13:20 23.08.2019
3192 Clouds 26 1015 65 16093 6.2 70 12:57 23.08.2019
3193 Clouds 26 1015 65 16093 6.2 70 12:38 23.08.2019
3194 Clouds 26 1015 65 16093 6.2 70 12:20 23.08.2019
3195 Clouds 26 1015 65 16093 3.1 40 11:54 23.08.2019
3196 Clouds 26 1015 65 16093 3.1 40 11:36 23.08.2019
3197 Clouds 26 1015 65 16093 3.1 40 11:18 23.08.2019
3198 Clouds 26 1016 65 16093 7.2 80 10:42 23.08.2019
3199 Clouds 26 1016 65 16093 7.2 80 10:21 23.08.2019
3200 Clouds 26 1015 61 16093 5.1 60 09:48 23.08.2019
3201 Clouds 26 1015 61 16093 5.1 60 09:30 23.08.2019
3202 Clouds 26 1015 65 16093 7.2 70 08:59 23.08.2019
3203 Clouds 26 1015 65 16093 7.2 70 08:39 23.08.2019
3204 Clouds 26 1015 65 16093 7.2 70 08:19 23.08.2019
3205 Clouds 27 1015 69 16093 4.6 70 07:42 23.08.2019
3206 Clouds 28 1015 69 16093 4.6 70 07:24 23.08.2019
3207 Clouds 28 1014 55 16093 4.6 50 06:57 23.08.2019
3208 Clouds 28 1014 55 16093 4.6 50 06:37 23.08.2019
3209 Clouds 28 1014 55 16093 4.6 50 06:19 23.08.2019
3210 Clouds 30 1014 48 16093 8.2 30 05:33 23.08.2019
3211 Clouds 30 1014 52 16093 6.2 50 04:20 23.08.2019
3212 Clouds 30 1015 49 16093 4.6 50 02:53 23.08.2019
3213 Clouds 30 1015 49 16093 4.6 50 02:22 23.08.2019
3214 Clouds 30 1016 52 16093 5.7 40 01:38 23.08.2019
3215 Clouds 30 1016 52 16093 4.1 60 00:44 23.08.2019
3216 Clouds 30 1016 52 16093 4.1 60 00:19 23.08.2019
3217 Clouds 30 1017 69 16093 4.6 30 23:45 22.08.2019
3218 Clouds 29 1016 52 16093 5.7 10 23:23 22.08.2019
3219 Clouds 29 1017 55 16093 4.6 20 22:55 22.08.2019
3220 Clouds 29 1017 55 16093 4.6 20 22:37 22.08.2019
3221 Clouds 29 1017 55 16093 4.6 20 22:19 22.08.2019
3222 Clouds 29 1017 55 16093 4.6 20 22:19 22.08.2019
3223 Clouds 29 1018 88 16093 2.1 300 21:42 22.08.2019
3224 Clouds 28 1018 88 16093 2.1 300 21:23 22.08.2019
3225 Clouds 27 1018 94 16093 3.17 69.249 20:59 22.08.2019
3226 Clouds 27 1018 94 16093 2.6 340 20:41 22.08.2019
3227 Clouds 27 1018 94 16093 2.6 340 20:41 22.08.2019
3228 Clouds 27 1018 94 16093 2.6 340 20:20 22.08.2019
3229 Clouds 27 1018 94 16093 2.1 280 19:59 22.08.2019
3230 Clouds 26 1017 69 16093 3.6 70 19:39 22.08.2019
3231 Clouds 26 1017 69 16093 3.6 70 19:21 22.08.2019
3232 Clouds 26 1017 100 16093 3.17 69.249 18:58 22.08.2019
3233 Clouds 26 1016 74 16093 3.17 69.249 18:40 22.08.2019
3234 Clouds 26 1016 74 16093 1.95 64.855 18:20 22.08.2019
3235 Clouds 26 1016 74 16093 1.95 64.855 18:20 22.08.2019
3236 Clouds 26 1017 100 16093 2.1 320 17:57 22.08.2019
3237 Clouds 26 1017 100 14484 1.95 64.855 17:38 22.08.2019
3238 Drizzle 26 1017 100 14484 1.95 64.855 17:19 22.08.2019
3239 Drizzle 26 1017 100 14484 1.95 64.855 16:56 22.08.2019
3240 Rain 26 1016 74 16093 4.1 30 16:37 22.08.2019
3241 Rain 26 1016 74 16093 4.1 30 16:19 22.08.2019
3242 Rain 25 1016 74 16093 2.1 10 15:42 22.08.2019
3243 Rain 25 1016 74 16093 2.1 10 15:42 22.08.2019
3244 Rain 25 1016 74 16093 2.1 10 15:24 22.08.2019
3245 Rain 25 1016 74 16093 2.1 10 15:24 22.08.2019
3246 Rain 25 1016 74 16093 2.1 10 15:24 22.08.2019
3247 Drizzle 26 1016 74 16093 5.1 80 14:58 22.08.2019
3248 Drizzle 26 1016 74 16093 5.1 80 14:58 22.08.2019
3249 Drizzle 26 1016 74 16093 5.1 80 14:58 22.08.2019
3250 Drizzle 26 1016 74 16093 5.1 80 14:58 22.08.2019
3251 Drizzle 26 1017 74 16093 1.7 64.353 14:40 22.08.2019
3252 Drizzle 26 1017 74 16093 1.7 64.353 14:21 22.08.2019
3253 Drizzle 26 1017 74 16093 1.7 64.353 14:21 22.08.2019
3254 Drizzle 25 1017 100 16093 1.5 290 13:57 22.08.2019
3255 Drizzle 25 1016 78 16093 4.6 70 13:39 22.08.2019
3256 Drizzle 25 1016 78 16093 4.6 70 13:19 22.08.2019
3257 Rain 26 1018 74 16093 2.6 50 12:42 22.08.2019
3258 Rain 26 1018 74 16093 2.6 50 12:24 22.08.2019
3259 Rain 26 1018 78 16093 5.1 60 11:58 22.08.2019
3260 Rain 26 1018 74 16093 5.1 50 11:40 22.08.2019
3261 Rain 26 1018 74 16093 5.1 50 11:20 22.08.2019
3262 -273 0 0 0 0 0 11:20 22.08.2019
3263 Rain 26 1018 74 16093 5.1 50 11:20 22.08.2019
3264 -273 0 0 0 0 0 10:58 22.08.2019
3265 Rain 27 1018 69 16093 3.6 50 10:38 22.08.2019
3266 Rain 27 1018 69 16093 3.6 50 10:19 22.08.2019
3267 Clouds 27 1018 83 16093 4.1 70 09:55 22.08.2019
3268 Clouds 27 1018 69 16093 3.6 30 09:36 22.08.2019
3269 Clouds 27 1018 69 16093 3.6 30 09:18 22.08.2019
3270 Haze 27 1017 65 16093 3.6 40 08:41 22.08.2019
3271 Haze 27 1017 65 16093 3.6 40 08:21 22.08.2019
3272 Clouds 28 1017 74 16093 5.1 50 07:56 22.08.2019
3273 Clouds 28 1017 74 16093 5.1 50 07:38 22.08.2019
3274 Clouds 28 1017 74 16093 5.1 50 07:18 22.08.2019
3275 Clouds 29 1017 74 16093 5.7 60 06:45 22.08.2019
3276 Clouds 29 1017 74 16093 5.7 60 06:21 22.08.2019
3277 Clouds 29 1016 66 16093 5.1 70 05:26 22.08.2019
3278 Rain 30 1016 74 16093 4.6 50 03:26 22.08.2019
3279 Rain 30 1018 62 16093 4.6 60 02:36 22.08.2019
3280 Clouds 31 1017 52 16093 6.2 50 01:36 22.08.2019
3281 Clouds 30 1018 69 16093 5.7 40 00:52 22.08.2019
3282 Clouds 30 1017 55 16093 7.2 30 00:30 22.08.2019
3283 Clouds 30 1018 65 16093 4.1 90 23:59 21.08.2019
3284 Clouds 30 1018 49 16093 6.7 30 23:40 21.08.2019
3285 Clouds 30 1018 49 16093 6.7 30 23:21 21.08.2019
3286 Clouds 31 1019 65 16093 4.1 60 22:57 21.08.2019
3287 Haze 30 1018 62 4023 4.1 40 22:39 21.08.2019
3288 Haze 30 1018 62 4023 4.1 40 22:20 21.08.2019
3289 Haze 30 1018 62 4023 4.1 40 22:20 21.08.2019
3290 Clouds 29 1019 69 16093 5.1 30 21:55 21.08.2019
3291 Clouds 29 1019 74 16093 3.1 90 21:37 21.08.2019
3292 Clouds 29 1019 74 16093 3.1 90 21:37 21.08.2019
3293 Clouds 28 1019 74 16093 3.1 90 21:18 21.08.2019
3294 Clouds 27 1018 69 16093 4.6 40 20:44 21.08.2019
3295 Clouds 27 1018 69 16093 4.6 40 20:25 21.08.2019
3296 Rain 27 1018 78 16093 2.1 60 20:00 21.08.2019
3297 Rain 26 1017 69 16093 4.1 20 19:41 21.08.2019
3298 Rain 26 1017 69 16093 4.1 20 19:23 21.08.2019
3299 Clouds 26 1017 69 16093 3.1 60 18:56 21.08.2019
3300 Clouds 26 1017 69 16093 3.1 60 18:56 21.08.2019
3301 Clouds 26 1018 83 16093 3.86 71.011 18:38 21.08.2019
3302 Clouds 26 1018 83 16093 2.63 75.028 18:20 21.08.2019
3303 Clouds 26 1016 69 16093 6.7 60 17:43 21.08.2019
3304 Clouds 26 1016 69 16093 6.7 60 17:43 21.08.2019
3305 Clouds 26 1016 69 16093 6.7 60 17:21 21.08.2019
3306 Haze 26 1016 78 9656 2.6 100 16:56 21.08.2019
3307 Clouds 26 1016 69 16093 4.6 80 16:37 21.08.2019
3308 Clouds 26 1016 69 16093 4.6 80 16:18 21.08.2019
3309 Drizzle 26 1017 83 16093 2.63 75.028 15:56 21.08.2019
3310 Clouds 26 1016 74 16093 4.1 60 15:37 21.08.2019
3311 Clouds 26 1016 74 16093 4.1 60 15:18 21.08.2019
3312 Clouds 26 1017 65 16093 4.6 50 14:39 21.08.2019
3313 Clouds 26 1017 65 16093 4.6 50 14:21 21.08.2019
3314 Drizzle 26 1017 83 16093 2.43 67.019 13:58 21.08.2019
3315 Clouds 26 1017 69 16093 7.7 70 13:40 21.08.2019
3316 Clouds 26 1018 94 16093 2.13 67.247 13:19 21.08.2019
3317 Drizzle 26 1018 83 16093 2.13 67.247 12:57 21.08.2019
3318 Clouds 27 1018 73 16093 2.6 320 12:38 21.08.2019
3319 Clouds 27 1018 73 16093 2.6 320 12:18 21.08.2019
3320 Clouds 27 1018 73 16093 2.6 320 12:18 21.08.2019
3321 Clouds 27 1017 65 16093 4.1 60 11:43 21.08.2019
3322 Clouds 27 1017 65 16093 4.1 60 11:22 21.08.2019
3323 Clouds 27 1017 61 16093 3.6 30 10:58 21.08.2019
3324 Clouds 27 1017 61 16093 3.6 30 10:38 21.08.2019
3325 Clouds 27 1017 61 16093 3.6 30 10:20 21.08.2019
3326 Clouds 27 1017 61 16093 4.6 70 09:57 21.08.2019
3327 Clouds 27 1017 61 16093 4.6 70 09:37 21.08.2019
3328 Clouds 27 1017 61 16093 4.6 70 09:18 21.08.2019
3329 Clouds 27 1017 61 16093 4.6 70 09:18 21.08.2019
3330 Clouds 27 1016 61 16093 5.1 50 08:44 21.08.2019
3331 Clouds 27 1016 61 16093 5.1 50 08:44 21.08.2019
3332 Clouds 27 1016 61 16093 5.1 50 08:24 21.08.2019
3333 Clouds 27 1016 62 16093 4.6 50 07:43 21.08.2019
3334 Clouds 28 1016 62 16093 4.6 50 07:24 21.08.2019
3335 Clear 29 1015 62 16093 3.6 60 06:50 21.08.2019
3336 Clear 29 1015 62 16093 3.6 60 06:28 21.08.2019
3337 Clouds 30 1014 48 16093 8.7 60 05:47 21.08.2019
3338 Clouds 30 1014 48 16093 8.7 60 05:25 21.08.2019
3339 Clouds 30 1014 46 16093 7.7 40 03:56 21.08.2019
3340 Clouds 30 1015 52 16093 6.7 60 01:52 21.08.2019
3341 Clouds 30 1015 52 16093 6.7 60 01:23 21.08.2019
3342 Clouds 30 1016 46 16093 5.7 30 00:38 21.08.2019
3343 Clouds 30 1016 46 16093 5.7 30 00:18 21.08.2019
3344 Clouds 30 1017 61 16093 5.1 50 23:43 20.08.2019
3345 Clouds 30 1017 61 16093 5.1 50 23:19 20.08.2019
3346 Clouds 30 1017 61 16093 3.6 70 22:56 20.08.2019
3347 Clouds 30 1017 61 16093 3.6 70 22:38 20.08.2019
3348 Clouds 30 1017 61 16093 3.6 70 22:38 20.08.2019
3349 Clouds 30 1017 61 16093 3.6 70 22:20 20.08.2019
3350 Clouds 30 1017 61 16093 3.6 70 22:20 20.08.2019
3351 Clouds 30 1017 61 16093 3.6 70 22:20 20.08.2019
3352 Clouds 29 1016 58 16093 7.2 80 21:57 20.08.2019
3353 Clouds 29 1016 58 16093 7.2 80 21:38 20.08.2019
3354 Clouds 28 1016 58 16093 7.2 80 21:19 20.08.2019
3355 Clouds 27 1016 61 16093 2.6 20 20:43 20.08.2019
3356 Clouds 27 1016 61 16093 2.6 20 20:25 20.08.2019
3357 Clouds 26 1015 69 16093 1.5 0 19:59 20.08.2019
3358 Clouds 26 1015 69 16093 1.5 0 19:39 20.08.2019
3359 Clouds 25 1015 69 16093 1.5 0 19:20 20.08.2019
3360 Clouds 25 1015 69 16093 2.1 20 18:55 20.08.2019
3361 Clouds 25 1015 69 16093 2.1 20 18:37 20.08.2019
3362 Clouds 24 1015 69 16093 2.1 20 18:18 20.08.2019
3363 Clouds 24 1015 69 16093 2.1 20 17:54 20.08.2019
3364 Clouds 24 1015 69 16093 4.1 60 17:36 20.08.2019
3365 Clouds 24 1015 69 16093 4.1 60 17:18 20.08.2019
3366 Clouds 24 1015 74 16093 5.1 70 16:41 20.08.2019
3367 Clouds 24 1015 74 16093 5.1 70 16:23 20.08.2019
3368 Clouds 24 1014 87 16093 4.1 80 15:41 20.08.2019
3369 Rain 24 1015 74 16093 2.6 40 15:19 20.08.2019
3370 Rain 24 1015 74 16093 2.6 40 14:56 20.08.2019
3371 Rain 24 1015 74 16093 2.6 40 14:38 20.08.2019
3372 Rain 24 1016 94 16093 2.1 300 14:19 20.08.2019
3373 Rain 24 1016 94 16093 2.1 300 13:55 20.08.2019
3374 Rain 24 1016 94 16093 3.07 79.505 13:36 20.08.2019
3375 Rain 24 1015 74 16093 4.1 70 13:18 20.08.2019
3376 Rain 24 1016 94 12874 2.21 76.789 12:45 20.08.2019
3377 Rain 25 1016 78 16093 2.1 10 12:24 20.08.2019
3378 Rain 25 1016 78 16093 2.1 10 11:55 20.08.2019
3379 Rain 25 1016 69 16093 3.1 90 11:37 20.08.2019
3380 Clouds 26 1016 58 16093 5.7 50 11:18 20.08.2019
3381 Clouds 26 1016 58 16093 5.7 50 11:18 20.08.2019
3382 Clouds 27 1016 58 16093 5.7 50 10:55 20.08.2019
3383 Clouds 27 1016 58 16093 5.7 50 10:37 20.08.2019
3384 Clear 26 1015 61 16093 3.1 50 10:18 20.08.2019
3385 Clear 26 1015 61 16093 3.1 50 09:40 20.08.2019
3386 Clear 26 1015 61 16093 3.1 50 09:22 20.08.2019
3387 Clouds 27 1015 54 16093 3.1 70 08:42 20.08.2019
3388 Clouds 27 1015 54 16093 3.1 70 08:24 20.08.2019
3389 Clouds 27 1014 51 16093 6.2 50 07:58 20.08.2019
3390 Clouds 27 1014 51 16093 6.2 50 07:39 20.08.2019
3391 Clouds 27 1014 51 16093 6.2 50 07:21 20.08.2019
3392 Clouds 28 1014 54 16093 6.7 40 06:47 20.08.2019
3393 Clouds 28 1014 54 16093 6.7 40 06:47 20.08.2019
3394 Clouds 28 1014 54 16093 6.7 40 06:21 20.08.2019
3395 Clouds 29 1013 43 16093 6.2 50 05:47 20.08.2019
3396 Clouds 29 1013 43 16093 7.7 40 04:30 20.08.2019
3397 Clouds 31 1014 40 16093 5.7 40 02:51 20.08.2019
3398 Clouds 31 1015 40 16093 5.1 70 01:58 20.08.2019
3399 Clouds 31 1015 40 16093 5.1 70 01:21 20.08.2019
3400 Clouds 31 1015 40 16093 6.7 70 00:45 20.08.2019
3401 Clouds 30 1015 40 16093 6.7 70 00:24 20.08.2019
3402 Clouds 30 1016 45 16093 4.1 40 23:45 19.08.2019
3403 Clouds 29 1016 48 16093 5.1 70 23:19 19.08.2019
3404 Clouds 29 1016 48 16093 5.1 70 22:58 19.08.2019
3405 Clouds 29 1016 48 16093 5.1 70 22:40 19.08.2019
3406 Clouds 28 1016 48 16093 5.1 70 22:20 19.08.2019
3407 Clouds 28 1016 48 16093 5.1 70 21:57 19.08.2019
3408 Clouds 28 1016 51 16093 3.6 60 21:38 19.08.2019
3409 Clouds 27 1015 61 16093 2.56 68.498 21:19 19.08.2019
3410 Clouds 26 1015 61 16093 2.56 68.498 20:40 19.08.2019
3411 Clouds 26 1015 61 16093 2.56 68.498 20:21 19.08.2019
3412 Clouds 26 1015 61 16093 2.56 68.498 20:21 19.08.2019
3413 Clouds 26 1015 61 16093 2.56 68.498 20:21 19.08.2019
3414 Clouds 26 1015 61 16093 2.56 68.498 19:59 19.08.2019
3415 Clouds 25 1015 69 16093 2.56 68.498 19:41 19.08.2019
3416 Clouds 25 1015 69 16093 2.56 68.498 19:19 19.08.2019
3417 Clouds 25 1015 69 16093 2.56 68.498 19:19 19.08.2019
3418 Clouds 25 1015 69 16093 2.56 68.498 19:19 19.08.2019
3419 Clouds 24 1015 73 16093 2.56 68.498 18:59 19.08.2019
3420 Clouds 24 1015 73 16093 2.56 68.498 18:59 19.08.2019
3421 Clouds 24 1015 73 16093 2.56 68.498 18:39 19.08.2019
3422 Clouds 24 1015 73 16093 1.74 57.97 18:21 19.08.2019
3423 Clouds 25 1014 69 16093 1.74 57.97 17:56 19.08.2019
3424 Clouds 25 1014 69 16093 1.74 57.97 17:36 19.08.2019
3425 Clouds 24 1014 65 16093 1.5 360 17:18 19.08.2019
3426 Clouds 24 1014 65 16093 1.5 360 16:38 19.08.2019
3427 Clouds 24 1014 65 16093 1.5 360 16:20 19.08.2019
3428 Clouds 24 1015 65 16093 1.74 57.97 15:56 19.08.2019
3429 Clouds 24 1015 65 16093 1.74 57.97 15:56 19.08.2019
3430 Clouds 24 1015 65 16093 1.74 57.97 15:38 19.08.2019
3431 Clouds 24 1015 65 16093 1.9 54.817 15:19 19.08.2019
3432 Clouds 24 1015 65 16093 2.6 40 14:43 19.08.2019
3433 Clouds 24 1015 65 16093 2.6 40 14:23 19.08.2019
3434 Clouds 24 1016 65 16093 4.1 30 13:58 19.08.2019
3435 Clouds 24 1016 65 16093 4.1 30 13:38 19.08.2019
3436 Clouds 24 1016 65 16093 4.1 30 13:20 19.08.2019
3437 Clouds 26 1016 61 16093 2.11 53.565 12:58 19.08.2019
3438 Clouds 26 1016 61 16093 2.11 53.565 12:39 19.08.2019
3439 Clouds 26 1016 61 16093 2.17 53.199 12:19 19.08.2019
3440 Clouds 25 1016 65 16093 2.1 20 11:40 19.08.2019
3441 Clouds 26 1016 65 16093 2.1 20 11:21 19.08.2019
3442 Rain 25 1016 61 16093 1.5 0 10:58 19.08.2019
3443 Rain 25 1016 61 16093 1.5 0 10:37 19.08.2019
3444 Rain 25 1016 61 16093 1.5 0 10:18 19.08.2019
3445 Clouds 25 1016 61 16093 2.1 40 09:45 19.08.2019
3446 Clouds 25 1016 61 16093 2.1 40 09:24 19.08.2019
3447 Clouds 26 1015 58 16093 5.1 50 08:57 19.08.2019
3448 Clouds 26 1015 58 16093 5.1 50 08:39 19.08.2019
3449 Clouds 26 1015 58 16093 5.1 50 08:19 19.08.2019
3450 Clouds 28 1014 58 16093 4.6 40 07:48 19.08.2019
3451 Clouds 28 1014 58 16093 4.6 40 07:30 19.08.2019
3452 Clouds 29 1014 51 16093 5.1 60 06:48 19.08.2019
3453 Clouds 29 1014 51 16093 5.1 60 06:26 19.08.2019
3454 Clouds 29 1014 51 16093 5.1 60 06:26 19.08.2019
3455 Clouds 30 1014 46 16093 7.2 60 04:56 19.08.2019
3456 Clouds 30 1014 46 16093 7.2 60 04:26 19.08.2019
3457 Clouds 30 1014 41 16093 6.2 50 03:22 19.08.2019
3458 Clouds 31 1014 41 16093 6.2 40 02:23 19.08.2019
3459 Clouds 31 1015 43 16093 5.7 80 01:31 19.08.2019
3460 Clouds 31 1016 43 16093 5.7 80 00:43 19.08.2019
3461 Clouds 31 1016 43 16093 5.7 80 00:43 19.08.2019
3462 Clouds 31 1016 43 16093 5.7 80 00:23 19.08.2019
3463 Clouds 30 1017 46 16093 5.1 60 23:42 18.08.2019
3464 Clouds 30 1017 46 16093 5.1 60 23:21 18.08.2019
3465 Clouds 30 1017 48 16093 7.2 60 22:42 18.08.2019
3466 Clouds 30 1017 48 16093 7.2 60 22:22 18.08.2019
3467 Rain 29 1017 61 16093 5.7 90 21:59 18.08.2019
3468 Rain 28 1016 62 16093 3.6 50 21:41 18.08.2019
3469 Rain 28 1016 62 16093 3.6 50 21:22 18.08.2019
3470 Rain 27 1017 69 16093 2.6 50 20:59 18.08.2019
3471 Rain 27 1016 65 16093 2.1 10 20:41 18.08.2019
3472 Rain 27 1016 65 16093 2.1 10 20:23 18.08.2019
3473 Rain 24 1016 65 16093 2.1 30 19:43 18.08.2019
3474 Rain 24 1016 65 16093 2.1 30 19:25 18.08.2019
3475 Clouds 23 1017 94 16093 1.5 310 18:59 18.08.2019
3476 Clouds 23 1016 94 16093 1.5 310 18:40 18.08.2019
3477 Clouds 23 1016 94 16093 1.5 310 18:22 18.08.2019
3478 Clouds 24 1016 65 16093 3.1 20 17:55 18.08.2019
3479 Clouds 24 1016 65 16093 3.1 20 17:37 18.08.2019
3480 Clouds 24 1016 65 16093 3.1 20 17:18 18.08.2019
3481 Clouds 25 1016 69 16093 3.1 50 16:55 18.08.2019
3482 Clouds 25 1016 69 16093 3.1 50 16:37 18.08.2019
3483 Clouds 25 1016 69 16093 3.1 50 16:18 18.08.2019
3484 Clouds 25 1016 69 16093 2.1 30 15:40 18.08.2019
3485 Clouds 25 1016 69 16093 2.1 30 15:20 18.08.2019
3486 Clouds 25 1016 69 16093 3.1 50 14:58 18.08.2019
3487 Clouds 26 1016 69 16093 3.1 50 14:39 18.08.2019
3488 Clouds 26 1016 69 16093 3.1 50 14:19 18.08.2019
3489 Clouds 25 1017 69 16093 5.7 60 13:56 18.08.2019
3490 Clouds 25 1017 69 16093 5.7 60 13:38 18.08.2019
3491 Clouds 25 1017 69 16093 5.7 60 13:19 18.08.2019
3492 Clouds 25 1017 83 16093 1.5 310 12:45 18.08.2019
3493 Clouds 24 1017 69 16093 4.6 70 12:23 18.08.2019
3494 Clouds 27 1018 78 16093 2.37 84.465 11:56 18.08.2019
3495 Clouds 27 1018 78 16093 1.5 350 11:37 18.08.2019
3496 Clouds 27 1018 78 16093 1.5 350 11:19 18.08.2019
3497 Clouds 26 1017 65 16093 6.2 60 10:41 18.08.2019
3498 Clouds 27 1017 65 16093 6.2 60 10:22 18.08.2019
3499 Clouds 27 1017 65 16093 6.2 60 09:52 18.08.2019
3500 Clouds 27 1017 65 16093 6.2 60 09:24 18.08.2019
3501 Clouds 27 1016 69 16093 5.1 70 08:59 18.08.2019
3502 Clouds 27 1017 78 16093 2.1 70 08:40 18.08.2019
3503 Clouds 27 1017 78 16093 2.1 70 08:21 18.08.2019
3504 Clouds 28 1016 54 16093 7.7 70 07:48 18.08.2019
3505 Clouds 28 1016 54 16093 7.7 70 07:48 18.08.2019
3506 Clouds 28 1016 54 16093 7.7 70 07:29 18.08.2019
3507 Clouds 30 1015 49 16093 7.2 60 05:48 18.08.2019
3508 Clouds 31 1015 49 16093 7.2 50 04:53 18.08.2019
3509 Clouds 31 1016 46 16093 7.2 70 03:41 18.08.2019
3510 Clouds 31 1016 43 16093 5.1 60 02:46 18.08.2019
3511 Clouds 31 1016 43 16093 5.1 60 02:23 18.08.2019
3512 Clouds 31 1016 66 16093 4.6 130 01:34 18.08.2019
3513 Clouds 31 1017 49 16093 6.7 70 00:59 18.08.2019
3514 Clouds 31 1017 49 16093 6.7 70 00:38 18.08.2019
3515 Clouds 31 1017 49 16093 6.7 70 00:18 18.08.2019
3516 Clouds 30 1017 55 16093 7.2 60 23:56 17.08.2019
3517 Clouds 30 1017 55 16093 7.2 60 23:37 17.08.2019
3518 Clouds 30 1017 55 16093 7.2 60 23:18 17.08.2019
3519 Clouds 30 1017 55 16093 7.2 60 23:18 17.08.2019
3520 Rain 30 1018 55 16093 6.7 50 22:42 17.08.2019
3521 Rain 30 1018 55 16093 6.7 50 22:23 17.08.2019
3522 Rain 29 1018 69 16093 5.1 70 21:59 17.08.2019
3523 Rain 29 1018 69 16093 5.1 70 21:40 17.08.2019
3524 Rain 29 1018 69 16093 5.1 70 21:40 17.08.2019
3525 Rain 29 1018 69 16093 5.1 70 21:22 17.08.2019
3526 Rain 27 1017 74 16093 3.6 90 20:40 17.08.2019
3527 Rain 26 1017 74 16093 3.6 90 20:21 17.08.2019
3528 Rain 26 1017 78 16093 4.45 80.605 19:58 17.08.2019
3529 Rain 26 1017 78 16093 4.45 80.605 19:39 17.08.2019
3530 Rain 26 1017 78 16093 4.45 80.605 19:20 17.08.2019
3531 Rain 24 1018 100 16093 4.45 80.605 18:41 17.08.2019
3532 Rain 24 1018 100 16093 2.9 88.932 18:19 17.08.2019
3533 Rain 24 1018 94 16093 2.9 88.932 17:58 17.08.2019
3534 Rain 24 1016 88 16093 5.1 80 17:40 17.08.2019
3535 Rain 24 1016 88 16093 5.1 80 17:21 17.08.2019
3536 Rain 24 1016 88 16093 5.1 80 17:21 17.08.2019
3537 Rain 24 1017 78 12874 6.2 60 16:45 17.08.2019
3538 Rain 24 1017 78 12874 6.2 60 16:26 17.08.2019
3539 Rain 25 1017 94 16093 2.9 88.932 15:59 17.08.2019
3540 Clouds 25 1017 69 16093 5.1 60 15:40 17.08.2019
3541 Clouds 25 1017 69 16093 5.1 60 15:21 17.08.2019
3542 Rain 25 1017 69 16093 4.6 60 14:43 17.08.2019
3543 Rain 25 1017 69 16093 4.6 60 14:23 17.08.2019
3544 Clouds 26 1018 69 16093 4.1 60 13:49 17.08.2019
3545 Clouds 26 1018 69 16093 4.1 60 13:23 17.08.2019
3546 Clouds 26 1018 69 16093 5.1 60 12:59 17.08.2019
3547 Clouds 26 1018 69 16093 5.1 60 12:41 17.08.2019
3548 Clouds 26 1018 69 16093 5.1 60 12:19 17.08.2019
3549 Clouds 26 1018 65 16093 4.6 70 11:56 17.08.2019
3550 Clouds 26 1018 65 16093 4.6 70 11:36 17.08.2019
3551 Clouds 26 1018 65 16093 4.6 70 11:18 17.08.2019
3552 Clouds 26 1018 65 16093 6.2 80 10:39 17.08.2019
3553 Clouds 26 1018 65 16093 6.2 80 10:19 17.08.2019
3554 Clouds 27 1017 65 16093 5.1 70 09:49 17.08.2019
3555 Clouds 27 1017 65 16093 5.1 70 09:30 17.08.2019
3556 Clouds 27 1017 74 16093 3.1 80 08:54 17.08.2019
3557 Clouds 27 1017 65 16093 5.7 50 08:25 17.08.2019
3558 Clouds 27 1016 58 16093 7.2 50 07:52 17.08.2019
3559 Clouds 27 1016 58 16093 7.2 50 07:22 17.08.2019
3560 Clouds 28 1016 52 16093 7.2 60 06:54 17.08.2019
3561 Clouds 29 1016 52 16093 8.2 50 05:35 17.08.2019
3562 Clouds 29 1016 46 16093 6.7 60 04:29 17.08.2019
3563 Clouds 30 1016 43 16093 8.7 60 03:33 17.08.2019
3564 Clouds 31 1017 69 16093 6.7 70 01:47 17.08.2019
3565 Clouds 31 1017 49 16093 7.7 70 01:28 17.08.2019
3566 Clouds 31 1018 52 16093 7.2 40 00:55 17.08.2019
3567 Clouds 31 1018 52 16093 7.2 40 00:28 17.08.2019
3568 Clouds 29 1019 65 16093 5.1 100 23:50 16.08.2019
3569 Clouds 30 1018 55 16093 6.7 30 23:27 16.08.2019
3570 Clouds 28 1018 68 16093 5.7 70 22:56 16.08.2019
3571 Clouds 28 1019 66 16093 2.6 100 22:38 16.08.2019
3572 Clouds 28 1019 66 16093 2.6 100 22:19 16.08.2019
3573 Clouds 28 1019 65 16093 5.1 60 21:40 16.08.2019
3574 Clouds 27 1019 65 16093 5.1 60 21:20 16.08.2019
3575 Clouds 27 1019 65 16093 5.1 60 21:20 16.08.2019
3576 Rain 26 1019 94 16093 1.5 60 20:56 16.08.2019
3577 Rain 26 1018 69 16093 3.6 60 20:37 16.08.2019
3578 Rain 26 1018 69 16093 3.6 60 20:18 16.08.2019
3579 Clouds 25 1018 74 16093 3.6 40 19:41 16.08.2019
3580 Clouds 25 1018 74 16093 3.6 40 19:22 16.08.2019
3581 Rain 24 1017 100 16093 4.6 90 18:44 16.08.2019
3582 Rain 24 1017 100 16093 4.6 90 18:25 16.08.2019
3583 Rain 24 1017 100 16093 4.6 90 18:25 16.08.2019
3584 Rain 25 1018 100 16093 1.5 110 17:56 16.08.2019
3585 Rain 24 1017 74 16093 4.6 60 17:37 16.08.2019
3586 Rain 24 1017 74 16093 4.6 60 17:18 16.08.2019
3587 Clouds 25 1017 88 16093 3.6 80 16:41 16.08.2019
3588 Clouds 25 1017 88 16093 3.6 80 16:21 16.08.2019
3589 Clouds 25 1017 88 16093 3.6 80 16:21 16.08.2019
3590 Rain 25 1018 94 16093 2.98 89.885 15:57 16.08.2019
3591 Rain 25 1017 74 16093 3.6 60 15:39 16.08.2019
3592 Rain 24 1017 74 16093 3.6 60 15:21 16.08.2019
3593 Clouds 25 1017 100 16093 4.1 80 14:57 16.08.2019
3594 Rain 25 1017 74 16093 3.1 70 14:38 16.08.2019
3595 Rain 25 1017 74 16093 3.1 70 14:18 16.08.2019
3596 Clouds 25 1017 100 16093 4.6 90 13:41 16.08.2019
3597 Clouds 26 1017 100 16093 4.6 90 13:22 16.08.2019
3598 Clouds 26 1017 100 16093 4.6 90 13:22 16.08.2019
3599 Clouds 26 1018 83 16093 2.1 110 12:55 16.08.2019
3600 Clouds 26 1018 65 16093 5.1 60 12:37 16.08.2019
3601 Clouds 26 1018 65 16093 5.1 60 12:18 16.08.2019
3602 Clouds 27 1018 65 16093 5.7 60 11:41 16.08.2019
3603 Clouds 27 1018 65 16093 5.7 60 11:23 16.08.2019
3604 Clouds 27 1018 65 16093 6.7 50 10:43 16.08.2019
3605 Clouds 27 1018 65 16093 6.7 50 10:22 16.08.2019
3606 Clouds 27 1017 74 16093 4.6 80 09:55 16.08.2019
3607 Clouds 27 1017 65 16093 7.2 60 09:36 16.08.2019
3608 Clouds 27 1017 65 16093 7.2 60 09:18 16.08.2019
3609 Clouds 27 1017 65 16093 5.7 60 08:39 16.08.2019
3610 -273 0 0 0 0 0 08:20 16.08.2019
3611 Clouds 28 1016 58 16093 6.7 60 07:52 16.08.2019
3612 Clouds 28 1016 58 16093 6.7 60 07:29 16.08.2019
3613 Clouds 29 1016 69 16093 5.1 80 06:55 16.08.2019
3614 Clouds 29 1016 51 16093 8.2 80 06:19 16.08.2019
3615 Clouds 29 1016 94 16093 5.1 80 05:34 16.08.2019
3616 Clouds 30 1016 46 16093 7.7 70 03:21 16.08.2019
3617 Clouds 30 1016 58 16093 5.7 60 01:54 16.08.2019
3618 Clouds 30 1016 49 16093 7.2 70 01:28 16.08.2019
3619 Clouds 30 1017 46 16093 6.2 80 00:55 16.08.2019
3620 Clouds 30 1017 46 16093 6.2 80 00:55 16.08.2019
3621 Clouds 30 1017 46 16093 6.2 80 00:36 16.08.2019
3622 Clouds 30 1017 46 16093 6.2 80 00:18 16.08.2019
3623 Clouds 30 1017 52 16093 5.7 70 23:42 15.08.2019
3624 Clouds 30 1017 52 16093 5.7 70 23:19 15.08.2019
3625 Clouds 30 1017 52 16093 6.2 60 22:55 15.08.2019
3626 Clouds 30 1017 52 16093 6.2 60 22:36 15.08.2019
3627 Clouds 30 1017 52 16093 6.2 60 22:18 15.08.2019
3628 Clouds 29 1017 55 16093 6.2 70 21:40 15.08.2019
3629 Clouds 29 1017 55 16093 6.2 70 21:20 15.08.2019
3630 Clouds 28 1017 62 16093 5.1 80 20:59 15.08.2019
3631 Clouds 28 1017 62 16093 5.1 80 20:40 15.08.2019
3632 Clouds 28 1017 62 16093 5.1 80 20:21 15.08.2019
3633 Clouds 26 1016 69 16093 4.1 60 19:54 15.08.2019
3634 Clouds 26 1016 69 16093 4.1 60 19:36 15.08.2019
3635 Clouds 26 1016 69 16093 4.1 60 19:36 15.08.2019
3636 Clouds 26 1016 69 16093 4.1 60 19:18 15.08.2019
3637 Clouds 25 1016 74 16093 2.6 360 18:41 15.08.2019
3638 Clouds 25 1016 74 16093 2.6 360 18:21 15.08.2019
3639 Clouds 24 1015 78 16093 1.5 360 17:55 15.08.2019
3640 Clouds 24 1015 78 16093 1.5 360 17:37 15.08.2019
3641 Clouds 24 1015 78 16093 1.5 360 17:19 15.08.2019
3642 Clouds 24 1016 83 16093 2.1 50 16:47 15.08.2019
3643 Clouds 25 1016 83 16093 2.1 50 16:25 15.08.2019
3644 Clouds 25 1015 74 16093 1.5 360 15:56 15.08.2019
3645 Clouds 25 1015 74 16093 1.5 360 15:38 15.08.2019
3646 Clouds 25 1015 74 16093 1.5 360 15:18 15.08.2019
3647 Clouds 26 1016 69 16093 2.6 310 14:42 15.08.2019
3648 Clouds 26 1016 69 16093 2.6 310 14:42 15.08.2019
3649 Clouds 26 1016 69 16093 2.6 310 14:23 15.08.2019
3650 Clouds 26 1016 69 16093 2.1 360 13:57 15.08.2019
3651 Clouds 26 1016 69 16093 2.1 360 13:39 15.08.2019
3652 Clouds 26 1016 69 16093 2.1 360 13:20 15.08.2019
3653 Clouds 26 1016 69 16093 1.5 290 12:56 15.08.2019
3654 Clouds 26 1016 69 16093 1.5 290 12:37 15.08.2019
3655 Clouds 26 1016 69 16093 1.5 290 12:18 15.08.2019
3656 Clouds 26 1017 69 16093 2.1 20 11:40 15.08.2019
3657 Clouds 26 1017 69 16093 2.1 20 11:21 15.08.2019
3658 Clouds 26 1016 69 16093 2.6 90 10:59 15.08.2019
3659 Clouds 26 1016 69 16093 2.6 90 10:38 15.08.2019
3660 Clouds 26 1016 69 16093 2.6 90 10:38 15.08.2019
3661 Clouds 26 1016 69 16093 2.6 90 10:20 15.08.2019
3662 Clouds 26 1016 69 16093 4.6 80 09:45 15.08.2019
3663 Clouds 26 1016 69 16093 4.6 80 09:24 15.08.2019
3664 Clouds 27 1015 69 16093 3.6 90 08:57 15.08.2019
3665 Clouds 27 1015 69 16093 3.6 90 08:37 15.08.2019
3666 Clouds 27 1015 69 16093 3.6 90 08:18 15.08.2019
3667 Rain 27 1014 54 16093 5.1 80 07:42 15.08.2019
3668 Rain 27 1014 54 16093 5.1 80 07:23 15.08.2019
3669 Rain 27 1014 54 16093 5.1 80 07:23 15.08.2019
3670 Clouds 28 1014 94 16093 4.6 100 06:53 15.08.2019
3671 Clouds 28 1014 94 16093 4.6 100 06:32 15.08.2019
3672 Clouds 30 1013 45 16093 7.2 50 05:44 15.08.2019
3673 Clouds 30 1013 45 16093 7.2 50 05:25 15.08.2019
3674 Clouds 29 1013 43 16093 6.2 70 04:32 15.08.2019
3675 Clouds 30 1014 38 16093 6.2 50 03:37 15.08.2019
3676 Clouds 31 1014 43 16093 7.2 30 02:37 15.08.2019
3677 Clouds 31 1014 41 16093 7.2 60 01:50 15.08.2019
3678 Clouds 31 1014 41 16093 7.2 60 01:27 15.08.2019
3679 Clouds 30 1015 46 16093 5.1 70 00:39 15.08.2019
3680 Clouds 30 1015 46 16093 5.1 70 00:20 15.08.2019
3681 Clouds 30 1015 48 16093 3.6 80 23:57 14.08.2019
3682 Clouds 30 1015 48 16093 3.6 80 23:37 14.08.2019
3683 Clouds 30 1015 48 16093 3.6 80 23:19 14.08.2019
3684 Clouds 29 1015 52 16093 4.1 60 22:42 14.08.2019
3685 Clouds 29 1015 52 16093 4.1 60 22:23 14.08.2019
3686 Clouds 29 1014 78 16093 5.7 90 21:58 14.08.2019
3687 Clouds 28 1014 78 16093 5.7 90 21:40 14.08.2019
3688 Clouds 28 1014 78 16093 5.7 90 21:21 14.08.2019
3689 Rain 27 1014 83 16093 5.1 70 20:59 14.08.2019
3690 Rain 27 1014 83 16093 2.6 70 20:41 14.08.2019
3691 Rain 27 1014 83 16093 2.6 70 20:20 14.08.2019
3692 Rain 25 1014 78 8047 1.5 60 19:56 14.08.2019
3693 Clouds 24 1014 69 16093 1.5 0 19:37 14.08.2019
3694 Clouds 24 1014 69 16093 1.5 0 19:37 14.08.2019
3695 Clouds 23 1014 69 16093 1.46 84.465 19:18 14.08.2019
3696 Clouds 23 1014 69 16093 1.46 84.465 18:55 14.08.2019
3697 Clouds 23 1014 69 16093 1.46 84.465 18:37 14.08.2019
3698 Clouds 23 1014 69 16093 1.53 92.103 18:18 14.08.2019
3699 Clouds 22 1013 73 16093 1.5 280 17:54 14.08.2019
3700 Clouds 22 1013 73 16093 1.5 280 17:36 14.08.2019
3701 Clouds 22 1013 73 16093 1.5 280 17:18 14.08.2019
3702 Clouds 23 1013 74 16093 2.1 340 16:39 14.08.2019
3703 Clouds 23 1013 74 16093 2.1 340 16:20 14.08.2019
3704 Clouds 23 1014 74 16093 1.53 92.103 15:43 14.08.2019
3705 Clouds 23 1014 74 16093 1.18 85.534 15:20 14.08.2019
3706 Clouds 22 1014 74 16093 1.5 320 14:57 14.08.2019
3707 Clouds 22 1014 74 16093 1.5 320 14:39 14.08.2019
3708 Clouds 22 1014 74 16093 1.5 320 14:19 14.08.2019
3709 Clear 23 1015 69 16093 3.6 70 13:44 14.08.2019
3710 Clear 23 1015 69 16093 3.6 70 13:24 14.08.2019
3711 Clouds 24 1015 69 16093 4.1 80 12:58 14.08.2019
3712 Clouds 24 1015 69 16093 4.1 80 12:39 14.08.2019
3713 Clouds 24 1015 69 16093 4.1 80 12:21 14.08.2019
3714 Clouds 24 1015 69 16093 3.6 70 11:56 14.08.2019
3715 Clouds 24 1015 69 16093 3.6 70 11:38 14.08.2019
3716 Clouds 24 1015 69 16093 3.6 70 11:38 14.08.2019
3717 Clouds 24 1015 69 16093 3.6 70 11:38 14.08.2019
3718 Clouds 24 1015 69 16093 3.6 70 11:38 14.08.2019
3719 Clouds 24 1015 69 16093 3.6 70 11:19 14.08.2019
3720 Clouds 25 1015 83 16093 2.6 110 10:43 14.08.2019
3721 Clouds 25 1015 83 16093 3.6 110 10:24 14.08.2019
3722 Clouds 25 1014 83 16093 3.6 110 09:57 14.08.2019
3723 Clouds 25 1014 83 16093 3.6 110 09:38 14.08.2019
3724 Clouds 25 1014 83 16093 3.6 110 09:19 14.08.2019
3725 Clouds 27 1014 65 16093 5.1 70 08:39 14.08.2019
3726 Clouds 27 1014 65 16093 5.1 70 08:21 14.08.2019
3727 Clouds 27 1014 58 16093 6.2 70 07:51 14.08.2019
3728 Clouds 27 1014 58 16093 6.2 70 07:32 14.08.2019
3729 Clouds 28 1013 51 16093 5.1 60 06:46 14.08.2019
3730 Clouds 30 1013 52 16093 7.7 70 05:54 14.08.2019
3731 Clouds 30 1013 52 16093 7.7 70 05:22 14.08.2019
3732 Clouds 31 1014 46 16093 4.1 70 03:38 14.08.2019
3733 Clouds 31 1014 70 16093 5.1 70 02:33 14.08.2019
3734 Clouds 31 1014 66 16093 4.6 100 01:45 14.08.2019
3735 Clouds 30 1015 66 16093 5.7 50 00:59 14.08.2019
3736 Clouds 30 1016 43 16093 3.6 130 23:50 13.08.2019
3737 Clouds 30 1016 43 16093 3.6 130 23:25 13.08.2019
3738 Clouds 30 1016 48 16093 5.7 70 22:59 13.08.2019
3739 Clouds 30 1016 48 16093 5.7 70 22:39 13.08.2019
3740 Clouds 29 1016 48 16093 5.7 70 22:21 13.08.2019
3741 Clouds 29 1016 54 16093 4.1 60 21:58 13.08.2019
3742 Clouds 28 1016 54 16093 4.1 60 21:37 13.08.2019
3743 Clouds 28 1016 54 16093 4.1 60 21:19 13.08.2019
3744 Clouds 28 1015 69 16093 4.1 80 20:46 13.08.2019
3745 Clouds 27 1016 58 16093 2.1 60 20:20 13.08.2019
3746 Clouds 26 1015 69 16093 3.1 70 19:59 13.08.2019
3747 Clouds 26 1015 69 16093 3.1 70 19:59 13.08.2019
3748 Clouds 25 1015 69 16093 3.1 70 19:40 13.08.2019
3749 Clouds 25 1015 69 16093 3.1 70 19:21 13.08.2019
3750 Clouds 25 1015 73 16093 2.1 0 18:43 13.08.2019
3751 Clouds 24 1015 73 16093 2.1 0 18:23 13.08.2019
3752 Clouds 24 1015 78 16093 1.52 75.964 17:58 13.08.2019
3753 Clouds 24 1015 78 16093 1.52 75.964 17:40 13.08.2019
3754 Clouds 24 1015 78 16093 1.52 75.964 17:20 13.08.2019
3755 Clear 24 1015 69 16093 1.52 75.964 16:56 13.08.2019
3756 Clear 24 1015 69 16093 1.52 75.964 16:37 13.08.2019
3757 Clear 24 1015 69 16093 1.52 75.964 16:19 13.08.2019
3758 Clouds 25 1015 65 16093 1.5 0 15:39 13.08.2019
3759 Clouds 25 1015 65 16093 1.5 0 15:20 13.08.2019
3760 Clouds 25 1015 69 16093 2.1 30 14:58 13.08.2019
3761 Clouds 25 1015 69 16093 2.1 30 14:38 13.08.2019
3762 Clouds 25 1015 69 16093 2.1 30 14:18 13.08.2019
3763 Clouds 25 1015 69 16093 2.1 30 14:18 13.08.2019
3764 Clouds 25 1016 61 16093 2.6 50 13:41 13.08.2019
3765 Clouds 25 1016 61 16093 2.6 50 13:21 13.08.2019
3766 Clouds 26 1016 61 16093 3.6 50 12:58 13.08.2019
3767 Clouds 26 1016 61 16093 3.6 50 12:40 13.08.2019
3768 Clouds 26 1016 61 16093 3.6 50 12:21 13.08.2019
3769 Clouds 25 1017 65 16093 5.1 70 11:57 13.08.2019
3770 Clouds 25 1017 65 16093 5.1 70 11:37 13.08.2019
3771 Clouds 25 1017 65 16093 5.1 70 11:18 13.08.2019
3772 Clouds 26 1017 61 16093 3.6 50 10:55 13.08.2019
3773 Clouds 27 1017 61 16093 3.6 50 10:36 13.08.2019
3774 Clouds 26 1017 61 16093 3.6 50 10:18 13.08.2019
3775 Clouds 27 1016 61 16093 4.1 40 09:41 13.08.2019
3776 Clouds 27 1016 61 16093 4.1 40 09:22 13.08.2019
3777 Clear 27 1016 58 16093 3.1 70 08:42 13.08.2019
3778 Clear 27 1016 58 16093 3.1 70 08:22 13.08.2019
3779 Clouds 27 1015 58 16093 5.7 70 07:56 13.08.2019
3780 Clouds 27 1015 58 16093 5.7 70 07:32 13.08.2019
3781 Clouds 29 1014 66 16093 3.6 70 06:46 13.08.2019
3782 Clouds 29 1014 66 16093 3.6 70 06:23 13.08.2019
3783 Clouds 30 1015 48 16093 6.2 60 05:33 13.08.2019
3784 Clouds 30 1015 40 16093 6.7 60 02:37 13.08.2019
3785 Clouds 30 1015 41 16093 6.2 50 01:55 13.08.2019
3786 Clouds 31 1016 38 16093 6.2 50 00:54 13.08.2019
3787 Clouds 31 1016 38 16093 6.2 50 00:35 13.08.2019
3788 Clouds 30 1016 40 16093 6.2 100 23:48 12.08.2019
3789 Clouds 30 1016 40 16093 6.2 100 23:24 12.08.2019
3790 Clouds 30 1016 48 16093 5.7 60 22:57 12.08.2019
3791 Clouds 30 1016 48 16093 5.7 60 22:38 12.08.2019
3792 Clouds 30 1016 48 16093 5.7 60 22:19 12.08.2019
3793 Rain 29 1017 69 16093 2.6 150 21:54 12.08.2019
3794 Rain 29 1017 69 16093 2.6 150 21:36 12.08.2019
3795 Rain 28 1017 69 16093 2.6 150 21:18 12.08.2019
3796 Clouds 28 1016 78 16093 4.6 100 20:41 12.08.2019
3797 Clouds 27 1016 78 16093 4.6 100 20:21 12.08.2019
3798 Clouds 25 1016 69 16093 4.6 60 19:58 12.08.2019
3799 Clouds 25 1016 69 16093 4.6 60 19:39 12.08.2019
3800 Clouds 25 1016 69 16093 4.6 60 19:21 12.08.2019
3801 Clouds 24 1016 74 16093 2.1 30 18:59 12.08.2019
3802 Clouds 24 1016 74 16093 2.1 30 18:39 12.08.2019
3803 Clouds 25 1016 74 16093 2.1 30 18:20 12.08.2019
3804 Clouds 26 1016 69 16093 2.1 50 17:55 12.08.2019
3805 Clouds 25 1016 69 16093 2.1 50 17:37 12.08.2019
3806 Clouds 25 1016 69 16093 2.1 50 17:19 12.08.2019
3807 Clouds 25 1015 69 16093 4.1 60 16:40 12.08.2019
3808 Clouds 25 1015 69 16093 4.1 60 16:20 12.08.2019
3809 Clouds 24 1015 69 16093 4.1 70 15:59 12.08.2019
3810 Clouds 25 1015 69 16093 4.1 70 15:59 12.08.2019
3811 Clouds 24 1015 69 16093 4.1 70 15:41 12.08.2019
3812 -273 0 0 0 0 0 15:39 12.08.2019
3813 Clouds 24 1015 69 16093 4.1 70 15:21 12.08.2019
3814 Clouds 24 1016 69 16093 2.6 50 14:55 12.08.2019
3815 Clouds 24 1016 69 16093 2.6 50 14:37 12.08.2019
3816 Clouds 24 1016 69 16093 2.6 50 14:37 12.08.2019
3817 Clouds 24 1016 69 16093 2.6 50 14:18 12.08.2019
3818 Clouds 25 1016 69 16093 2.6 40 13:42 12.08.2019
3819 Clouds 25 1016 69 16093 2.6 40 13:23 12.08.2019
3820 Clouds 25 1017 69 16093 2.6 40 12:44 12.08.2019
3821 Clouds 25 1017 69 16093 2.6 40 12:22 12.08.2019
3822 Clouds 25 1017 69 16093 2.1 60 11:56 12.08.2019
3823 Clouds 25 1017 69 16093 2.1 60 11:38 12.08.2019
3824 Clouds 25 1017 69 16093 2.1 60 11:19 12.08.2019
3825 Clouds 26 1016 65 16093 1.5 20 10:41 12.08.2019
3826 Clouds 26 1016 65 16093 1.5 20 10:23 12.08.2019
3827 Clouds 27 1016 65 16093 3.1 60 09:56 12.08.2019
3828 Clouds 27 1016 65 16093 3.1 60 09:37 12.08.2019
3829 Clouds 27 1016 65 16093 3.1 60 09:18 12.08.2019
3830 Clouds 27 1016 74 16093 3.6 60 08:42 12.08.2019
3831 Clouds 27 1016 74 16093 3.6 60 08:24 12.08.2019
3832 Clouds 28 1016 74 16093 3.6 40 07:57 12.08.2019
3833 Clouds 27 1016 74 16093 4.1 50 07:39 12.08.2019
3834 Clouds 27 1016 74 16093 4.1 50 07:19 12.08.2019
3835 Clouds 29 1014 58 16093 5.1 60 06:42 12.08.2019
3836 Clouds 29 1014 52 16093 6.2 30 04:40 12.08.2019
3837 Clouds 30 1014 62 16093 7.7 150 02:43 12.08.2019
3838 Clouds 30 1015 58 16093 7.2 140 01:49 12.08.2019
3839 Clouds 30 1015 58 16093 7.2 140 01:19 12.08.2019
3840 Clouds 30 1015 58 16093 7.2 140 01:19 12.08.2019
3841 Clouds 31 1015 55 16093 7.7 140 00:55 12.08.2019
3842 Clouds 30 1015 41 16093 5.1 50 00:37 12.08.2019
3843 Clouds 30 1015 41 16093 5.1 50 00:18 12.08.2019
3844 Clouds 30 1015 46 16093 4.6 90 23:40 11.08.2019
3845 Clouds 31 1015 46 16093 4.6 90 23:20 11.08.2019
3846 Clouds 30 1016 62 16093 3.1 210 22:57 11.08.2019
3847 Clouds 30 1016 62 16093 3.1 210 22:38 11.08.2019
3848 Clouds 30 1016 62 16093 3.1 210 22:18 11.08.2019
3849 Clouds 29 1016 58 16093 2.6 70 21:56 11.08.2019
3850 Clouds 29 1016 58 16093 2.6 70 21:38 11.08.2019
3851 Clouds 29 1016 58 16093 2.6 70 21:19 11.08.2019
3852 Clouds 28 1016 69 16093 1.5 10 20:44 11.08.2019
3853 Clouds 27 1016 69 16093 1.5 10 20:23 11.08.2019
3854 Clouds 25 1016 74 16093 1.5 340 19:56 11.08.2019
3855 Clouds 25 1016 74 16093 1.5 340 19:55 11.08.2019
3856 Clouds 25 1016 74 16093 1.5 340 19:36 11.08.2019
3857 Clouds 25 1016 74 16093 1.5 340 19:18 11.08.2019
3858 Clouds 24 1015 74 16093 2.6 330 18:39 11.08.2019
3859 Clouds 24 1015 74 16093 2.6 330 18:19 11.08.2019
3860 Clouds 25 1015 78 16093 1.5 330 17:54 11.08.2019
3861 Clouds 25 1015 78 16093 1.5 330 17:36 11.08.2019
3862 Clouds 25 1015 78 16093 1.5 330 17:18 11.08.2019
3863 Clouds 24 1014 78 16093 2.1 340 16:40 11.08.2019
3864 Clouds 24 1014 78 16093 2.1 340 16:22 11.08.2019
3865 Clouds 24 1015 83 16093 1.7 79.457 15:57 11.08.2019
3866 Clouds 24 1014 94 16093 1.5 80 15:38 11.08.2019
3867 Clouds 24 1014 94 16093 1.5 80 15:20 11.08.2019
3868 Clouds 25 1015 69 16093 1.5 10 14:42 11.08.2019
3869 Clouds 24 1015 69 16093 1.5 10 14:24 11.08.2019
3870 Clouds 25 1016 69 16093 1.5 30 13:47 11.08.2019
3871 Clouds 25 1016 69 16093 1.5 30 13:26 11.08.2019
3872 Clouds 25 1015 100 16093 1.5 100 12:59 11.08.2019
3873 Clouds 25 1016 65 16093 4.1 70 12:41 11.08.2019
3874 Clouds 25 1016 65 16093 4.1 70 12:21 11.08.2019
3875 Clouds 26 1016 65 16093 4.1 90 11:41 11.08.2019
3876 Clouds 26 1016 65 16093 4.1 90 11:22 11.08.2019
3877 Clouds 27 1016 65 16093 1.5 10 10:56 11.08.2019
3878 Clouds 27 1016 65 16093 1.5 10 10:38 11.08.2019
3879 Clouds 27 1016 65 16093 1.5 10 10:19 11.08.2019
3880 Clouds 27 1016 65 16093 1.5 10 10:19 11.08.2019
3881 Clouds 26 1017 83 16093 1.5 40 09:54 11.08.2019
3882 Clouds 26 1016 65 16093 2.6 30 09:36 11.08.2019
3883 Clouds 26 1016 65 16093 2.6 30 09:36 11.08.2019
3884 Clouds 27 1016 65 16093 2.6 30 09:18 11.08.2019
3885 Clouds 27 1015 62 16093 4.1 40 08:40 11.08.2019
3886 Clouds 27 1015 62 16093 4.1 40 08:21 11.08.2019
3887 Clouds 27 1014 66 16093 4.6 50 07:43 11.08.2019
3888 Clouds 27 1014 66 16093 4.6 50 07:18 11.08.2019
3889 Clouds 28 1014 58 16093 4.1 70 06:37 11.08.2019
3890 Clouds 29 1014 58 16093 2.1 100 05:19 11.08.2019
3891 Clouds 31 1014 55 16093 4.6 150 02:53 11.08.2019
3892 Clouds 31 1015 52 16093 5.1 80 01:58 11.08.2019
3893 Clouds 31 1015 52 16093 5.1 80 01:32 11.08.2019
3894 Clouds 31 1015 55 16093 3.6 150 00:56 11.08.2019
3895 Clouds 30 1015 55 16093 3.6 150 00:36 11.08.2019
3896 Clouds 31 1016 55 16093 3.1 190 23:56 10.08.2019
3897 Clouds 31 1016 55 16093 3.1 190 23:34 10.08.2019
3898 Clouds 29 1016 62 16093 3.6 220 22:57 10.08.2019
3899 Clouds 29 1016 62 16093 3.6 220 22:38 10.08.2019
3900 Clouds 29 1016 62 16093 3.6 220 22:19 10.08.2019
3901 Clouds 29 1016 58 16093 2.6 0 21:41 10.08.2019
3902 Clouds 29 1016 58 16093 2.6 0 21:21 10.08.2019
3903 Clouds 27 1016 69 16093 1.5 340 20:58 10.08.2019
3904 Clouds 27 1016 69 16093 1.5 340 20:39 10.08.2019
3905 Clouds 27 1016 69 16093 1.5 340 20:20 10.08.2019
3906 Clouds 26 1015 74 16093 1.59 80.775 19:45 10.08.2019
3907 Clouds 24 1015 82 16093 1.59 80.775 19:25 10.08.2019
3908 Clouds 23 1015 83 16093 2.1 340 18:46 10.08.2019
3909 Clouds 23 1015 83 16093 2.1 340 18:26 10.08.2019
3910 Clouds 23 1014 95 16093 1.31 75.23 17:57 10.08.2019
3911 Clouds 24 1014 78 16093 2.6 330 17:39 10.08.2019
3912 Clouds 24 1014 78 16093 2.6 330 17:21 10.08.2019
3913 Clouds 24 1014 78 16093 2.1 340 16:43 10.08.2019
3914 Clouds 24 1014 78 16093 2.1 340 16:25 10.08.2019
3915 Clouds 24 1014 74 16093 2.1 360 15:49 10.08.2019
3916 Clouds 24 1014 74 16093 2.1 360 15:22 10.08.2019
3917 Clouds 24 1015 69 16093 4.1 50 14:44 10.08.2019
3918 Clouds 24 1015 69 16093 4.1 50 14:21 10.08.2019
3919 Clouds 24 1015 74 16093 2.6 40 13:41 10.08.2019
3920 Clouds 24 1015 74 16093 2.6 40 13:20 10.08.2019
3921 Clouds 25 1015 69 16093 3.6 50 12:55 10.08.2019
3922 Clouds 25 1015 69 16093 3.6 50 12:37 10.08.2019
3923 Clouds 25 1015 69 16093 3.6 50 12:18 10.08.2019
3924 Clouds 26 1016 69 16093 4.6 70 11:42 10.08.2019
3925 Clouds 26 1016 69 16093 4.6 70 11:22 10.08.2019
3926 Clouds 26 1015 69 16093 5.1 70 10:55 10.08.2019
3927 Clouds 26 1015 69 16093 5.1 70 10:55 10.08.2019
3928 Clouds 26 1015 69 16093 5.1 70 10:37 10.08.2019
3929 Clouds 26 1015 69 16093 5.1 70 10:18 10.08.2019
3930 Clouds 26 1015 69 16093 5.1 80 09:41 10.08.2019
3931 Clouds 26 1015 69 16093 5.1 80 09:41 10.08.2019
3932 Clouds 26 1015 69 16093 5.1 80 09:23 10.08.2019
3933 Clouds 27 1014 69 16093 2.6 90 08:42 10.08.2019
3934 Clouds 27 1014 69 16093 2.6 90 08:20 10.08.2019
3935 Clouds 28 1015 74 16093 1.5 120 07:54 10.08.2019
3936 Clouds 28 1014 65 16093 3.6 50 07:29 10.08.2019
3937 Clouds 29 1014 62 16093 3.6 60 06:49 10.08.2019
3938 Clouds 28 1014 62 16093 3.6 60 06:28 10.08.2019
3939 Clouds 29 1014 66 16093 4.1 150 05:26 10.08.2019
3940 Clouds 29 1014 69 16093 3.1 180 04:35 10.08.2019
3941 Clouds 29 1015 66 16093 5.1 160 02:56 10.08.2019
3942 Clouds 29 1015 66 16093 5.1 160 02:26 10.08.2019
3943 Clouds 29 1015 70 16093 4.6 150 01:42 10.08.2019
3944 Clouds 30 1015 70 16093 4.6 150 01:21 10.08.2019
3945 Rain 29 1016 74 16093 5.1 150 00:48 10.08.2019
3946 Rain 30 1016 74 16093 5.1 150 00:22 10.08.2019
3947 Rain 29 1016 69 16093 3.6 180 23:44 09.08.2019
3948 Rain 29 1016 69 16093 3.6 180 23:24 09.08.2019
3949 Rain 28 1016 65 16093 2.6 180 22:58 09.08.2019
3950 Rain 28 1016 65 16093 2.6 180 22:39 09.08.2019
3951 Rain 28 1016 65 16093 2.6 180 22:20 09.08.2019
3952 Clouds 28 1016 61 16093 2.1 100 21:43 09.08.2019
3953 Clouds 28 1016 61 16093 2.1 100 21:24 09.08.2019
3954 Clouds 28 1016 61 16093 2.1 100 21:24 09.08.2019
3955 Clouds 28 1016 61 16093 2.1 100 21:24 09.08.2019
3956 Clouds 27 1016 69 16093 1.11 98.459 20:59 09.08.2019
3957 Clouds 27 1016 69 16093 0.89 102.257 20:41 09.08.2019
3958 Clouds 27 1016 69 16093 0.89 102.257 20:22 09.08.2019
3959 Clouds 26 1015 78 16093 4.1 80 19:59 09.08.2019
3960 Clouds 25 1015 88 16093 1.5 350 19:41 09.08.2019
3961 Clouds 25 1015 88 16093 1.5 350 19:19 09.08.2019
3962 Clouds 25 1015 88 16093 1.5 350 19:19 09.08.2019
3963 Clouds 23 1015 88 16093 1.5 340 18:41 09.08.2019
3964 Clouds 23 1015 88 16093 1.5 340 18:22 09.08.2019
3965 Clouds 23 1014 100 16093 2.6 110 17:58 09.08.2019
3966 Clear 24 1014 83 16093 1.5 300 17:39 09.08.2019
3967 Clear 24 1014 83 16093 1.5 300 17:21 09.08.2019
3968 Clouds 24 1013 100 16093 3.1 90 16:42 09.08.2019
3969 Clouds 24 1013 100 16093 3.1 90 16:42 09.08.2019
3970 Clouds 23 1013 100 16093 3.1 90 16:23 09.08.2019
3971 Clouds 24 1013 100 16093 3.1 90 15:57 09.08.2019
3972 Clouds 24 1013 100 16093 2.1 90 15:39 09.08.2019
3973 Clouds 24 1013 100 16093 2.1 90 15:20 09.08.2019
3974 Clouds 24 1013 100 16093 2.1 90 15:20 09.08.2019
3975 Clouds 24 1015 83 16093 1.5 310 14:55 09.08.2019
3976 Clouds 24 1015 83 16093 1.5 310 14:55 09.08.2019
3977 Clouds 24 1015 83 16093 1.5 310 14:36 09.08.2019
3978 Clouds 24 1015 83 16093 1.5 310 14:18 09.08.2019
3979 Clouds 25 1015 78 16093 2.1 320 13:42 09.08.2019
3980 Clouds 25 1015 78 16093 2.1 320 13:20 09.08.2019
3981 Clouds 25 1016 74 16093 2.1 60 12:46 09.08.2019
3982 Clouds 25 1016 74 16093 2.1 60 12:24 09.08.2019
3983 Clouds 25 1016 69 16093 1.5 80 11:58 09.08.2019
3984 Clouds 25 1016 69 16093 1.5 80 11:37 09.08.2019
3985 Clouds 25 1016 69 16093 1.5 80 11:18 09.08.2019
3986 Clouds 25 1016 74 16093 4.6 80 10:40 09.08.2019
3987 Clouds 25 1016 74 16093 4.6 80 10:21 09.08.2019
3988 Clouds 26 1016 78 16093 1.5 80 09:46 09.08.2019
3989 Clouds 26 1015 78 16093 1.5 90 09:20 09.08.2019
3990 Clouds 25 1016 78 16093 1.5 30 08:57 09.08.2019
3991 Clouds 26 1015 61 16093 2.6 50 08:39 09.08.2019
3992 Clouds 26 1015 61 16093 2.6 50 08:19 09.08.2019
3993 Clouds 27 1015 61 16093 5.7 40 07:43 09.08.2019
3994 Clouds 27 1015 61 16093 5.7 40 07:43 09.08.2019
3995 Clouds 27 1015 61 16093 5.7 40 07:23 09.08.2019
3996 Clouds 27 1014 61 16093 5.7 50 06:56 09.08.2019
3997 Clouds 27 1014 61 16093 5.7 50 06:29 09.08.2019
3998 Clouds 29 1014 58 16093 4.1 40 05:55 09.08.2019
3999 Clouds 29 1014 62 16093 5.1 230 03:19 09.08.2019
4000 Clouds 29 1015 69 16093 4.6 220 01:45 09.08.2019
4001 Clouds 29 1015 69 16093 4.6 160 00:45 09.08.2019
4002 Clouds 29 1015 69 16093 4.6 160 00:45 09.08.2019
4003 Clouds 29 1015 69 16093 4.6 160 00:26 09.08.2019
4004 Clouds 28 1016 69 16093 2.1 20 23:59 08.08.2019
4005 Clouds 28 1016 69 16093 2.1 20 23:59 08.08.2019
4006 Clouds 28 1016 69 16093 3.1 20 23:38 08.08.2019
4007 Clouds 28 1016 69 16093 3.1 20 23:19 08.08.2019
4008 Clouds 28 1015 66 16093 4.6 60 22:57 08.08.2019
4009 Clouds 27 1016 78 16093 3.1 180 22:36 08.08.2019
4010 Clouds 28 1016 78 16093 3.1 180 22:18 08.08.2019
4011 Clouds 27 1016 78 16093 1.5 0 21:55 08.08.2019
4012 Clouds 27 1016 78 16093 1.5 0 21:55 08.08.2019
4013 Clouds 27 1016 78 16093 1.5 0 21:36 08.08.2019
4014 Clouds 27 1016 78 16093 1.5 0 21:18 08.08.2019
4015 Clouds 26 1016 83 16093 1.5 360 20:42 08.08.2019
4016 Clouds 26 1016 83 16093 1.5 360 20:21 08.08.2019
4017 Clouds 25 1015 88 16093 2.1 0 19:56 08.08.2019
4018 Clouds 24 1015 88 16093 2.1 0 19:37 08.08.2019
4019 Clouds 24 1015 88 16093 2.1 0 19:19 08.08.2019
4020 Clouds 23 1015 94 16093 1.5 10 18:41 08.08.2019
4021 Clouds 23 1015 94 16093 1.5 10 18:20 08.08.2019
4022 Clouds 22 1015 94 16093 0.7 71.591 17:42 08.08.2019
4023 Clouds 22 1015 94 16093 0.7 71.591 17:24 08.08.2019
4024 Clouds 22 1014 94 16093 1.5 10 16:59 08.08.2019
4025 Clouds 22 1014 94 16093 1.5 10 16:41 08.08.2019
4026 Clouds 22 1014 94 16093 1.5 10 16:23 08.08.2019
4027 Clouds 23 1015 94 16093 1.5 20 15:57 08.08.2019
4028 Clouds 23 1015 94 16093 1.5 20 15:38 08.08.2019
4029 Clouds 23 1015 94 16093 1.5 20 15:20 08.08.2019
4030 Clouds 23 1015 88 16093 2.1 350 14:38 08.08.2019
4031 Clouds 23 1015 88 16093 2.1 350 14:19 08.08.2019
4032 Clouds 24 1016 88 16093 1.5 90 13:43 08.08.2019
4033 Clouds 24 1016 88 16093 1.5 90 13:24 08.08.2019
4034 Clouds 25 1016 74 16093 2.1 130 12:58 08.08.2019
4035 Clouds 25 1017 83 16093 4.1 70 12:38 08.08.2019
4036 Clouds 25 1017 83 16093 4.1 70 12:18 08.08.2019
4037 Clouds 25 1017 83 16093 4.1 70 12:18 08.08.2019
4038 Clouds 24 1016 100 16093 2.6 120 11:43 08.08.2019
4039 Clouds 24 1016 100 16093 2.6 120 11:24 08.08.2019
4040 Clouds 25 1017 88 16093 3.6 70 10:42 08.08.2019
4041 Clouds 25 1017 88 16093 3.6 70 10:23 08.08.2019
4042 Clouds 25 1016 83 16093 3.1 70 09:58 08.08.2019
4043 Clouds 25 1016 83 16093 3.1 70 09:39 08.08.2019
4044 Clouds 25 1016 83 16093 3.1 70 09:20 08.08.2019
4045 Clouds 26 1017 74 16093 1.5 0 08:42 08.08.2019
4046 Clouds 26 1017 74 16093 1.5 0 08:21 08.08.2019
4047 Clouds 26 1017 74 16093 1.5 0 08:21 08.08.2019
4048 Clouds 26 1016 74 16093 0.76 19.906 07:56 08.08.2019
4049 Clouds 26 1016 74 16093 0.76 19.906 07:56 08.08.2019
4050 Rain 27 1016 83 16093 2.1 200 07:37 08.08.2019
4051 Rain 27 1016 83 16093 2.1 200 07:37 08.08.2019
4052 Rain 27 1016 83 16093 2.1 200 07:18 08.08.2019
4053 Rain 27 1015 78 16093 3.1 230 06:41 08.08.2019
4054 Clouds 28 1014 74 16093 3.1 110 05:55 08.08.2019
4055 Clouds 28 1015 74 16093 4.6 220 05:28 08.08.2019
4056 Haze 29 1015 88 16093 3.1 360 03:57 08.08.2019
4057 Haze 29 1015 88 16093 1.06 286.316 03:35 08.08.2019
4058 Clouds 29 1016 74 16093 4.6 180 01:41 08.08.2019
4059 Rain 29 1016 74 16093 1.34 208.283 00:46 08.08.2019
4060 Rain 29 1016 74 16093 2.26 185.05 00:20 08.08.2019
4061 Clear 29 1015 74 16093 3.6 110 23:23 07.08.2019
4062 Rain 28 1016 70 8047 4.1 110 22:59 07.08.2019
4063 Clouds 28 1016 78 16093 2.6 0 22:41 07.08.2019
4064 Clouds 28 1016 78 16093 2.6 0 22:20 07.08.2019
4065 Rain 27 1017 78 16093 2.1 130 21:56 07.08.2019
4066 Rain 27 1015 100 16093 2.6 50 21:38 07.08.2019
4067 Rain 27 1015 100 16093 2.6 50 21:38 07.08.2019
4068 Rain 26 1015 100 16093 2.6 50 21:19 07.08.2019
4069 Rain 27 1017 94 16093 1.54 177.054 20:56 07.08.2019
4070 Rain 27 1016 78 16093 1.69 180.476 20:37 07.08.2019
4071 Rain 27 1016 78 16093 1.69 180.476 20:19 07.08.2019
4072 Rain 26 1015 83 16093 1.69 180.476 19:40 07.08.2019
4073 Rain 26 1015 83 16093 1.69 180.476 19:22 07.08.2019
4074 Clouds 26 1016 100 16093 1.69 180.476 18:59 07.08.2019
4075 Drizzle 26 1015 83 16093 1.5 170 18:39 07.08.2019
4076 Drizzle 25 1015 83 16093 1.5 170 18:19 07.08.2019
4077 Rain 25 1015 83 16093 2.6 190 17:54 07.08.2019
4078 Rain 25 1015 83 16093 2.6 190 17:54 07.08.2019
4079 Rain 25 1015 83 16093 2.6 190 17:54 07.08.2019
4080 Rain 25 1015 83 16093 2.1 190 17:36 07.08.2019
4081 Rain 25 1015 83 16093 2.1 190 17:18 07.08.2019
4082 Rain 26 1015 100 12874 1.57 170.147 16:54 07.08.2019
4083 Rain 26 1015 100 12874 1.57 170.147 16:54 07.08.2019
4084 Rain 26 1015 100 16093 1.57 170.147 16:36 07.08.2019
4085 Rain 26 1015 100 16093 1.57 170.147 16:18 07.08.2019
4086 Rain 26 1015 100 16093 1.57 170.147 15:42 07.08.2019
4087 Rain 26 1015 100 16093 1.71 176.472 15:19 07.08.2019
4088 Rain 26 1015 100 16093 1.71 176.472 14:49 07.08.2019
4089 Rain 26 1015 88 14484 2.6 160 14:30 07.08.2019
4090 Drizzle 26 1016 100 16093 1.71 176.472 13:57 07.08.2019
4091 Rain 26 1016 78 16093 2.1 120 13:38 07.08.2019
4092 Rain 26 1016 78 16093 2.1 120 13:18 07.08.2019
4093 Rain 26 1016 100 16093 1.77 175.7 12:56 07.08.2019
4094 Clouds 26 1016 78 16093 3.1 130 12:36 07.08.2019
4095 Clouds 26 1016 78 16093 3.1 130 12:18 07.08.2019
4096 Clouds 26 1017 94 16093 2.1 160 11:43 07.08.2019
4097 Clouds 27 1017 94 16093 2.1 160 11:21 07.08.2019
4098 Clouds 27 1017 94 16093 1.63 175.959 10:58 07.08.2019
4099 Clouds 27 1016 83 16093 2.6 130 10:39 07.08.2019
4100 Clouds 27 1016 83 16093 2.6 130 10:18 07.08.2019
4101 Drizzle 27 1017 94 16093 1.63 175.959 09:45 07.08.2019
4102 Clouds 27 1015 78 16093 1.5 140 09:22 07.08.2019
4103 Clouds 27 1017 94 16093 1.65 198.589 08:57 07.08.2019
4104 Rain 27 1016 78 16093 3.1 140 08:38 07.08.2019
4105 Rain 27 1016 78 16093 3.1 140 08:38 07.08.2019
4106 Rain 27 1016 78 16093 3.1 140 08:20 07.08.2019
4107 Rain 28 1015 74 16093 4.6 140 07:41 07.08.2019
4108 Clouds 28 1015 74 16093 4.6 140 07:20 07.08.2019
4109 Clouds 28 1015 70 16093 3.1 170 06:31 07.08.2019
4110 Clouds 29 1015 74 16093 2.6 0 05:54 07.08.2019
4111 Rain 29 1014 78 16093 2.6 180 04:57 07.08.2019
4112 Clouds 30 1014 66 16093 4.6 160 03:21 07.08.2019
4113 Clouds 30 1013 83 16093 4.6 110 02:49 07.08.2019
4114 Rain 29 1014 83 9656 4.1 100 01:58 07.08.2019
4115 Rain 29 1015 70 16093 6.7 140 01:39 07.08.2019
4116 Clouds 29 1015 70 16093 4.1 160 00:43 07.08.2019
4117 Clouds 29 1015 70 16093 4.1 160 00:22 07.08.2019
4118 Clouds 29 1015 74 16093 3.6 150 23:41 06.08.2019
4119 Clouds 29 1015 74 16093 3.6 150 23:21 06.08.2019
4120 Clouds 29 1015 69 16093 3.6 150 22:56 06.08.2019
4121 Clouds 29 1015 69 16093 3.6 150 22:37 06.08.2019
4122 Clouds 29 1015 69 16093 3.6 150 22:18 06.08.2019
4123 Clouds 28 1015 69 16093 1.5 130 21:43 06.08.2019
4124 Clouds 28 1015 69 16093 1.5 130 21:25 06.08.2019
4125 Clouds 27 1015 69 16093 1.5 10 20:57 06.08.2019
4126 Clouds 27 1015 69 16093 1.5 10 20:39 06.08.2019
4127 Clouds 27 1015 69 16093 1.5 10 20:21 06.08.2019
4128 Clouds 25 1014 78 16093 0.66 16.443 19:43 06.08.2019
4129 Clouds 24 1014 78 16093 0.66 16.443 19:25 06.08.2019
4130 Clouds 23 1014 78 16093 1.5 350 18:46 06.08.2019
4131 Clouds 23 1014 78 16093 1.5 350 18:27 06.08.2019
4132 Clouds 23 1014 78 16093 1.5 330 17:59 06.08.2019
4133 Clouds 23 1014 78 16093 1.5 330 17:39 06.08.2019
4134 Clouds 23 1014 78 16093 1.5 330 17:21 06.08.2019
4135 Clouds 23 1013 92 16093 0.79 55.67 16:59 06.08.2019
4136 Clouds 23 1013 92 16093 2.1 250 16:38 06.08.2019
4137 Clouds 23 1013 92 16093 2.1 250 16:19 06.08.2019
4138 Clouds 23 1013 92 16093 2.1 290 15:56 06.08.2019
4139 Clouds 23 1013 83 16093 1.5 20 15:38 06.08.2019
4140 Clouds 23 1013 83 16093 1.5 20 15:19 06.08.2019
4141 Clouds 23 1013 83 16093 1.5 20 15:19 06.08.2019
4142 Clouds 24 1013 93 16093 2.1 310 14:43 06.08.2019
4143 Rain 24 1013 78 16093 2.6 340 14:24 06.08.2019
4144 Clouds 24 1014 78 16093 1.5 360 13:57 06.08.2019
4145 Clouds 24 1014 78 16093 1.5 360 13:57 06.08.2019
4146 Clouds 24 1014 78 16093 1.5 360 13:38 06.08.2019
4147 Clouds 24 1014 78 16093 1.5 360 13:19 06.08.2019
4148 Clouds 24 1013 92 16093 0.79 64.671 12:55 06.08.2019
4149 Clouds 24 1014 78 16093 2.1 10 12:36 06.08.2019
4150 Clouds 24 1014 78 16093 2.1 10 12:18 06.08.2019
4151 Clouds 24 1014 88 16093 1.5 360 11:40 06.08.2019
4152 Clouds 24 1014 88 16093 1.5 360 11:40 06.08.2019
4153 Clouds 24 1014 88 16093 1.5 360 11:40 06.08.2019
4154 Clouds 24 1014 88 16093 1.5 360 11:18 06.08.2019
4155 Clouds 24 1014 74 16093 2.6 10 10:41 06.08.2019
4156 Clouds 24 1014 74 16093 2.6 10 10:22 06.08.2019
4157 Clouds 26 1014 74 16093 2.1 40 09:48 06.08.2019
4158 Clouds 26 1014 74 16093 2.1 40 09:24 06.08.2019
4159 Rain 25 1014 83 16093 2.1 310 08:57 06.08.2019
4160 Rain 26 1014 83 16093 2.1 310 08:37 06.08.2019
4161 Rain 25 1014 83 16093 2.1 310 08:19 06.08.2019
4162 Rain 25 1014 78 16093 4.1 360 07:35 06.08.2019
4163 Rain 26 1013 87 16093 2.1 0 06:51 06.08.2019
4164 Rain 27 1013 78 16093 3.17 59.768 06:26 06.08.2019
4165 Rain 28 1013 83 8047 2.6 70 05:47 06.08.2019
4166 Rain 30 1014 74 14484 6.2 90 02:59 06.08.2019
4167 Clouds 30 1014 46 16093 5.7 10 01:46 06.08.2019
4168 Clouds 30 1014 46 16093 5.7 10 01:21 06.08.2019
4169 Clouds 30 1015 52 16093 5.1 50 00:26 06.08.2019
4170 Clouds 30 1015 52 16093 4.6 50 23:21 05.08.2019
4171 Clouds 30 1015 52 16093 4.6 30 22:59 05.08.2019
4172 Clouds 30 1015 52 16093 4.6 30 22:40 05.08.2019
4173 Clouds 30 1015 52 16093 4.6 30 22:22 05.08.2019
4174 Clouds 30 1016 69 16093 4.1 60 21:43 05.08.2019
4175 Clouds 28 1016 55 16093 4.1 40 21:21 05.08.2019
4176 Clouds 28 1016 62 16093 3.6 40 20:58 05.08.2019
4177 Clouds 28 1016 62 16093 3.6 40 20:40 05.08.2019
4178 Clouds 28 1016 62 16093 3.6 40 20:22 05.08.2019
4179 Clouds 26 1015 100 16093 4.1 70 19:57 05.08.2019
4180 Clouds 25 1016 69 16093 2.1 10 19:38 05.08.2019
4181 Clouds 25 1016 69 16093 2.1 10 19:19 05.08.2019
4182 Clouds 24 1015 69 16093 3.1 50 18:42 05.08.2019
4183 Clouds 25 1015 69 16093 3.1 50 18:21 05.08.2019
4184 Clouds 25 1015 69 16093 5.1 70 17:51 05.08.2019
4185 Clouds 25 1015 69 16093 5.1 70 17:31 05.08.2019
4186 Clouds 25 1014 100 16093 3.1 70 16:59 05.08.2019
4187 Clouds 25 1014 100 16093 3.6 70 16:41 05.08.2019
4188 Clouds 25 1014 100 16093 3.6 70 16:23 05.08.2019
4189 Clouds 26 1015 74 16093 4.1 70 15:43 05.08.2019
4190 Clouds 25 1015 74 16093 4.1 70 15:20 05.08.2019
4191 Clouds 25 1015 74 16093 1.5 40 14:42 05.08.2019
4192 Clouds 26 1015 74 16093 1.5 40 14:22 05.08.2019
4193 Clouds 26 1015 69 16093 4.6 60 13:49 05.08.2019
4194 Clouds 26 1015 69 16093 4.6 60 13:24 05.08.2019
4195 Clouds 27 1016 69 16093 5.7 60 12:56 05.08.2019
4196 Clouds 27 1016 69 16093 5.7 60 12:37 05.08.2019
4197 Clouds 27 1016 69 16093 5.7 60 12:18 05.08.2019
4198 Clouds 26 1016 69 16093 6.2 70 11:42 05.08.2019
4199 Clouds 26 1016 69 16093 6.2 70 11:24 05.08.2019
4200 Clouds 26 1015 86 16093 3.6 90 10:46 05.08.2019
4201 Clouds 27 1016 69 16093 4.1 90 10:28 05.08.2019
4202 Clouds 27 1016 74 16093 1.95 96.311 09:55 05.08.2019
4203 Clouds 27 1016 69 16093 5.1 70 09:37 05.08.2019
4204 Clouds 27 1016 69 16093 5.1 70 09:19 05.08.2019
4205 Clouds 27 1015 66 16093 5.1 80 08:43 05.08.2019
4206 Clouds 28 1015 66 16093 5.1 80 08:21 05.08.2019
4207 Clouds 27 1014 66 16093 4.1 80 07:47 05.08.2019
4208 Clouds 27 1014 66 16093 4.1 80 07:27 05.08.2019
4209 Clouds 28 1014 58 16093 5.7 30 06:51 05.08.2019
4210 Clouds 29 1014 100 16093 4.1 100 05:53 05.08.2019
4211 Clouds 29 1014 58 16093 5.1 30 05:22 05.08.2019
4212 Rain 28 1014 55 16093 4.6 30 04:32 05.08.2019
4213 Rain 29 1015 83 16093 2.6 330 03:47 05.08.2019
4214 Clouds 30 1015 88 16093 4.6 60 02:37 05.08.2019
4215 Clouds 30 1015 62 16093 5.1 160 01:40 05.08.2019
4216 Clouds 30 1015 62 16093 5.1 160 01:40 05.08.2019
4217 Clouds 30 1015 62 16093 5.1 160 01:40 05.08.2019
4218 Clouds 30 1016 62 16093 2.6 140 00:54 05.08.2019
4219 Clouds 30 1015 62 16093 6.2 150 00:36 05.08.2019
4220 Drizzle 30 1016 66 16093 4.1 170 00:18 05.08.2019
4221 Clouds 31 1016 58 16093 5.7 150 23:41 04.08.2019
4222 Clouds 30 1016 58 16093 5.7 150 23:20 04.08.2019
4223 Clouds 29 1016 66 16093 5.1 90 22:56 04.08.2019
4224 Clouds 30 1016 70 16093 4.1 160 22:37 04.08.2019
4225 Clouds 30 1016 70 16093 4.1 160 22:19 04.08.2019
4226 Clouds 29 1016 66 16093 3.1 80 21:44 04.08.2019
4227 Clouds 29 1016 62 16093 2.1 40 21:22 04.08.2019
4228 Clouds 28 1015 69 16093 3.1 70 20:55 04.08.2019
4229 Clouds 28 1015 69 16093 3.1 70 20:37 04.08.2019
4230 Clouds 28 1015 69 16093 3.1 70 20:37 04.08.2019
4231 Clouds 28 1015 69 16093 3.1 70 20:18 04.08.2019
4232 Clouds 26 1015 80 16093 2.6 110 19:42 04.08.2019
4233 Clouds 26 1015 80 16093 2.6 110 19:24 04.08.2019
4234 Clouds 25 1015 74 16093 3.1 50 18:42 04.08.2019
4235 Clouds 25 1015 74 16093 3.1 50 18:21 04.08.2019
4236 Clear 25 1014 74 16093 3.1 70 17:54 04.08.2019
4237 Clear 25 1014 74 16093 3.1 70 17:36 04.08.2019
4238 Clear 25 1014 74 16093 3.1 70 17:18 04.08.2019
4239 Clouds 25 1014 74 16093 2.1 80 16:41 04.08.2019
4240 Clouds 25 1014 74 16093 2.1 80 16:41 04.08.2019
4241 Clouds 25 1014 74 16093 2.1 80 16:22 04.08.2019
4242 Clouds 25 1014 93 16093 3.1 110 15:45 04.08.2019
4243 Clouds 26 1014 93 16093 3.1 110 15:23 04.08.2019
4244 Clouds 26 1015 69 16093 1.41 81.606 14:46 04.08.2019
4245 Clouds 26 1015 69 16093 1.41 81.606 14:27 04.08.2019
4246 Clouds 26 1016 65 16093 1.5 10 13:59 04.08.2019
4247 Clouds 26 1016 65 16093 1.5 10 13:41 04.08.2019
4248 Clouds 26 1016 65 16093 1.5 10 13:22 04.08.2019
4249 Clouds 27 1016 69 16093 2.1 10 12:44 04.08.2019
4250 Clouds 27 1016 69 16093 2.1 10 12:25 04.08.2019
4251 Clouds 26 1016 69 16093 3.1 80 11:56 04.08.2019
4252 Clouds 26 1016 69 16093 3.1 80 11:37 04.08.2019
4253 Clouds 26 1016 69 16093 3.1 80 11:19 04.08.2019
4254 Clouds 26 1016 69 16093 3.1 70 10:40 04.08.2019
4255 Clouds 26 1016 69 16093 3.1 70 10:20 04.08.2019
4256 Clouds 26 1016 69 16093 3.1 90 09:44 04.08.2019
4257 Clouds 26 1016 69 16093 3.1 90 09:22 04.08.2019
4258 Clouds 27 1015 100 16093 4.1 90 08:45 04.08.2019
4259 Clouds 27 1015 100 16093 4.1 90 08:26 04.08.2019
4260 Clouds 27 1015 66 16093 6.2 50 07:52 04.08.2019
4261 Clouds 28 1014 100 16093 4.6 90 06:56 04.08.2019
4262 Clouds 29 1014 55 16093 5.1 60 06:28 04.08.2019
4263 Clouds 30 1014 52 16093 5.7 140 03:46 04.08.2019
4264 Clouds 30 1014 55 16093 4.6 130 02:24 04.08.2019
4265 Clouds 30 1015 55 16093 6.2 130 01:34 04.08.2019
4266 Clouds 30 1015 55 16093 6.2 130 01:34 04.08.2019
4267 Clouds 30 1015 55 16093 6.2 130 01:34 04.08.2019
4268 Clouds 30 1015 52 16093 5.1 100 00:59 04.08.2019
4269 Clouds 29 1015 88 16093 5.7 90 00:40 04.08.2019
4270 Clouds 30 1016 58 16093 7.2 80 00:18 04.08.2019
4271 Clouds 30 1015 55 16093 5.7 70 23:39 03.08.2019
4272 Clouds 29 1015 55 16093 5.7 70 23:18 03.08.2019
4273 Clouds 30 1015 55 16093 6.7 60 22:44 03.08.2019
4274 Clouds 30 1015 55 16093 6.7 60 22:20 03.08.2019
4275 Clouds 29 1015 69 16093 4.1 70 21:41 03.08.2019
4276 Clouds 29 1015 69 16093 4.1 70 21:22 03.08.2019
4277 Clouds 28 1015 62 16093 5.1 60 20:57 03.08.2019
4278 Clouds 27 1015 62 16093 5.1 60 20:36 03.08.2019
4279 Clouds 27 1015 62 16093 5.1 60 20:18 03.08.2019
4280 Clouds 26 1014 65 16093 5.1 70 19:41 03.08.2019
4281 Clouds 26 1014 65 16093 5.1 70 19:22 03.08.2019
4282 Clouds 26 1014 65 16093 5.7 60 18:46 03.08.2019
4283 Clouds 26 1014 65 16093 5.7 60 18:26 03.08.2019
4284 Clouds 26 1014 100 16093 4.1 80 17:47 03.08.2019
4285 Clouds 26 1014 100 16093 4.1 80 17:20 03.08.2019
4286 Clouds 26 1014 100 16093 3.6 90 16:54 03.08.2019
4287 Clouds 26 1014 100 16093 3.6 70 16:36 03.08.2019
4288 Clouds 26 1014 100 16093 3.6 70 16:18 03.08.2019
4289 Clouds 26 1014 100 16093 4.1 80 15:42 03.08.2019
4290 Clouds 26 1014 100 16093 4.1 80 15:20 03.08.2019
4291 Clouds 26 1015 61 16093 6.2 70 14:38 03.08.2019
4292 Clouds 26 1015 61 16093 6.2 70 14:19 03.08.2019
4293 Clouds 26 1014 100 16093 4.1 60 13:47 03.08.2019
4294 Clouds 26 1014 100 16093 4.6 70 13:23 03.08.2019
4295 Clouds 26 1014 61 16093 6.2 80 12:56 03.08.2019
4296 Clouds 26 1014 61 16093 6.2 80 12:37 03.08.2019
4297 Clouds 26 1014 61 16093 6.2 80 12:19 03.08.2019
4298 Clouds 26 1015 65 16093 6.7 70 11:40 03.08.2019
4299 Clouds 26 1015 65 16093 6.7 70 11:22 03.08.2019
4300 Clouds 26 1015 61 16093 3.77 83.335 10:39 03.08.2019
4301 Clouds 26 1015 61 16093 3.77 83.335 10:20 03.08.2019
4302 Clouds 26 1014 65 16093 4.1 90 09:38 03.08.2019
4303 Clouds 26 1014 65 16093 4.1 90 09:38 03.08.2019
4304 Clouds 27 1014 65 16093 4.1 90 09:18 03.08.2019
4305 Clouds 27 1014 61 16093 7.7 80 08:43 03.08.2019
4306 Clouds 27 1013 58 16093 6.2 70 07:40 03.08.2019
4307 Clouds 28 1013 51 16093 6.7 60 06:57 03.08.2019
4308 Clouds 28 1013 51 16093 6.7 60 06:18 03.08.2019
4309 Clouds 29 1014 41 16093 7.7 100 03:35 03.08.2019
4310 Clouds 30 1014 41 16093 10.3 60 02:25 03.08.2019
4311 Clouds 30 1014 88 16093 4.1 80 00:59 03.08.2019
4312 Clouds 29 1014 88 16093 4.1 80 00:32 03.08.2019
4313 Clouds 29 1014 43 16093 10.8 60 23:42 02.08.2019
4314 Clouds 29 1014 43 16093 10.8 60 23:20 02.08.2019
4315 Clouds 30 1015 48 16093 8.7 70 22:59 02.08.2019
4316 Clouds 30 1015 48 16093 8.7 70 22:40 02.08.2019
4317 Clouds 30 1015 48 16093 8.7 70 22:21 02.08.2019
4318 Rain 29 1014 58 16093 7.7 60 21:56 02.08.2019
4319 Rain 29 1014 58 16093 7.7 60 21:37 02.08.2019
4320 Rain 28 1014 58 16093 7.7 60 21:18 02.08.2019
4321 Rain 28 1014 62 16093 7.2 50 20:42 02.08.2019
4322 Rain 28 1014 62 16093 7.2 50 20:22 02.08.2019
4323 Rain 27 1014 100 16093 6.7 80 19:50 02.08.2019
4324 Rain 27 1014 100 16093 6.7 80 19:50 02.08.2019
4325 Rain 26 1014 65 16093 7.7 60 19:30 02.08.2019
4326 Clouds 26 1014 100 16093 7.7 80 18:50 02.08.2019
4327 Clouds 26 1014 100 16093 7.7 80 18:50 02.08.2019
4328 Rain 26 1013 100 16093 5.1 70 18:32 02.08.2019
4329 Rain 26 1014 78 16093 4.1 90 17:56 02.08.2019
4330 Clouds 26 1013 100 16093 6.7 80 17:38 02.08.2019
4331 Clouds 26 1013 100 16093 6.7 80 17:19 02.08.2019
4332 Clouds 26 1013 78 16093 6.5 72.784 16:39 02.08.2019
4333 Clouds 26 1013 78 16093 6.5 72.784 16:20 02.08.2019
4334 Clouds 26 1013 100 16093 5.1 80 15:47 02.08.2019
4335 Clouds 26 1013 65 16093 7.7 60 15:21 02.08.2019
4336 Clouds 26 1013 100 16093 5.1 70 14:57 02.08.2019
4337 Clouds 26 1013 65 16093 6.7 60 14:39 02.08.2019
4338 Clouds 26 1013 65 16093 6.7 60 14:18 02.08.2019
4339 Clouds 26 1013 65 16093 6.7 60 14:18 02.08.2019
4340 Clouds 26 1013 100 16093 5.1 70 13:42 02.08.2019
4341 Clouds 26 1013 100 16093 5.1 70 13:19 02.08.2019
4342 Rain 26 1014 65 16093 6.7 60 12:41 02.08.2019
4343 Rain 26 1014 65 16093 6.7 60 12:19 02.08.2019
4344 Rain 26 1014 82 16093 5.7 60 11:40 02.08.2019
4345 Rain 26 1014 82 16093 5.7 60 11:22 02.08.2019
4346 Rain 26 1015 78 16093 6.37 72.68 10:44 02.08.2019
4347 Rain 26 1014 69 16093 8.2 70 10:24 02.08.2019
4348 Rain 27 1014 65 16093 5.1 50 09:53 02.08.2019
4349 Rain 26 1014 65 16093 5.1 50 09:30 02.08.2019
4350 Rain 26 1014 83 16093 2.6 60 08:56 02.08.2019
4351 Rain 26 1013 65 16093 5.7 50 08:26 02.08.2019
4352 Rain 26 1013 100 16093 6.2 60 07:59 02.08.2019
4353 Rain 27 1013 65 16093 5.1 50 07:39 02.08.2019
4354 Rain 27 1013 65 16093 5.1 50 07:21 02.08.2019
4355 Clouds 27 1013 62 16093 6.2 60 06:27 02.08.2019
4356 Clouds 28 1013 58 16093 6.2 30 05:41 02.08.2019
4357 Clouds 29 1014 55 16093 7.2 80 03:32 02.08.2019
4358 Mist 29 1014 100 4828 6.7 60 02:37 02.08.2019
4359 Clouds 30 1015 55 16093 9.3 80 01:30 02.08.2019
4360 Clouds 30 1015 49 16093 8.2 40 00:22 02.08.2019
4361 Clouds 29 1016 46 16093 7.7 60 23:44 01.08.2019
4362 Clouds 29 1016 46 16093 7.7 60 23:23 01.08.2019
4363 Clouds 29 1015 48 16093 8.2 70 22:42 01.08.2019
4364 Clouds 29 1015 48 16093 8.2 70 22:42 01.08.2019
4365 Clouds 29 1015 48 16093 8.2 70 22:22 01.08.2019
4366 Clouds 28 1016 61 16093 2.6 350 21:55 01.08.2019
4367 Clouds 28 1016 58 16093 8.7 80 21:37 01.08.2019
4368 Clouds 28 1016 58 16093 8.7 80 21:18 01.08.2019
4369 Clouds 28 1016 65 16093 3.6 50 20:43 01.08.2019
4370 Clouds 27 1015 58 16093 5.1 60 20:22 01.08.2019
4371 Clouds 26 1016 73 16093 3.1 360 19:45 01.08.2019
4372 Clouds 26 1016 73 16093 3.1 360 19:23 01.08.2019
4373 Clouds 26 1016 73 16093 3.1 360 19:23 01.08.2019
4374 Clouds 25 1014 61 16093 6.7 50 18:55 01.08.2019
4375 Clouds 25 1014 61 16093 6.7 50 18:36 01.08.2019
4376 Clouds 25 1014 61 16093 6.7 50 18:18 01.08.2019
4377 Clouds 25 1015 78 16093 2.1 310 17:44 01.08.2019
4378 Clouds 25 1015 78 16093 2.1 310 17:26 01.08.2019
4379 Clouds 25 1015 73 16093 2.1 300 16:44 01.08.2019
4380 Clouds 25 1014 61 16093 4.6 50 16:22 01.08.2019
4381 Clouds 25 1014 61 16093 6.7 50 15:45 01.08.2019
4382 Clouds 25 1014 61 16093 6.7 50 15:20 01.08.2019
4383 Clouds 25 1015 65 16093 6.7 60 14:44 01.08.2019
4384 Clouds 26 1015 65 16093 6.7 60 14:22 01.08.2019
4385 Clouds 26 1015 94 16093 5.1 80 13:59 01.08.2019
4386 Clouds 26 1015 94 16093 5.1 80 13:41 01.08.2019
4387 Clouds 26 1015 94 16093 5.1 80 13:21 01.08.2019
4388 Clouds 26 1015 94 16093 6.2 70 12:52 01.08.2019
4389 Clouds 26 1016 61 16093 2.6 0 12:33 01.08.2019
4390 Rain 26 1016 94 16093 5.1 70 11:58 01.08.2019
4391 Rain 26 1016 94 16093 5.1 70 11:40 01.08.2019
4392 Rain 26 1016 94 16093 5.1 70 11:22 01.08.2019
4393 Clouds 26 1016 58 16093 5.1 60 10:43 01.08.2019
4394 Clouds 26 1016 58 16093 5.1 60 10:25 01.08.2019
4395 Clouds 26 1015 94 16093 5.7 80 09:53 01.08.2019
4396 Clouds 26 1015 94 16093 5.7 80 09:24 01.08.2019
4397 Clouds 26 1015 94 16093 5.7 90 08:58 01.08.2019
4398 Clouds 26 1016 73 16093 2.1 90 08:39 01.08.2019
4399 Clouds 26 1016 73 16093 2.1 90 08:18 01.08.2019
4400 Clouds 27 1014 58 16093 6.2 60 07:45 01.08.2019
4401 Clouds 27 1014 58 16093 6.2 60 07:20 01.08.2019
4402 Clouds 27 1015 74 16093 2.1 90 06:39 01.08.2019
4403 Clouds 28 1014 55 16093 9.3 70 05:32 01.08.2019
4404 Drizzle 29 1016 69 16093 5.7 90 02:36 01.08.2019
4405 Drizzle 30 1016 74 14484 4.6 80 01:41 01.08.2019
4406 Drizzle 29 1017 78 14484 5.7 100 00:27 01.08.2019
4407 Rain 29 1017 83 4828 3.6 90 23:59 31.07.2019
4408 Drizzle 29 1017 69 16093 4.6 100 23:41 31.07.2019
4409 Drizzle 29 1017 69 16093 4.6 100 23:20 31.07.2019
4410 Clouds 29 1016 55 16093 5.1 40 22:45 31.07.2019
4411 Clouds 28 1016 55 16093 5.1 40 22:25 31.07.2019
4412 Clouds 27 1016 94 16093 5.7 80 21:42 31.07.2019
4413 Clouds 27 1016 94 16093 5.7 80 21:23 31.07.2019
4414 Clouds 27 1016 61 16093 4.1 40 20:51 31.07.2019
4415 Rain 25 1015 69 16093 4.1 60 20:25 31.07.2019
4416 Rain 25 1015 69 16093 4.1 60 19:56 31.07.2019
4417 Rain 25 1015 69 16093 4.1 60 19:37 31.07.2019
4418 Rain 25 1015 69 16093 4.1 60 19:19 31.07.2019
4419 Drizzle 24 1015 74 16093 2.6 50 18:39 31.07.2019
4420 Drizzle 24 1015 74 16093 2.6 50 18:18 31.07.2019
4421 Drizzle 25 1015 94 16093 1.5 310 17:45 31.07.2019
4422 Clouds 25 1015 69 16093 4.6 40 17:20 31.07.2019
4423 Clouds 25 1015 88 16093 1.5 360 16:54 31.07.2019
4424 Rain 25 1014 69 16093 6.7 50 16:27 31.07.2019
4425 Rain 25 1015 88 16093 3.94 65.326 15:58 31.07.2019
4426 Drizzle 25 1015 88 16093 1.5 30 15:38 31.07.2019
4427 Drizzle 25 1015 88 16093 1.5 30 15:20 31.07.2019
4428 Clouds 25 1015 65 16093 5.7 50 14:42 31.07.2019
4429 Clouds 25 1015 65 16093 5.7 50 14:19 31.07.2019
4430 Clouds 25 1016 65 16093 2.1 50 13:55 31.07.2019
4431 Clouds 25 1016 65 16093 2.1 50 13:37 31.07.2019
4432 Clouds 25 1016 65 16093 2.1 50 13:18 31.07.2019
4433 Clouds 25 1016 65 16093 2.1 50 13:18 31.07.2019
4434 Clouds 25 1016 65 16093 5.7 70 12:40 31.07.2019
4435 Clouds 25 1016 65 16093 5.7 70 12:21 31.07.2019
4436 Clouds 25 1016 69 16093 4.1 70 11:39 31.07.2019
4437 Clouds 25 1016 69 16093 4.1 70 11:20 31.07.2019
4438 Clouds 26 1016 69 16093 3.1 80 10:46 31.07.2019
4439 Clouds 26 1016 69 16093 3.1 80 10:21 31.07.2019
4440 Clouds 26 1016 94 16093 4.1 80 09:59 31.07.2019
4441 Drizzle 25 1016 69 16093 4.1 50 09:41 31.07.2019
4442 Drizzle 25 1016 69 16093 4.1 50 09:23 31.07.2019
4443 Rain 26 1017 83 16093 2.1 340 08:42 31.07.2019
4444 Rain 26 1016 61 16093 4.1 40 08:22 31.07.2019
4445 Clouds 26 1015 61 16093 5.7 70 07:40 31.07.2019
4446 Clouds 26 1015 61 16093 5.7 70 07:22 31.07.2019
4447 Rain 29 1015 46 16093 9.8 60 04:56 31.07.2019
4448 Rain 29 1015 49 16093 7.2 40 03:33 31.07.2019
4449 Clouds 29 1017 46 16093 7.2 60 00:30 31.07.2019
4450 Clouds 28 1017 66 16093 8.7 70 23:42 30.07.2019
4451 Rain 28 1017 66 16093 8.7 70 23:20 30.07.2019
4452 Rain 28 1017 48 16093 7.7 80 22:46 30.07.2019
4453 Clouds 28 1017 48 16093 7.7 80 22:25 30.07.2019
4454 Clouds 28 1017 54 16093 8.2 70 21:57 30.07.2019
4455 Clouds 28 1017 54 16093 8.2 70 21:37 30.07.2019
4456 Clouds 28 1017 54 16093 8.2 70 21:18 30.07.2019
4457 Clouds 27 1016 94 16093 4.1 80 20:43 30.07.2019
4458 Clouds 27 1016 94 16093 4.1 80 20:24 30.07.2019
4459 Clouds 25 1016 94 16093 4.1 90 19:59 30.07.2019
4460 Clouds 25 1016 65 16093 6.2 60 19:39 30.07.2019
4461 Clouds 25 1016 61 16093 4.6 60 18:58 30.07.2019
4462 Clouds 25 1016 61 16093 4.6 60 18:39 30.07.2019
4463 Clouds 25 1016 61 16093 4.6 60 18:19 30.07.2019
4464 Clouds 25 1015 61 16093 5.7 50 17:42 30.07.2019
4465 Clouds 25 1015 61 16093 5.7 50 17:19 30.07.2019
4466 Clear 25 1015 61 16093 5.7 50 16:52 30.07.2019
4467 Clear 25 1015 61 16093 5.7 50 16:21 30.07.2019
4468 Clouds 25 1016 61 16093 5.1 60 15:58 30.07.2019
4469 Clouds 25 1016 61 16093 5.1 60 15:38 30.07.2019
4470 Clouds 25 1016 61 16093 5.1 60 15:19 30.07.2019
4471 Clouds 25 1015 88 16093 5.1 70 14:42 30.07.2019
4472 Clouds 25 1015 88 16093 5.1 70 14:21 30.07.2019
4473 Clouds 25 1015 88 16093 5.1 70 14:21 30.07.2019
4474 Clouds 25 1017 65 16093 3.6 70 13:47 30.07.2019
4475 Clouds 25 1017 65 16093 3.6 70 13:29 30.07.2019
4476 Clouds 25 1016 88 16093 6.2 80 12:59 30.07.2019
4477 Clouds 25 1016 88 16093 6.2 80 12:59 30.07.2019
4478 Clouds 25 1017 65 16093 4.1 60 12:40 30.07.2019
4479 Clouds 25 1017 65 16093 4.1 60 12:22 30.07.2019
4480 Clouds 26 1017 65 16093 4.6 60 11:40 30.07.2019
4481 Clouds 26 1017 65 16093 4.6 60 11:20 30.07.2019
4482 Clouds 26 1017 61 16093 4.6 60 10:46 30.07.2019
4483 Clouds 26 1017 61 16093 4.6 60 10:27 30.07.2019
4484 Clouds 26 1017 65 16093 5.1 60 09:50 30.07.2019
4485 Clouds 26 1017 65 16093 5.1 60 09:31 30.07.2019
4486 Clouds 26 1017 94 16093 5.7 90 08:53 30.07.2019
4487 Clouds 26 1016 65 16093 5.7 60 08:31 30.07.2019
4488 Clouds 27 1016 100 16093 5.1 80 07:47 30.07.2019
4489 Rain 27 1016 62 16093 6.7 60 07:29 30.07.2019
4490 Clouds 27 1015 94 16093 3.1 80 06:48 30.07.2019
4491 Clouds 28 1015 62 16093 7.2 70 06:21 30.07.2019
4492 Clouds 28 1015 94 16093 5.1 70 05:33 30.07.2019
4493 Clouds 29 1016 48 16093 6.2 60 02:31 30.07.2019
4494 Clouds 29 1017 46 16093 5.1 50 01:19 30.07.2019
4495 Clouds 29 1017 46 16093 6.2 70 00:21 30.07.2019
4496 Clouds 29 1018 46 16093 5.7 60 23:45 29.07.2019
4497 Clouds 29 1018 46 16093 5.7 60 23:26 29.07.2019
4498 Clouds 28 1018 45 16093 6.7 60 22:57 29.07.2019
4499 Clouds 28 1018 45 16093 6.7 60 22:38 29.07.2019
4500 Clouds 28 1018 45 16093 6.7 60 22:20 29.07.2019
4501 Drizzle 28 1018 69 16093 5.7 70 21:56 29.07.2019
4502 Drizzle 28 1018 54 16093 3.1 60 21:37 29.07.2019
4503 Clouds 27 1018 73 16093 3.07 75.556 21:18 29.07.2019
4504 Clouds 27 1018 73 16093 3.07 75.556 20:48 29.07.2019
4505 Clouds 26 1018 58 16093 2.6 60 20:24 29.07.2019
4506 Clouds 25 1017 65 16093 2.1 20 19:56 29.07.2019
4507 Clouds 25 1017 65 16093 2.1 20 19:37 29.07.2019
4508 Clouds 25 1017 65 16093 2.1 20 19:19 29.07.2019
4509 Clouds 24 1017 65 16093 3.1 20 18:42 29.07.2019
4510 Clouds 24 1017 65 16093 3.1 20 18:22 29.07.2019
4511 Clouds 24 1017 65 16093 3.1 0 17:51 29.07.2019
4512 Clouds 24 1017 65 16093 3.1 0 17:33 29.07.2019
4513 Clouds 24 1017 69 16093 2.1 40 16:58 29.07.2019
4514 Clouds 24 1017 69 16093 2.1 40 16:58 29.07.2019
4515 Clouds 24 1017 69 16093 2.1 40 16:39 29.07.2019
4516 Clouds 24 1017 69 16093 2.1 40 16:21 29.07.2019
4517 Clouds 24 1017 69 16093 2.6 20 15:50 29.07.2019
4518 Clouds 24 1017 69 16093 2.6 20 15:31 29.07.2019
4519 Clouds 24 1017 65 16093 4.6 80 14:46 29.07.2019
4520 Clouds 25 1017 65 16093 4.6 80 14:22 29.07.2019
4521 Clouds 25 1017 94 16093 4.6 70 13:59 29.07.2019
4522 Clouds 25 1017 94 16093 3.1 90 13:41 29.07.2019
4523 Clouds 25 1017 94 16093 3.1 90 13:22 29.07.2019
4524 Clouds 25 1017 100 16093 3.1 80 12:42 29.07.2019
4525 Clouds 25 1017 100 16093 3.1 80 12:22 29.07.2019
4526 Clouds 25 1018 65 16093 4.6 70 11:43 29.07.2019
4527 Clouds 25 1018 65 16093 4.6 70 11:21 29.07.2019
4528 Clouds 25 1018 61 16093 3.6 60 10:45 29.07.2019
4529 Clouds 25 1018 61 16093 3.6 60 10:24 29.07.2019
4530 Clouds 25 1018 61 16093 5.1 50 09:45 29.07.2019
4531 Clouds 25 1018 61 16093 5.1 50 09:25 29.07.2019
4532 Clouds 25 1017 94 16093 4.1 80 08:56 29.07.2019
4533 Clouds 25 1017 94 16093 4.1 80 08:27 29.07.2019
4534 Clouds 26 1016 94 16093 5.7 70 07:55 29.07.2019
4535 Clouds 26 1016 94 16093 5.7 70 07:32 29.07.2019
4536 Rain 27 1016 48 16093 7.2 70 06:43 29.07.2019
4537 Clouds 28 1016 45 16093 7.2 40 05:38 29.07.2019
4538 Clouds 28 1016 43 16093 8.7 60 04:24 29.07.2019
4539 Rain 30 1017 52 16093 8.2 90 01:54 29.07.2019
4540 Rain 29 1017 52 16093 8.2 90 01:35 29.07.2019
4541 Rain 29 1017 46 16093 7.7 60 00:59 29.07.2019
4542 Rain 29 1017 46 16093 7.7 60 00:30 29.07.2019
4543 Rain 29 1018 83 16093 5.1 70 23:45 28.07.2019
4544 Rain 29 1018 83 16093 5.1 70 23:26 28.07.2019
4545 Rain 27 1018 88 16093 6.7 70 22:46 28.07.2019
4546 Rain 28 1018 51 16093 7.2 70 22:28 28.07.2019
4547 Rain 28 1018 54 16093 7.2 70 21:56 28.07.2019
4548 Rain 28 1018 54 16093 7.2 70 21:56 28.07.2019
4549 Rain 28 1018 54 16093 7.2 70 21:37 28.07.2019
4550 Rain 27 1018 54 16093 7.2 70 21:18 28.07.2019
4551 Rain 26 1018 58 16093 7.7 60 20:42 28.07.2019
4552 Rain 26 1018 58 16093 7.7 60 20:24 28.07.2019
4553 Clouds 25 1017 61 16093 5.1 70 19:41 28.07.2019
4554 Clouds 25 1017 61 16093 5.1 70 19:21 28.07.2019
4555 Clouds 24 1017 65 16093 5.7 70 18:46 28.07.2019
4556 Clouds 24 1017 65 16093 5.7 70 18:27 28.07.2019
4557 Clouds 24 1017 65 16093 3.1 40 17:56 28.07.2019
4558 Clouds 24 1017 65 16093 3.1 40 17:38 28.07.2019
4559 Clouds 24 1017 65 16093 3.1 40 17:19 28.07.2019
4560 Rain 24 1017 61 16093 4.6 60 16:42 28.07.2019
4561 Rain 24 1017 61 16093 4.6 60 16:24 28.07.2019
4562 Clouds 24 1017 65 16093 3.1 50 15:48 28.07.2019
4563 Clouds 24 1017 65 16093 3.1 50 15:27 28.07.2019
4564 Rain 25 1017 61 16093 4.1 50 14:41 28.07.2019
4565 Rain 25 1017 61 16093 4.1 50 14:21 28.07.2019
4566 Clouds 25 1017 61 16093 6.7 60 14:00 28.07.2019
4567 Clouds 25 1017 61 16093 6.7 60 13:39 28.07.2019
4568 Clouds 25 1017 61 16093 6.7 60 13:19 28.07.2019
4569 Clouds 25 1019 78 16093 1.5 290 12:43 28.07.2019
4570 Clouds 25 1019 78 16093 1.5 290 12:25 28.07.2019
4571 Clouds 25 1019 78 16093 3.51 73.08 11:50 28.07.2019
4572 Clouds 25 1019 83 16093 3.51 73.08 11:29 28.07.2019
4573 Clouds 25 1019 78 16093 3.51 73.08 10:58 28.07.2019
4574 Clouds 26 1018 58 16093 6.2 70 10:38 28.07.2019
4575 Clouds 26 1018 58 16093 6.2 70 10:18 28.07.2019
4576 Clouds 26 1018 58 16093 5.7 70 09:40 28.07.2019
4577 Clouds 26 1018 58 16093 5.7 70 09:21 28.07.2019
4578 Clouds 26 1017 88 16093 5.1 70 08:42 28.07.2019
4579 Clouds 26 1017 88 16093 5.1 70 08:21 28.07.2019
4580 Clouds 26 1017 54 16093 5.1 60 07:40 28.07.2019
4581 Clouds 27 1017 54 16093 5.1 60 07:22 28.07.2019
4582 Clouds 27 1016 51 16093 6.2 60 06:33 28.07.2019
4583 Clouds 28 1016 48 16093 7.2 60 05:19 28.07.2019
4584 Rain 29 1016 49 16093 9.3 60 02:37 28.07.2019
4585 Clouds 29 1017 46 16093 7.2 70 01:32 28.07.2019
4586 Rain 29 1017 88 16093 5.1 60 00:52 28.07.2019
4587 Rain 28 1017 61 16093 6.2 70 00:25 28.07.2019
4588 Rain 28 1017 48 16093 7.2 80 23:52 27.07.2019
4589 Rain 28 1017 48 16093 7.2 80 23:27 27.07.2019
4590 Rain 28 1017 54 16093 5.7 60 22:44 27.07.2019
4591 Rain 28 1017 54 16093 5.7 60 22:26 27.07.2019
4592 Rain 27 1017 54 16093 5.1 20 21:47 27.07.2019
4593 Rain 27 1017 54 16093 5.1 20 21:23 27.07.2019
4594 Rain 26 1017 58 16093 4.1 80 20:56 27.07.2019
4595 Rain 26 1017 58 16093 4.1 80 20:37 27.07.2019
4596 Rain 26 1017 58 16093 4.1 80 20:19 27.07.2019
4597 Clouds 25 1016 94 16093 4.1 70 19:39 27.07.2019
4598 Clouds 25 1016 94 16093 4.1 70 19:21 27.07.2019
4599 Clouds 24 1016 65 16093 3.1 50 18:47 27.07.2019
4600 Clouds 24 1016 65 16093 3.1 50 18:28 27.07.2019
4601 Clouds 24 1016 69 16093 4.1 60 17:50 27.07.2019
4602 Clouds 24 1016 69 16093 4.1 60 17:50 27.07.2019
4603 Clouds 24 1016 69 16093 4.1 60 17:32 27.07.2019
4604 Clouds 24 1016 65 16093 5.1 60 16:55 27.07.2019
4605 Clouds 24 1016 65 16093 5.1 60 16:37 27.07.2019
4606 Clouds 24 1016 65 16093 3.6 40 15:56 27.07.2019
4607 Clouds 24 1016 65 16093 3.6 40 15:36 27.07.2019
4608 Clouds 24 1016 65 16093 3.6 40 15:18 27.07.2019
4609 Clouds 24 1016 65 16093 3.1 60 14:41 27.07.2019
4610 Clouds 24 1016 65 16093 3.1 60 14:23 27.07.2019
4611 Clouds 24 1016 61 16093 4.6 30 13:46 27.07.2019
4612 Clouds 25 1016 61 16093 4.6 30 13:22 27.07.2019
4613 Clouds 25 1017 65 16093 4.6 60 12:50 27.07.2019
4614 Clouds 25 1017 65 16093 4.6 60 12:27 27.07.2019
4615 Clouds 25 1017 65 16093 2.1 40 11:54 27.07.2019
4616 Clouds 25 1017 65 16093 2.1 40 11:36 27.07.2019
4617 Clouds 25 1017 65 16093 2.1 40 11:18 27.07.2019
4618 Clouds 25 1017 58 16093 6.7 70 10:40 27.07.2019
4619 Clouds 25 1017 58 16093 6.7 70 10:20 27.07.2019
4620 Rain 25 1016 58 16093 5.1 50 09:40 27.07.2019
4621 Rain 26 1016 58 16093 5.1 50 09:22 27.07.2019
4622 Drizzle 26 1017 78 16093 2.1 10 08:47 27.07.2019
4623 Clouds 26 1016 61 16093 6.7 70 08:27 27.07.2019
4624 Rain 26 1016 83 16093 2.1 70 07:47 27.07.2019
4625 Rain 26 1015 58 16093 5.7 60 07:27 27.07.2019
4626 Drizzle 27 1015 94 16093 5.7 70 06:55 27.07.2019
4627 Clouds 27 1015 54 16093 8.2 70 06:29 27.07.2019
4628 Clouds 28 1014 88 16093 3.1 80 05:43 27.07.2019
4629 Clouds 29 1014 48 16093 7.7 70 04:59 27.07.2019
4630 Clouds 28 1014 48 16093 7.7 70 04:25 27.07.2019
4631 Rain 29 1014 88 16093 7.2 80 02:44 27.07.2019
4632 -273 0 0 0 0 0 02:26 27.07.2019
4633 Rain 29 1015 46 16093 7.2 80 01:43 27.07.2019
4634 Clouds 29 1015 83 16093 6.7 80 00:57 27.07.2019
4635 Clouds 29 1016 46 16093 8.2 70 00:32 27.07.2019
4636 Clouds 29 1016 88 16093 7.2 70 23:51 26.07.2019
4637 Clouds 28 1016 88 16093 7.2 70 23:29 26.07.2019
4638 Clouds 28 1016 55 16093 7.7 60 22:45 26.07.2019
4639 Clouds 27 1016 55 16093 7.7 60 22:26 26.07.2019
4640 Clouds 27 1016 88 16093 5.7 70 21:58 26.07.2019
4641 Clouds 27 1016 88 16093 5.7 70 21:58 26.07.2019
4642 Clouds 27 1016 88 16093 6.2 80 21:37 26.07.2019
4643 Clouds 27 1016 88 16093 6.2 80 21:18 26.07.2019
4644 Clouds 25 1016 94 16093 4.6 80 20:41 26.07.2019
4645 Clouds 25 1016 94 16093 4.6 80 20:21 26.07.2019
4646 Rain 25 1016 69 16093 3.6 50 19:42 26.07.2019
4647 Rain 25 1016 69 16093 3.6 50 19:23 26.07.2019
4648 Clouds 25 1015 69 16093 3.1 50 18:46 26.07.2019
4649 Rain 24 1015 69 16093 3.1 50 18:23 26.07.2019
4650 Clouds 24 1015 69 16093 2.6 30 17:58 26.07.2019
4651 Clouds 24 1015 69 16093 2.6 30 17:39 26.07.2019
4652 Clouds 24 1015 69 16093 2.6 30 17:18 26.07.2019
4653 Clouds 24 1015 88 16093 5.1 90 16:55 26.07.2019
4654 Clouds 24 1015 65 16093 4.6 60 16:37 26.07.2019
4655 Clouds 24 1015 65 16093 4.6 60 16:18 26.07.2019
4656 Clouds 24 1015 74 16093 2.1 50 15:45 26.07.2019
4657 Clouds 24 1015 74 16093 2.1 50 15:22 26.07.2019
4658 Rain 24 1016 94 16093 3.46 86.738 14:54 26.07.2019
4659 Rain 24 1016 94 16093 3.46 86.738 14:36 26.07.2019
4660 Rain 24 1016 94 16093 3.46 86.738 14:18 26.07.2019
4661 Clouds 24 1016 69 16093 6.7 40 13:37 26.07.2019
4662 Clouds 24 1016 69 16093 6.7 40 13:19 26.07.2019
4663 Clouds 24 1016 74 16093 4.6 60 12:42 26.07.2019
4664 Clouds 24 1016 74 16093 4.6 60 12:19 26.07.2019
4665 Clouds 25 1016 69 16093 4.6 70 11:39 26.07.2019
4666 Clouds 25 1016 69 16093 4.6 70 11:19 26.07.2019
4667 Drizzle 25 1017 94 16093 2.1 20 10:49 26.07.2019
4668 Clouds 25 1016 94 16093 5.1 80 10:31 26.07.2019
4669 Drizzle 25 1017 88 16093 2.58 83.797 09:54 26.07.2019
4670 Rain 25 1016 78 16093 4.1 90 09:34 26.07.2019
4671 Rain 25 1016 69 16093 5.1 60 08:43 26.07.2019
4672 Rain 25 1016 69 16093 5.1 60 08:22 26.07.2019
4673 Rain 25 1016 88 14484 4.1 50 07:57 26.07.2019
4674 Clouds 25 1015 69 16093 5.7 60 07:27 26.07.2019
4675 Rain 26 1015 58 16093 6.7 70 06:41 26.07.2019
4676 Rain 28 1015 48 16093 7.7 60 05:19 26.07.2019
4677 Clouds 28 1015 51 16093 6.7 70 04:21 26.07.2019
4678 Clouds 30 1016 40 16093 5.7 50 02:40 26.07.2019
4679 Clouds 30 1016 43 16093 8.7 80 01:35 26.07.2019
4680 Clouds 30 1017 48 16093 8.2 70 00:43 26.07.2019
4681 Clouds 29 1017 83 16093 5.7 70 23:56 25.07.2019
4682 Clouds 29 1017 48 16093 6.7 60 23:23 25.07.2019
4683 Clouds 30 1018 48 16093 6.2 60 22:55 25.07.2019
4684 Clouds 29 1017 88 16093 5.1 70 22:36 25.07.2019
4685 Clouds 30 1018 48 16093 6.2 60 22:18 25.07.2019
4686 Clouds 28 1018 58 16093 5.7 50 21:42 25.07.2019
4687 Clouds 27 1018 58 16093 5.7 50 21:21 25.07.2019
4688 Clouds 27 1017 88 16093 4.1 80 20:45 25.07.2019
4689 Clouds 26 1018 61 16093 4.6 30 20:22 25.07.2019
4690 Clouds 26 1018 61 16093 4.6 30 20:22 25.07.2019
4691 Clouds 25 1017 65 16093 4.1 80 19:42 25.07.2019
4692 Clouds 25 1017 65 16093 4.1 80 19:24 25.07.2019
4693 Clouds 24 1017 69 16093 3.6 70 18:46 25.07.2019
4694 Clouds 24 1017 69 16093 3.6 70 18:27 25.07.2019
4695 Clouds 24 1016 94 16093 3.1 80 17:57 25.07.2019
4696 Clouds 24 1016 65 16093 2.6 50 17:38 25.07.2019
4697 Clouds 24 1016 65 16093 2.6 50 17:38 25.07.2019
4698 Clouds 24 1016 65 16093 2.6 50 17:20 25.07.2019
4699 Clouds 24 1016 61 16093 2.6 60 16:42 25.07.2019
4700 Clouds 24 1016 61 16093 2.6 60 16:22 25.07.2019
4701 Clouds 25 1016 69 16093 3.6 60 15:51 25.07.2019
4702 Clouds 24 1016 69 16093 3.6 60 15:21 25.07.2019
4703 Clouds 25 1016 65 16093 3.6 80 14:44 25.07.2019
4704 Clouds 25 1016 65 16093 3.6 80 14:25 25.07.2019
4705 Rain 25 1017 61 16093 4.1 60 13:59 25.07.2019
4706 Rain 25 1017 61 16093 4.1 60 13:40 25.07.2019
4707 Rain 25 1017 61 16093 4.1 60 13:22 25.07.2019
4708 Rain 25 1017 61 16093 4.1 60 12:35 25.07.2019
4709 Clouds 25 1017 61 16093 4.6 60 11:59 25.07.2019
4710 Clouds 25 1017 61 16093 4.6 60 11:40 25.07.2019
4711 Clouds 25 1017 61 16093 4.6 60 11:40 25.07.2019
4712 Clouds 25 1017 61 16093 4.6 60 11:22 25.07.2019
4713 Clouds 25 1017 65 16093 5.1 50 10:45 25.07.2019
4714 Clouds 25 1017 65 16093 5.1 50 10:24 25.07.2019
4715 Clouds 26 1016 88 16093 5.1 80 09:46 25.07.2019
4716 Clouds 26 1017 61 16093 5.7 60 09:27 25.07.2019
4717 Clouds 26 1016 88 16093 3.6 90 08:49 25.07.2019
4718 Clouds 26 1016 58 16093 5.7 40 08:29 25.07.2019
4719 Clouds 26 1016 54 16093 5.1 50 07:39 25.07.2019
4720 Clouds 27 1016 51 16093 7.7 50 06:45 25.07.2019
4721 Clouds 28 1016 51 16093 7.7 50 06:19 25.07.2019
4722 Clouds 28 1015 48 16093 7.7 60 05:32 25.07.2019
4723 Clouds 28 1015 88 16093 4.1 80 04:44 25.07.2019
4724 Clouds 30 1016 43 16093 8.7 50 02:24 25.07.2019
4725 Clouds 30 1016 43 16093 7.7 50 01:21 25.07.2019
4726 Clouds 30 1017 43 16093 6.7 50 00:23 25.07.2019
4727 Clouds 30 1017 43 16093 5.7 100 23:53 24.07.2019
4728 Clouds 30 1017 43 16093 5.7 100 23:32 24.07.2019
4729 Clouds 30 1017 43 16093 5.7 100 23:32 24.07.2019
4730 Clouds 29 1018 61 16093 5.7 120 22:58 24.07.2019
4731 Clouds 29 1017 48 16093 5.7 70 22:40 24.07.2019
4732 Clouds 29 1017 48 16093 5.7 70 22:21 24.07.2019
4733 Clouds 28 1017 58 16093 6.2 50 21:44 24.07.2019
4734 Clouds 28 1017 58 16093 6.2 50 21:23 24.07.2019
4735 Clouds 27 1017 88 16093 4.1 100 20:59 24.07.2019
4736 Clouds 27 1017 61 16093 5.1 50 20:39 24.07.2019
4737 Clouds 27 1017 61 16093 5.1 50 20:20 24.07.2019
4738 Clouds 25 1017 69 16093 4.1 50 19:55 24.07.2019
4739 Clouds 25 1017 69 16093 4.1 50 19:36 24.07.2019
4740 Clouds 25 1017 69 16093 4.1 50 19:18 24.07.2019
4741 Clouds 24 1016 74 16093 4.65 90.284 18:41 24.07.2019
4742 Clouds 24 1016 74 16093 2.31 79.788 18:23 24.07.2019
4743 Clouds 24 1016 74 16093 2.31 79.788 17:43 24.07.2019
4744 Clouds 24 1016 74 16093 2.31 79.788 17:20 24.07.2019
4745 Clouds 25 1016 69 16093 3.6 60 16:42 24.07.2019
4746 Clouds 25 1016 69 16093 3.6 60 16:22 24.07.2019
4747 Clouds 25 1016 69 16093 2.6 40 15:42 24.07.2019
4748 Clouds 25 1016 69 16093 2.6 40 15:24 24.07.2019
4749 Clouds 25 1016 69 16093 3.1 60 14:57 24.07.2019
4750 Clouds 25 1016 69 16093 3.1 60 14:38 24.07.2019
4751 Clouds 25 1016 69 16093 3.1 60 14:38 24.07.2019
4752 Clouds 25 1016 69 16093 3.1 60 14:38 24.07.2019
4753 Clouds 25 1016 69 16093 3.1 60 14:38 24.07.2019
4754 Clouds 25 1016 69 16093 3.1 60 14:19 24.07.2019
4755 Clouds 25 1017 69 16093 2.1 40 13:37 24.07.2019
4756 Clouds 25 1017 69 16093 2.1 40 13:19 24.07.2019
4757 Clouds 25 1016 94 16093 6.2 90 12:51 24.07.2019
4758 Clouds 25 1017 69 16093 2.6 70 12:32 24.07.2019
4759 Clouds 25 1017 69 16093 5.1 50 11:40 24.07.2019
4760 Clouds 25 1017 69 16093 5.1 50 11:20 24.07.2019
4761 Clouds 25 1017 69 16093 4.6 60 10:45 24.07.2019
4762 Clouds 25 1017 69 16093 4.6 60 10:25 24.07.2019
4763 Clouds 25 1017 65 16093 3.6 50 09:49 24.07.2019
4764 Clouds 25 1017 65 16093 3.6 50 09:25 24.07.2019
4765 Clouds 25 1017 65 16093 3.6 50 09:25 24.07.2019
4766 Clouds 26 1016 65 16093 4.6 70 08:58 24.07.2019
4767 Clouds 26 1016 65 16093 4.6 70 08:30 24.07.2019
4768 Clouds 27 1016 61 16093 6.2 60 07:52 24.07.2019
4769 Clouds 27 1016 61 16093 6.2 60 07:24 24.07.2019
4770 Clouds 28 1015 83 16093 4.1 90 06:31 24.07.2019
4771 Clouds 28 1015 48 16093 6.7 80 05:54 24.07.2019
4772 Clouds 29 1015 43 16093 6.2 100 02:45 24.07.2019
4773 Clouds 30 1016 49 16093 8.7 60 01:30 24.07.2019
4774 Clouds 29 1016 48 16093 8.7 60 00:57 24.07.2019
4775 Clouds 29 1016 48 16093 8.7 60 00:57 24.07.2019
4776 Clouds 29 1016 48 16093 8.7 60 00:22 24.07.2019
4777 Clouds 29 1016 45 16093 8.7 60 23:42 23.07.2019
4778 Clouds 29 1016 45 16093 8.7 60 23:23 23.07.2019
4779 Clouds 29 1017 48 16093 6.2 90 22:40 23.07.2019
4780 Clouds 29 1017 48 16093 6.2 90 22:20 23.07.2019
4781 Clouds 27 1017 58 16093 5.7 80 21:58 23.07.2019
4782 Clouds 27 1017 58 16093 5.7 80 21:40 23.07.2019
4783 Clouds 27 1017 58 16093 5.7 80 21:21 23.07.2019
4784 Clouds 26 1016 83 16093 5.1 100 20:47 23.07.2019
4785 Clouds 26 1017 58 16093 6.7 80 20:21 23.07.2019
4786 Clouds 25 1016 65 16093 4.6 60 19:42 23.07.2019
4787 Clouds 25 1016 65 16093 4.6 60 19:19 23.07.2019
4788 Clouds 25 1017 78 16093 4.17 88.736 18:52 23.07.2019
4789 Clouds 25 1016 88 16093 4.6 110 18:24 23.07.2019
4790 Clouds 25 1015 69 16093 4.1 70 17:45 23.07.2019
4791 Clouds 25 1015 69 16093 4.1 70 17:26 23.07.2019
4792 Clouds 25 1015 94 16093 4.1 80 16:58 23.07.2019
4793 Clouds 25 1015 88 16093 4.6 80 16:39 23.07.2019
4794 Clouds 25 1015 88 16093 4.6 80 16:19 23.07.2019
4795 Rain 25 1015 69 16093 3.6 60 15:45 23.07.2019
4796 Rain 25 1015 69 16093 3.6 60 15:45 23.07.2019
4797 Rain 25 1015 69 16093 3.6 60 15:24 23.07.2019
4798 Clouds 25 1016 69 16093 1.5 40 14:39 23.07.2019
4799 Clouds 25 1016 69 16093 1.5 40 14:20 23.07.2019
4800 Clouds 25 1015 100 16093 4.1 90 13:58 23.07.2019
4801 Clouds 25 1015 100 16093 4.1 90 13:39 23.07.2019
4802 Clouds 25 1015 100 16093 4.1 90 13:20 23.07.2019
4803 Clear 25 1016 65 16093 5.1 80 12:47 23.07.2019
4804 Clear 25 1016 65 16093 5.1 80 12:25 23.07.2019
4805 Clouds 25 1016 65 16093 4.6 80 11:47 23.07.2019
4806 Clouds 25 1016 65 16093 4.6 80 11:29 23.07.2019
4807 Clouds 25 1017 65 16093 5.7 80 10:57 23.07.2019
4808 Clouds 25 1017 65 16093 5.7 80 10:38 23.07.2019
4809 Clouds 25 1017 65 16093 5.7 80 10:19 23.07.2019
4810 Clouds 25 1017 69 16093 5.7 70 09:40 23.07.2019
4811 Clouds 25 1017 69 16093 5.7 70 09:18 23.07.2019
4812 Clouds 26 1017 65 16093 4.1 70 08:40 23.07.2019
4813 Clouds 26 1017 65 16093 4.1 70 08:19 23.07.2019
4814 Clouds 26 1016 61 16093 3.6 50 07:53 23.07.2019
4815 Clouds 26 1016 61 16093 3.6 50 07:33 23.07.2019
4816 Clouds 26 1015 65 16093 4.1 40 06:38 23.07.2019
4817 Clouds 27 1015 62 16093 5.1 20 05:51 23.07.2019
4818 Clouds 27 1016 54 16093 5.1 60 01:58 23.07.2019
4819 Clouds 27 1016 54 16093 5.1 60 01:27 23.07.2019
4820 Clouds 28 1016 51 16093 7.2 80 00:30 23.07.2019
4821 Clouds 28 1016 51 16093 7.7 60 23:41 22.07.2019
4822 Clouds 28 1017 58 16093 6.2 80 23:21 22.07.2019
4823 Clouds 28 1017 58 16093 6.2 80 22:58 22.07.2019
4824 Clouds 28 1016 52 16093 7.7 70 22:40 22.07.2019
4825 Clouds 27 1016 52 16093 7.7 70 22:20 22.07.2019
4826 Clouds 27 1016 52 16093 7.7 70 22:20 22.07.2019
4827 Clouds 27 1016 83 16093 4.1 80 21:42 22.07.2019
4828 Clouds 27 1016 83 16093 4.1 80 21:21 22.07.2019
4829 Clouds 26 1015 58 16093 6.2 50 20:48 22.07.2019
4830 Clouds 26 1015 58 16093 6.2 50 20:29 22.07.2019
4831 Clouds 26 1015 58 16093 6.2 50 20:29 22.07.2019
4832 Clouds 25 1014 65 16093 5.7 70 19:44 22.07.2019
4833 Clouds 25 1014 65 16093 5.7 70 19:26 22.07.2019
4834 Clouds 25 1015 94 16093 5.7 80 18:58 22.07.2019
4835 Clouds 25 1014 69 16093 6.7 60 18:39 22.07.2019
4836 Clouds 25 1014 69 16093 6.7 60 18:21 22.07.2019
4837 Clouds 25 1014 69 16093 5.7 60 17:41 22.07.2019
4838 Clouds 25 1014 69 16093 5.7 60 17:23 22.07.2019
4839 Clouds 25 1014 69 16093 5.1 80 16:41 22.07.2019
4840 Clouds 25 1014 69 16093 5.1 80 16:21 22.07.2019
4841 Clouds 24 1014 69 16093 5.7 70 15:58 22.07.2019
4842 Clouds 25 1014 69 16093 5.7 70 15:36 22.07.2019
4843 Clouds 25 1014 69 16093 5.7 70 15:18 22.07.2019
4844 Clouds 25 1015 88 16093 1.5 180 14:42 22.07.2019
4845 Clouds 25 1015 88 16093 1.5 180 14:19 22.07.2019
4846 Clouds 25 1014 94 16093 3.6 80 13:45 22.07.2019
4847 Clouds 25 1014 94 16093 3.6 80 13:22 22.07.2019
4848 Clouds 25 1015 94 16093 3.6 90 12:44 22.07.2019
4849 Clouds 25 1015 94 16093 3.6 90 12:23 22.07.2019
4850 Clouds 25 1015 69 16093 7.7 70 11:44 22.07.2019
4851 Clouds 25 1015 69 16093 7.7 70 11:20 22.07.2019
4852 Clouds 25 1015 69 16093 6.7 50 10:43 22.07.2019
4853 Clouds 25 1015 69 16093 6.7 50 10:25 22.07.2019
4854 Clouds 26 1015 65 16093 6.7 60 09:43 22.07.2019
4855 Clouds 26 1015 65 16093 6.7 60 09:24 22.07.2019
4856 Clouds 26 1014 65 16093 6.7 60 08:44 22.07.2019
4857 Clouds 26 1014 65 16093 6.7 60 08:25 22.07.2019
4858 Rain 26 1014 65 16093 6.7 60 07:55 22.07.2019
4859 Rain 26 1014 65 16093 6.7 60 07:32 22.07.2019
4860 Rain 27 1013 58 16093 7.2 60 06:44 22.07.2019
4861 Rain 29 1014 54 16093 5.7 110 03:55 22.07.2019
4862 Rain 29 1014 83 16093 6.7 80 01:53 22.07.2019
4863 Rain 29 1014 78 16093 6.2 70 00:54 22.07.2019
4864 Rain 29 1014 48 16093 9.3 50 00:24 22.07.2019
4865 Rain 29 1014 83 16093 6.7 80 23:54 21.07.2019
4866 Rain 29 1015 48 16093 9.3 60 23:27 21.07.2019
4867 Rain 28 1015 51 16093 7.7 60 22:41 21.07.2019
4868 Rain 28 1015 51 16093 7.7 60 22:22 21.07.2019
4869 Rain 27 1015 65 16093 5.1 70 21:56 21.07.2019
4870 Rain 27 1015 54 16093 8.7 80 21:37 21.07.2019
4871 Rain 27 1015 54 16093 8.7 80 21:18 21.07.2019
4872 Rain 27 1015 54 16093 8.7 80 21:18 21.07.2019
4873 Rain 26 1015 61 16093 6.7 70 20:43 21.07.2019
4874 Rain 26 1015 61 16093 6.7 70 20:23 21.07.2019
4875 Clouds 26 1015 69 16093 2.6 80 19:53 21.07.2019
4876 Clear 25 1014 61 16093 6.2 70 19:32 21.07.2019
4877 Clouds 25 1014 78 16093 4.46 74.272 18:59 21.07.2019
4878 Clouds 25 1014 88 16093 4.1 70 18:41 21.07.2019
4879 Clouds 25 1014 88 16093 4.1 70 18:22 21.07.2019
4880 Mist 25 1014 69 16093 5.1 80 17:41 21.07.2019
4881 Mist 25 1014 69 16093 5.1 80 17:19 21.07.2019
4882 Clouds 25 1014 65 16093 4.1 60 16:43 21.07.2019
4883 Clouds 25 1014 65 16093 4.1 60 16:25 21.07.2019
4884 Clouds 25 1014 65 16093 6.2 60 15:47 21.07.2019
4885 Clouds 25 1014 65 16093 6.2 60 15:24 21.07.2019
4886 Clouds 25 1015 69 16093 3.6 100 14:58 21.07.2019
4887 Clouds 25 1014 61 16093 5.7 60 14:39 21.07.2019
4888 Clouds 25 1014 61 16093 5.7 60 14:18 21.07.2019
4889 Clouds 25 1014 65 16093 5.7 70 13:42 21.07.2019
4890 Clouds 25 1014 65 16093 5.7 70 13:24 21.07.2019
4891 Clouds 25 1015 65 16093 6.2 80 12:42 21.07.2019
4892 Clouds 25 1015 65 16093 6.2 80 12:24 21.07.2019
4893 Rain 25 1015 94 16093 6.2 60 11:46 21.07.2019
4894 Rain 25 1015 94 16093 6.2 60 11:28 21.07.2019
4895 Clouds 25 1015 94 16093 5.1 70 10:47 21.07.2019
4896 Clouds 25 1015 65 16093 4.1 50 10:26 21.07.2019
4897 Clouds 25 1015 65 16093 4.1 50 10:26 21.07.2019
4898 Clouds 26 1016 73 16093 3.1 20 09:56 21.07.2019
4899 Drizzle 26 1015 65 16093 4.1 50 09:36 21.07.2019
4900 Drizzle 26 1015 65 16093 4.1 50 09:36 21.07.2019
4901 Clouds 26 1015 88 16093 5.7 70 08:52 21.07.2019
4902 Clouds 26 1015 88 16093 5.7 70 08:34 21.07.2019
4903 Rain 26 1014 88 16093 5.1 70 07:58 21.07.2019
4904 Rain 26 1014 88 16093 5.1 70 07:19 21.07.2019
4905 Clouds 27 1014 54 16093 8.7 40 06:34 21.07.2019
4906 Clouds 28 1014 55 16093 9.3 70 04:19 21.07.2019
4907 Rain 28 1015 55 16093 8.2 60 01:53 21.07.2019
4908 Clouds 28 1016 58 16093 8.2 60 00:47 21.07.2019
4909 Clouds 28 1016 58 16093 8.2 60 00:21 21.07.2019
4910 Clouds 28 1016 52 16093 7.2 70 23:46 20.07.2019
4911 Clouds 28 1016 52 16093 7.2 70 23:27 20.07.2019
4912 Clouds 28 1016 48 16093 6.2 60 22:55 20.07.2019
4913 Clouds 28 1016 48 16093 6.2 60 22:37 20.07.2019
4914 Clouds 28 1016 48 16093 6.2 60 22:18 20.07.2019
4915 Clouds 27 1016 58 16093 7.7 60 21:40 20.07.2019
4916 Clouds 27 1016 58 16093 7.7 60 21:22 20.07.2019
4917 Clouds 26 1016 58 16093 6.7 60 20:43 20.07.2019
4918 Clouds 26 1016 58 16093 6.7 60 20:22 20.07.2019
4919 Clouds 25 1016 69 16093 3.1 50 19:49 20.07.2019
4920 Clouds 25 1016 69 16093 3.1 50 19:26 20.07.2019
4921 Clear 24 1015 69 16093 2.6 30 18:46 20.07.2019
4922 Clear 24 1015 69 16093 2.6 30 18:24 20.07.2019
4923 Rain 24 1015 74 16093 4.1 40 17:56 20.07.2019
4924 Rain 25 1015 74 16093 4.1 40 17:26 20.07.2019
4925 Rain 25 1014 69 16093 5.1 50 16:46 20.07.2019
4926 Rain 25 1014 69 16093 5.1 50 16:28 20.07.2019
4927 Rain 25 1015 94 16093 2.51 68.364 15:59 20.07.2019
4928 Rain 25 1015 69 16093 4.6 60 15:41 20.07.2019
4929 Rain 25 1015 69 16093 4.6 60 15:21 20.07.2019
4930 Rain 25 1016 100 16093 2.6 50 14:49 20.07.2019
4931 Rain 25 1016 100 16093 2.6 50 14:29 20.07.2019
4932 Rain 25 1015 100 12874 6.2 80 13:57 20.07.2019
4933 Rain 25 1016 94 9656 3.12 78.733 13:37 20.07.2019
4934 Rain 25 1016 94 9656 3.28 74.559 13:19 20.07.2019
4935 Rain 25 1016 74 16093 5.1 60 12:44 20.07.2019
4936 Rain 25 1016 74 16093 5.1 60 12:18 20.07.2019
4937 Rain 25 1016 100 4828 5.1 110 11:41 20.07.2019
4938 Rain 25 1016 100 4828 5.1 110 11:20 20.07.2019
4939 Clouds 26 1016 65 16093 4.6 60 10:40 20.07.2019
4940 Clouds 26 1016 65 16093 4.6 60 10:22 20.07.2019
4941 Clouds 25 1016 94 16093 4.1 90 09:46 20.07.2019
4942 Clouds 25 1016 65 16093 7.2 70 09:24 20.07.2019
4943 Clouds 26 1016 73 16093 1.5 310 08:49 20.07.2019
4944 Clouds 26 1015 61 16093 6.7 70 08:22 20.07.2019
4945 Clouds 26 1015 65 16093 5.1 60 07:34 20.07.2019
4946 Clouds 27 1014 58 16093 8.2 70 06:43 20.07.2019
4947 Clouds 28 1014 55 16093 8.2 60 05:21 20.07.2019
4948 Clouds 28 1014 55 16093 9.8 70 04:30 20.07.2019
4949 Clouds 29 1015 49 16093 9.3 60 01:23 20.07.2019
4950 Clouds 29 1016 65 16093 4.6 70 00:49 20.07.2019
4951 Clouds 29 1016 55 16093 7.7 60 00:26 20.07.2019
4952 Clouds 29 1016 83 16093 5.7 80 23:50 19.07.2019
4953 Clouds 28 1016 55 16093 7.2 50 23:29 19.07.2019
4954 Clouds 28 1016 58 16093 6.2 70 22:59 19.07.2019
4955 Clouds 28 1016 58 16093 6.2 70 22:40 19.07.2019
4956 Clouds 28 1016 58 16093 6.2 70 22:19 19.07.2019
4957 Rain 27 1016 66 16093 5.7 60 21:43 19.07.2019
4958 Rain 27 1016 66 16093 5.7 60 21:24 19.07.2019
4959 Rain 26 1017 94 16093 1.5 50 20:43 19.07.2019
4960 Rain 26 1017 94 16093 1.5 50 20:25 19.07.2019
4961 Drizzle 26 1016 69 16093 6.2 70 19:39 19.07.2019
4962 Drizzle 26 1016 69 16093 6.2 70 19:18 19.07.2019
4963 Rain 25 1016 100 16093 6.35 85.934 18:40 19.07.2019
4964 Rain 25 1016 100 16093 4.36 76.949 18:19 19.07.2019
4965 Rain 25 1015 74 16093 4.1 70 17:45 19.07.2019
4966 Rain 25 1015 74 16093 4.1 70 17:25 19.07.2019
4967 Rain 25 1015 100 16093 5.1 80 16:47 19.07.2019
4968 Rain 25 1015 78 16093 4.1 50 16:25 19.07.2019
4969 Rain 25 1015 100 16093 5.7 80 15:47 19.07.2019
4970 Rain 25 1015 74 16093 3.6 60 15:29 19.07.2019
4971 Rain 25 1015 100 16093 4.6 80 14:55 19.07.2019
4972 Rain 25 1016 74 16093 4.6 60 14:37 19.07.2019
4973 Rain 25 1016 74 16093 4.6 60 14:19 19.07.2019
4974 Rain 25 1016 74 16093 5.7 60 13:43 19.07.2019
4975 Rain 25 1016 74 16093 5.7 60 13:22 19.07.2019
4976 Rain 25 1017 88 16093 1.5 10 12:49 19.07.2019
4977 Rain 25 1016 100 4828 4.6 80 12:29 19.07.2019
4978 Clouds 25 1017 88 14484 2.1 330 11:47 19.07.2019
4979 Drizzle 25 1018 94 16093 4.35 77.42 11:20 19.07.2019
4980 Clouds 26 1017 88 16093 4.35 77.42 10:58 19.07.2019
4981 Rain 26 1017 65 16093 5.7 40 10:39 19.07.2019
4982 Rain 26 1017 65 16093 5.7 40 10:18 19.07.2019
4983 Clouds 26 1017 74 16093 5.1 60 09:43 19.07.2019
4984 Clouds 26 1017 74 16093 5.1 60 09:22 19.07.2019
4985 Rain 26 1016 65 16093 6.2 60 08:50 19.07.2019
4986 Rain 26 1016 65 16093 6.2 60 08:28 19.07.2019
4987 Clouds 26 1016 61 16093 4.6 40 07:33 19.07.2019
4988 Clouds 27 1015 54 16093 10.3 40 06:37 19.07.2019
4989 Clouds 28 1015 48 16093 7.7 70 05:26 19.07.2019
4990 Clouds 29 1017 48 16093 10.3 70 01:45 19.07.2019
4991 Clouds 29 1017 46 16093 11.8 70 00:58 19.07.2019
4992 Clouds 28 1017 46 16093 11.8 70 00:21 19.07.2019
4993 Clouds 29 1017 52 16093 11.3 80 23:41 18.07.2019
4994 Clouds 29 1017 52 16093 11.3 80 23:23 18.07.2019
4995 Rain 27 1018 83 16093 3.1 70 22:44 18.07.2019
4996 Rain 27 1018 83 16093 3.1 70 22:20 18.07.2019
4997 Rain 27 1018 65 16093 4.1 60 21:57 18.07.2019
4998 Rain 27 1018 65 16093 1.5 70 21:38 18.07.2019
4999 Rain 27 1018 65 16093 1.5 70 21:18 18.07.2019
5000 Rain 26 1018 73 16093 2.1 90 20:45 18.07.2019
5001 Rain 25 1018 73 16093 2.1 90 20:23 18.07.2019
5002 Rain 25 1017 65 16093 7.2 60 19:49 18.07.2019
5003 Rain 25 1017 65 16093 7.2 60 19:27 18.07.2019
5004 Clouds 25 1017 65 16093 6.2 70 18:51 18.07.2019
5005 Clouds 25 1017 65 16093 6.2 70 18:22 18.07.2019
5006 Clouds 25 1016 69 16093 4.6 70 17:56 18.07.2019
5007 Clouds 25 1016 69 16093 4.6 70 17:56 18.07.2019
5008 Clouds 25 1016 69 16093 4.6 70 17:37 18.07.2019
5009 Rain 25 1016 69 16093 7.2 50 17:18 18.07.2019
5010 Rain 25 1016 69 16093 7.2 50 16:43 18.07.2019
5011 Clouds 25 1016 69 16093 7.2 50 16:24 18.07.2019
5012 Clouds 25 1016 94 16093 5.1 90 15:55 18.07.2019
5013 Rain 25 1016 94 14484 5.1 100 15:36 18.07.2019
5014 Clouds 25 1017 69 16093 6.2 60 14:55 18.07.2019
5015 Clouds 25 1017 69 16093 6.2 60 14:37 18.07.2019
5016 Clouds 25 1017 69 16093 5.1 50 13:57 18.07.2019
5017 Clouds 25 1017 69 16093 5.1 50 13:36 18.07.2019
5018 Clouds 25 1017 69 16093 5.1 50 13:18 18.07.2019
5019 Clouds 25 1017 88 16093 5.1 70 12:42 18.07.2019
5020 Clouds 25 1017 88 16093 4.1 80 12:18 18.07.2019
5021 Clouds 25 1018 69 16093 5.7 60 11:48 18.07.2019
5022 Clouds 25 1018 69 16093 5.7 60 11:27 18.07.2019
5023 Rain 26 1017 83 16093 6.7 90 10:52 18.07.2019
5024 Clouds 26 1017 61 16093 5.7 50 09:52 18.07.2019
5025 Clouds 26 1017 61 16093 5.7 50 09:27 18.07.2019
5026 Clouds 26 1017 61 16093 6.7 60 08:55 18.07.2019
5027 Clouds 26 1017 61 16093 6.7 60 08:25 18.07.2019
5028 Clouds 26 1017 61 16093 6.7 60 07:59 18.07.2019
5029 Clouds 26 1016 61 16093 7.7 60 07:36 18.07.2019
5030 Clouds 27 1015 58 16093 7.2 50 06:55 18.07.2019
5031 Clouds 27 1015 58 16093 7.2 50 06:30 18.07.2019
5032 Clouds 28 1015 78 16093 6.2 70 03:46 18.07.2019
5033 Clouds 29 1016 69 16093 5.7 60 02:50 18.07.2019
5034 Haze 29 1016 55 16093 7.2 50 01:36 18.07.2019
5035 Rain 28 1016 100 16093 6.2 70 00:22 18.07.2019
5036 Rain 28 1016 100 16093 6.2 70 23:22 17.07.2019
5037 Clouds 28 1016 94 16093 6.7 70 22:59 17.07.2019
5038 Clouds 28 1016 58 16093 7.2 50 22:41 17.07.2019
5039 Clouds 28 1016 58 16093 7.2 50 22:22 17.07.2019
5040 Clouds 28 1016 83 16093 6.7 80 21:57 17.07.2019
5041 Clouds 28 1016 62 16093 7.2 60 21:37 17.07.2019
5042 Clouds 27 1016 62 16093 7.2 60 21:19 17.07.2019
5043 Clouds 27 1016 69 16093 2.6 100 20:55 17.07.2019
5044 Clouds 27 1016 69 16093 2.6 100 20:36 17.07.2019
5045 Clouds 26 1016 65 16093 7.2 70 20:18 17.07.2019
5046 Clouds 26 1016 65 16093 7.2 70 20:18 17.07.2019
5047 Rain 26 1015 69 16093 7.2 70 19:40 17.07.2019
5048 Rain 26 1015 69 16093 7.2 70 19:40 17.07.2019
5049 Rain 25 1015 69 16093 7.2 70 19:19 17.07.2019
5050 Clouds 25 1016 83 16093 1.5 280 18:43 17.07.2019
5051 Clouds 25 1015 69 16093 3.6 60 18:21 17.07.2019
5052 Clouds 25 1015 69 16093 3.6 60 17:55 17.07.2019
5053 Clouds 25 1015 69 16093 3.6 60 17:37 17.07.2019
5054 Clouds 25 1015 65 16093 6.7 60 17:18 17.07.2019
5055 Clouds 25 1015 65 16093 6.7 60 16:38 17.07.2019
5056 Clear 25 1015 61 16093 6.2 70 16:19 17.07.2019
5057 Clear 25 1015 61 16093 6.2 70 16:19 17.07.2019
5058 Clear 25 1015 61 16093 6.2 70 15:51 17.07.2019
5059 Clear 25 1015 61 16093 6.2 70 15:29 17.07.2019
5060 Clouds 25 1016 88 16093 2.1 70 14:55 17.07.2019
5061 Clouds 25 1015 69 16093 6.7 80 14:37 17.07.2019
5062 Clouds 25 1015 88 16093 4.1 90 14:19 17.07.2019
5063 Clouds 25 1016 74 16093 6.7 70 13:45 17.07.2019
5064 Rain 26 1016 74 16093 6.7 70 13:25 17.07.2019
5065 Rain 26 1016 94 16093 4.1 90 12:43 17.07.2019
5066 Clouds 26 1017 88 16093 1.5 130 12:21 17.07.2019
5067 Clouds 26 1017 88 16093 1.5 130 11:56 17.07.2019
5068 Clouds 26 1017 88 16093 1.5 130 11:56 17.07.2019
5069 Clouds 26 1017 88 16093 1.5 130 11:37 17.07.2019
5070 Rain 26 1017 88 16093 1.5 190 11:18 17.07.2019
5071 Rain 26 1017 88 16093 1.5 150 10:42 17.07.2019
5072 Rain 25 1015 74 16093 4.6 60 10:18 17.07.2019
5073 Rain 26 1015 74 16093 4.6 60 09:44 17.07.2019
5074 Rain 25 1015 74 16093 4.6 60 09:24 17.07.2019
5075 Rain 26 1016 83 16093 3.6 90 08:43 17.07.2019
5076 Rain 26 1016 83 16093 3.6 90 08:22 17.07.2019
5077 Rain 26 1014 65 16093 6.2 50 07:50 17.07.2019
5078 Rain 26 1014 65 16093 6.2 50 07:50 17.07.2019
5079 Rain 26 1014 65 16093 6.2 50 07:24 17.07.2019
5080 Rain 27 1014 88 16093 5.1 80 06:56 17.07.2019
5081 Clouds 28 1014 88 16093 5.1 80 06:30 17.07.2019
5082 Clouds 28 1013 52 16093 6.2 50 05:49 17.07.2019
5083 Clouds 29 1013 52 16093 6.2 50 05:28 17.07.2019
5084 Clouds 29 1014 49 16093 8.7 70 04:42 17.07.2019
5085 Clouds 29 1014 46 16093 9.3 80 03:19 17.07.2019
5086 Clouds 30 1015 78 16093 5.1 60 01:59 17.07.2019
5087 Clouds 29 1015 78 16093 5.1 60 01:26 17.07.2019
5088 Clouds 29 1015 43 16093 5.7 70 00:48 17.07.2019
5089 Clouds 29 1015 43 16093 5.7 70 00:26 17.07.2019
5090 Clouds 29 1015 49 16093 5.7 70 23:58 16.07.2019
5091 Clouds 29 1015 49 16093 5.7 70 23:31 16.07.2019
5092 Clouds 29 1015 88 16093 4.6 50 22:59 16.07.2019
5093 Clouds 29 1015 88 16093 4.6 50 22:40 16.07.2019
5094 Clouds 29 1016 69 16093 5.7 50 22:20 16.07.2019
5095 Clouds 29 1016 58 16093 4.6 60 21:45 16.07.2019
5096 Clouds 28 1015 88 16093 4.1 70 21:21 16.07.2019
5097 Clouds 27 1015 65 16093 5.7 40 20:58 16.07.2019
5098 Clouds 27 1015 65 16093 5.7 40 20:39 16.07.2019
5099 Clouds 26 1015 69 16093 5.1 70 20:20 16.07.2019
5100 Clouds 26 1015 69 16093 5.1 70 19:50 16.07.2019
5101 Clouds 25 1015 69 16093 5.1 70 19:27 16.07.2019
5102 Clouds 25 1015 74 16093 3.1 60 18:56 16.07.2019
5103 Clouds 24 1015 74 16093 3.1 60 18:37 16.07.2019
5104 Clouds 25 1014 88 16093 3.1 80 18:19 16.07.2019
5105 Clouds 25 1014 69 16093 3.1 50 17:40 16.07.2019
5106 Clouds 25 1014 94 16093 3.6 80 17:20 16.07.2019
5107 Clouds 25 1014 94 16093 2.6 100 16:43 16.07.2019
5108 Clouds 25 1014 69 16093 3.6 70 16:21 16.07.2019
5109 Clouds 25 1014 69 16093 3.6 70 15:42 16.07.2019
5110 Clouds 25 1015 83 16093 1.5 90 15:21 16.07.2019
5111 Clouds 25 1015 83 16093 1.5 90 14:59 16.07.2019
5112 Clouds 25 1015 83 16093 1.5 90 14:41 16.07.2019
5113 Drizzle 25 1015 78 16093 3.6 100 14:23 16.07.2019
5114 Clouds 25 1014 88 16093 5.1 100 13:45 16.07.2019
5115 Clouds 26 1014 88 16093 5.1 100 13:26 16.07.2019
5116 Clouds 26 1016 83 16093 1.5 110 12:55 16.07.2019
5117 Drizzle 26 1016 78 16093 2.6 150 12:37 16.07.2019
5118 Clouds 26 1015 88 16093 4.6 80 12:19 16.07.2019
5119 Clouds 26 1015 88 16093 4.6 80 11:43 16.07.2019
5120 Clouds 26 1015 88 16093 4.6 80 11:23 16.07.2019
5121 Clouds 26 1015 65 16093 6.7 60 10:47 16.07.2019
5122 Clouds 26 1015 65 16093 6.7 60 10:22 16.07.2019
5123 Clouds 26 1016 73 16093 4.14 82.566 09:59 16.07.2019
5124 Clouds 26 1015 88 16093 5.1 80 09:40 16.07.2019
5125 Clouds 26 1016 73 16093 1.5 150 09:19 16.07.2019
5126 Clouds 26 1016 73 16093 1.5 150 09:19 16.07.2019
5127 Clouds 26 1014 65 16093 6.7 70 08:42 16.07.2019
5128 Clouds 26 1014 88 16093 5.1 70 08:20 16.07.2019
5129 Clouds 26 1014 65 16093 7.2 70 07:42 16.07.2019
5130 Clouds 26 1014 65 16093 7.2 70 07:24 16.07.2019
5131 Clouds 27 1014 88 16093 6.7 60 06:47 16.07.2019
5132 Clouds 28 1014 88 16093 6.7 60 06:26 16.07.2019
5133 Clouds 29 1014 55 16093 6.7 70 05:36 16.07.2019
5134 Clouds 29 1014 48 16093 8.2 70 05:18 16.07.2019
5135 Clouds 28 1014 46 16093 8.2 80 03:54 16.07.2019
5136 Clouds 28 1014 46 16093 8.2 80 03:54 16.07.2019
5137 Clouds 29 1015 46 16093 8.7 80 03:20 16.07.2019
5138 Clouds 29 1015 46 16093 8.7 80 02:30 16.07.2019
5139 Clouds 29 1015 52 16093 5.7 60 01:43 16.07.2019
5140 Clouds 29 1016 55 16093 5.1 50 00:42 16.07.2019
5141 Clouds 29 1016 52 16093 4.6 70 00:20 16.07.2019
5142 Clouds 29 1016 52 16093 4.6 70 23:45 15.07.2019
5143 Clouds 29 1016 52 16093 4.6 70 23:27 15.07.2019
5144 Clouds 29 1017 58 16093 5.1 60 22:47 15.07.2019
5145 Clouds 29 1017 69 16093 3.6 70 22:22 15.07.2019
5146 Clouds 28 1017 69 16093 3.6 70 21:58 15.07.2019
5147 Clouds 28 1016 62 16093 6.2 80 21:40 15.07.2019
5148 Rain 27 1016 69 16093 2.6 40 21:20 15.07.2019
5149 Rain 27 1016 69 16093 2.6 40 20:55 15.07.2019
5150 Rain 27 1016 69 16093 2.6 40 20:36 15.07.2019
5151 Rain 26 1016 69 16093 4.6 40 20:18 15.07.2019
5152 Rain 25 1016 69 16093 4.6 40 19:39 15.07.2019
5153 Clouds 25 1015 74 16093 2.1 10 19:19 15.07.2019
5154 Clouds 25 1015 74 16093 2.1 10 18:50 15.07.2019
5155 Clouds 25 1015 74 16093 1.5 50 18:23 15.07.2019
5156 Clouds 25 1015 74 16093 1.5 50 17:59 15.07.2019
5157 Clouds 25 1015 74 16093 1.5 50 17:41 15.07.2019
5158 Rain 24 1015 74 16093 1.5 50 17:22 15.07.2019
5159 Rain 25 1015 69 16093 2.6 80 16:58 15.07.2019
5160 Rain 25 1015 69 16093 2.6 80 16:38 15.07.2019
5161 Clouds 25 1015 69 16093 2.6 60 16:19 15.07.2019
5162 Clouds 25 1015 69 16093 2.6 60 15:43 15.07.2019
5163 Clouds 25 1015 69 16093 2.6 60 15:25 15.07.2019
5164 Clouds 25 1016 69 16093 6.7 60 14:59 15.07.2019
5165 Clouds 25 1016 69 16093 6.7 60 14:38 15.07.2019
5166 Clouds 25 1016 69 16093 4.1 60 14:19 15.07.2019
5167 Clouds 25 1016 69 16093 4.1 60 13:48 15.07.2019
5168 Clouds 25 1017 69 16093 6.7 60 13:20 15.07.2019
5169 Clouds 25 1017 69 16093 6.7 60 12:48 15.07.2019
5170 Clouds 25 1017 69 16093 6.7 60 12:27 15.07.2019
5171 Clouds 26 1017 69 16093 6.7 60 11:58 15.07.2019
5172 Rain 26 1016 94 14484 4.1 100 11:40 15.07.2019
5173 Clouds 26 1016 88 16093 3.6 70 11:19 15.07.2019
5174 Clouds 26 1017 65 16093 7.2 70 10:42 15.07.2019
5175 Clouds 26 1017 65 16093 7.2 70 10:24 15.07.2019
5176 Clouds 26 1016 65 16093 7.2 70 09:43 15.07.2019
5177 Clouds 26 1016 61 16093 6.2 70 09:22 15.07.2019
5178 Clouds 26 1016 61 16093 6.2 70 08:46 15.07.2019
5179 Clouds 26 1016 61 16093 6.2 70 08:25 15.07.2019
5180 Clouds 26 1015 58 16093 7.2 80 07:52 15.07.2019
5181 Clouds 26 1015 58 16093 7.2 80 07:30 15.07.2019
5182 Clouds 27 1015 51 16093 5.7 60 06:40 15.07.2019
5183 Clouds 28 1015 48 16093 5.7 70 06:20 15.07.2019
5184 Clouds 29 1015 48 16093 5.7 70 05:42 15.07.2019
5185 Clouds 29 1015 48 16093 7.2 70 04:45 15.07.2019
5186 Clouds 28 1015 48 16093 7.2 70 04:23 15.07.2019
5187 Clouds 29 1015 46 16093 7.2 60 02:51 15.07.2019
5188 Clouds 30 1016 48 16093 8.7 70 01:55 15.07.2019
5189 Clouds 30 1016 48 16093 8.7 70 01:33 15.07.2019
5190 Clouds 29 1016 48 16093 6.7 60 00:53 15.07.2019
5191 Clouds 29 1016 48 16093 6.7 60 00:53 15.07.2019
5192 Clouds 29 1016 48 16093 6.7 60 00:53 15.07.2019
5193 Clouds 29 1016 48 16093 6.7 60 00:28 15.07.2019
5194 Clouds 29 1017 45 16093 6.2 50 23:58 14.07.2019
5195 Clouds 29 1017 45 16093 6.2 50 23:39 14.07.2019
5196 Clouds 29 1017 78 16093 5.1 70 23:19 14.07.2019
5197 Clouds 29 1017 78 16093 5.1 70 22:57 14.07.2019
5198 Clouds 28 1017 78 16093 5.1 70 22:38 14.07.2019
5199 Clouds 28 1017 58 16093 6.7 50 22:18 14.07.2019
5200 Clouds 28 1017 58 16093 6.7 50 21:42 14.07.2019
5201 Clouds 27 1017 65 16093 5.7 70 21:19 14.07.2019
5202 Clouds 27 1017 65 16093 5.7 70 20:57 14.07.2019
5203 Clouds 27 1017 65 16093 5.7 70 20:37 14.07.2019
5204 Rain 26 1016 69 16093 5.1 60 20:19 14.07.2019
5205 Rain 26 1016 69 16093 5.1 60 19:45 14.07.2019
5206 Rain 25 1016 69 16093 5.1 60 19:26 14.07.2019
5207 Rain 25 1016 69 16093 5.1 60 18:58 14.07.2019
5208 Clouds 25 1016 65 16093 3.1 50 18:39 14.07.2019
5209 Clouds 25 1015 83 16093 4.1 90 18:21 14.07.2019
5210 Clouds 25 1015 83 16093 4.1 90 17:49 14.07.2019
5211 Clouds 25 1015 83 16093 4.1 90 17:21 14.07.2019
5212 Clouds 25 1015 65 16093 4.1 70 16:47 14.07.2019
5213 Clouds 25 1015 65 16093 4.1 70 16:24 14.07.2019
5214 Clouds 25 1015 69 16093 5.1 70 15:54 14.07.2019
5215 Clouds 25 1015 69 16093 5.1 70 15:29 14.07.2019
5216 Clouds 25 1016 65 16093 5.1 70 14:50 14.07.2019
5217 Clouds 25 1016 65 16093 5.1 60 14:22 14.07.2019
5218 Clouds 25 1016 65 16093 5.1 60 13:57 14.07.2019
5219 Clouds 25 1016 65 16093 5.1 60 13:37 14.07.2019
5220 Clouds 25 1016 61 16093 4.1 60 13:19 14.07.2019
5221 Clouds 25 1016 61 16093 4.1 60 12:42 14.07.2019
5222 Clouds 25 1016 61 16093 4.1 60 12:22 14.07.2019
5223 Clouds 26 1016 61 16093 4.1 60 11:53 14.07.2019
5224 Clouds 26 1017 61 16093 5.1 60 11:28 14.07.2019
5225 Clouds 26 1016 65 16093 6.2 70 10:58 14.07.2019
5226 Clouds 26 1016 65 16093 6.2 70 10:40 14.07.2019
5227 Clouds 26 1016 65 16093 5.1 60 10:19 14.07.2019
5228 Clouds 26 1016 65 16093 5.1 60 09:42 14.07.2019
5229 Clouds 26 1016 65 16093 5.1 60 09:23 14.07.2019
5230 Clouds 26 1015 61 16093 6.7 70 08:41 14.07.2019
5231 Clouds 26 1015 61 16093 6.7 60 07:57 14.07.2019
5232 Clouds 26 1015 61 16093 6.7 60 07:35 14.07.2019
5233 Clouds 27 1015 54 16093 7.2 80 06:40 14.07.2019
5234 Clouds 29 1014 48 16093 8.2 60 05:44 14.07.2019
5235 Rain 29 1015 46 16093 7.2 70 03:46 14.07.2019
5236 Rain 30 1015 46 16093 7.2 70 03:28 14.07.2019
5237 Rain 30 1015 46 16093 7.2 60 02:39 14.07.2019
5238 Rain 30 1015 78 16093 6.2 60 02:20 14.07.2019
5239 Rain 30 1015 49 16093 7.7 70 01:31 14.07.2019
5240 Rain 29 1016 52 16093 7.7 60 00:55 14.07.2019
5241 Rain 29 1016 52 16093 7.7 60 00:37 14.07.2019
5242 Rain 29 1016 55 16093 5.1 40 00:19 14.07.2019
5243 Rain 29 1016 55 16093 5.1 40 23:43 13.07.2019
5244 Rain 29 1016 55 16093 5.1 40 23:23 13.07.2019
5245 Rain 28 1016 62 16093 6.2 70 22:43 13.07.2019
5246 Rain 28 1016 83 16093 5.1 60 22:22 13.07.2019
5247 Rain 27 1016 83 16093 5.1 60 21:54 13.07.2019
5248 Rain 27 1016 62 16093 6.2 70 21:23 13.07.2019
5249 Rain 27 1016 62 16093 6.2 70 21:23 13.07.2019
5250 Rain 26 1016 69 16093 5.1 60 20:59 13.07.2019
5251 Rain 26 1016 69 16093 5.1 60 20:39 13.07.2019
5252 Rain 26 1016 69 16093 5.1 70 20:21 13.07.2019
5253 Rain 26 1016 69 16093 5.1 70 19:41 13.07.2019
5254 Rain 26 1016 69 16093 5.1 70 19:23 13.07.2019
5255 Rain 24 1015 74 16093 5.1 60 18:40 13.07.2019
5256 Clouds 24 1015 74 16093 2.6 60 18:19 13.07.2019
5257 Rain 24 1015 74 16093 2.6 60 17:38 13.07.2019
5258 Rain 24 1014 69 16093 2.1 0 17:19 13.07.2019
5259 Rain 25 1014 69 16093 2.1 0 16:44 13.07.2019
5260 Rain 25 1015 65 16093 5.1 70 16:26 13.07.2019
5261 Rain 25 1014 69 16093 2.1 0 16:26 13.07.2019
5262 Clouds 25 1015 65 16093 5.1 70 15:48 13.07.2019
5263 Clouds 25 1015 65 16093 5.1 70 15:24 13.07.2019
5264 Clouds 25 1015 65 16093 4.6 60 14:57 13.07.2019
5265 Clouds 25 1015 65 16093 4.6 60 14:38 13.07.2019
5266 Clouds 25 1015 65 16093 6.7 60 14:19 13.07.2019
5267 Clouds 25 1015 65 16093 6.7 60 13:43 13.07.2019
5268 Clouds 25 1015 65 16093 6.7 60 13:19 13.07.2019
5269 Clouds 25 1016 65 16093 6.7 50 12:41 13.07.2019
5270 Clouds 25 1016 65 16093 6.7 50 12:23 13.07.2019
5271 Clouds 25 1016 65 16093 6.7 50 11:57 13.07.2019
5272 Clouds 25 1016 61 16093 6.7 60 11:20 13.07.2019
5273 Clouds 26 1016 61 16093 6.7 60 10:58 13.07.2019
5274 Clouds 26 1016 61 16093 6.7 60 10:39 13.07.2019
5275 Clouds 26 1016 69 16093 2.1 10 10:21 13.07.2019
5276 Clouds 26 1015 61 16093 5.1 50 09:41 13.07.2019
5277 Clouds 26 1015 58 16093 5.1 40 09:23 13.07.2019
5278 Clouds 26 1015 58 16093 5.1 40 08:47 13.07.2019
5279 Clouds 26 1015 58 16093 5.1 40 08:26 13.07.2019
5280 Clouds 27 1014 58 16093 5.1 40 07:31 13.07.2019
5281 Clouds 27 1014 58 16093 5.1 40 06:55 13.07.2019
5282 Clouds 27 1014 51 16093 6.7 30 06:29 13.07.2019
5283 Clouds 29 1014 48 16093 8.2 40 05:38 13.07.2019
5284 Clouds 28 1013 48 16093 7.2 40 04:36 13.07.2019
5285 Clouds 28 1014 46 16093 5.7 70 04:18 13.07.2019
5286 Clouds 28 1014 46 16093 5.7 70 03:40 13.07.2019
5287 Clouds 29 1014 48 16093 7.2 20 02:28 13.07.2019
5288 Clouds 29 1014 43 16093 4.6 40 01:44 13.07.2019
5289 Clouds 29 1015 43 16093 7.7 70 01:20 13.07.2019
5290 Clouds 29 1015 43 16093 7.7 70 00:57 13.07.2019
5291 Clouds 28 1015 45 16093 7.7 60 00:20 13.07.2019
5292 Clouds 29 1015 45 16093 7.7 60 23:49 12.07.2019
5293 Clouds 29 1015 45 16093 7.7 60 23:49 12.07.2019
5294 Clouds 29 1015 45 16093 7.7 60 23:29 12.07.2019
5295 Clouds 29 1015 48 16093 6.7 80 22:47 12.07.2019
5296 Clouds 29 1015 48 16093 6.7 80 22:25 12.07.2019
5297 Clouds 29 1015 48 16093 6.7 80 22:25 12.07.2019
5298 Clouds 28 1016 54 16093 6.7 70 21:57 12.07.2019
5299 Clouds 28 1016 54 16093 6.7 70 21:39 12.07.2019
5300 Clouds 27 1015 61 16093 5.1 40 21:19 12.07.2019
5301 Clouds 27 1015 61 16093 5.1 40 21:19 12.07.2019
5302 Clouds 26 1015 61 16093 5.1 40 20:42 12.07.2019
5303 Clouds 26 1015 61 16093 5.1 40 20:21 12.07.2019
5304 Clouds 25 1015 61 16093 6.7 80 19:42 12.07.2019
5305 Clouds 25 1015 61 16093 6.7 80 19:24 12.07.2019
5306 Clouds 25 1015 88 16093 3.1 90 18:46 12.07.2019
5307 Clouds 25 1015 88 16093 3.1 90 18:22 12.07.2019
5308 Clouds 24 1014 88 16093 3.1 70 17:55 12.07.2019
5309 Clouds 24 1014 88 16093 3.1 70 17:30 12.07.2019
5310 Clouds 24 1014 88 16093 3.1 70 17:30 12.07.2019
5311 Clouds 24 1015 65 16093 5.7 70 16:52 12.07.2019
5312 Clouds 25 1015 65 16093 5.7 70 16:25 12.07.2019
5313 Clouds 25 1016 83 16093 2.34 78.354 15:56 12.07.2019
5314 Clouds 25 1015 65 16093 4.6 80 15:36 12.07.2019
5315 Clouds 25 1016 65 16093 4.6 60 15:18 12.07.2019
5316 Clouds 25 1016 65 16093 4.6 60 14:43 12.07.2019
5317 Clouds 25 1016 65 16093 6.2 50 14:20 12.07.2019
5318 Clouds 25 1016 65 16093 6.2 50 13:43 12.07.2019
5319 Clouds 25 1016 65 16093 6.2 50 13:21 12.07.2019
5320 Clouds 25 1017 65 16093 8.2 60 12:41 12.07.2019
5321 Clouds 25 1017 69 16093 4.1 60 12:23 12.07.2019
5322 Clouds 25 1017 69 16093 4.1 60 11:46 12.07.2019
5323 Clouds 25 1017 69 16093 4.1 60 11:24 12.07.2019
5324 Clouds 26 1017 69 16093 6.7 60 10:55 12.07.2019
5325 Clouds 26 1017 69 16093 6.7 60 10:37 12.07.2019
5326 Clouds 26 1017 73 16093 3.7 76.667 10:19 12.07.2019
5327 Clouds 26 1017 73 16093 3.7 76.667 09:51 12.07.2019
5328 Clouds 26 1017 73 16093 3.53 76.621 09:24 12.07.2019
5329 Clouds 26 1016 61 16093 6.7 90 08:45 12.07.2019
5330 Clouds 26 1016 61 16093 6.7 90 08:22 12.07.2019
5331 Clouds 26 1016 61 16093 7.7 70 07:47 12.07.2019
5332 Clouds 27 1016 61 16093 7.7 70 07:29 12.07.2019
5333 Clouds 27 1016 58 16093 7.7 60 06:29 12.07.2019
5334 Clouds 29 1015 48 16093 8.7 60 05:50 12.07.2019
5335 Clouds 29 1016 48 16093 6.2 60 03:46 12.07.2019
5336 Clouds 30 1016 46 16093 5.1 50 01:50 12.07.2019
5337 Clouds 30 1016 46 16093 5.1 50 01:32 12.07.2019
5338 Clouds 29 1017 52 16093 5.7 80 00:34 12.07.2019
5339 Clouds 28 1017 78 16093 4.1 70 23:54 11.07.2019
5340 Clouds 28 1018 65 16093 5.7 90 23:36 11.07.2019
5341 Clouds 28 1018 65 16093 5.7 90 23:36 11.07.2019
5342 Clouds 29 1017 62 16093 5.7 70 23:18 11.07.2019
5343 Clouds 28 1017 62 16093 5.7 70 22:41 11.07.2019
5344 Clouds 28 1017 83 16093 4.6 70 22:22 11.07.2019
5345 Clouds 27 1017 65 16093 8.2 70 21:43 11.07.2019
5346 Clouds 27 1017 83 16093 6.2 70 21:20 11.07.2019
5347 Clouds 27 1017 83 16093 6.2 70 21:20 11.07.2019
5348 Clouds 27 1017 83 16093 6.2 70 20:56 11.07.2019
5349 Clouds 26 1017 83 16093 5.1 80 20:38 11.07.2019
5350 Clouds 26 1017 88 16093 4.1 90 20:19 11.07.2019
5351 Clouds 25 1018 94 16093 1.5 70 19:47 11.07.2019
5352 Rain 25 1017 83 16093 5.7 70 19:25 11.07.2019
5353 Rain 24 1016 88 16093 2.1 30 18:54 11.07.2019
5354 Rain 24 1016 88 16093 2.1 30 18:33 11.07.2019
5355 Clouds 24 1016 88 16093 2.1 30 17:59 11.07.2019
5356 Rain 24 1016 94 16093 2.6 350 17:41 11.07.2019
5357 Rain 24 1017 100 16093 2.12 67.758 17:22 11.07.2019
5358 Rain 24 1016 88 16093 3.1 360 16:49 11.07.2019
5359 Rain 24 1016 88 16093 3.1 360 16:23 11.07.2019
5360 Rain 24 1015 100 16093 6.2 70 15:49 11.07.2019
5361 Rain 24 1015 100 16093 6.2 70 15:30 11.07.2019
5362 Rain 24 1017 94 16093 1.5 320 14:59 11.07.2019
5363 Rain 24 1017 94 16093 1.5 320 14:40 11.07.2019
5364 Rain 24 1017 94 16093 1.5 320 14:20 11.07.2019
5365 Rain 25 1017 69 16093 1.5 90 13:46 11.07.2019
5366 Rain 25 1017 69 16093 1.5 90 13:26 11.07.2019
5367 Rain 25 1017 69 16093 1.5 90 13:26 11.07.2019
5368 Rain 26 1018 69 16093 3.6 70 12:42 11.07.2019
5369 Clouds 26 1018 69 16093 3.6 70 12:23 11.07.2019
5370 Clouds 25 1017 88 16093 4.6 60 11:52 11.07.2019
5371 Clouds 26 1017 88 16093 4.6 60 11:30 11.07.2019
5372 Clouds 25 1018 65 16093 2.6 0 10:55 11.07.2019
5373 Clouds 25 1018 65 16093 2.6 0 10:21 11.07.2019
5374 Clouds 26 1017 65 16093 4.6 50 09:58 11.07.2019
5375 Clouds 26 1017 65 16093 4.6 50 09:39 11.07.2019
5376 Clouds 26 1017 65 16093 4.6 50 09:21 11.07.2019
5377 Drizzle 26 1018 73 16093 3.1 50 08:49 11.07.2019
5378 Drizzle 26 1018 73 16093 3.1 50 08:22 11.07.2019
5379 Clouds 27 1017 54 16093 5.7 40 07:46 11.07.2019
5380 Clouds 27 1017 54 16093 5.7 40 07:28 11.07.2019
5381 Clouds 28 1016 51 16093 6.2 40 06:27 11.07.2019
5382 Clouds 28 1015 48 16093 6.7 50 05:45 11.07.2019
5383 Clouds 29 1015 48 16093 6.7 50 05:26 11.07.2019
5384 Clear 29 1016 58 16093 5.7 70 03:59 11.07.2019
5385 Clouds 30 1016 46 16093 7.2 50 02:37 11.07.2019
5386 Clouds 29 1017 46 16093 6.2 60 00:49 11.07.2019
5387 Clouds 29 1018 52 16093 7.7 80 23:53 10.07.2019
5388 Clouds 29 1018 52 16093 7.7 80 23:31 10.07.2019
5389 Clouds 29 1017 83 16093 4.6 60 22:58 10.07.2019
5390 Clouds 29 1017 83 16093 5.1 70 22:37 10.07.2019
5391 Clouds 28 1018 58 16093 6.2 60 22:18 10.07.2019
5392 Clouds 29 1018 58 16093 6.2 60 21:43 10.07.2019
5393 Clouds 27 1018 58 16093 6.2 60 21:25 10.07.2019
5394 Clouds 27 1017 88 16093 4.1 70 20:48 10.07.2019
5395 Clouds 27 1017 88 16093 4.1 70 20:28 10.07.2019
5396 Clouds 26 1017 88 16093 3.6 80 20:00 10.07.2019
5397 Clouds 25 1017 74 16093 2.1 320 19:41 10.07.2019
5398 Clouds 25 1017 74 16093 2.6 20 19:21 10.07.2019
5399 Clouds 24 1017 74 16093 2.6 20 18:47 10.07.2019
5400 Clouds 24 1017 74 16093 2.6 20 18:24 10.07.2019
5401 Clouds 25 1017 74 16093 2.1 10 17:50 10.07.2019
5402 Clouds 25 1017 74 16093 2.1 10 17:30 10.07.2019
5403 Clouds 24 1016 94 16093 2.1 120 16:58 10.07.2019
5404 Clouds 24 1016 78 16093 2.1 20 16:22 10.07.2019
5405 Clouds 25 1016 78 16093 1.5 40 15:47 10.07.2019
5406 Clouds 25 1016 78 16093 1.5 40 15:26 10.07.2019
5407 Clouds 25 1017 78 16093 2.1 350 14:59 10.07.2019
5408 Clouds 25 1017 78 16093 2.1 350 14:37 10.07.2019
5409 Clouds 25 1016 88 16093 3.6 80 14:19 10.07.2019
5410 Clouds 25 1017 74 16093 1.63 85.736 13:38 10.07.2019
5411 Clouds 25 1017 94 16093 2.1 90 13:18 10.07.2019
5412 Clouds 25 1018 74 16093 1.94 82.988 12:41 10.07.2019
5413 Clouds 25 1018 74 16093 2.86 84.253 12:21 10.07.2019
5414 Clouds 25 1017 94 16093 2.6 100 11:49 10.07.2019
5415 Clouds 25 1017 94 16093 2.6 100 11:22 10.07.2019
5416 Clouds 26 1018 69 16093 4.6 60 10:58 10.07.2019
5417 Clouds 26 1018 69 16093 4.6 60 10:58 10.07.2019
5418 Clouds 26 1018 69 16093 4.6 60 10:58 10.07.2019
5419 Clouds 26 1018 69 16093 5.7 60 10:24 10.07.2019
5420 Clouds 26 1018 69 16093 5.7 60 09:56 10.07.2019
5421 Clouds 26 1018 69 16093 5.7 60 09:37 10.07.2019
5422 Clouds 26 1017 94 16093 3.1 80 09:19 10.07.2019
5423 Clouds 26 1017 69 16093 5.7 60 08:48 10.07.2019
5424 Clouds 26 1017 69 16093 5.7 60 08:23 10.07.2019
5425 Rain 27 1016 62 16093 5.7 80 07:46 10.07.2019
5426 Rain 27 1016 62 16093 5.7 80 07:23 10.07.2019
5427 Rain 28 1016 55 16093 8.2 80 06:36 10.07.2019
5428 Clouds 29 1016 52 16093 6.7 50 05:40 10.07.2019
5429 Clouds 29 1015 88 16093 5.7 80 04:30 10.07.2019
5430 Clouds 29 1016 52 16093 8.2 70 01:59 10.07.2019
5431 Clouds 30 1016 52 16093 8.2 60 00:43 10.07.2019
5432 Clouds 30 1017 55 16093 8.2 70 23:42 09.07.2019
5433 Clouds 30 1017 55 16093 8.2 70 23:23 09.07.2019
5434 Clouds 29 1017 58 16093 7.2 60 22:57 09.07.2019
5435 Clouds 29 1017 58 16093 7.2 60 22:36 09.07.2019
5436 Clouds 29 1017 83 16093 4.6 60 22:18 09.07.2019
5437 Clouds 29 1017 83 16093 4.6 60 22:18 09.07.2019
5438 Clouds 29 1017 83 16093 4.6 60 21:43 09.07.2019
5439 Clouds 29 1017 83 16093 4.6 60 21:25 09.07.2019
5440 Rain 28 1017 66 16093 5.7 60 20:44 09.07.2019
5441 Rain 27 1017 66 16093 5.7 60 20:26 09.07.2019
5442 Rain 26 1016 78 16093 4.6 80 19:44 09.07.2019
5443 Rain 26 1016 78 16093 4.6 80 19:26 09.07.2019
5444 Clouds 26 1015 78 16093 4.1 50 18:49 09.07.2019
5445 Clouds 25 1015 78 16093 4.1 50 18:27 09.07.2019
5446 Clouds 26 1015 78 16093 4.1 50 17:58 09.07.2019
5447 Clouds 26 1015 74 16093 3.1 80 17:40 09.07.2019
5448 Clouds 25 1015 94 16093 3.68 87.757 17:20 09.07.2019
5449 Clouds 25 1014 74 16093 4.1 90 16:50 09.07.2019
5450 Clouds 25 1014 74 16093 4.1 90 16:25 09.07.2019
5451 Clouds 26 1015 78 16093 4.6 80 15:55 09.07.2019
5452 Clouds 26 1015 78 16093 4.6 80 15:36 09.07.2019
5453 Clouds 26 1015 78 16093 3.6 90 14:59 09.07.2019
5454 Clouds 26 1015 78 16093 3.6 90 14:39 09.07.2019
5455 Clouds 26 1015 74 16093 4.6 60 14:19 09.07.2019
5456 Clouds 26 1015 74 16093 4.6 60 13:45 09.07.2019
5457 Clouds 26 1015 74 16093 4.6 60 13:27 09.07.2019
5458 Clouds 26 1016 74 16093 4.6 70 12:42 09.07.2019
5459 Clouds 26 1016 74 16093 4.6 70 12:23 09.07.2019
5460 Clouds 26 1016 74 16093 4.6 70 11:58 09.07.2019
5461 Rain 26 1016 74 16093 4.1 60 11:40 09.07.2019
5462 Clear 26 1017 88 16093 6.7 90 11:21 09.07.2019
5463 Clear 27 1017 88 16093 6.7 90 10:55 09.07.2019
5464 Rain 26 1017 88 16093 5.1 80 10:33 09.07.2019
5465 Clouds 26 1015 74 16093 7.2 60 09:48 09.07.2019
5466 Clouds 27 1015 74 16093 7.2 60 09:29 09.07.2019
5467 Clouds 26 1015 74 16093 8.2 60 08:57 09.07.2019
5468 Clouds 26 1015 74 16093 8.2 60 08:39 09.07.2019
5469 Clouds 27 1012 83 16093 3.1 90 04:18 05.07.2019
5470 Clouds 28 1013 66 16093 5.7 160 03:38 05.07.2019
5471 Clouds 28 1013 62 16093 5.7 170 03:19 05.07.2019
5472 Clouds 28 1013 62 16093 5.7 170 02:46 05.07.2019
5473 Clouds 28 1012 78 16093 3.6 80 01:44 05.07.2019
5474 Clouds 28 1012 78 16093 3.6 80 01:25 05.07.2019
5475 Clouds 28 1013 62 16093 5.7 140 00:47 05.07.2019
5476 Rain 28 1014 66 16093 4.1 160 00:20 05.07.2019
5477 Rain 28 1013 94 12874 2.1 80 23:21 04.07.2019
5478 Rain 28 1013 94 12874 2.1 80 22:57 04.07.2019
5479 Clouds 28 1014 62 16093 2.6 180 22:39 04.07.2019
5480 Clouds 27 1014 65 16093 1.31 73.803 22:18 04.07.2019
5481 Clouds 27 1014 65 16093 1.31 73.803 21:40 04.07.2019
5482 Clouds 27 1014 65 16093 1.33 65.81 21:22 04.07.2019
5483 Clouds 26 1014 69 16093 1.27 52.307 20:54 04.07.2019
5484 Clouds 26 1014 69 16093 1.27 52.307 20:36 04.07.2019
5485 Clouds 26 1013 83 16093 2.6 90 20:18 04.07.2019
5486 Clouds 24 1014 78 16093 2.1 310 19:41 04.07.2019
5487 Clouds 24 1014 78 16093 2.1 310 19:20 04.07.2019
5488 Clouds 23 1013 94 16093 1.27 52.307 18:43 04.07.2019
5489 Clouds 23 1013 94 16093 0.94 66.378 18:25 04.07.2019
5490 Clouds 23 1012 94 16093 1.5 120 17:46 04.07.2019
5491 Clouds 23 1013 83 16093 1.5 320 17:19 04.07.2019
5492 Clouds 24 1013 78 16093 0.94 66.378 15:59 04.07.2019
5493 Clouds 23 1013 78 16093 0.94 66.378 15:40 04.07.2019
5494 Clouds 24 1013 78 16093 1.33 80.062 15:22 04.07.2019
5495 Clouds 24 1014 78 16093 1.5 320 14:55 04.07.2019
5496 Clouds 24 1014 78 16093 1.5 320 14:37 04.07.2019
5497 Clouds 24 1014 74 16093 2.1 20 14:18 04.07.2019
5498 Clouds 24 1014 74 16093 2.1 20 13:42 04.07.2019
5499 Clouds 24 1014 69 16093 4.6 70 13:23 04.07.2019
5500 Clouds 24 1014 69 16093 4.6 70 12:57 04.07.2019
5501 Clouds 24 1014 69 16093 4.6 70 12:37 04.07.2019
5502 Clouds 24 1015 69 16093 4.6 90 12:19 04.07.2019
5503 Rain 24 1015 69 16093 4.6 90 11:39 04.07.2019
5504 Rain 24 1015 65 16093 2.1 10 11:19 04.07.2019
5505 Rain 24 1015 65 16093 2.1 10 10:40 04.07.2019
5506 Rain 25 1014 65 16093 5.7 80 10:21 04.07.2019
5507 Clouds 25 1014 65 16093 5.7 80 09:44 04.07.2019
5508 Clouds 25 1014 65 16093 5.1 80 09:25 04.07.2019
5509 Clouds 25 1014 65 16093 5.1 80 08:56 04.07.2019
5510 Clouds 25 1014 65 16093 5.1 80 08:23 04.07.2019
5511 Clouds 26 1013 61 16093 4.6 60 07:45 04.07.2019
5512 Clouds 26 1013 61 16093 4.6 60 07:22 04.07.2019
5513 Clouds 27 1013 69 16093 3.1 80 06:51 04.07.2019
5514 Clouds 28 1012 51 16093 6.2 30 05:52 04.07.2019
5515 Clouds 28 1012 51 16093 6.2 30 05:33 04.07.2019
5516 Clouds 28 1014 52 16093 3.1 120 02:43 04.07.2019
5517 Clouds 29 1014 58 16093 6.2 140 01:42 04.07.2019
5518 Clouds 29 1014 58 16093 6.2 140 01:21 04.07.2019
5519 Clouds 29 1015 62 16093 5.7 130 23:58 03.07.2019
5520 Clouds 28 1015 48 16093 4.6 60 23:40 03.07.2019
5521 Clouds 28 1015 58 16093 3.1 170 23:20 03.07.2019
5522 Clouds 28 1015 58 16093 3.1 170 22:42 03.07.2019
5523 Clouds 28 1015 58 16093 3.1 170 22:24 03.07.2019
5524 Clouds 28 1015 65 16093 1.34 95.77 21:59 03.07.2019
5525 Clouds 28 1015 65 16093 1.34 95.77 21:39 03.07.2019
5526 Clouds 26 1015 69 16093 1.5 340 21:20 03.07.2019
5527 Clouds 26 1015 69 16093 1.5 340 20:43 03.07.2019
5528 Clouds 25 1015 69 16093 1.5 340 20:23 03.07.2019
5529 Clouds 24 1014 83 16093 1.5 70 19:50 03.07.2019
5530 Clouds 24 1014 83 16093 1.5 70 19:50 03.07.2019
5531 Clouds 24 1014 83 16093 1.5 70 19:32 03.07.2019
5532 Clouds 23 1014 88 16093 1.5 100 18:48 03.07.2019
5533 Clouds 23 1014 88 16093 1.5 100 18:29 03.07.2019
5534 Clouds 23 1014 88 16093 1.5 100 17:57 03.07.2019
5535 Clouds 23 1014 88 16093 1.5 100 17:37 03.07.2019
5536 Clouds 23 1015 78 16093 2.6 330 17:18 03.07.2019
5537 Clouds 23 1015 78 16093 2.6 330 16:43 03.07.2019
5538 Clear 23 1015 78 16093 2.6 310 16:21 03.07.2019
5539 Clear 23 1015 78 16093 2.6 310 15:49 03.07.2019
5540 Clear 24 1015 78 16093 2.6 310 15:31 03.07.2019
5541 Clouds 24 1015 74 16093 2.1 60 14:56 03.07.2019
5542 Clouds 25 1015 74 16093 2.1 60 14:37 03.07.2019
5543 Clouds 24 1015 69 16093 2.1 40 14:18 03.07.2019
5544 Clouds 24 1015 69 16093 2.1 40 13:35 03.07.2019
5545 Clouds 25 1016 74 16093 2.6 100 12:54 03.07.2019
5546 Clouds 24 1016 74 16093 2.6 100 12:21 03.07.2019
5547 Clouds 24 1016 74 16093 2.6 100 11:58 03.07.2019
5548 Clouds 24 1016 69 16093 1.61 76.291 11:40 03.07.2019
5549 Clouds 24 1016 69 16093 1.61 76.291 11:21 03.07.2019
5550 Clouds 25 1016 65 16093 2.1 80 10:42 03.07.2019
5551 Clouds 25 1016 65 16093 2.1 80 10:23 03.07.2019
5552 Clouds 25 1015 65 16093 3.1 40 09:43 03.07.2019
5553 Clouds 25 1015 65 16093 3.1 40 09:21 03.07.2019
5554 Clouds 25 1015 61 16093 1.5 360 08:54 03.07.2019
5555 Clouds 25 1015 61 16093 1.5 360 08:33 03.07.2019
5556 Clouds 26 1014 83 16093 3.1 70 07:57 03.07.2019
5557 Clouds 26 1014 83 16093 3.1 70 07:37 03.07.2019
5558 Clouds 27 1014 78 16093 3.1 0 06:55 03.07.2019
5559 Clouds 27 1015 78 16093 4.1 80 05:56 03.07.2019
5560 Rain 27 1014 48 16093 5.1 50 05:24 03.07.2019
5561 Clouds 28 1015 78 16093 1.5 50 03:50 03.07.2019
5562 Clouds 28 1015 78 16093 3.1 70 02:43 03.07.2019
5563 Clouds 29 1015 46 16093 5.1 80 01:23 03.07.2019
5564 Clouds 28 1016 49 16093 5.7 40 00:58 03.07.2019
5565 Clouds 28 1016 49 16093 5.7 40 00:36 03.07.2019
5566 Clouds 29 1016 52 16093 4.6 60 23:49 02.07.2019
5567 Clouds 29 1016 52 16093 4.6 60 23:21 02.07.2019
5568 Clouds 29 1017 69 16093 3.1 60 22:59 02.07.2019
5569 Clouds 29 1017 69 16093 3.1 60 22:41 02.07.2019
5570 Clouds 29 1016 58 16093 4.1 50 22:22 02.07.2019
5571 Clouds 29 1016 58 16093 4.1 50 22:22 02.07.2019
5572 Clouds 27 1017 65 16093 3.6 80 21:57 02.07.2019
5573 Clouds 27 1017 65 16093 3.6 80 21:38 02.07.2019
5574 Clouds 27 1017 65 16093 3.6 80 21:18 02.07.2019
5575 Clouds 26 1016 69 16093 2.6 90 20:41 02.07.2019
5576 Clouds 26 1016 69 16093 2.6 90 20:23 02.07.2019
5577 Clouds 26 1016 78 16093 1.5 340 19:57 02.07.2019
5578 Clouds 25 1016 78 16093 1.5 340 19:38 02.07.2019
5579 Clouds 24 1016 83 16093 2.1 87.93 19:20 02.07.2019
5580 Clouds 24 1016 83 16093 2.1 87.93 18:45 02.07.2019
5581 Clouds 24 1016 83 16093 1.62 91.837 18:18 02.07.2019
5582 Clouds 24 1015 78 16093 1.5 10 17:40 02.07.2019
5583 Clouds 24 1015 78 16093 1.5 10 17:20 02.07.2019
5584 Clouds 24 1015 74 16093 2.1 340 16:46 02.07.2019
5585 Clouds 24 1015 74 16093 2.1 340 16:27 02.07.2019
5586 Clouds 24 1015 74 16093 1.5 360 15:42 02.07.2019
5587 Clouds 24 1015 74 16093 1.5 360 15:24 02.07.2019
5588 Clouds 24 1016 74 16093 2.1 20 14:49 02.07.2019
5589 Clouds 24 1016 74 16093 2.1 20 14:30 02.07.2019
5590 Clouds 24 1016 88 16093 3.1 80 13:45 02.07.2019
5591 Clouds 25 1016 69 16093 3.6 70 13:20 02.07.2019
5592 Clouds 25 1016 88 16093 3.6 90 12:46 02.07.2019
5593 Clouds 25 1017 69 16093 4.6 60 12:25 02.07.2019
5594 Clouds 25 1017 69 16093 4.1 60 11:56 02.07.2019
5595 Clouds 25 1017 69 16093 4.1 60 11:37 02.07.2019
5596 Clouds 25 1017 69 16093 4.1 60 11:18 02.07.2019
5597 Clouds 25 1016 88 16093 4.1 70 10:42 02.07.2019
5598 Clouds 25 1016 69 16093 6.2 60 10:23 02.07.2019
5599 Clouds 25 1016 69 16093 6.2 60 10:23 02.07.2019
5600 Clear 25 1016 65 16093 5.1 60 09:43 02.07.2019
5601 Clear 25 1016 65 16093 5.1 60 09:20 02.07.2019
5602 Clouds 25 1015 88 16093 3.1 70 08:41 02.07.2019
5603 Clouds 26 1015 69 16093 5.7 70 08:20 02.07.2019
5604 Rain 26 1015 83 16093 4.1 80 07:52 02.07.2019
5605 Rain 26 1015 61 16093 4.6 80 07:20 02.07.2019
5606 Rain 27 1014 62 16093 5.1 80 06:42 02.07.2019
5607 Clouds 29 1014 52 16093 7.2 80 05:58 02.07.2019
5608 Clouds 28 1014 78 16093 5.1 70 03:26 02.07.2019
5609 Clouds 29 1016 55 16093 7.2 80 00:48 02.07.2019
5610 Rain 28 1016 62 16093 5.1 20 23:44 01.07.2019
5611 Rain 27 1016 62 16093 3.1 70 23:19 01.07.2019
5612 Rain 28 1016 62 16093 3.1 70 22:44 01.07.2019
5613 Rain 27 1016 62 16093 3.1 70 22:26 01.07.2019
5614 Rain 27 1016 69 16093 2.6 0 21:47 01.07.2019
5615 Rain 27 1016 69 16093 2.6 0 21:25 01.07.2019
5616 Rain 25 1016 69 16093 2.6 10 20:51 01.07.2019
5617 Rain 25 1016 69 16093 2.6 10 20:21 01.07.2019
5618 Rain 24 1015 74 16093 2.6 40 19:57 01.07.2019
5619 Rain 24 1015 74 16093 2.6 40 19:39 01.07.2019
5620 Rain 24 1015 74 16093 2.6 40 19:21 01.07.2019
5621 Rain 23 1015 100 11265 3.6 300 18:50 01.07.2019
5622 Rain 23 1015 100 11265 3.6 300 18:28 01.07.2019
5623 Rain 23 1015 78 16093 1.5 350 17:55 01.07.2019
5624 Rain 24 1015 74 16093 2.1 350 17:37 01.07.2019
5625 Rain 24 1015 74 16093 2.1 350 17:19 01.07.2019
5626 Rain 24 1015 74 16093 1.5 340 16:44 01.07.2019
5627 Rain 24 1015 74 16093 1.5 340 16:24 01.07.2019
5628 Clouds 24 1015 74 16093 1.65 89.513 15:46 01.07.2019
5629 Clouds 24 1015 74 16093 1.75 88.233 15:26 01.07.2019
5630 Rain 24 1015 69 16093 1.5 0 14:45 01.07.2019
5631 Rain 24 1015 69 16093 1.5 0 14:45 01.07.2019
5632 Rain 24 1015 69 16093 1.5 0 14:24 01.07.2019
5633 Clouds 24 1016 74 16093 2.1 20 13:55 01.07.2019
5634 Clouds 24 1016 74 16093 2.1 20 13:37 01.07.2019
5635 Clouds 24 1016 74 16093 2.1 20 13:18 01.07.2019
5636 Rain 24 1016 74 16093 2.6 80 12:38 01.07.2019
5637 Rain 24 1016 74 16093 2.6 80 12:20 01.07.2019
5638 Rain 24 1017 100 16093 1.83 80.553 11:47 01.07.2019
5639 Rain 24 1016 100 4828 3.1 120 11:28 01.07.2019
5640 Mist 24 1016 69 16093 3.6 70 10:48 01.07.2019
5641 Mist 24 1016 69 16093 3.6 70 10:25 01.07.2019
5642 Clouds 25 1016 100 16093 1.5 60 09:59 01.07.2019
5643 Rain 25 1015 94 16093 5.1 90 09:40 01.07.2019
5644 Rain 25 1015 94 16093 5.1 90 09:22 01.07.2019
5645 Rain 25 1015 69 16093 3.1 70 08:39 01.07.2019
5646 Rain 25 1015 69 16093 3.1 70 08:21 01.07.2019
5647 Rain 25 1014 69 16093 4.1 50 07:28 01.07.2019
5648 Rain 26 1013 78 16093 4.1 90 06:30 01.07.2019
5649 Rain 28 1014 70 16093 7.2 140 02:27 01.07.2019
5650 Rain 28 1014 66 16093 4.6 150 00:50 01.07.2019
5651 Rain 28 1014 66 16093 4.6 150 00:29 01.07.2019
5652 Rain 28 1014 83 16093 4.1 120 23:57 30.06.2019
5653 Rain 28 1014 58 16093 5.1 60 23:22 30.06.2019
5654 Rain 28 1014 83 16093 5.1 80 22:53 30.06.2019
5655 Rain 27 1014 100 8047 4.1 40 22:21 30.06.2019
5656 Rain 27 1015 78 16093 3.1 100 21:42 30.06.2019
5657 Rain 27 1015 78 16093 3.1 100 21:22 30.06.2019
5658 Rain 26 1015 69 16093 4.6 80 20:57 30.06.2019
5659 Rain 26 1015 69 16093 4.6 80 20:39 30.06.2019
5660 Rain 26 1015 69 16093 4.6 80 20:21 30.06.2019
5661 Clouds 25 1014 74 16093 1.5 10 19:44 30.06.2019
5662 Clouds 25 1014 74 16093 1.5 10 19:25 30.06.2019
5663 Clouds 25 1014 74 16093 1.5 10 19:25 30.06.2019
5664 Clouds 24 1014 78 16093 2.1 350 18:39 30.06.2019
5665 Clouds 24 1014 78 16093 2.1 350 18:20 30.06.2019
5666 Clouds 24 1014 78 16093 1.57 77.063 17:39 30.06.2019
5667 Clouds 24 1014 78 16093 1.57 77.063 17:18 30.06.2019
5668 Clouds 24 1014 78 16093 1.5 340 16:49 30.06.2019
5669 Clouds 24 1014 78 16093 1.5 340 16:27 30.06.2019
5670 Clouds 24 1014 73 16093 3.1 50 15:38 30.06.2019
5671 Clouds 24 1014 69 16093 2.6 80 15:19 30.06.2019
5672 Clouds 24 1014 69 16093 2.6 80 14:54 30.06.2019
5673 Clouds 24 1014 69 16093 2.6 80 14:35 30.06.2019
5674 Clouds 25 1015 65 16093 2.6 30 13:49 30.06.2019
5675 Clouds 25 1015 65 16093 2.6 30 13:30 30.06.2019
5676 Clouds 25 1016 65 16093 2.6 50 12:57 30.06.2019
5677 Clouds 25 1016 65 16093 2.6 50 12:39 30.06.2019
5678 Clouds 25 1016 65 16093 2.6 50 12:19 30.06.2019
5679 Clear 25 1015 73 16093 4.6 90 11:45 30.06.2019
5680 Clear 25 1015 73 16093 4.6 90 11:21 30.06.2019
5681 Clear 25 1015 73 16093 4.6 90 11:21 30.06.2019
5682 Clouds 25 1015 73 16093 4.6 80 10:55 30.06.2019
5683 Clouds 25 1015 73 16093 4.6 80 10:55 30.06.2019
5684 Clouds 25 1015 78 16093 3.6 80 10:36 30.06.2019
5685 Clouds 25 1015 78 16093 3.6 80 10:18 30.06.2019
5686 Clouds 25 1015 69 16093 4.6 70 09:43 30.06.2019
5687 Clouds 25 1015 69 16093 4.6 70 09:20 30.06.2019
5688 Clouds 25 1015 61 16093 6.2 50 08:40 30.06.2019
5689 Clouds 25 1015 61 16093 6.2 50 08:21 30.06.2019
5690 Clouds 26 1014 58 16093 5.7 50 07:50 30.06.2019
5691 Clouds 26 1014 58 16093 5.7 50 07:24 30.06.2019
5692 Clouds 27 1014 54 16093 6.2 40 06:37 30.06.2019
5693 Clouds 28 1014 51 16093 5.7 40 03:33 30.06.2019
5694 Clouds 29 1015 48 16093 5.7 30 01:53 30.06.2019
5695 Clouds 28 1015 52 16093 5.7 90 00:48 30.06.2019
5696 Clouds 28 1015 52 16093 5.7 90 00:24 30.06.2019
5697 Clouds 28 1015 74 16093 4.1 100 23:48 29.06.2019
5698 Clouds 27 1015 74 16093 4.1 100 23:23 29.06.2019
5699 Clouds 28 1015 62 16093 6.2 60 22:48 29.06.2019
5700 Clouds 28 1015 62 16093 6.2 60 22:24 29.06.2019
5701 Clouds 27 1016 65 16093 3.6 80 21:55 29.06.2019
5702 Clouds 27 1016 65 16093 3.6 80 21:25 29.06.2019
5703 Clouds 27 1016 65 16093 3.6 80 21:25 29.06.2019
5704 Rain 26 1016 69 16093 2.1 40 20:56 29.06.2019
5705 Rain 26 1016 69 16093 2.1 40 20:36 29.06.2019
5706 Rain 26 1016 69 16093 2.1 40 20:18 29.06.2019
5707 Clear 25 1015 78 16093 2.6 90 19:41 29.06.2019
5708 Clear 25 1015 78 16093 2.6 90 19:21 29.06.2019
5709 Clouds 25 1015 78 16093 2.1 90 18:47 29.06.2019
5710 Clouds 24 1015 78 16093 2.1 90 18:24 29.06.2019
5711 Drizzle 24 1014 78 16093 2.1 60 17:38 29.06.2019
5712 Drizzle 24 1014 78 16093 2.1 60 17:19 29.06.2019
5713 Clouds 24 1014 88 16093 3.1 90 16:43 29.06.2019
5714 Clouds 24 1014 88 16093 3.6 100 16:19 29.06.2019
5715 Clouds 25 1015 74 16093 2.13 77.331 15:33 29.06.2019
5716 Rain 24 1014 83 16093 2.6 100 14:55 29.06.2019
5717 Rain 24 1014 83 16093 3.1 110 14:37 29.06.2019
5718 Rain 24 1016 100 16093 2.05 92.322 14:18 29.06.2019
5719 Rain 25 1016 78 16093 3.6 60 13:41 29.06.2019
5720 Rain 25 1016 78 16093 3.6 60 13:41 29.06.2019
5721 Rain 25 1016 78 16093 3.6 60 13:23 29.06.2019
5722 Rain 25 1016 74 16093 3.6 70 12:41 29.06.2019
5723 Rain 24 1016 74 16093 3.6 70 12:22 29.06.2019
5724 Rain 25 1017 94 16093 2.48 92.521 11:46 29.06.2019
5725 Rain 25 1017 94 16093 2.48 92.521 11:28 29.06.2019
5726 Rain 25 1016 88 16093 5.1 90 10:52 29.06.2019
5727 Rain 25 1016 83 16093 3.1 80 10:24 29.06.2019
5728 Clouds 25 1015 83 16093 5.1 90 09:58 29.06.2019
5729 Clouds 25 1015 83 16093 4.6 90 09:19 29.06.2019
5730 Clouds 25 1015 69 16093 3.6 60 08:36 29.06.2019
5731 Clouds 26 1015 69 16093 5.7 50 07:46 29.06.2019
5732 Clouds 27 1014 78 16093 3.1 80 06:57 29.06.2019
5733 Clouds 27 1014 65 16093 6.2 60 06:39 29.06.2019
5734 Clouds 27 1014 62 16093 6.7 60 06:19 29.06.2019
5735 Clouds 27 1016 88 16093 1.5 180 01:54 29.06.2019
5736 Rain 27 1016 83 16093 2.6 170 00:54 29.06.2019
5737 Clouds 28 1015 74 16093 2.6 0 23:54 28.06.2019
5738 Clouds 28 1016 74 16093 5.1 160 23:22 28.06.2019
5739 Clouds 28 1016 74 16093 2.1 170 22:47 28.06.2019
5740 Clouds 28 1016 74 16093 2.1 170 22:22 28.06.2019
5741 Clouds 27 1016 88 16093 2.1 130 21:46 28.06.2019
5742 Clouds 27 1015 83 16093 4.1 110 21:20 28.06.2019
5743 Clouds 26 1016 74 16093 1.5 0 20:43 28.06.2019
5744 Clouds 26 1016 74 16093 1.5 0 20:20 28.06.2019
5745 Clouds 25 1015 74 16093 2.1 310 19:42 28.06.2019
5746 Clouds 25 1015 74 16093 2.1 310 19:24 28.06.2019
5747 Clouds 24 1015 78 16093 1.71 98.774 18:42 28.06.2019
5748 Clouds 24 1015 78 16093 1.29 95.503 18:22 28.06.2019
5749 Clouds 24 1014 78 16093 1.5 80 17:54 28.06.2019
5750 Clouds 24 1014 78 16093 1.5 80 17:28 28.06.2019
5751 Rain 24 1014 78 16093 2.6 90 16:47 28.06.2019
5752 Rain 24 1014 78 16093 2.6 90 16:20 28.06.2019
5753 Clouds 24 1014 78 16093 2.6 30 15:47 28.06.2019
5754 Clouds 24 1014 78 16093 2.6 30 15:18 28.06.2019
5755 Rain 24 1014 78 16093 1.5 10 14:42 28.06.2019
5756 Rain 24 1014 78 16093 1.5 10 14:21 28.06.2019
5757 Rain 24 1014 100 9656 2.6 130 13:49 28.06.2019
5758 Rain 24 1015 100 4828 3.6 130 13:29 28.06.2019
5759 Rain 24 1015 100 6437 1.86 130.197 12:53 28.06.2019
5760 Rain 24 1016 83 16093 1.86 130.197 12:35 28.06.2019
5761 Rain 24 1016 83 16093 3.6 30 11:46 28.06.2019
5762 Rain 25 1015 100 11265 1.5 210 11:19 28.06.2019
5763 Rain 25 1016 100 16093 1.5 120 10:43 28.06.2019
5764 Rain 25 1016 100 16093 1.5 120 10:20 28.06.2019
5765 Rain 25 1015 94 16093 4.1 120 09:47 28.06.2019
5766 Rain 25 1015 74 16093 2.6 150 09:28 28.06.2019
5767 Rain 26 1015 100 16093 1.5 120 08:43 28.06.2019
5768 Rain 26 1015 100 16093 1.5 120 08:24 28.06.2019
5769 Rain 26 1014 94 16093 2.1 150 07:43 28.06.2019
5770 Clouds 27 1013 88 16093 3.1 160 06:57 28.06.2019
5771 Clouds 28 1012 70 16093 7.2 120 04:42 28.06.2019
5772 Rain 27 1014 100 16093 4.1 140 00:48 28.06.2019
5773 Rain 27 1014 83 16093 6.2 90 00:22 28.06.2019
5774 Rain 27 1012 74 16093 4.6 160 23:46 27.06.2019
5775 Rain 27 1012 74 16093 4.6 160 23:25 27.06.2019
5776 Rain 26 1014 88 14484 5.1 160 22:44 27.06.2019
5777 Rain 26 1014 88 14484 5.1 160 22:25 27.06.2019
5778 Clouds 27 1014 83 16093 3.1 150 21:58 27.06.2019
5779 Clouds 27 1013 74 16093 5.1 120 21:40 27.06.2019
5780 Clouds 27 1013 74 16093 5.1 120 21:20 27.06.2019
5781 Clouds 26 1013 69 16093 3.1 120 20:48 27.06.2019
5782 Clouds 26 1013 69 16093 3.1 120 20:30 27.06.2019
5783 Clouds 26 1012 78 16093 3.1 80 19:49 27.06.2019
5784 Clouds 26 1012 78 16093 3.1 80 19:29 27.06.2019
5785 Clouds 25 1012 83 16093 2.6 90 18:52 27.06.2019
5786 Clouds 25 1012 83 16093 2.6 90 18:30 27.06.2019
5787 Clouds 25 1011 83 16093 3.1 100 17:55 27.06.2019
5788 Clouds 25 1011 83 16093 3.1 100 17:36 27.06.2019
5789 Clouds 25 1011 83 16093 3.1 100 17:18 27.06.2019
5790 Rain 25 1011 78 16093 3.6 100 16:38 27.06.2019
5791 Rain 25 1011 78 16093 3.6 100 16:19 27.06.2019
5792 Drizzle 25 1011 100 16093 1.5 150 15:45 27.06.2019
5793 Drizzle 25 1011 100 16093 1.5 150 15:24 27.06.2019
5794 Clouds 25 1011 78 16093 3.1 140 14:46 27.06.2019
5795 Clouds 25 1011 78 16093 3.1 140 14:28 27.06.2019
5796 Clouds 25 1012 100 16093 1.5 150 13:49 27.06.2019
5797 Clouds 25 1012 100 16093 1.5 140 13:31 27.06.2019
5798 Clouds 25 1013 78 16093 4.6 150 12:57 27.06.2019
5799 Drizzle 25 1013 78 16093 4.6 150 12:35 27.06.2019
5800 Clouds 25 1013 100 16093 2.36 164.391 11:59 27.06.2019
5801 Clouds 25 1013 78 16093 3.6 150 11:39 27.06.2019
5802 Clouds 25 1013 78 16093 3.6 150 11:20 27.06.2019
5803 Drizzle 25 1013 78 16093 3.1 130 10:45 27.06.2019
5804 Drizzle 25 1013 78 16093 3.1 130 10:22 27.06.2019
5805 Clouds 25 1013 100 16093 1.5 150 09:55 27.06.2019
5806 Clouds 25 1013 88 16093 2.1 90 09:22 27.06.2019
5807 Clouds 25 1013 100 16093 2.28 169.801 08:52 27.06.2019
5808 Clouds 25 1013 83 16093 2.1 50 08:31 27.06.2019
5809 Clouds 25 1013 100 16093 1.5 130 07:57 27.06.2019
5810 Clouds 25 1013 100 16093 1.5 130 07:30 27.06.2019
5811 Rain 25 1012 94 16093 3.1 140 06:51 27.06.2019
5812 Rain 27 1011 78 16093 2.1 140 04:27 27.06.2019
5813 Rain 26 1012 83 16093 3.53 186.819 02:44 27.06.2019
5814 Clouds 27 1012 74 16093 2.6 180 01:48 27.06.2019
5815 Clouds 27 1012 69 16093 3.61 187.251 00:57 27.06.2019
5816 Clouds 27 1012 69 16093 3.61 187.251 00:38 27.06.2019
5817 Clouds 27 1012 69 16093 3.14 167.807 00:18 27.06.2019
5818 Clouds 27 1012 69 16093 3.14 167.807 23:38 26.06.2019
5819 Clouds 26 1012 88 16093 2.6 180 23:19 26.06.2019
5820 Clouds 26 1012 74 16093 2.6 200 22:41 26.06.2019
5821 Clouds 25 1012 74 16093 2.6 200 22:23 26.06.2019
5822 Clouds 24 1012 100 16093 2.6 160 21:55 26.06.2019
5823 Clouds 24 1012 100 16093 1.5 160 21:37 26.06.2019
5824 Clouds 24 1012 100 16093 1.5 160 21:19 26.06.2019
5825 Clouds 23 1011 83 16093 3.1 80 20:43 26.06.2019
5826 Clouds 22 1011 83 16093 3.1 80 20:25 26.06.2019
5827 Mist 22 1011 88 16093 3.1 100 19:48 26.06.2019
5828 Mist 22 1011 88 16093 3.1 100 19:30 26.06.2019
5829 Rain 22 1010 88 8047 1.5 160 18:54 26.06.2019
5830 Rain 22 1010 100 16093 3.6 180 18:36 26.06.2019
5831 Rain 22 1009 96 14484 2.6 160 18:18 26.06.2019
5832 Rain 22 1010 88 14484 3.1 120 17:38 26.06.2019
5833 Rain 22 1010 100 14484 2.1 180 17:19 26.06.2019
5834 Rain 22 1010 100 14484 2.1 180 16:50 26.06.2019
5835 Rain 23 1011 100 8047 2.1 170 16:26 26.06.2019
5836 Rain 22 1011 100 9656 1.5 170 15:48 26.06.2019
5837 Rain 23 1011 100 9656 1.5 170 15:26 26.06.2019
5838 Rain 23 1011 100 12874 1.5 180 14:38 26.06.2019
5839 Rain 23 1011 100 12874 1.5 180 14:20 26.06.2019
5840 Rain 23 1011 88 14484 3.1 80 13:45 26.06.2019
5841 Rain 23 1011 88 14484 3.1 80 13:21 26.06.2019
5842 Rain 23 1012 94 8047 1.48 215.488 12:43 26.06.2019
5843 Rain 23 1012 94 8047 0.87 235.728 12:25 26.06.2019
5844 Rain 23 1012 100 11265 2.6 340 11:51 26.06.2019
5845 Rain 23 1012 100 16093 2.6 340 11:23 26.06.2019
5846 Rain 23 1012 100 6437 4.1 10 10:47 26.06.2019
5847 Rain 23 1012 100 6437 4.1 10 10:28 26.06.2019
5848 Rain 23 1011 100 4828 5.7 40 09:49 26.06.2019
5849 Rain 23 1011 100 1609 6.7 30 09:24 26.06.2019
5850 Rain 23 1012 100 1207 1.5 340 08:49 26.06.2019
5851 Rain 24 1011 100 9656 4.6 310 08:20 26.06.2019
5852 Rain 25 1010 88 4023 3.1 90 07:46 26.06.2019
5853 Rain 25 1010 88 4023 3.1 90 07:25 26.06.2019
5854 Rain 25 1009 94 9656 1.5 100 06:32 26.06.2019
5855 Rain 26 1011 100 9656 2.6 180 01:28 26.06.2019
5856 Rain 26 1012 100 12874 2.6 170 00:25 26.06.2019
5857 Rain 26 1012 94 16093 2.6 170 23:46 25.06.2019
5858 Rain 26 1012 94 16093 2.6 170 23:27 25.06.2019
5859 Clouds 26 1012 100 16093 1.5 160 22:57 25.06.2019
5860 Clouds 26 1012 100 16093 1.5 160 22:57 25.06.2019
5861 Rain 26 1011 83 16093 3.1 160 22:38 25.06.2019
5862 Rain 26 1011 83 16093 3.1 160 22:20 25.06.2019
5863 Rain 25 1013 88 16093 3.1 170 21:43 25.06.2019
5864 Rain 25 1013 88 16093 3.1 170 21:22 25.06.2019
5865 Rain 25 1013 100 16093 4.1 150 20:45 25.06.2019
5866 Rain 25 1013 100 16093 4.1 150 20:45 25.06.2019
5867 Rain 25 1013 100 16093 4.1 150 20:45 25.06.2019
5868 Rain 25 1013 100 16093 4.1 150 20:22 25.06.2019
5869 Rain 24 1011 100 8047 1.5 70 19:46 25.06.2019
5870 Rain 25 1012 88 8047 4.1 110 19:23 25.06.2019
5871 Thunderstorm 25 1011 88 9656 2.1 150 18:45 25.06.2019
5872 Thunderstorm 25 1011 88 9656 2.1 150 18:45 25.06.2019
5873 Thunderstorm 25 1011 88 9656 2.1 150 18:26 25.06.2019
5874 -273 0 0 0 0 0 18:00 25.06.2019
5875 -273 0 0 0 0 0 18:00 25.06.2019
5876 -273 0 0 0 0 0 18:00 25.06.2019
5877 -273 0 0 0 0 0 18:00 25.06.2019
5878 -273 0 0 0 0 0 17:30 25.06.2019
5879 -273 0 0 0 0 0 17:29 25.06.2019
5880 -273 0 0 0 0 0 17:29 25.06.2019
5881 Rain 25 1012 100 16093 2.1 180 16:57 25.06.2019
5882 Rain 25 1012 94 14484 3.1 240 16:39 25.06.2019
5883 Rain 25 1012 94 14484 3.1 240 16:21 25.06.2019
5884 Rain 24 1013 94 6437 2.1 140 15:41 25.06.2019
5885 Rain 24 1013 94 6437 2.1 140 15:21 25.06.2019
5886 Rain 24 1012 100 11265 3.1 110 14:54 25.06.2019
5887 Rain 25 1013 94 16093 2.1 160 14:35 25.06.2019
5888 Rain 25 1014 100 4828 1.08 117.677 13:46 25.06.2019
5889 -273 0 0 0 0 0 13:27 25.06.2019
5890 Clouds 26 1014 88 16093 3.1 120 12:44 25.06.2019
5891 Clouds 26 1014 88 16093 3.1 120 12:25 25.06.2019
5892 Clouds 25 1015 100 12874 1.5 180 11:49 25.06.2019
5893 Drizzle 25 1014 94 16093 4.1 140 11:26 25.06.2019
5894 Drizzle 25 1014 94 16093 4.1 140 11:26 25.06.2019
5895 Drizzle 25 1015 100 16093 2.1 180 10:59 25.06.2019
5896 Clouds 25 1014 83 16093 1.25 164.105 10:39 25.06.2019
5897 Clouds 25 1014 83 16093 1.25 164.105 10:21 25.06.2019
5898 Clouds 25 1015 88 16093 2.1 150 09:40 25.06.2019
5899 Clouds 25 1015 88 16093 2.1 150 09:22 25.06.2019
5900 Clouds 26 1014 83 16093 1.08 138.274 08:59 25.06.2019
5901 Clouds 26 1014 88 16093 2.1 150 08:31 25.06.2019
5902 Clouds 26 1015 94 16093 1.5 150 07:52 25.06.2019
5903 Rain 26 1014 83 16093 2.6 180 07:31 25.06.2019
5904 Rain 26 1014 78 16093 2.6 150 06:49 25.06.2019
5905 Rain 26 1013 88 16093 3.1 290 06:23 25.06.2019
5906 Rain 28 1014 69 16093 3.1 130 02:44 25.06.2019
5907 Rain 26 1016 94 9656 2.1 0 00:57 25.06.2019
5908 Rain 26 1016 94 9656 2.1 0 00:57 25.06.2019
5909 Rain 26 1016 88 11265 2.1 120 00:25 25.06.2019
5910 Rain 26 1016 94 4828 1.5 180 23:51 24.06.2019
5911 Rain 26 1016 100 12874 1.5 150 23:32 24.06.2019
5912 Rain 26 1017 88 1207 2.1 90 22:48 24.06.2019
5913 Rain 26 1017 88 1207 2.1 90 22:22 24.06.2019
5914 Rain 25 1017 94 16093 2.1 90 21:57 24.06.2019
5915 Rain 25 1016 78 16093 1.5 140 21:37 24.06.2019
5916 Rain 25 1017 100 16093 1.09 103.541 21:18 24.06.2019
5917 Rain 25 1016 78 16093 2.1 360 20:43 24.06.2019
5918 Rain 25 1017 100 16093 1.25 103.233 20:23 24.06.2019
5919 Rain 25 1016 88 16093 2.6 360 19:49 24.06.2019
5920 Rain 25 1016 88 16093 2.6 360 19:30 24.06.2019
5921 Rain 25 1016 100 2414 1.25 103.233 18:58 24.06.2019
5922 Rain 25 1016 88 11265 1.5 0 18:38 24.06.2019
5923 Rain 25 1016 100 16093 1.05 156.255 18:20 24.06.2019
5924 Rain 25 1016 94 8047 1.05 156.255 17:37 24.06.2019
5925 Rain 25 1016 88 12874 1.5 100 16:57 24.06.2019
5926 Clouds 25 1015 88 16093 2.6 320 16:39 24.06.2019
5927 Clouds 25 1016 83 16093 1.05 156.255 16:19 24.06.2019
5928 Clouds 25 1015 88 16093 3.1 60 15:40 24.06.2019
5929 Clouds 25 1015 88 16093 3.1 60 15:22 24.06.2019
5930 Clouds 25 1016 100 16093 0.66 124.806 14:35 24.06.2019
5931 Clouds 25 1015 83 16093 0.66 124.806 13:58 24.06.2019
5932 Clouds 25 1017 94 16093 2.1 40 13:32 24.06.2019
5933 Clouds 25 1018 100 16093 0.5 154.507 12:46 24.06.2019
5934 Rain 25 1018 100 16093 0.56 104.958 12:26 24.06.2019
5935 Rain 25 1018 100 11265 0.56 104.958 11:59 24.06.2019
5936 Rain 25 1018 83 16093 2.1 160 11:40 24.06.2019
5937 Rain 25 1018 83 16093 2.1 160 11:21 24.06.2019
5938 Rain 26 1019 88 16093 0.56 104.958 10:50 24.06.2019
5939 Rain 26 1018 74 16093 3.6 110 10:28 24.06.2019
5940 Clouds 26 1017 69 16093 2.6 90 09:49 24.06.2019
5941 Clouds 26 1017 69 16093 2.6 90 09:23 24.06.2019
5942 Clouds 26 1017 83 16093 2.1 150 08:52 24.06.2019
5943 Clouds 26 1018 69 16093 3.1 90 08:26 24.06.2019
5944 Clouds 26 1018 69 16093 3.1 90 08:26 24.06.2019
5945 Clouds 27 1018 78 16093 2.6 120 07:45 24.06.2019
5946 Clouds 27 1018 78 16093 2.6 120 07:26 24.06.2019
5947 Clouds 27 1017 88 14484 3.1 240 06:39 24.06.2019
5948 Clouds 27 1017 88 14484 3.1 240 06:19 24.06.2019
5949 Rain 27 1016 83 16093 3.1 130 05:24 24.06.2019
5950 Rain 28 1017 66 16093 3.6 180 04:24 24.06.2019
5951 Rain 29 1018 88 16093 4.1 350 02:56 24.06.2019
5952 Rain 29 1017 66 16093 4.1 180 02:20 24.06.2019
5953 Rain 29 1018 74 14484 3.1 150 01:49 24.06.2019
5954 Clouds 29 1017 74 16093 4.6 170 01:21 24.06.2019
5955 Clouds 29 1018 58 16093 6.2 150 00:39 24.06.2019
5956 Clouds 29 1018 62 16093 6.7 140 00:19 24.06.2019
5957 Clouds 30 1018 62 16093 6.7 140 23:44 23.06.2019
5958 Clouds 30 1018 62 16093 6.7 140 23:22 23.06.2019
5959 Clouds 29 1018 58 16093 3.1 160 22:43 23.06.2019
5960 Clouds 29 1018 58 16093 3.1 160 22:20 23.06.2019
5961 Clouds 29 1018 70 16093 2.1 0 21:45 23.06.2019
5962 Clouds 28 1018 70 16093 2.1 0 21:25 23.06.2019
5963 Rain 28 1018 69 16093 1.59 99.912 20:58 23.06.2019
5964 Rain 28 1018 69 16093 1.22 103.876 20:40 23.06.2019
5965 Rain 28 1018 69 16093 1.22 103.876 20:21 23.06.2019
5966 Clouds 27 1018 74 16093 1.5 70 19:43 23.06.2019
5967 Clouds 26 1018 74 16093 1.5 70 19:20 23.06.2019
5968 Clouds 25 1017 78 16093 1.5 360 18:48 23.06.2019
5969 Clouds 25 1017 78 16093 1.5 360 18:20 23.06.2019
5970 Clouds 25 1017 83 16093 1.5 210 17:46 23.06.2019
5971 Clouds 25 1017 83 16093 1.5 210 17:25 23.06.2019
5972 Clouds 24 1016 88 16093 2.1 200 16:47 23.06.2019
5973 Clouds 24 1017 78 16093 1.5 330 16:27 23.06.2019
5974 Clouds 24 1017 94 16093 0.54 102.758 15:59 23.06.2019
5975 Clear 24 1017 83 16093 1.5 40 15:40 23.06.2019
5976 Clear 24 1017 83 16093 1.5 40 15:19 23.06.2019
5977 Clouds 25 1017 78 16093 1.5 30 14:39 23.06.2019
5978 Clouds 25 1017 78 16093 1.5 30 14:21 23.06.2019
5979 Clouds 25 1018 74 16093 1.5 20 13:54 23.06.2019
5980 Clouds 25 1018 74 16093 1.5 20 13:36 23.06.2019
5981 Clouds 25 1018 74 16093 1.5 20 13:18 23.06.2019
5982 Clouds 25 1018 74 16093 1.5 20 12:42 23.06.2019
5983 Clouds 25 1018 74 16093 1.5 20 12:20 23.06.2019
5984 Clouds 26 1019 88 16093 1.25 147.917 11:49 23.06.2019
5985 Clouds 26 1019 74 16093 1.5 120 11:28 23.06.2019
5986 Clouds 26 1019 74 16093 1.5 120 11:28 23.06.2019
5987 Clouds 26 1018 74 16093 2.1 130 10:51 23.06.2019
5988 Clouds 26 1018 74 16093 2.1 130 10:22 23.06.2019
5989 Clouds 27 1019 83 16093 1.5 150 09:59 23.06.2019
5990 Clouds 27 1019 83 16093 1.5 150 09:25 23.06.2019
5991 Clouds 27 1018 83 16093 2.1 180 08:55 23.06.2019
5992 Clouds 27 1018 83 16093 1.5 170 08:36 23.06.2019
5993 Clouds 27 1018 83 16093 1.5 170 08:18 23.06.2019
5994 Clouds 27 1017 74 16093 4.1 140 07:45 23.06.2019
5995 Clouds 28 1017 74 16093 4.1 140 07:19 23.06.2019
5996 Clouds 28 1017 70 16093 3.6 160 06:52 23.06.2019
5997 Clouds 29 1016 62 16093 5.1 180 05:53 23.06.2019
5998 Clouds 30 1016 66 16093 5.1 150 02:52 23.06.2019
5999 Clouds 29 1016 66 16093 4.6 140 01:39 23.06.2019
6000 Clouds 29 1016 66 16093 4.6 140 01:20 23.06.2019
6001 Clouds 29 1017 74 16093 4.6 150 00:31 23.06.2019
6002 Clouds 28 1017 78 16093 5.7 170 23:47 22.06.2019
6003 Clouds 28 1017 78 16093 5.7 170 23:26 22.06.2019
6004 Rain 28 1017 78 16093 4.1 150 22:47 22.06.2019
6005 Rain 28 1017 78 16093 4.1 150 22:27 22.06.2019
6006 Clouds 28 1017 69 16093 4.1 140 21:56 22.06.2019
6007 Clouds 28 1017 83 16093 3.1 110 21:36 22.06.2019
6008 Clouds 27 1017 78 16093 1.5 90 21:18 22.06.2019
6009 Clouds 26 1017 78 16093 1.5 90 20:43 22.06.2019
6010 Clouds 26 1017 78 16093 1.5 90 20:20 22.06.2019
6011 Clouds 24 1016 94 16093 2.1 10 19:40 22.06.2019
6012 Clouds 24 1016 94 16093 2.1 10 19:20 22.06.2019
6013 Clouds 23 1016 94 16093 2.1 360 18:42 22.06.2019
6014 Clouds 23 1016 94 16093 2.1 360 18:22 22.06.2019
6015 Clouds 22 1015 94 16093 1.5 330 17:44 22.06.2019
6016 Clouds 22 1015 94 16093 1.5 330 17:25 22.06.2019
6017 Clouds 23 1014 88 16093 1.17 127.476 16:42 22.06.2019
6018 Clouds 23 1014 88 16093 1.17 127.476 16:22 22.06.2019
6019 Clouds 22 1015 94 16093 2.1 360 15:43 22.06.2019
6020 Clouds 22 1015 94 16093 2.1 360 15:25 22.06.2019
6021 Clouds 22 1015 94 16093 1.5 360 14:51 22.06.2019
6022 Clouds 23 1015 94 16093 1.5 360 14:31 22.06.2019
6023 Clouds 23 1015 94 16093 0.96 149.649 13:55 22.06.2019
6024 Clouds 23 1015 94 16093 0.93 134.737 13:36 22.06.2019
6025 Clouds 23 1015 94 16093 0.93 134.737 13:18 22.06.2019
6026 Clouds 23 1015 83 16093 0.93 134.737 12:41 22.06.2019
6027 Clouds 24 1015 83 16093 1.14 112.26 11:59 22.06.2019
6028 Clouds 24 1015 83 16093 1.14 112.26 11:40 22.06.2019
6029 Rain 24 1015 83 16093 1.14 112.26 10:54 22.06.2019
6030 Rain 24 1015 83 16093 1.14 112.26 10:22 22.06.2019
6031 Rain 24 1014 88 8047 1.14 112.26 09:56 22.06.2019
6032 Clouds 24 1015 88 16093 1.5 110 09:27 22.06.2019
6033 Clouds 25 1014 83 16093 0.41 119.312 08:44 22.06.2019
6034 Clouds 25 1014 83 16093 1.55 143.397 08:25 22.06.2019
6035 Clouds 25 1013 83 16093 1.5 60 07:36 22.06.2019
6036 Rain 25 1013 88 4828 2.6 100 06:56 22.06.2019
6037 Rain 26 1013 83 9656 4.6 190 05:30 22.06.2019
6038 Rain 27 1013 65 16093 2.6 200 02:34 22.06.2019
6039 Rain 27 1014 65 16093 2.6 110 01:24 22.06.2019
6040 Rain 27 1014 74 16093 4.1 130 00:46 22.06.2019
6041 Rain 27 1014 74 16093 4.1 130 00:22 22.06.2019
6042 Rain 28 1014 69 16093 6.7 150 23:44 21.06.2019
6043 Rain 28 1014 69 16093 6.7 150 23:22 21.06.2019
6044 Clouds 28 1014 62 16093 4.1 140 22:52 21.06.2019
6045 Clouds 29 1014 62 16093 4.1 140 22:24 21.06.2019
6046 Rain 28 1014 54 16093 4.6 110 21:55 21.06.2019
6047 Rain 28 1014 54 16093 4.6 110 21:36 21.06.2019
6048 Rain 28 1014 54 16093 4.6 110 21:36 21.06.2019
6049 Rain 28 1014 54 16093 4.6 110 21:18 21.06.2019
6050 Rain 27 1014 65 16093 4.1 130 20:42 21.06.2019
6051 Rain 27 1014 65 16093 4.1 130 20:20 21.06.2019
6052 Rain 26 1013 74 16093 1.5 30 19:34 21.06.2019
6053 Clouds 24 1013 73 16093 2.6 20 18:49 21.06.2019
6054 Clouds 24 1013 73 16093 2.6 20 18:29 21.06.2019
6055 Clouds 24 1013 94 16093 1.35 92.214 17:46 21.06.2019
6056 Clouds 24 1013 83 16093 2.1 20 17:28 21.06.2019
6057 Rain 23 1012 83 16093 1.5 360 16:40 21.06.2019
6058 Clouds 24 1013 83 16093 1.5 50 16:22 21.06.2019
6059 Clouds 24 1012 78 16093 1.5 30 15:40 21.06.2019
6060 Clouds 24 1012 78 16093 1.5 30 15:20 21.06.2019
6061 Clouds 25 1013 74 16093 2.1 70 14:49 21.06.2019
6062 Clouds 25 1013 74 16093 2.1 70 14:30 21.06.2019
6063 Clouds 25 1013 69 16093 2.6 60 13:53 21.06.2019
6064 Clouds 25 1013 69 16093 2.6 60 13:33 21.06.2019
6065 Clouds 25 1012 74 16093 3.6 90 12:58 21.06.2019
6066 Clouds 25 1013 74 16093 4.1 90 12:38 21.06.2019
6067 Clouds 25 1013 74 16093 3.6 110 12:18 21.06.2019
6068 Clouds 25 1013 74 16093 4.1 90 12:18 21.06.2019
6069 Clouds 25 1013 74 16093 3.6 110 12:18 21.06.2019
6070 Clouds 25 1014 69 16093 4.6 50 11:46 21.06.2019
6071 Clouds 25 1014 69 16093 4.6 50 11:24 21.06.2019
6072 Clouds 25 1014 65 16093 5.1 60 10:48 21.06.2019
6073 Clouds 25 1014 65 16093 5.1 60 10:21 21.06.2019
6074 Clouds 25 1013 69 16093 2.6 90 09:55 21.06.2019
6075 Clouds 25 1013 61 16093 4.6 70 09:37 21.06.2019
6076 Clouds 25 1012 61 16093 5.7 80 09:18 21.06.2019
6077 Clouds 25 1012 61 16093 5.7 80 08:42 21.06.2019
6078 Clouds 25 1012 61 16093 5.7 80 08:21 21.06.2019
6079 Clouds 26 1012 61 16093 6.2 40 07:46 21.06.2019
6080 Clouds 26 1012 61 16093 6.2 40 07:23 21.06.2019
6081 Clouds 27 1013 69 16093 3.1 80 06:42 21.06.2019
6082 Clouds 28 1013 69 16093 3.1 80 06:18 21.06.2019
6083 Clouds 28 1012 61 16093 5.7 70 04:57 21.06.2019
6084 Clouds 29 1012 45 16093 6.7 50 03:53 21.06.2019
6085 Clouds 29 1012 45 16093 6.7 50 03:32 21.06.2019
6086 Clouds 29 1013 48 16093 7.2 50 02:44 21.06.2019
6087 Rain 28 1013 43 16093 6.2 70 01:33 21.06.2019
6088 Rain 29 1014 74 14484 4.6 110 00:52 21.06.2019
6089 Clouds 28 1014 54 16093 6.2 100 23:59 20.06.2019
6090 Clear 28 1014 65 16093 5.1 50 23:41 20.06.2019
6091 Clouds 29 1014 45 16093 7.7 60 23:21 20.06.2019
6092 Clouds 29 1015 48 16093 7.7 60 22:46 20.06.2019
6093 Clouds 29 1015 48 16093 7.7 60 22:24 20.06.2019
6094 Clouds 29 1014 58 16093 4.6 70 21:57 20.06.2019
6095 Clouds 28 1015 51 16093 6.2 60 21:38 20.06.2019
6096 Clouds 27 1015 51 16093 6.2 60 21:19 20.06.2019
6097 Clouds 28 1014 65 16093 5.1 70 20:44 20.06.2019
6098 Clouds 27 1014 65 16093 5.1 70 20:25 20.06.2019
6099 Clouds 27 1014 65 16093 5.1 70 20:25 20.06.2019
6100 Clouds 26 1015 61 16093 4.6 60 19:55 20.06.2019
6101 Clouds 26 1015 61 16093 4.6 60 19:36 20.06.2019
6102 Clouds 25 1014 65 16093 2.6 20 19:18 20.06.2019
6103 Clouds 25 1014 65 16093 2.6 20 18:41 20.06.2019
6104 Rain 25 1014 69 16093 2.6 20 18:21 20.06.2019
6105 Rain 25 1014 69 16093 2.6 20 17:48 20.06.2019
6106 Rain 24 1014 69 16093 2.6 20 17:29 20.06.2019
6107 Clouds 24 1014 69 16093 1.5 10 16:47 20.06.2019
6108 Clouds 24 1014 69 16093 1.5 10 16:20 20.06.2019
6109 Clouds 24 1014 74 16093 5.1 80 15:57 20.06.2019
6110 Clouds 25 1014 69 16093 2.6 40 15:38 20.06.2019
6111 Clouds 24 1014 69 16093 2.6 40 15:19 20.06.2019
6112 Clouds 24 1015 65 16093 3.6 50 14:44 20.06.2019
6113 Clouds 24 1015 65 16093 3.6 50 14:22 20.06.2019
6114 Clouds 25 1016 73 16093 2.1 70 13:40 20.06.2019
6115 Clouds 25 1016 73 16093 2.1 70 13:19 20.06.2019
6116 Clouds 25 1016 61 16093 2.6 20 12:46 20.06.2019
6117 Clouds 25 1016 61 16093 2.6 20 12:23 20.06.2019
6118 Clouds 25 1017 61 16093 4.6 50 11:46 20.06.2019
6119 Clouds 25 1017 61 16093 4.6 50 11:27 20.06.2019
6120 Clouds 25 1017 83 16093 2.1 310 10:54 20.06.2019
6121 Clouds 25 1016 61 16093 6.7 60 10:36 20.06.2019
6122 Clouds 25 1016 61 16093 6.7 60 10:18 20.06.2019
6123 Clouds 26 1016 61 16093 5.1 70 09:40 20.06.2019
6124 Clouds 26 1016 61 16093 5.1 70 09:21 20.06.2019
6125 Clouds 26 1015 61 16093 6.2 90 08:45 20.06.2019
6126 Clouds 26 1015 61 16093 6.2 90 08:27 20.06.2019
6127 Clouds 27 1015 58 16093 6.7 50 07:53 20.06.2019
6128 Clouds 27 1015 58 16093 6.7 50 07:28 20.06.2019
6129 Clouds 28 1014 51 16093 7.7 50 06:27 20.06.2019
6130 Clouds 30 1014 45 16093 7.2 60 04:54 20.06.2019
6131 Clouds 30 1015 43 16093 8.7 40 02:29 20.06.2019
6132 Rain 29 1016 46 16093 7.7 40 00:34 20.06.2019
6133 Rain 29 1016 46 16093 7.7 30 23:56 19.06.2019
6134 Rain 30 1016 46 16093 7.7 30 23:37 19.06.2019
6135 Rain 29 1016 46 16093 7.7 30 23:19 19.06.2019
6136 Rain 29 1017 46 16093 7.7 70 22:40 19.06.2019
6137 Rain 28 1016 51 16093 6.7 60 22:18 19.06.2019
6138 Rain 28 1016 51 16093 6.7 60 22:18 19.06.2019
6139 Rain 28 1016 51 16093 6.7 60 21:42 19.06.2019
6140 Rain 28 1016 51 16093 6.7 60 21:23 19.06.2019
6141 Rain 27 1017 58 16093 2.6 0 20:42 19.06.2019
6142 Rain 27 1017 58 16093 2.6 0 20:42 19.06.2019
6143 Rain 27 1017 58 16093 2.6 0 20:22 19.06.2019
6144 Rain 27 1016 69 16093 3.6 80 19:51 19.06.2019
6145 Rain 26 1016 69 16093 3.6 80 19:29 19.06.2019
6146 Clouds 26 1016 65 16093 4.6 50 18:57 19.06.2019
6147 Clouds 26 1016 65 16093 4.6 50 18:28 19.06.2019
6148 Clouds 26 1016 74 16093 2.6 0 17:53 19.06.2019
6149 Clouds 26 1016 74 16093 2.6 0 17:53 19.06.2019
6150 Clouds 26 1016 69 16093 4.6 60 17:33 19.06.2019
6151 Clouds 26 1016 69 16093 5.22 89.627 16:57 19.06.2019
6152 Clouds 25 1016 69 16093 5.22 89.627 16:38 19.06.2019
6153 Clouds 26 1016 69 16093 5.22 89.627 16:20 19.06.2019
6154 Clouds 25 1016 69 16093 3.1 80 15:47 19.06.2019
6155 Clouds 26 1016 69 16093 3.1 80 15:25 19.06.2019
6156 Clouds 26 1016 69 16093 3.6 60 14:50 19.06.2019
6157 Clouds 26 1016 69 16093 3.6 60 14:30 19.06.2019
6158 Clouds 26 1016 74 16093 4.1 90 13:59 19.06.2019
6159 Clouds 26 1016 74 16093 5.1 100 13:38 19.06.2019
6160 Clouds 26 1016 74 16093 3.1 90 13:20 19.06.2019
6161 -273 0 0 0 0 0 12:42 19.06.2019
6162 Clouds 26 1017 65 16093 4.1 50 12:20 19.06.2019
6163 Clouds 26 1017 65 16093 5.7 50 11:43 19.06.2019
6164 Clouds 26 1017 65 16093 5.7 50 11:24 19.06.2019
6165 Clouds 26 1017 61 16093 6.2 50 10:51 19.06.2019
6166 Clouds 26 1017 61 16093 6.2 50 10:32 19.06.2019
6167 Clouds 26 1017 69 16093 2.6 70 09:58 19.06.2019
6168 Clouds 26 1017 61 16093 5.7 60 09:38 19.06.2019
6169 Clouds 26 1016 58 16093 6.7 70 09:19 19.06.2019
6170 Clouds 26 1016 58 16093 6.7 70 08:44 19.06.2019
6171 Clouds 26 1016 58 16093 6.7 70 08:25 19.06.2019
6172 Clouds 27 1015 61 16093 5.7 50 07:44 19.06.2019
6173 Clouds 27 1015 61 16093 5.7 50 07:23 19.06.2019
6174 Clouds 27 1015 58 16093 6.2 70 06:42 19.06.2019
6175 Clouds 27 1015 58 16093 6.2 70 06:20 19.06.2019
6176 Clouds 28 1014 69 16093 6.2 70 05:41 19.06.2019
6177 Clouds 29 1015 54 16093 6.7 110 03:58 19.06.2019
6178 Clouds 29 1016 54 16093 6.2 80 02:52 19.06.2019
6179 Clouds 29 1016 46 16093 6.7 60 01:44 19.06.2019
6180 Clouds 29 1017 54 16093 6.2 70 00:56 19.06.2019
6181 Clouds 29 1017 54 16093 6.2 70 00:56 19.06.2019
6182 Clouds 29 1017 46 16093 8.7 60 00:38 19.06.2019
6183 Clouds 29 1017 49 16093 7.2 60 00:18 19.06.2019
6184 Clouds 29 1017 49 16093 7.2 60 23:43 18.06.2019
6185 Clouds 29 1017 49 16093 7.2 60 23:24 18.06.2019
6186 Clouds 29 1017 48 16093 8.2 50 22:41 18.06.2019
6187 Clouds 29 1017 48 16093 8.2 50 22:23 18.06.2019
6188 Clouds 28 1017 58 16093 5.1 80 21:47 18.06.2019
6189 Clouds 28 1017 58 16093 5.1 80 21:24 18.06.2019
6190 Clouds 27 1017 74 16093 6.7 80 20:59 18.06.2019
6191 Clouds 27 1017 74 16093 6.7 80 20:40 18.06.2019
6192 Clouds 26 1017 74 16093 6.7 80 20:21 18.06.2019
6193 Clouds 25 1016 88 16093 2.6 50 19:40 18.06.2019
6194 Clouds 25 1016 88 16093 2.6 50 19:22 18.06.2019
6195 Clouds 25 1016 83 16093 3.1 70 18:55 18.06.2019
6196 Clouds 24 1016 83 16093 3.1 70 18:25 18.06.2019
6197 Clouds 25 1015 88 16093 2.6 60 17:49 18.06.2019
6198 Clouds 25 1015 88 16093 2.6 60 17:23 18.06.2019
6199 Clouds 25 1015 94 16093 3.1 40 16:58 18.06.2019
6200 Clouds 25 1015 94 16093 3.1 40 16:40 18.06.2019
6201 Clouds 25 1015 94 16093 3.1 40 16:21 18.06.2019
6202 Rain 24 1015 94 16093 2.1 20 15:41 18.06.2019
6203 Rain 24 1015 94 16093 2.1 20 15:22 18.06.2019
6204 Rain 24 1015 74 16093 4.1 90 14:56 18.06.2019
6205 Rain 24 1015 74 16093 4.1 90 14:37 18.06.2019
6206 Clouds 24 1015 74 16093 4.1 90 14:18 18.06.2019
6207 Clouds 25 1016 94 16093 2.1 80 13:46 18.06.2019
6208 Rain 24 1016 94 16093 2.1 80 13:28 18.06.2019
6209 Rain 25 1017 100 16093 5.61 92.872 12:46 18.06.2019
6210 Rain 25 1017 100 16093 5.61 92.872 12:46 18.06.2019
6211 Rain 25 1017 100 16093 5.61 92.872 12:27 18.06.2019
6212 Rain 25 1017 88 16093 3.52 84.168 11:50 18.06.2019
6213 Rain 25 1017 88 16093 3.52 84.168 11:23 18.06.2019
6214 Rain 25 1016 88 16093 2.6 80 10:58 18.06.2019
6215 Rain 25 1016 88 16093 2.6 80 10:39 18.06.2019
6216 Rain 25 1016 88 16093 2.6 80 10:20 18.06.2019
6217 Rain 25 1016 74 16093 3.6 80 09:51 18.06.2019
6218 Rain 25 1016 74 16093 3.6 80 09:24 18.06.2019
6219 Rain 25 1016 83 6437 2.6 20 08:48 18.06.2019
6220 Rain 25 1016 83 6437 2.6 20 08:22 18.06.2019
6221 Rain 26 1016 83 14484 2.37 95.197 07:45 18.06.2019
6222 Rain 26 1016 83 14484 2.37 95.197 07:24 18.06.2019
6223 Rain 27 1014 58 16093 4.6 30 06:45 18.06.2019
6224 Rain 28 1015 94 16093 2.07 75.252 05:24 18.06.2019
6225 Haze 28 1015 83 6437 3.1 120 03:59 18.06.2019
6226 Rain 29 1015 83 8047 1.24 335.667 02:27 18.06.2019
6227 Clouds 30 1015 58 16093 5.1 150 01:25 18.06.2019
6228 Rain 29 1016 62 16093 3.6 80 00:57 18.06.2019
6229 Rain 29 1015 62 16093 4.6 140 00:30 18.06.2019
6230 Rain 29 1015 58 16093 7.7 150 23:42 17.06.2019
6231 Rain 29 1015 58 16093 7.7 150 23:22 17.06.2019
6232 Rain 28 1015 69 16093 5.1 110 22:58 17.06.2019
6233 Rain 28 1015 69 16093 4.6 80 22:38 17.06.2019
6234 Rain 28 1015 69 16093 4.6 80 22:20 17.06.2019
6235 Rain 28 1016 65 16093 4.1 110 21:42 17.06.2019
6236 Rain 28 1016 65 16093 3.1 120 21:22 17.06.2019
6237 Rain 26 1016 74 16093 3.6 70 20:39 17.06.2019
6238 Rain 26 1016 74 16093 3.6 70 20:20 17.06.2019
6239 Rain 26 1015 69 16093 2.6 0 19:54 17.06.2019
6240 Rain 25 1015 78 16093 3.1 10 19:36 17.06.2019
6241 Clouds 25 1014 74 16093 4.1 100 19:18 17.06.2019
6242 Drizzle 24 1014 74 16093 4.1 100 18:38 17.06.2019
6243 Clouds 24 1014 83 16093 1.5 70 18:18 17.06.2019
6244 Clouds 24 1014 83 16093 1.5 70 18:18 17.06.2019
6245 Clouds 23 1014 83 16093 1.5 70 17:47 17.06.2019
6246 Clouds 23 1014 83 16093 1.5 70 17:29 17.06.2019
6247 Clouds 23 1014 83 16093 1.5 70 16:55 17.06.2019
6248 Clouds 24 1015 78 16093 1.17 87.167 16:37 17.06.2019
6249 Clouds 24 1015 78 16093 1.17 87.167 16:19 17.06.2019
6250 -273 0 0 0 0 0 15:43 17.06.2019
6251 Clouds 24 1014 74 16093 4.1 90 15:20 17.06.2019
6252 Clouds 24 1014 74 16093 4.1 90 15:20 17.06.2019
6253 Clouds 24 1014 74 16093 4.1 90 14:55 17.06.2019
6254 Clouds 25 1014 74 16093 4.1 80 14:34 17.06.2019
6255 Clouds 25 1014 74 16093 4.1 90 13:58 17.06.2019
6256 Clouds 25 1015 69 16093 4.1 80 13:39 17.06.2019
6257 Clouds 25 1016 65 16093 3.6 90 13:20 17.06.2019
6258 Clouds 25 1015 69 16093 5.7 90 12:38 17.06.2019
6259 Clouds 25 1016 69 16093 5.1 80 12:18 17.06.2019
6260 Clouds 25 1016 74 16093 5.1 80 11:39 17.06.2019
6261 Clouds 25 1017 78 16093 2.6 130 11:20 17.06.2019
6262 Clouds 25 1017 69 16093 1.5 170 10:46 17.06.2019
6263 Clouds 25 1017 69 16093 1.5 170 10:46 17.06.2019
6264 Clouds 26 1017 69 16093 1.5 170 10:28 17.06.2019
6265 Clouds 26 1016 61 16093 5.7 60 09:56 17.06.2019
6266 Clouds 26 1016 61 16093 5.7 60 09:56 17.06.2019
6267 Clouds 26 1016 61 16093 5.7 60 09:33 17.06.2019
6268 Clouds 26 1015 61 16093 6.2 50 08:48 17.06.2019
6269 Clouds 26 1015 61 16093 6.2 50 08:25 17.06.2019
6270 Clouds 26 1015 61 16093 6.2 50 07:57 17.06.2019
6271 Clouds 26 1015 54 16093 6.2 60 07:32 17.06.2019
6272 Clouds 27 1014 51 16093 8.2 70 06:53 17.06.2019
6273 Clouds 28 1014 51 16093 8.2 70 06:18 17.06.2019
6274 Clouds 28 1014 45 16093 8.2 70 05:20 17.06.2019
6275 Clouds 29 1014 45 16093 8.2 70 04:23 17.06.2019
6276 Clouds 29 1015 54 16093 6.7 60 03:30 17.06.2019
6277 Clouds 29 1015 45 16093 7.2 40 02:43 17.06.2019
6278 Clouds 29 1015 43 16093 7.7 30 02:24 17.06.2019
6279 Clouds 29 1015 43 16093 7.7 30 01:35 17.06.2019
6280 Clouds 29 1016 43 16093 6.7 60 00:48 17.06.2019
6281 Clouds 29 1016 43 16093 6.7 60 00:28 17.06.2019
6282 Clouds 29 1016 43 16093 6.7 60 23:58 16.06.2019
6283 Clouds 29 1016 45 16093 5.1 30 23:39 16.06.2019
6284 Clouds 28 1016 48 16093 5.7 50 23:19 16.06.2019
6285 Clouds 28 1016 48 16093 5.7 50 22:44 16.06.2019
6286 Clouds 28 1016 48 16093 5.7 50 22:20 16.06.2019
6287 Clouds 28 1016 48 16093 5.7 50 22:20 16.06.2019
6288 Clouds 28 1016 48 16093 3.1 0 21:57 16.06.2019
6289 Clouds 28 1016 51 16093 6.7 70 21:39 16.06.2019
6290 Clouds 28 1016 58 16093 5.1 60 21:20 16.06.2019
6291 Clouds 28 1016 58 16093 5.1 60 21:20 16.06.2019
6292 Clouds 27 1016 58 16093 5.1 60 20:39 16.06.2019
6293 Clouds 27 1016 58 16093 5.1 60 20:19 16.06.2019
6294 Clouds 27 1016 58 16093 5.1 60 20:19 16.06.2019
6295 Clouds 26 1016 58 16093 5.1 60 19:58 16.06.2019
6296 Clouds 26 1016 61 16093 5.7 60 19:39 16.06.2019
6297 Clouds 25 1016 61 16093 5.7 60 19:19 16.06.2019
6298 Clouds 24 1015 65 16093 4.1 40 18:41 16.06.2019
6299 Clouds 24 1015 65 16093 4.1 40 18:21 16.06.2019
6300 Rain 24 1015 65 16093 6.2 60 17:49 16.06.2019
6301 Rain 24 1015 65 16093 6.2 60 17:25 16.06.2019
6302 Drizzle 24 1016 83 16093 4.1 70 16:58 16.06.2019
6303 Clouds 25 1015 65 16093 3.6 70 16:40 16.06.2019
6304 Clouds 25 1015 65 16093 4.6 80 16:21 16.06.2019
6305 Clouds 25 1015 65 16093 4.6 80 15:57 16.06.2019
6306 Clouds 25 1015 65 16093 4.6 80 15:38 16.06.2019
6307 Clouds 25 1015 69 16093 3.1 80 15:19 16.06.2019
6308 Clouds 25 1015 69 16093 4.1 90 14:37 16.06.2019
6309 Clouds 25 1016 61 16093 6.2 70 14:19 16.06.2019
6310 Clouds 25 1016 61 16093 6.2 70 13:46 16.06.2019
6311 Clouds 25 1016 61 16093 6.2 70 13:25 16.06.2019
6312 Clouds 25 1017 78 16093 3.96 93.667 12:45 16.06.2019
6313 Clouds 25 1017 61 16093 4.6 70 12:22 16.06.2019
6314 Clouds 26 1017 61 16093 7.2 60 11:56 16.06.2019
6315 Clouds 26 1017 61 16093 7.2 60 11:38 16.06.2019
6316 Clouds 25 1017 61 16093 7.2 70 11:18 16.06.2019
6317 Clouds 25 1017 61 16093 7.2 70 10:44 16.06.2019
6318 Clouds 25 1016 57 16093 3.6 50 10:19 16.06.2019
6319 Clouds 25 1016 57 16093 3.6 50 09:43 16.06.2019
6320 Clouds 25 1016 57 16093 3.6 50 09:23 16.06.2019
6321 Clouds 26 1016 57 16093 4.1 50 08:46 16.06.2019
6322 Clouds 26 1015 58 16093 7.2 60 08:21 16.06.2019
6323 Clouds 27 1015 58 16093 7.2 60 07:45 16.06.2019
6324 Clouds 27 1015 58 16093 7.2 60 07:27 16.06.2019
6325 Clouds 27 1015 58 16093 7.2 60 07:27 16.06.2019
6326 Clouds 28 1015 51 16093 7.7 40 06:52 16.06.2019
6327 Clouds 28 1015 51 16093 7.7 40 05:56 16.06.2019
6328 Clouds 29 1015 48 16093 8.2 40 05:22 16.06.2019
6329 Clouds 29 1015 45 16093 8.7 40 04:21 16.06.2019
6330 Clouds 29 1015 45 16093 8.7 40 03:40 16.06.2019
6331 Clouds 29 1015 45 16093 8.7 40 03:20 16.06.2019
6332 Clouds 30 1016 43 16093 7.2 40 01:48 16.06.2019
6333 Clouds 30 1016 43 16093 7.2 40 01:30 16.06.2019
6334 Clouds 29 1016 40 16093 4.6 20 00:43 16.06.2019
6335 Clouds 29 1016 40 16093 4.6 20 00:25 16.06.2019
6336 Clouds 29 1016 40 16093 4.6 20 23:56 15.06.2019
6337 Clouds 29 1017 40 16093 3.6 60 23:38 15.06.2019
6338 Clouds 29 1017 45 16093 5.7 40 23:19 15.06.2019
6339 Clouds 29 1017 45 16093 5.7 40 22:43 15.06.2019
6340 Clouds 29 1017 45 16093 5.7 40 22:25 15.06.2019
6341 Rain 28 1017 54 16093 4.6 60 21:44 15.06.2019
6342 Rain 27 1017 54 16093 3.6 50 21:21 15.06.2019
6343 Rain 27 1017 54 16093 3.6 50 20:45 15.06.2019
6344 Rain 26 1017 54 16093 3.6 50 20:23 15.06.2019
6345 Clouds 26 1017 61 16093 4.1 40 19:50 15.06.2019
6346 Clouds 25 1017 61 16093 4.1 40 19:28 15.06.2019
6347 Clouds 23 1017 69 16093 3.61 74.762 18:44 15.06.2019
6348 Clouds 23 1017 69 16093 2.13 70.961 18:25 15.06.2019
6349 Clouds 23 1016 65 16093 2.6 70 17:45 15.06.2019
6350 Clouds 24 1016 65 16093 2.6 70 17:27 15.06.2019
6351 Clouds 24 1016 65 16093 2.1 0 16:49 15.06.2019
6352 Clouds 24 1016 65 16093 4.1 80 16:22 15.06.2019
6353 Clouds 24 1016 65 16093 4.1 80 15:56 15.06.2019
6354 Clouds 24 1016 65 16093 4.1 80 15:37 15.06.2019
6355 Clouds 24 1016 65 16093 4.1 80 15:18 15.06.2019
6356 Clouds 25 1017 61 16093 1.5 40 14:37 15.06.2019
6357 Clouds 25 1017 61 16093 1.5 40 14:18 15.06.2019
6358 Clouds 25 1017 65 16093 5.7 80 13:42 15.06.2019
6359 Clouds 25 1017 65 16093 5.7 80 13:20 15.06.2019
6360 Clouds 25 1017 61 16093 5.1 70 12:53 15.06.2019
6361 Clouds 25 1017 61 16093 5.1 70 12:28 15.06.2019
6362 Clouds 25 1017 61 16093 5.1 70 11:59 15.06.2019
6363 Clouds 25 1018 65 16093 3.1 60 11:41 15.06.2019
6364 Clouds 25 1017 57 16093 2.6 40 11:23 15.06.2019
6365 Clouds 25 1017 57 16093 2.6 40 10:41 15.06.2019
6366 Clouds 26 1017 57 16093 4.1 60 10:23 15.06.2019
6367 Clouds 26 1017 57 16093 4.1 60 09:44 15.06.2019
6368 Clouds 26 1017 57 16093 4.1 60 09:25 15.06.2019
6369 Clouds 26 1017 57 16093 3.6 30 08:53 15.06.2019
6370 Clouds 26 1017 57 16093 3.6 30 08:32 15.06.2019
6371 Clouds 27 1016 51 16093 5.7 60 07:50 15.06.2019
6372 Clouds 27 1016 51 16093 5.7 60 07:50 15.06.2019
6373 Clouds 26 1016 51 16093 5.7 60 07:24 15.06.2019
6374 Clouds 28 1016 54 16093 5.1 50 06:41 15.06.2019
6375 Clouds 28 1016 54 16093 5.1 50 06:18 15.06.2019
6376 Clouds 29 1015 48 16093 6.7 50 05:25 15.06.2019
6377 Clouds 29 1015 43 16093 9.3 60 04:44 15.06.2019
6378 Clouds 29 1016 43 16093 7.2 80 03:44 15.06.2019
6379 Clouds 29 1016 43 16093 7.2 80 02:56 15.06.2019
6380 Clouds 30 1016 40 16093 6.7 70 02:23 15.06.2019
6381 Clouds 29 1016 40 16093 8.2 60 01:45 15.06.2019
6382 Clouds 30 1016 40 16093 8.2 60 00:58 15.06.2019
6383 Clouds 30 1017 43 16093 6.2 60 00:39 15.06.2019
6384 Clouds 29 1017 43 16093 6.2 60 23:55 14.06.2019
6385 Clouds 29 1017 57 16093 6.2 70 23:26 14.06.2019
6386 Clouds 29 1017 51 16093 5.7 90 22:46 14.06.2019
6387 Clouds 29 1017 51 16093 5.7 90 22:23 14.06.2019
6388 Clouds 29 1017 51 16093 5.7 90 22:00 14.06.2019
6389 Rain 28 1017 54 16093 4.1 80 21:40 14.06.2019
6390 Drizzle 27 1018 73 14484 3.1 90 21:21 14.06.2019
6391 Clouds 27 1016 58 16093 5.1 70 20:42 14.06.2019
6392 Clouds 26 1016 58 16093 5.1 70 20:18 14.06.2019
6393 Clouds 26 1016 58 16093 5.1 70 19:54 14.06.2019
6394 Clouds 25 1016 65 16093 2.6 60 19:23 14.06.2019
6395 Clouds 25 1016 65 16093 2.6 60 18:58 14.06.2019
6396 Clouds 24 1016 61 16093 3.1 30 18:40 14.06.2019
6397 Clouds 24 1016 61 16093 3.1 30 18:22 14.06.2019
6398 Clouds 24 1015 61 16093 5.1 70 17:47 14.06.2019
6399 Clouds 24 1015 61 16093 5.1 70 17:27 14.06.2019
6400 Clouds 24 1015 65 16093 2.1 40 16:58 14.06.2019
6401 Clouds 24 1015 65 16093 2.1 40 16:39 14.06.2019
6402 Clouds 24 1015 65 16093 2.1 40 16:39 14.06.2019
6403 Clouds 24 1016 61 16093 3.1 70 16:19 14.06.2019
6404 Clouds 24 1016 61 16093 3.1 70 15:40 14.06.2019
6405 Clouds 24 1016 61 16093 3.1 70 15:22 14.06.2019
6406 Clouds 24 1016 61 16093 3.1 70 14:54 14.06.2019
6407 Clouds 24 1016 61 16093 3.1 70 14:33 14.06.2019
6408 Clouds 24 1016 61 16093 5.7 70 13:56 14.06.2019
6409 Clouds 24 1016 61 16093 5.7 70 13:56 14.06.2019
6410 Clouds 24 1016 61 16093 5.7 70 13:56 14.06.2019
6411 Clouds 24 1016 61 16093 5.7 70 13:56 14.06.2019
6412 Clouds 24 1016 61 16093 5.7 70 13:37 14.06.2019
6413 Clouds 24 1016 61 16093 5.7 70 13:19 14.06.2019
6414 Clouds 24 1017 57 16093 5.1 70 12:41 14.06.2019
6415 Clouds 25 1017 57 16093 5.1 70 12:23 14.06.2019
6416 Clouds 25 1017 61 16093 5.7 60 11:47 14.06.2019
6417 Clouds 25 1017 61 16093 5.7 60 11:24 14.06.2019
6418 Clouds 25 1017 57 16093 7.2 80 10:58 14.06.2019
6419 Clouds 25 1017 57 16093 7.2 80 10:39 14.06.2019
6420 Clouds 26 1016 57 16093 6.2 50 10:18 14.06.2019
6421 Clouds 26 1016 57 16093 6.2 50 09:39 14.06.2019
6422 Clouds 26 1016 57 16093 6.2 50 09:39 14.06.2019
6423 Clouds 26 1016 57 16093 6.2 50 09:20 14.06.2019
6424 Clouds 26 1016 57 16093 6.2 50 08:41 14.06.2019
6425 Clouds 26 1015 51 16093 7.2 70 08:18 14.06.2019
6426 Clouds 26 1015 51 16093 7.2 70 07:46 14.06.2019
6427 Clouds 27 1015 51 16093 7.2 70 07:19 14.06.2019
6428 Clouds 28 1015 51 16093 6.2 40 06:27 14.06.2019
6429 Clouds 28 1015 38 16093 6.2 60 05:55 14.06.2019
6430 Clouds 28 1015 38 16093 6.2 60 05:55 14.06.2019
6431 Clouds 29 1015 38 16093 5.7 30 04:57 14.06.2019
6432 Clouds 29 1015 38 16093 5.7 30 04:36 14.06.2019
6433 Clouds 29 1015 38 16093 7.2 70 03:49 14.06.2019
6434 Clouds 29 1015 38 16093 7.2 70 03:24 14.06.2019
6435 Clouds 29 1016 40 16093 5.7 80 02:45 14.06.2019
6436 Clouds 30 1016 40 16093 4.1 50 01:56 14.06.2019
6437 Clouds 30 1017 62 16093 5.1 70 00:46 14.06.2019
6438 Clouds 29 1017 40 16093 5.7 30 00:22 14.06.2019
6439 Clouds 29 1017 43 16093 4.6 20 23:53 13.06.2019
6440 Clouds 29 1017 43 16093 4.6 20 23:27 13.06.2019
6441 Clouds 29 1017 48 16093 4.1 110 22:58 13.06.2019
6442 Clouds 29 1017 48 16093 4.1 110 22:38 13.06.2019
6443 Clouds 28 1017 54 16093 4.1 80 22:19 13.06.2019
6444 Clouds 28 1017 54 16093 4.1 80 21:38 13.06.2019
6445 Clouds 27 1017 58 16093 5.1 70 21:19 13.06.2019
6446 Rain 27 1017 58 16093 5.1 70 20:45 13.06.2019
6447 Rain 26 1017 58 16093 5.1 70 20:21 13.06.2019
6448 Rain 25 1017 58 16093 5.1 70 19:55 13.06.2019
6449 Clouds 25 1017 69 16093 2.6 50 19:36 13.06.2019
6450 Clouds 25 1017 69 16093 2.6 50 19:18 13.06.2019
6451 Clouds 24 1016 78 16093 2.1 10 18:43 13.06.2019
6452 Clouds 24 1016 78 16093 2.1 10 18:25 13.06.2019
6453 -273 0 0 0 0 0 17:57 13.06.2019
6454 Clouds 24 1016 78 16093 2.1 10 17:57 13.06.2019
6455 Clouds 24 1015 73 16093 2.6 30 17:38 13.06.2019
6456 Clouds 24 1015 73 16093 2.6 30 17:19 13.06.2019
6457 Clouds 24 1015 73 16093 2.6 30 16:44 13.06.2019
6458 Clouds 24 1015 65 16093 3.6 70 16:21 13.06.2019
6459 Clouds 24 1015 65 16093 3.6 70 15:43 13.06.2019
6460 Clouds 24 1015 65 16093 3.6 70 15:24 13.06.2019
6461 Clouds 23 1015 65 16093 3.6 70 14:56 13.06.2019
6462 Clouds 24 1015 74 16093 5.1 70 14:31 13.06.2019
6463 Clouds 24 1015 74 16093 5.1 70 14:31 13.06.2019
6464 Clouds 24 1015 74 16093 5.1 70 14:31 13.06.2019
6465 Clouds 24 1016 65 16093 3.6 40 13:59 13.06.2019
6466 Clouds 25 1016 65 16093 3.6 40 13:40 13.06.2019
6467 Clouds 25 1016 65 16093 3.6 40 13:21 13.06.2019
6468 Clouds 25 1017 65 16093 1.5 0 12:42 13.06.2019
6469 Clouds 25 1017 65 16093 1.5 0 12:22 13.06.2019
6470 Clouds 25 1017 65 16093 4.1 60 11:48 13.06.2019
6471 Clouds 25 1017 65 16093 4.1 60 11:30 13.06.2019
6472 Clouds 25 1017 65 16093 4.1 60 10:55 13.06.2019
6473 Clouds 25 1017 65 16093 4.1 60 10:55 13.06.2019
6474 Clouds 25 1017 65 16093 3.1 40 10:37 13.06.2019
6475 Clouds 25 1017 61 16093 2.6 30 10:18 13.06.2019
6476 Clouds 25 1017 61 16093 2.6 30 09:42 13.06.2019
6477 Clouds 25 1017 61 16093 2.6 30 09:22 13.06.2019
6478 Clouds 25 1017 57 16093 4.1 60 08:44 13.06.2019
6479 Clouds 25 1017 57 16093 4.1 60 08:23 13.06.2019
6480 Clouds 25 1017 57 16093 4.1 60 08:23 13.06.2019
6481 Clouds 27 1016 54 16093 3.6 40 07:50 13.06.2019
6482 Clouds 27 1016 54 16093 3.6 40 07:25 13.06.2019
6483 Clouds 27 1015 51 16093 6.2 70 06:45 13.06.2019
6484 Clouds 28 1015 51 16093 6.2 70 06:22 13.06.2019
6485 Clouds 28 1015 51 16093 6.2 70 05:54 13.06.2019
6486 Clouds 29 1015 43 16093 6.7 60 05:36 13.06.2019
6487 Clouds 29 1015 43 16093 6.2 70 04:55 13.06.2019
6488 Clouds 29 1016 40 16093 4.6 50 02:23 13.06.2019
6489 Clouds 29 1017 40 16093 6.2 60 00:47 13.06.2019
6490 Clouds 29 1017 61 16093 4.6 80 23:49 12.06.2019
6491 Clouds 28 1017 61 16093 4.6 80 23:22 12.06.2019
6492 Clouds 29 1017 43 16093 5.1 100 22:43 12.06.2019
6493 Clouds 28 1017 58 16093 3.6 130 22:24 12.06.2019
6494 Clouds 28 1017 58 16093 3.6 130 21:56 12.06.2019
6495 Clouds 27 1017 58 16093 3.6 130 21:36 12.06.2019
6496 Clouds 27 1017 65 16093 3.1 100 21:18 12.06.2019
6497 Clouds 26 1017 65 16093 3.1 100 20:37 12.06.2019
6498 Clouds 26 1017 65 16093 3.1 100 20:37 12.06.2019
6499 Clouds 26 1017 83 16093 2.6 340 20:19 12.06.2019
6500 Clouds 25 1017 83 16093 2.6 340 19:42 12.06.2019
6501 Clouds 25 1017 83 16093 2.6 340 19:23 12.06.2019
6502 Clouds 24 1017 83 16093 1.5 10 18:55 12.06.2019
6503 Clouds 24 1017 83 16093 1.5 10 18:37 12.06.2019
6504 Rain 23 1017 94 14484 2.17 100.101 18:18 12.06.2019
6505 Rain 23 1017 73 16093 4.1 80 17:43 12.06.2019
6506 Rain 23 1017 94 16093 2.17 100.101 17:20 12.06.2019
6507 Rain 23 1017 100 16093 1.5 290 16:42 12.06.2019
6508 Rain 23 1017 94 16093 1.5 360 16:23 12.06.2019
6509 Rain 24 1017 94 16093 1.5 360 15:52 12.06.2019
6510 Rain 23 1017 94 16093 1.5 360 15:32 12.06.2019
6511 Rain 24 1017 65 16093 3.6 60 14:45 12.06.2019
6512 Rain 24 1017 65 16093 3.6 60 14:45 12.06.2019
6513 Haze 24 1017 65 16093 3.6 60 14:26 12.06.2019
6514 Clouds 24 1017 65 16093 2.6 70 13:43 12.06.2019
6515 Clouds 24 1017 65 16093 2.6 70 13:20 12.06.2019
6516 Clouds 24 1017 65 16093 2.6 70 12:58 12.06.2019
6517 Clouds 25 1018 65 16093 4.6 80 12:38 12.06.2019
6518 Clouds 25 1018 65 16093 4.6 80 12:38 12.06.2019
6519 Clouds 24 1018 65 16093 4.6 80 12:19 12.06.2019
6520 Clouds 24 1018 65 16093 4.6 80 12:19 12.06.2019
6521 Clouds 24 1018 65 16093 4.6 80 12:19 12.06.2019
6522 Clouds 24 1018 65 16093 4.1 50 11:46 12.06.2019
6523 Clouds 25 1018 65 16093 4.1 50 11:27 12.06.2019
6524 Clouds 25 1017 61 16093 1.5 350 10:51 12.06.2019
6525 Clouds 25 1017 61 16093 1.5 350 10:29 12.06.2019
6526 Clouds 25 1017 57 16093 2.1 0 09:45 12.06.2019
6527 Clouds 25 1017 57 16093 2.1 0 09:23 12.06.2019
6528 Clouds 25 1016 57 16093 4.1 70 08:56 12.06.2019
6529 Clouds 25 1016 57 16093 4.1 70 08:56 12.06.2019
6530 Clouds 26 1016 57 16093 4.1 70 08:23 12.06.2019
6531 Clouds 26 1016 54 16093 4.1 60 07:46 12.06.2019
6532 Clouds 27 1015 51 16093 7.2 70 06:54 12.06.2019
6533 Clouds 29 1015 48 16093 8.2 50 05:27 12.06.2019
6534 Clouds 28 1015 45 16093 7.2 50 04:54 12.06.2019
6535 Clouds 30 1016 40 16093 7.7 80 01:44 12.06.2019
6536 Clouds 29 1016 54 16093 4.6 60 00:40 12.06.2019
6537 Clouds 29 1017 43 16093 5.1 110 23:48 11.06.2019
6538 Clouds 29 1017 43 16093 5.1 110 23:30 11.06.2019
6539 Clouds 29 1017 43 16093 5.7 100 22:44 11.06.2019
6540 Clouds 29 1017 43 16093 5.7 100 22:21 11.06.2019
6541 Clouds 28 1017 43 16093 5.7 100 21:57 11.06.2019
6542 Clouds 28 1017 51 16093 3.6 90 21:38 11.06.2019
6543 Clouds 28 1017 51 16093 3.6 90 21:20 11.06.2019
6544 Clouds 27 1017 65 16093 3.6 90 20:48 11.06.2019
6545 Clouds 27 1017 65 16093 3.6 90 20:26 11.06.2019
6546 Clouds 26 1017 61 16093 4.6 70 19:55 11.06.2019
6547 -273 0 0 0 0 0 19:34 11.06.2019
6548 Clouds 24 1016 65 16093 4.6 70 18:58 11.06.2019
6549 Clouds 24 1016 65 16093 4.6 70 18:23 11.06.2019
6550 Clouds 24 1016 65 16093 4.6 70 18:23 11.06.2019
6551 Clouds 24 1016 65 16093 4.1 60 17:42 11.06.2019
6552 Clouds 24 1016 65 16093 4.1 60 17:24 11.06.2019
6553 Clouds 24 1016 65 16093 4.1 60 16:59 11.06.2019
6554 Clouds 24 1016 65 16093 4.1 50 16:40 11.06.2019
6555 Clouds 24 1016 65 16093 4.1 50 16:22 11.06.2019
6556 Clouds 24 1016 69 16093 3.6 70 15:42 11.06.2019
6557 Clouds 24 1016 69 16093 3.1 80 15:24 11.06.2019
6558 Clouds 24 1016 69 16093 3.1 80 14:52 11.06.2019
6559 Clouds 25 1017 69 16093 3.6 80 14:23 11.06.2019
6560 Clouds 24 1016 69 16093 3.1 80 14:23 11.06.2019
6561 Clouds 25 1017 69 16093 3.6 80 13:55 11.06.2019
6562 Clouds 25 1017 69 16093 3.6 80 13:36 11.06.2019
6563 Clouds 25 1017 69 16093 3.6 80 13:18 11.06.2019
6564 Clouds 25 1017 65 16093 4.1 50 12:40 11.06.2019
6565 Clouds 25 1017 65 16093 4.1 50 12:20 11.06.2019
6566 Clouds 25 1018 61 16093 4.1 50 11:40 11.06.2019
6567 Clouds 25 1018 61 16093 4.1 50 11:40 11.06.2019
6568 Haze 25 1017 61 16093 5.1 70 11:19 11.06.2019
6569 Haze 25 1017 61 16093 5.1 70 10:46 11.06.2019
6570 Haze 25 1017 61 16093 5.1 70 10:46 11.06.2019
6571 Haze 25 1017 61 16093 5.1 70 10:26 11.06.2019
6572 Haze 25 1017 61 16093 5.1 70 10:26 11.06.2019
6573 Clear 25 1017 61 16093 5.7 60 09:49 11.06.2019
6574 Clear 25 1017 61 16093 5.7 60 09:24 11.06.2019
6575 Clouds 25 1017 61 16093 5.1 60 08:46 11.06.2019
6576 Clouds 26 1017 61 16093 5.1 60 08:28 11.06.2019
6577 Clouds 27 1016 58 16093 6.2 60 07:46 11.06.2019
6578 Clouds 27 1016 58 16093 6.2 60 07:27 11.06.2019
6579 Clouds 28 1016 51 16093 5.7 60 06:50 11.06.2019
6580 Clouds 28 1015 43 16093 5.7 60 04:55 11.06.2019
6581 Clouds 28 1016 65 16093 5.1 60 03:42 11.06.2019
6582 Clouds 29 1016 48 16093 3.1 140 01:40 11.06.2019
6583 Clouds 30 1017 54 16093 3.6 100 00:46 11.06.2019
6584 Rain 28 1017 69 16093 4.1 70 23:48 10.06.2019
6585 Rain 29 1018 61 16093 3.6 40 23:25 10.06.2019
6586 Rain 28 1018 61 16093 3.6 40 22:56 10.06.2019
6587 Rain 28 1018 65 16093 3.6 130 22:37 10.06.2019
6588 Rain 28 1018 65 16093 3.1 120 22:19 10.06.2019
6589 Rain 28 1018 65 16093 3.1 120 21:40 10.06.2019
6590 Clouds 27 1018 69 16093 4.1 100 21:22 10.06.2019
6591 Clouds 26 1018 74 16093 2.1 50 20:46 10.06.2019
6592 Clouds 25 1017 69 16093 3.6 90 20:23 10.06.2019
6593 Clouds 24 1018 88 16093 1.5 350 19:54 10.06.2019
6594 Clouds 24 1018 88 16093 1.5 350 19:28 10.06.2019
6595 Clouds 24 1018 88 16093 1.5 350 18:59 10.06.2019
6596 Clouds 23 1017 88 16093 1.6 85.615 18:41 10.06.2019
6597 Clouds 22 1017 88 16093 1.33 76.392 18:21 10.06.2019
6598 Clouds 23 1017 88 16093 1.33 76.392 17:58 10.06.2019
6599 Clouds 23 1017 88 16093 1.33 76.392 17:37 10.06.2019
6600 Clouds 23 1017 78 16093 2.1 360 17:19 10.06.2019
6601 Clouds 23 1017 78 16093 2.1 360 16:42 10.06.2019
6602 Clouds 23 1017 78 16093 2.6 310 16:23 10.06.2019
6603 Clouds 24 1017 78 16093 2.6 310 15:42 10.06.2019
6604 Clouds 24 1017 78 16093 2.6 310 15:24 10.06.2019
6605 Clouds 23 1017 73 16093 2.1 350 14:49 10.06.2019
6606 Clouds 23 1017 73 16093 2.1 350 14:31 10.06.2019
6607 Clouds 24 1018 73 16093 3.1 340 13:59 10.06.2019
6608 Clouds 24 1018 73 16093 3.1 340 13:59 10.06.2019
6609 Clouds 24 1018 73 16093 3.1 340 13:40 10.06.2019
6610 Clouds 24 1018 73 16093 3.1 340 13:40 10.06.2019
6611 Clouds 24 1018 73 16093 3.1 340 13:20 10.06.2019
6612 Clouds 24 1017 74 16093 1.5 70 12:42 10.06.2019
6613 Clouds 24 1018 65 16093 1.5 10 12:23 10.06.2019
6614 Clouds 24 1017 74 16093 1.61 82.092 11:43 10.06.2019
6615 Clouds 24 1017 74 16093 1.61 82.092 11:23 10.06.2019
6616 Clouds 24 1018 69 16093 3.6 90 10:42 10.06.2019
6617 Clouds 25 1017 61 16093 2.1 0 10:20 10.06.2019
6618 Clouds 25 1017 61 16093 2.1 0 09:57 10.06.2019
6619 Clouds 25 1017 61 16093 2.1 0 09:38 10.06.2019
6620 Clouds 25 1017 61 16093 2.6 30 09:19 10.06.2019
6621 Clouds 25 1017 61 16093 2.6 30 08:43 10.06.2019
6622 Clouds 26 1017 61 16093 2.6 30 08:18 10.06.2019
6623 Clouds 27 1016 58 16093 3.6 10 06:34 10.06.2019
6624 Clouds 28 1015 66 16093 4.6 240 04:27 10.06.2019
6625 Clouds 28 1016 55 16093 6.2 170 01:57 10.06.2019
6626 Clouds 29 1016 51 16093 5.7 160 01:23 10.06.2019
6627 Clouds 29 1017 48 16093 5.1 150 00:54 10.06.2019
6628 Clouds 28 1017 48 16093 5.1 150 23:59 09.06.2019
6629 Clouds 28 1016 65 16093 4.1 60 23:40 09.06.2019
6630 Clouds 28 1017 65 16093 3.6 170 23:18 09.06.2019
6631 Clouds 28 1017 65 16093 3.6 170 22:42 09.06.2019
6632 Clouds 28 1018 65 16093 1.73 85.599 22:24 09.06.2019
6633 Clouds 27 1018 65 16093 1.73 85.599 21:41 09.06.2019
6634 Clouds 27 1017 74 16093 2.1 330 21:22 09.06.2019
6635 Clouds 27 1017 74 16093 2.1 330 20:42 09.06.2019
6636 Clouds 26 1017 74 16093 2.1 330 20:22 09.06.2019
6637 Clouds 25 1017 78 16093 2.1 10 19:46 09.06.2019
6638 Clouds 25 1017 78 16093 2.1 10 19:46 09.06.2019
6639 Clouds 24 1017 78 16093 2.1 10 19:19 09.06.2019
6640 Clouds 23 1017 78 16093 2.1 10 18:56 09.06.2019
6641 Clouds 23 1016 78 16093 2.1 330 18:37 09.06.2019
6642 Clouds 23 1016 78 16093 2.1 330 18:19 09.06.2019
6643 Clouds 22 1016 78 16093 2.1 360 17:43 09.06.2019
6644 Clouds 22 1016 73 16093 1.5 330 17:23 09.06.2019
6645 Clouds 23 1016 73 16093 1.5 330 16:41 09.06.2019
6646 Clouds 23 1015 73 16093 2.1 330 16:21 09.06.2019
6647 Clouds 23 1015 73 16093 2.1 330 16:21 09.06.2019
6648 Clouds 23 1015 73 16093 2.1 330 15:51 09.06.2019
6649 Clouds 23 1015 73 16093 2.1 330 15:30 09.06.2019
6650 Clouds 24 1016 69 16093 2.1 310 14:59 09.06.2019
6651 Clouds 24 1016 69 16093 2.1 310 14:41 09.06.2019
6652 Clouds 24 1015 69 16093 2.1 100 14:20 09.06.2019
6653 Clear 24 1016 69 16093 2.6 60 13:48 09.06.2019
6654 Clear 24 1016 69 16093 2.6 60 13:18 09.06.2019
6655 Clouds 24 1017 65 16093 3.1 90 12:38 09.06.2019
6656 Clouds 24 1017 65 16093 3.1 90 12:20 09.06.2019
6657 Clouds 24 1017 65 16093 4.1 70 11:39 09.06.2019
6658 Clouds 25 1017 61 16093 2.1 80 11:19 09.06.2019
6659 Clouds 25 1017 61 16093 2.1 80 10:43 09.06.2019
6660 Clouds 25 1016 61 16093 4.6 80 10:22 09.06.2019
6661 Clouds 25 1016 61 16093 4.6 80 09:40 09.06.2019
6662 Clouds 26 1016 61 16093 3.6 60 09:21 09.06.2019
6663 Clouds 26 1016 61 16093 3.6 60 08:46 09.06.2019
6664 Clouds 26 1016 61 16093 3.6 60 08:27 09.06.2019
6665 Clouds 27 1015 51 16093 5.1 40 06:55 09.06.2019
6666 Clouds 28 1015 51 16093 5.1 40 06:30 09.06.2019
6667 Clouds 29 1014 40 16093 6.2 60 03:26 09.06.2019
6668 Rain 30 1015 38 16093 6.7 40 01:38 09.06.2019
6669 Rain 30 1015 38 16093 6.7 40 01:19 09.06.2019
6670 Rain 30 1015 33 16093 4.6 80 00:45 09.06.2019
6671 Rain 29 1016 48 16093 4.6 30 23:43 08.06.2019
6672 Rain 28 1016 48 16093 4.6 30 23:24 08.06.2019
6673 Rain 28 1016 48 16093 5.1 60 22:56 08.06.2019
6674 Rain 28 1016 48 16093 5.1 60 22:38 08.06.2019
6675 Rain 28 1016 51 16093 6.2 70 22:19 08.06.2019
6676 Rain 27 1016 51 16093 6.2 70 21:49 08.06.2019
6677 Rain 27 1016 51 16093 6.2 70 21:25 08.06.2019
6678 Rain 26 1016 61 16093